# Wetter Temperatur Luftdruck Luftfeuchtigkeit Sichtweite Windgeschwindigkeit Windrichtung Zeit
1 Clouds 26 1006 69 10000 1.5 350 08:38 14.07.2020
2 Clouds 25 1006 73 10000 2.6 10 08:20 14.07.2020
3 Clouds 25 1006 78 10000 3.1 30 07:44 14.07.2020
4 Clouds 25 1006 83 10000 3.1 30 07:19 14.07.2020
5 Clouds 24 1006 83 10000 3.1 30 06:57 14.07.2020
6 Clouds 23 1006 83 10000 1.5 80 06:26 14.07.2020
7 Clouds 24 1006 78 10000 1.5 40 05:50 14.07.2020
8 Clear 24 1006 78 10000 1.5 20 04:51 14.07.2020
9 Clear 24 1005 78 10000 1.5 10 04:33 14.07.2020
10 Clear 24 1005 78 10000 2.6 360 03:29 14.07.2020
11 Clear 25 1005 73 10000 3.6 360 02:27 14.07.2020
12 Clear 25 1005 78 10000 4.1 360 01:41 14.07.2020
13 Clear 25 1006 78 10000 4.1 350 01:22 14.07.2020
14 Clear 26 1006 74 10000 4.1 350 00:42 14.07.2020
15 Clear 26 1006 74 10000 4.1 360 00:22 14.07.2020
16 Clear 27 1006 65 10000 5.1 360 23:39 13.07.2020
17 Clear 27 1005 65 10000 4.6 340 23:19 13.07.2020
18 Clear 27 1005 65 10000 4.6 340 22:57 13.07.2020
19 Clear 28 1005 61 10000 4.6 340 22:39 13.07.2020
20 Clear 28 1005 54 10000 5.1 350 22:19 13.07.2020
21 Clear 29 1005 51 10000 5.1 340 21:54 13.07.2020
22 Clear 29 1005 51 10000 5.1 340 21:36 13.07.2020
23 Clear 29 1005 48 10000 5.7 340 21:18 13.07.2020
24 Clear 29 1005 48 10000 5.7 340 21:18 13.07.2020
25 Clear 30 1004 45 10000 6.2 340 20:54 13.07.2020
26 Clear 30 1005 48 10000 5.7 340 20:54 13.07.2020
27 Clear 30 1004 45 10000 6.2 340 20:36 13.07.2020
28 Clear 30 1004 43 10000 5.7 340 20:18 13.07.2020
29 Clear 32 1004 40 10000 5.7 350 19:42 13.07.2020
30 Clear 32 1004 38 10000 5.1 330 19:23 13.07.2020
31 Clear 32 1004 38 10000 5.1 330 18:57 13.07.2020
32 Clear 33 1003 38 10000 5.7 330 18:38 13.07.2020
33 Clear 34 1003 34 10000 3.6 320 18:19 13.07.2020
34 Clear 34 1003 34 10000 3.6 320 17:55 13.07.2020
35 Clear 34 1003 34 10000 3.6 320 17:37 13.07.2020
36 Clear 34 1003 36 10000 3.6 320 17:18 13.07.2020
37 Clear 34 1003 36 10000 3.6 320 16:42 13.07.2020
38 Clear 33 1003 38 10000 3.1 340 16:21 13.07.2020
39 Clear 33 1003 38 10000 3.1 340 15:58 13.07.2020
40 Clear 33 1003 38 10000 3.1 340 15:39 13.07.2020
41 Clear 33 1004 38 10000 3.6 300 15:20 13.07.2020
42 Clear 33 1004 38 10000 3.6 300 14:57 13.07.2020
43 Clear 33 1004 38 10000 3.6 300 14:39 13.07.2020
44 Clear 32 1004 43 10000 3.6 340 14:20 13.07.2020
45 Clear 32 1004 43 10000 3.6 340 13:55 13.07.2020
46 Clear 32 1004 43 10000 3.6 340 13:37 13.07.2020
47 Clouds 31 1005 48 10000 2.6 310 13:18 13.07.2020
48 Clouds 31 1005 48 10000 2.6 310 12:42 13.07.2020
49 Clouds 30 1005 54 10000 3.1 340 12:22 13.07.2020
50 Clouds 29 1005 54 10000 3.1 340 11:54 13.07.2020
51 Clouds 29 1005 54 10000 3.1 340 11:36 13.07.2020
52 Clouds 28 1005 58 10000 2.1 320 11:18 13.07.2020
53 Clouds 28 1005 58 10000 2.1 320 10:38 13.07.2020
54 Clouds 27 1006 65 10000 2.1 320 10:19 13.07.2020
55 Clouds 27 1006 65 10000 2.1 320 09:42 13.07.2020
56 Clouds 27 1006 65 10000 2.1 320 09:23 13.07.2020
57 Clouds 25 1006 69 10000 3.6 310 08:51 13.07.2020
58 Clouds 25 1006 69 10000 3.6 310 08:33 13.07.2020
59 Clouds 24 1006 73 6000 4.1 330 07:37 13.07.2020
60 Clouds 24 1006 73 6000 3.1 320 06:56 13.07.2020
61 Clouds 24 1006 73 6000 3.1 320 06:38 13.07.2020
62 Clouds 23 1006 78 6000 3.6 320 06:20 13.07.2020
63 Clouds 23 1006 78 6000 3.6 320 06:20 13.07.2020
64 Clouds 24 1006 83 6000 2.6 320 04:37 13.07.2020
65 Clouds 25 1006 78 6000 3.6 350 01:57 13.07.2020
66 Clouds 25 1006 78 6000 3.6 350 01:28 13.07.2020
67 Clear 25 1006 78 10000 4.6 340 00:58 13.07.2020
68 Clear 26 1007 74 10000 5.1 350 00:26 13.07.2020
69 Clear 26 1007 69 10000 5.7 360 23:58 12.07.2020
70 Clear 26 1007 69 10000 5.7 360 23:39 12.07.2020
71 Clear 26 1007 69 10000 5.7 350 23:21 12.07.2020
72 Clear 27 1007 65 10000 5.1 330 22:39 12.07.2020
73 Clear 27 1007 65 10000 5.1 330 22:21 12.07.2020
74 Clear 28 1007 61 10000 5.1 340 21:59 12.07.2020
75 Clear 28 1007 58 10000 5.7 350 21:40 12.07.2020
76 Clear 28 1007 54 10000 5.1 340 21:20 12.07.2020
77 Clear 29 1007 54 10000 5.1 340 20:58 12.07.2020
78 Clear 29 1007 54 10000 5.1 340 20:58 12.07.2020
79 Clear 29 1006 54 10000 5.7 330 20:40 12.07.2020
80 Clear 29 1006 51 10000 5.1 320 20:20 12.07.2020
81 Clear 30 1006 51 10000 5.1 320 19:55 12.07.2020
82 Clear 30 1006 48 10000 5.7 320 19:37 12.07.2020
83 Clear 31 1006 48 10000 5.1 330 19:18 12.07.2020
84 Clear 32 1006 46 10000 5.7 330 18:42 12.07.2020
85 Clear 33 1006 43 10000 5.1 310 18:20 12.07.2020
86 Clear 33 1006 43 10000 5.1 310 17:58 12.07.2020
87 Clear 33 1006 43 10000 5.1 310 17:37 12.07.2020
88 Clear 33 1006 41 10000 5.1 330 17:19 12.07.2020
89 Clear 34 1006 36 10000 4.6 320 16:45 12.07.2020
90 Clear 33 1006 38 10000 4.1 340 16:21 12.07.2020
91 Clear 33 1006 41 10000 4.1 300 15:45 12.07.2020
92 Clear 33 1006 41 10000 4.1 300 15:26 12.07.2020
93 Clear 33 1006 41 10000 5.1 330 14:57 12.07.2020
94 Clear 33 1007 41 10000 4.6 340 14:38 12.07.2020
95 Clear 32 1007 46 10000 4.1 310 14:18 12.07.2020
96 Clouds 32 1007 43 6000 3.6 320 13:39 12.07.2020
97 Haze 32 1007 43 4000 4.1 320 13:20 12.07.2020
98 Haze 31 1008 45 4000 4.1 290 12:54 12.07.2020
99 Haze 31 1008 45 4000 4.1 290 12:36 12.07.2020
100 Haze 30 1008 51 4000 4.1 310 12:18 12.07.2020
101 Haze 30 1008 51 4000 4.1 310 12:18 12.07.2020
102 Haze 30 1008 51 4000 4.1 310 12:18 12.07.2020
103 Haze 30 1008 54 4000 4.6 310 11:44 12.07.2020
104 Haze 29 1008 54 4000 3.6 310 11:20 12.07.2020
105 Haze 28 1008 58 4000 2.6 310 10:42 12.07.2020
106 Haze 28 1008 58 4000 2.6 310 10:23 12.07.2020
107 Haze 27 1008 65 4000 3.1 320 09:58 12.07.2020
108 Haze 27 1008 65 4000 3.1 320 09:39 12.07.2020
109 Haze 26 1008 69 4000 3.1 290 09:19 12.07.2020
110 Mist 25 1008 73 4000 2.6 340 08:43 12.07.2020
111 Mist 25 1008 73 4000 3.1 320 08:23 12.07.2020
112 Mist 25 1008 73 4000 3.1 320 07:58 12.07.2020
113 Mist 25 1008 73 4000 3.1 320 07:40 12.07.2020
114 Mist 24 1008 78 4000 3.6 310 07:21 12.07.2020
115 Mist 24 1008 78 4000 3.6 310 06:49 12.07.2020
116 Mist 24 1007 83 4000 2.6 340 06:21 12.07.2020
117 Mist 24 1007 83 4000 3.6 340 05:33 12.07.2020
118 Mist 24 1007 88 4000 3.6 340 04:55 12.07.2020
119 Mist 24 1007 88 4000 3.1 350 04:25 12.07.2020
120 Clouds 25 1007 83 6000 3.6 350 03:34 12.07.2020
121 Clear 25 1008 83 10000 3.6 350 02:52 12.07.2020
122 Clear 26 1008 74 10000 4.1 350 01:44 12.07.2020
123 Clear 27 1009 65 10000 4.1 360 00:52 12.07.2020
124 Clear 27 1009 65 10000 4.1 360 00:23 12.07.2020
125 Clear 28 1009 61 10000 4.1 20 23:57 11.07.2020
126 Clear 28 1009 58 10000 4.6 30 23:39 11.07.2020
127 Clear 29 1009 48 10000 4.1 350 23:20 11.07.2020
128 Clear 29 1009 48 10000 4.1 350 22:55 11.07.2020
129 Clear 29 1009 51 10000 5.1 360 22:37 11.07.2020
130 Clear 29 1009 58 10000 4.6 350 22:18 11.07.2020
131 Clear 30 1009 55 10000 6.2 360 21:41 11.07.2020
132 Clear 30 1009 55 10000 6.2 360 21:23 11.07.2020
133 Clear 30 1009 55 10000 5.7 360 20:58 11.07.2020
134 Clear 30 1009 45 10000 5.7 350 20:39 11.07.2020
135 Clear 30 1009 45 10000 5.7 350 20:39 11.07.2020
136 Clear 31 1009 45 10000 5.7 350 20:20 11.07.2020
137 Clear 32 1008 43 10000 6.2 340 19:58 11.07.2020
138 Clear 32 1008 36 10000 5.7 330 19:40 11.07.2020
139 Clear 33 1008 36 10000 5.7 330 19:21 11.07.2020
140 Clear 33 1008 36 10000 5.7 330 18:56 11.07.2020
141 Clear 33 1008 32 10000 5.7 330 18:37 11.07.2020
142 Clear 34 1008 32 10000 5.1 300 18:19 11.07.2020
143 Clear 34 1008 36 10000 5.7 320 17:43 11.07.2020
144 Clear 34 1008 36 10000 5.7 320 17:22 11.07.2020
145 Clear 35 1008 28 10000 5.7 330 16:59 11.07.2020
146 Clear 35 1008 30 10000 6.2 340 16:39 11.07.2020
147 Clear 35 1008 30 10000 6.2 340 16:20 11.07.2020
148 Clear 35 1008 32 10000 5.1 300 15:57 11.07.2020
149 Clear 35 1009 30 10000 5.7 310 15:37 11.07.2020
150 Clear 35 1009 30 10000 7.2 320 15:19 11.07.2020
151 Clear 35 1009 30 10000 6.2 310 14:47 11.07.2020
152 Clear 35 1009 30 10000 6.2 310 14:24 11.07.2020
153 Clouds 34 1009 28 10000 7.2 320 13:58 11.07.2020
154 Clouds 34 1009 30 10000 7.2 330 13:40 11.07.2020
155 Clouds 33 1010 41 10000 5.7 310 13:21 11.07.2020
156 Clouds 33 1010 38 10000 5.1 320 12:45 11.07.2020
157 Clouds 32 1010 52 10000 3.1 330 12:24 11.07.2020
158 Clouds 31 1010 52 10000 3.1 330 11:59 11.07.2020
159 Clouds 31 1010 52 10000 3.1 330 11:41 11.07.2020
160 Clouds 30 1010 55 10000 3.1 320 11:20 11.07.2020
161 Clouds 30 1010 55 10000 3.1 320 10:56 11.07.2020
162 Clouds 30 1010 62 10000 3.1 320 10:38 11.07.2020
163 Clouds 28 1010 65 10000 2.1 340 10:19 11.07.2020
164 Clouds 28 1010 65 10000 2.1 340 09:39 11.07.2020
165 Clouds 27 1010 74 10000 2.1 340 09:20 11.07.2020
166 Clouds 26 1010 74 10000 2.6 20 08:46 11.07.2020
167 Clouds 26 1010 74 10000 2.6 20 08:28 11.07.2020
168 Clouds 26 1010 74 10000 2.6 360 07:56 11.07.2020
169 Clouds 26 1010 74 10000 2.6 360 07:36 11.07.2020
170 Clouds 25 1010 73 10000 4.6 360 07:18 11.07.2020
171 Clouds 25 1010 73 10000 4.6 360 06:27 11.07.2020
172 Clouds 24 1010 78 10000 4.1 350 05:54 11.07.2020
173 Clear 24 1010 83 10000 4.1 350 05:19 11.07.2020
174 Clear 25 1010 78 10000 4.1 360 04:50 11.07.2020
175 Clear 25 1009 78 10000 3.1 340 04:20 11.07.2020
176 Clear 25 1009 78 10000 3.1 340 04:20 11.07.2020
177 Clear 25 1009 78 10000 3.6 330 02:55 11.07.2020
178 Clear 25 1010 78 10000 3.6 360 02:35 11.07.2020
179 Clear 26 1010 74 10000 4.1 340 01:27 11.07.2020
180 Clear 26 1010 74 10000 4.6 320 00:58 11.07.2020
181 Clear 27 1010 65 10000 4.6 320 00:38 11.07.2020
182 Clear 27 1010 65 10000 4.1 340 00:19 11.07.2020
183 Clear 27 1010 65 10000 4.6 330 23:46 10.07.2020
184 Clear 27 1010 65 10000 4.6 330 23:27 10.07.2020
185 Clouds 28 1010 65 10000 5.7 350 22:59 10.07.2020
186 Clouds 28 1010 65 10000 5.7 350 22:41 10.07.2020
187 Clouds 28 1010 65 10000 6.2 360 22:19 10.07.2020
188 Clouds 29 1010 58 10000 5.7 340 21:40 10.07.2020
189 Clouds 29 1010 58 10000 5.7 340 21:21 10.07.2020
190 Clouds 29 1009 66 10000 6.2 350 20:59 10.07.2020
191 Clouds 30 1008 62 10000 6.7 350 20:40 10.07.2020
192 Clouds 30 1008 62 10000 6.7 350 20:21 10.07.2020
193 Clouds 31 1008 58 10000 7.2 340 19:57 10.07.2020
194 Clouds 31 1008 49 10000 6.7 340 19:39 10.07.2020
195 Clouds 32 1008 38 10000 6.2 330 19:19 10.07.2020
196 Clouds 33 1008 38 10000 6.2 330 18:41 10.07.2020
197 Clouds 33 1007 41 10000 5.1 330 18:20 10.07.2020
198 Clouds 33 1007 41 10000 5.1 330 17:57 10.07.2020
199 Clouds 33 1007 41 10000 5.1 330 17:57 10.07.2020
200 Clouds 33 1007 41 10000 5.1 330 17:38 10.07.2020
201 Clouds 33 1007 41 6000 6.2 350 17:20 10.07.2020
202 Clouds 33 1007 41 6000 6.2 350 16:42 10.07.2020
203 Clouds 33 1007 34 6000 5.7 340 16:20 10.07.2020
204 Clouds 34 1007 34 6000 5.7 340 15:47 10.07.2020
205 Clouds 34 1007 34 6000 5.7 340 15:26 10.07.2020
206 Clouds 33 1007 38 6000 4.6 320 14:56 10.07.2020
207 Clouds 33 1007 38 6000 4.6 320 14:38 10.07.2020
208 Clouds 32 1008 43 6000 3.6 340 14:20 10.07.2020
209 Clouds 32 1008 43 6000 3.6 340 13:57 10.07.2020
210 Clouds 32 1008 43 6000 3.6 340 13:38 10.07.2020
211 Clouds 31 1009 45 6000 4.1 310 13:20 10.07.2020
212 Clouds 31 1009 45 6000 4.1 310 12:55 10.07.2020
213 Clouds 31 1009 45 6000 4.1 310 12:37 10.07.2020
214 Clouds 31 1009 48 6000 2.6 320 12:18 10.07.2020
215 Clouds 31 1009 48 6000 2.1 310 11:39 10.07.2020
216 Clouds 31 1009 48 6000 2.1 310 11:19 10.07.2020
217 Clouds 30 1009 58 6000 4.1 310 10:56 10.07.2020
218 Clouds 30 1009 58 6000 4.1 310 10:38 10.07.2020
219 Clouds 29 1009 58 6000 3.6 300 10:18 10.07.2020
220 Clouds 28 1009 65 6000 3.6 300 09:40 10.07.2020
221 Clouds 28 1009 65 6000 2.6 310 09:22 10.07.2020
222 Clouds 28 1009 65 6000 2.6 310 08:58 10.07.2020
223 Clouds 27 1009 74 6000 1.5 10 08:40 10.07.2020
224 Mist 26 1009 83 4000 1.5 30 08:22 10.07.2020
225 Mist 25 1009 83 4000 2.1 350 07:44 10.07.2020
226 Mist 25 1009 83 4000 2.1 350 07:23 10.07.2020
227 Mist 25 1008 83 4000 2.6 340 06:52 10.07.2020
228 Mist 25 1008 83 4000 2.6 340 06:52 10.07.2020
229 Mist 25 1008 83 4000 2.6 340 06:32 10.07.2020
230 Clouds 25 1008 78 10000 4.1 340 05:20 10.07.2020
231 Clouds 26 1008 74 10000 4.1 40 03:43 10.07.2020
232 Clouds 26 1008 74 10000 5.1 50 02:53 10.07.2020
233 Clouds 26 1008 74 10000 4.6 30 01:57 10.07.2020
234 Clouds 27 1008 69 10000 4.6 40 00:54 10.07.2020
235 Clouds 27 1008 74 10000 4.6 350 00:22 10.07.2020
236 Clear 27 1008 69 10000 5.1 350 23:55 09.07.2020
237 Clear 27 1008 69 10000 5.1 350 23:37 09.07.2020
238 Clear 28 1008 69 10000 5.1 340 23:18 09.07.2020
239 Clear 28 1008 69 10000 5.1 340 22:56 09.07.2020
240 Clear 28 1008 65 10000 5.7 320 22:38 09.07.2020
241 Clear 28 1008 65 10000 5.7 310 22:19 09.07.2020
242 Clear 29 1008 54 10000 4.1 340 21:39 09.07.2020
243 Clear 29 1008 51 10000 4.6 350 21:20 09.07.2020
244 Clear 30 1008 51 10000 4.6 350 20:59 09.07.2020
245 Clear 30 1007 48 10000 5.1 340 20:40 09.07.2020
246 Clouds 30 1007 45 10000 3.6 330 20:22 09.07.2020
247 Clouds 31 1007 43 10000 3.1 330 19:43 09.07.2020
248 Clouds 31 1007 43 10000 3.1 330 19:22 09.07.2020
249 Clouds 31 1007 43 10000 2.6 320 18:57 09.07.2020
250 Clouds 32 1007 40 10000 3.1 320 18:39 09.07.2020
251 Clouds 32 1007 38 10000 4.1 310 18:19 09.07.2020
252 Clouds 32 1007 36 10000 4.6 330 17:43 09.07.2020
253 Clouds 33 1007 36 10000 4.6 330 17:23 09.07.2020
254 Clouds 32 1007 38 10000 3.6 330 16:56 09.07.2020
255 Clouds 32 1007 38 10000 4.6 320 16:38 09.07.2020
256 Clouds 32 1008 35 10000 5.1 280 16:19 09.07.2020
257 Clouds 32 1008 35 10000 5.1 280 15:58 09.07.2020
258 Clouds 32 1008 35 10000 4.1 330 15:38 09.07.2020
259 Clouds 32 1008 38 10000 4.6 330 15:18 09.07.2020
260 Clouds 32 1008 38 10000 4.6 330 14:58 09.07.2020
261 Clouds 32 1008 40 10000 5.7 290 14:39 09.07.2020
262 Clouds 32 1008 40 10000 5.1 320 14:20 09.07.2020
263 Clouds 32 1008 40 10000 5.1 320 13:56 09.07.2020
264 Clouds 31 1008 43 10000 5.7 310 13:38 09.07.2020
265 Clouds 31 1009 43 10000 3.6 290 13:19 09.07.2020
266 Clouds 31 1009 45 10000 3.6 320 12:42 09.07.2020
267 Clouds 31 1009 45 10000 3.6 320 12:23 09.07.2020
268 Clouds 30 1009 42 10000 2.6 310 11:57 09.07.2020
269 Clouds 30 1009 42 10000 2.6 310 11:39 09.07.2020
270 Clouds 30 1009 54 10000 2.1 330 11:19 09.07.2020
271 Clouds 29 1009 54 10000 2.1 330 10:56 09.07.2020
272 Clouds 29 1009 54 10000 2.1 330 10:38 09.07.2020
273 Clouds 28 1009 58 10000 2.1 320 10:19 09.07.2020
274 Clouds 28 1009 58 10000 2.1 320 09:43 09.07.2020
275 Clouds 28 1009 58 10000 2.1 320 09:23 09.07.2020
276 Clouds 27 1009 65 10000 2.1 340 08:52 09.07.2020
277 Clouds 27 1009 65 10000 2.1 340 08:27 09.07.2020
278 Clouds 26 1009 69 10000 2.6 50 07:56 09.07.2020
279 Clouds 25 1009 73 10000 2.6 50 07:38 09.07.2020
280 Clouds 25 1009 78 10000 3.6 360 07:20 09.07.2020
281 Clouds 24 1009 78 10000 3.6 350 06:21 09.07.2020
282 Clouds 24 1009 78 10000 3.6 350 05:53 09.07.2020
283 Clear 25 1009 73 10000 2.6 40 04:29 09.07.2020
284 Clear 25 1009 73 10000 3.6 50 03:22 09.07.2020
285 Clear 25 1009 73 10000 4.1 350 01:56 09.07.2020
286 Clear 26 1010 69 10000 4.1 350 01:19 09.07.2020
287 Clear 26 1010 69 10000 4.1 350 00:41 09.07.2020
288 Clouds 26 1010 65 10000 6.2 360 00:22 09.07.2020
289 Clouds 26 1010 61 10000 6.2 360 23:43 08.07.2020
290 Clouds 27 1010 65 10000 6.2 360 23:25 08.07.2020
291 Clouds 27 1010 65 10000 6.2 360 22:56 08.07.2020
292 Clouds 27 1010 65 10000 6.2 360 22:38 08.07.2020
293 Clouds 27 1010 65 10000 6.2 360 22:38 08.07.2020
294 Clouds 27 1010 65 10000 6.2 360 22:20 08.07.2020
295 Clouds 28 1010 61 10000 6.2 360 21:56 08.07.2020
296 Clouds 28 1010 61 10000 6.2 360 21:36 08.07.2020
297 Clouds 28 1009 58 10000 6.2 360 21:18 08.07.2020
298 Clouds 29 1009 55 10000 6.2 360 20:41 08.07.2020
299 Clouds 30 1009 55 10000 6.2 360 20:23 08.07.2020
300 Clouds 30 1008 51 10000 7.2 340 19:57 08.07.2020
301 Clouds 30 1008 51 10000 7.2 340 19:38 08.07.2020
302 Clouds 31 1008 43 10000 5.7 320 19:20 08.07.2020
303 Clouds 32 1008 43 10000 5.7 320 18:42 08.07.2020
304 Clouds 32 1008 38 10000 4.1 330 18:21 08.07.2020
305 Clouds 33 1008 38 10000 4.1 330 17:58 08.07.2020
306 Clouds 33 1008 38 10000 4.1 330 17:39 08.07.2020
307 Clouds 33 1008 36 10000 5.1 320 17:21 08.07.2020
308 Clouds 34 1008 36 10000 5.1 320 16:58 08.07.2020
309 Clouds 34 1008 36 10000 5.1 320 16:38 08.07.2020
310 Clouds 34 1008 36 10000 5.1 320 16:38 08.07.2020
311 Clouds 34 1008 34 10000 3.1 300 16:19 08.07.2020
312 Clouds 34 1008 34 10000 3.1 300 15:58 08.07.2020
313 Clouds 34 1008 34 10000 3.1 300 15:38 08.07.2020
314 Clouds 34 1008 34 10000 3.1 360 15:19 08.07.2020
315 Clouds 34 1008 34 10000 3.1 360 14:44 08.07.2020
316 Clouds 34 1008 34 10000 3.1 360 14:25 08.07.2020
317 Clouds 34 1009 32 10000 3.6 360 13:58 08.07.2020
318 Clouds 34 1009 32 10000 3.6 360 13:40 08.07.2020
319 Clouds 34 1009 32 10000 3.6 360 13:40 08.07.2020
320 Clouds 34 1009 32 10000 4.1 300 13:18 08.07.2020
321 Clear 34 1009 32 10000 4.1 300 12:41 08.07.2020
322 Clear 33 1009 33 10000 4.6 320 12:20 08.07.2020
323 Clear 33 1009 33 10000 4.6 320 11:56 08.07.2020
324 Clear 32 1008 38 10000 4.6 350 11:38 08.07.2020
325 Clear 32 1008 40 10000 3.1 330 11:19 08.07.2020
326 Clear 32 1008 38 10000 3.1 350 10:43 08.07.2020
327 Clear 32 1008 38 10000 3.1 350 10:24 08.07.2020
328 Clear 30 1008 51 10000 2.1 360 09:46 08.07.2020
329 Clear 30 1008 51 10000 2.1 360 09:25 08.07.2020
330 Clear 29 1008 54 10000 2.6 20 08:57 08.07.2020
331 Clear 28 1008 61 10000 2.6 20 08:38 08.07.2020
332 Clear 27 1008 69 10000 2.6 20 08:19 08.07.2020
333 Clear 26 1008 74 10000 2.6 20 07:43 08.07.2020
334 Clear 26 1007 74 10000 3.1 30 07:22 08.07.2020
335 Clear 26 1007 69 10000 2.6 30 06:46 08.07.2020
336 Clear 26 1007 69 10000 2.6 30 06:27 08.07.2020
337 Clear 25 1007 73 10000 3.6 50 05:48 08.07.2020
338 Clear 25 1007 83 10000 4.1 50 04:50 08.07.2020
339 Clear 25 1007 83 10000 4.1 20 04:19 08.07.2020
340 Clear 25 1007 74 10000 5.1 40 02:19 08.07.2020
341 Clear 26 1007 74 10000 5.1 30 01:38 08.07.2020
342 Clear 26 1007 74 10000 5.7 50 00:51 08.07.2020
343 Clear 26 1008 65 10000 5.7 40 00:20 08.07.2020
344 Clear 27 1008 58 10000 6.2 30 23:44 07.07.2020
345 Clear 28 1008 58 10000 6.2 30 23:22 07.07.2020
346 Clear 28 1008 58 10000 6.2 30 23:22 07.07.2020
347 Clear 28 1008 58 10000 6.2 30 22:58 07.07.2020
348 Clear 28 1008 54 10000 6.2 360 22:39 07.07.2020
349 Clear 28 1008 54 10000 7.2 350 22:20 07.07.2020
350 Clear 28 1008 54 10000 7.2 350 21:58 07.07.2020
351 Clear 28 1007 62 10000 7.2 350 21:38 07.07.2020
352 Clear 28 1007 62 10000 7.2 350 21:38 07.07.2020
353 Clear 28 1007 62 10000 7.2 350 21:38 07.07.2020
354 Clear 29 1007 62 10000 7.2 350 21:19 07.07.2020
355 Clear 29 1007 62 10000 7.2 350 20:55 07.07.2020
356 Clear 31 1006 62 10000 8.2 20 20:36 07.07.2020
357 Clear 31 1006 58 10000 8.2 10 20:18 07.07.2020
358 Clear 31 1006 58 10000 8.2 10 20:18 07.07.2020
359 Clear 33 1005 31 10000 6.7 10 19:39 07.07.2020
360 Clear 33 1005 31 10000 6.7 10 19:20 07.07.2020
361 Clear 33 1004 30 10000 7.2 360 18:55 07.07.2020
362 Clear 34 1004 30 10000 7.2 360 18:37 07.07.2020
363 Clear 35 1004 28 10000 7.2 360 18:19 07.07.2020
364 Clear 35 1004 28 10000 7.2 360 17:56 07.07.2020
365 Clear 35 1004 26 10000 6.7 360 17:37 07.07.2020
366 Clear 36 1003 26 10000 6.2 350 17:19 07.07.2020
367 Clear 36 1003 26 10000 4.6 360 16:42 07.07.2020
368 Clear 36 1004 27 10000 4.6 20 16:23 07.07.2020
369 Clear 36 1003 26 10000 4.6 360 16:23 07.07.2020
370 Clear 37 1004 27 10000 4.6 20 15:56 07.07.2020
371 Clear 36 1004 28 10000 3.6 360 15:37 07.07.2020
372 Clear 36 1004 28 6000 4.1 330 15:19 07.07.2020
373 Clear 36 1004 30 6000 4.6 330 14:45 07.07.2020
374 Clear 36 1004 30 6000 4.6 330 14:24 07.07.2020
375 Clear 36 1004 28 6000 3.6 340 13:46 07.07.2020
376 Clear 36 1004 28 6000 3.6 340 13:21 07.07.2020
377 Clear 36 1005 30 6000 2.6 300 12:58 07.07.2020
378 Clear 36 1005 28 6000 1.5 260 12:40 07.07.2020
379 Clear 35 1005 34 6000 1.5 330 12:21 07.07.2020
380 Clear 35 1005 34 6000 2.6 290 11:48 07.07.2020
381 Clear 35 1005 34 6000 2.6 290 11:24 07.07.2020
382 Clear 34 1005 38 6000 2.6 330 10:59 07.07.2020
383 Clear 33 1005 41 6000 2.6 300 10:41 07.07.2020
384 Clear 33 1005 41 10000 2.6 330 10:21 07.07.2020
385 Clear 33 1005 41 10000 2.6 330 09:55 07.07.2020
386 Clear 32 1005 40 10000 1.5 320 09:37 07.07.2020
387 Clear 32 1005 40 10000 1 280 09:18 07.07.2020
388 Clear 30 1005 48 10000 1 250 08:40 07.07.2020
389 Clear 30 1005 48 10000 1 250 08:21 07.07.2020
390 Clear 30 1005 54 10000 2.1 290 07:41 07.07.2020
391 Clear 28 1004 58 10000 3.6 290 07:21 07.07.2020
392 Clear 28 1004 48 10000 3.1 290 06:49 07.07.2020
393 Clear 29 1004 48 10000 3.1 290 06:28 07.07.2020
394 Clear 29 1003 39 10000 2.1 240 05:51 07.07.2020
395 Clear 28 1003 34 10000 1 250 05:20 07.07.2020
396 Clear 29 1003 32 10000 5.1 110 04:36 07.07.2020
397 Clear 28 1002 42 10000 5.7 100 03:35 07.07.2020
398 Clear 27 1003 54 10000 1 90 02:21 07.07.2020
399 Clear 29 1004 48 10000 5.1 80 01:22 07.07.2020
400 Clear 29 1004 48 10000 4.6 70 00:42 07.07.2020
401 Clear 29 1004 48 10000 4.6 70 00:23 07.07.2020
402 Clear 29 1004 51 10000 5.1 60 23:46 06.07.2020
403 Clear 29 1004 51 10000 5.1 60 23:26 06.07.2020
404 Clear 29 1004 51 10000 6.7 60 22:59 06.07.2020
405 Clear 30 1005 48 10000 6.7 50 22:40 06.07.2020
406 Clear 30 1005 40 10000 6.2 40 22:19 06.07.2020
407 Clear 31 1005 40 10000 6.2 40 21:57 06.07.2020
408 Clear 32 1005 35 10000 4.6 360 21:38 06.07.2020
409 Clear 32 1005 31 10000 5.1 360 21:19 06.07.2020
410 Clear 32 1005 31 10000 5.1 360 20:57 06.07.2020
411 Clear 33 1004 27 10000 5.1 360 20:37 06.07.2020
412 Clear 33 1004 22 10000 5.7 350 20:19 06.07.2020
413 Clear 33 1004 22 10000 5.7 350 19:56 06.07.2020
414 Clear 33 1004 20 10000 5.1 340 19:37 06.07.2020
415 Clear 34 1004 21 10000 4.1 350 19:18 06.07.2020
416 Clear 34 1003 23 10000 5.7 310 18:41 06.07.2020
417 Clear 35 1003 20 10000 5.7 300 18:23 06.07.2020
418 Clear 35 1003 20 10000 5.7 300 17:59 06.07.2020
419 Clear 35 1003 23 10000 5.1 360 17:40 06.07.2020
420 Clear 35 1003 17 10000 5.7 330 17:20 06.07.2020
421 Clear 35 1003 17 10000 5.7 330 17:20 06.07.2020
422 Clear 35 1003 20 10000 6.2 330 16:43 06.07.2020
423 Clear 35 1003 19 10000 7.2 320 16:25 06.07.2020
424 Clear 35 1003 19 10000 7.2 320 15:59 06.07.2020
425 Clear 35 1003 21 10000 7.2 280 15:41 06.07.2020
426 Clear 35 1003 18 10000 5.1 290 15:23 06.07.2020
427 Clear 36 1003 18 10000 5.1 290 14:55 06.07.2020
428 Clear 36 1003 18 10000 5.1 290 14:37 06.07.2020
429 Clear 35 1004 17 10000 4.6 270 14:18 06.07.2020
430 Clear 35 1004 17 10000 4.6 270 13:44 06.07.2020
431 Clear 35 1004 17 10000 4.6 270 13:26 06.07.2020
432 Clear 34 1004 17 10000 4.6 310 12:56 06.07.2020
433 Clear 34 1004 21 10000 4.6 310 12:38 06.07.2020
434 Clear 33 1004 29 10000 3.1 270 12:18 06.07.2020
435 Clear 33 1004 29 10000 3.1 270 11:57 06.07.2020
436 Clear 32 1004 29 10000 3.1 270 11:36 06.07.2020
437 Clear 32 1004 33 10000 2.1 310 11:18 06.07.2020
438 Clear 32 1004 38 10000 2.1 310 10:41 06.07.2020
439 Clear 31 1004 38 10000 2.1 310 10:21 06.07.2020
440 Clear 30 1005 42 10000 2.1 310 09:56 06.07.2020
441 Clear 30 1004 42 10000 2.1 310 09:37 06.07.2020
442 Clear 29 1005 45 10000 2.1 350 09:19 06.07.2020
443 Clear 28 1004 48 10000 2.1 350 08:41 06.07.2020
444 Clear 28 1005 54 6000 1 80 08:23 06.07.2020
445 Clear 29 1005 54 6000 1 80 07:54 06.07.2020
446 Clear 29 1005 54 6000 1 80 07:36 06.07.2020
447 Clear 27 1005 54 6000 1 80 06:57 06.07.2020
448 Clear 26 1004 54 6000 1 80 06:39 06.07.2020
449 Clear 25 1004 57 6000 1 80 06:19 06.07.2020
450 Clear 25 1004 53 6000 2.24 315 05:29 06.07.2020
451 Clear 25 1004 53 10000 2.24 315 04:48 06.07.2020
452 Clear 26 1004 50 10000 0.5 60 02:58 06.07.2020
453 Clear 27 1004 44 10000 2.6 30 02:21 06.07.2020
454 Clear 27 1005 44 10000 2.6 30 01:22 06.07.2020
455 Clear 28 1005 42 10000 2.6 30 00:33 06.07.2020
456 Clear 29 1005 37 10000 2.6 360 23:59 05.07.2020
457 Clear 29 1006 39 10000 2.1 340 23:40 05.07.2020
458 Clear 29 1006 39 10000 2.1 340 23:22 05.07.2020
459 Clear 29 1006 39 10000 3.1 360 22:58 05.07.2020
460 Clear 29 1006 45 10000 5.1 360 22:39 05.07.2020
461 Clear 29 1006 42 10000 5.1 340 22:19 05.07.2020
462 Clear 30 1006 42 10000 5.1 340 21:57 05.07.2020
463 Clear 30 1005 40 10000 5.1 350 21:37 05.07.2020
464 Clear 30 1005 40 10000 4.6 350 21:18 05.07.2020
465 Clear 30 1005 40 10000 4.6 350 20:56 05.07.2020
466 Clear 31 1005 38 10000 3.6 350 20:38 05.07.2020
467 Clear 31 1005 33 10000 7.2 330 20:19 05.07.2020
468 Clear 33 1004 27 10000 6.2 320 19:42 05.07.2020
469 Clear 33 1004 31 10000 5.7 340 19:21 05.07.2020
470 Clear 33 1004 31 10000 5.7 340 18:56 05.07.2020
471 Clear 34 1004 28 10000 7.2 340 18:37 05.07.2020
472 Clear 34 1004 28 10000 7.2 330 18:19 05.07.2020
473 Clear 34 1004 26 10000 7.2 340 17:43 05.07.2020
474 Clear 35 1004 26 10000 7.2 320 17:19 05.07.2020
475 Clear 35 1004 26 10000 7.2 320 16:59 05.07.2020
476 Clear 35 1004 26 10000 7.2 310 16:40 05.07.2020
477 Clear 35 1004 26 10000 7.2 310 16:21 05.07.2020
478 Clear 35 1004 30 10000 7.2 340 15:41 05.07.2020
479 Clear 35 1004 25 10000 7.2 300 15:20 05.07.2020
480 Clear 35 1004 25 10000 7.2 300 15:20 05.07.2020
481 Clear 36 1004 25 10000 7.2 300 14:57 05.07.2020
482 Clear 35 1005 28 10000 7.2 300 14:38 05.07.2020
483 Clear 35 1005 28 10000 6.7 310 14:20 05.07.2020
484 Clear 35 1005 30 10000 7.2 280 13:41 05.07.2020
485 Clear 34 1005 30 10000 6.7 280 13:23 05.07.2020
486 Clear 34 1005 30 10000 5.1 300 12:46 05.07.2020
487 Clear 34 1005 30 10000 5.1 300 12:22 05.07.2020
488 Clear 33 1006 29 10000 5.7 280 11:57 05.07.2020
489 Clear 32 1006 33 10000 4.1 280 11:38 05.07.2020
490 Clear 32 1006 33 10000 4.1 280 11:38 05.07.2020
491 Clear 32 1006 35 10000 4.6 300 11:20 05.07.2020
492 Clear 32 1006 35 10000 4.6 300 10:56 05.07.2020
493 Clear 31 1006 45 10000 3.6 290 10:37 05.07.2020
494 Clear 30 1006 51 6000 3.1 290 10:18 05.07.2020
495 Clear 29 1006 61 6000 3.1 290 09:42 05.07.2020
496 Haze 28 1006 65 4000 3.6 290 09:21 05.07.2020
497 Haze 28 1006 65 4000 3.6 290 08:58 05.07.2020
498 Haze 27 1006 69 4000 3.6 290 08:38 05.07.2020
499 Haze 27 1006 69 4000 3.6 290 08:38 05.07.2020
500 Haze 27 1006 69 4000 3.6 290 08:38 05.07.2020
501 Haze 27 1006 69 4000 2.6 270 08:19 05.07.2020
502 Haze 26 1007 74 4000 2.6 280 07:44 05.07.2020
503 Haze 26 1007 74 4000 2.6 280 07:26 05.07.2020
504 Haze 25 1007 69 4000 1.5 220 06:49 05.07.2020
505 Clear 25 1007 69 6000 1.5 330 05:18 05.07.2020
506 Clear 26 1007 61 6000 2.1 10 03:20 05.07.2020
507 Clear 26 1007 65 6000 2.6 330 02:41 05.07.2020
508 Clear 26 1007 69 6000 2.6 10 01:59 05.07.2020
509 Clear 27 1007 65 10000 3.1 360 01:32 05.07.2020
510 Clear 27 1007 65 10000 3.1 360 00:57 05.07.2020
511 Clear 27 1008 61 10000 3.1 340 00:38 05.07.2020
512 Clear 28 1008 54 10000 4.1 350 00:19 05.07.2020
513 Clear 28 1008 54 10000 4.1 350 23:41 04.07.2020
514 Clear 29 1008 54 6000 4.6 340 23:23 04.07.2020
515 Clear 29 1008 54 6000 4.6 340 22:54 04.07.2020
516 Clear 29 1008 54 6000 5.1 340 22:36 04.07.2020
517 Clear 29 1008 51 6000 5.7 340 22:18 04.07.2020
518 Clear 30 1008 48 6000 5.1 340 21:40 04.07.2020
519 Clear 30 1008 48 6000 5.1 340 21:22 04.07.2020
520 Clear 30 1008 48 6000 5.1 340 20:55 04.07.2020
521 Clear 31 1008 48 6000 6.7 350 20:36 04.07.2020
522 Clear 31 1007 46 10000 5.1 320 20:18 04.07.2020
523 Clear 32 1007 41 10000 5.7 330 19:42 04.07.2020
524 Clear 33 1007 41 10000 5.7 330 19:22 04.07.2020
525 Clear 33 1007 41 10000 5.7 330 19:22 04.07.2020
526 Clear 33 1007 41 10000 5.7 330 19:22 04.07.2020
527 Clear 34 1007 32 10000 5.7 310 18:55 04.07.2020
528 Clear 34 1007 32 10000 5.7 310 18:37 04.07.2020
529 Clear 35 1007 28 10000 5.7 320 18:19 04.07.2020
530 Clear 35 1007 28 10000 5.7 320 17:42 04.07.2020
531 Clear 35 1007 28 10000 5.7 320 17:23 04.07.2020
532 Clear 35 1006 30 10000 5.1 330 16:57 04.07.2020
533 Clear 35 1006 30 10000 5.1 330 16:38 04.07.2020
534 Clear 35 1007 32 10000 5.1 310 16:19 04.07.2020
535 Clear 35 1007 32 10000 5.1 310 15:46 04.07.2020
536 Clear 35 1007 32 10000 5.1 310 15:27 04.07.2020
537 Clear 35 1007 32 10000 5.1 310 14:59 04.07.2020
538 Clear 35 1007 32 10000 5.1 310 14:38 04.07.2020
539 Clear 35 1008 30 10000 3.1 330 14:19 04.07.2020
540 Clear 34 1008 30 10000 3.1 330 13:58 04.07.2020
541 Clear 34 1008 30 10000 3.1 330 13:39 04.07.2020
542 Clear 34 1008 26 10000 3.1 310 13:18 04.07.2020
543 Clear 33 1008 36 6000 2.6 320 12:42 04.07.2020
544 Clear 33 1008 36 6000 3.1 320 12:21 04.07.2020
545 Clear 33 1008 36 6000 3.1 320 11:54 04.07.2020
546 Clear 32 1009 40 6000 2.6 320 11:36 04.07.2020
547 Clear 31 1009 48 6000 2.6 310 11:18 04.07.2020
548 Clear 30 1009 55 6000 2.6 340 10:41 04.07.2020
549 Clear 30 1009 62 6000 2.1 280 10:21 04.07.2020
550 Clear 29 1009 62 6000 2.1 280 09:58 04.07.2020
551 Clear 29 1009 62 6000 2.1 280 09:58 04.07.2020
552 Clear 28 1009 69 6000 2.1 310 09:37 04.07.2020
553 Clear 27 1009 74 6000 2.1 300 09:19 04.07.2020
554 Clear 27 1009 74 6000 2.1 300 08:46 04.07.2020
555 Clear 27 1009 74 6000 2.1 300 08:27 04.07.2020
556 Clear 26 1009 74 6000 2.6 10 07:49 04.07.2020
557 Clear 26 1009 74 6000 2.6 10 07:31 04.07.2020
558 Clear 25 1008 73 6000 3.1 320 06:55 04.07.2020
559 Clear 26 1008 69 10000 3.1 330 06:23 04.07.2020
560 Clear 26 1008 69 10000 0.5 360 05:36 04.07.2020
561 Clear 25 1007 69 10000 1.5 50 04:44 04.07.2020
562 Clear 25 1007 56 0 2.99 355 03:18 04.07.2020
563 Clear 28 1008 54 10000 3.6 360 02:26 04.07.2020
564 Clear 28 1008 58 10000 3.1 360 01:32 04.07.2020
565 Clear 28 1008 65 10000 4.1 350 00:44 04.07.2020
566 Clear 28 1008 65 10000 4.1 350 00:25 04.07.2020
567 Clear 29 1008 62 10000 3.6 360 23:41 03.07.2020
568 Clear 30 1008 58 10000 4.1 360 23:19 03.07.2020
569 Clear 30 1008 58 10000 4.1 360 22:58 03.07.2020
570 Clear 30 1008 58 10000 5.1 350 22:39 03.07.2020
571 Clear 31 1008 52 10000 4.1 350 22:21 03.07.2020
572 Clear 32 1007 43 10000 4.1 350 21:43 03.07.2020
573 Clear 32 1007 43 10000 4.1 350 21:20 03.07.2020
574 Clear 33 1007 36 10000 4.1 350 20:58 03.07.2020
575 Clear 34 1006 32 10000 5.1 340 20:39 03.07.2020
576 Clear 34 1006 30 10000 5.1 340 20:21 03.07.2020
577 Clear 34 1006 30 10000 5.1 340 19:42 03.07.2020
578 Clear 34 1006 26 10000 5.1 340 19:21 03.07.2020
579 Clear 34 1006 26 10000 5.1 340 19:21 03.07.2020
580 Clear 35 1006 26 10000 5.1 340 18:57 03.07.2020
581 Clear 35 1006 23 10000 5.1 340 18:39 03.07.2020
582 Clear 36 1005 20 10000 5.1 330 18:21 03.07.2020
583 Clear 36 1005 20 10000 6.2 320 17:44 03.07.2020
584 Clear 36 1005 20 10000 5.7 340 17:23 03.07.2020
585 Clear 36 1005 20 10000 5.7 340 16:58 03.07.2020
586 Clear 36 1005 22 10000 4.6 340 16:39 03.07.2020
587 Clear 36 1005 20 10000 5.1 360 16:19 03.07.2020
588 Clear 36 1005 23 10000 5.1 350 15:39 03.07.2020
589 Clear 36 1005 20 10000 5.1 340 15:20 03.07.2020
590 Clear 36 1005 20 10000 5.1 340 14:55 03.07.2020
591 Clear 36 1006 22 10000 5.1 330 14:36 03.07.2020
592 Clear 36 1006 22 10000 5.1 330 14:36 03.07.2020
593 Clear 36 1006 22 10000 5.1 320 14:18 03.07.2020
594 Clear 35 1006 24 10000 4.1 330 13:41 03.07.2020
595 Clear 35 1006 28 10000 4.1 340 13:22 03.07.2020
596 Clear 35 1006 30 10000 3.1 360 12:43 03.07.2020
597 Clear 34 1006 32 6000 3.6 340 12:22 03.07.2020
598 Clear 33 1006 38 6000 2.6 10 11:54 03.07.2020
599 Clear 32 1006 38 6000 2.6 10 11:36 03.07.2020
600 Haze 32 1006 40 4000 3.1 340 11:18 03.07.2020
601 Haze 30 1007 51 4000 1.5 350 10:42 03.07.2020
602 Haze 30 1007 51 4000 1.5 350 10:21 03.07.2020
603 Haze 30 1007 51 4000 1.5 350 09:59 03.07.2020
604 Haze 28 1007 65 4000 2.1 330 09:40 03.07.2020
605 Haze 28 1007 65 4000 2.1 330 09:21 03.07.2020
606 Clear 27 1007 69 6000 2.1 330 08:57 03.07.2020
607 Clear 26 1007 78 6000 2.1 330 08:38 03.07.2020
608 Clear 26 1006 78 6000 2.6 340 08:18 03.07.2020
609 Clear 25 1006 83 6000 2.1 330 07:43 03.07.2020
610 Clear 25 1006 83 6000 2.1 330 07:22 03.07.2020
611 Clear 25 1006 83 6000 2.1 330 06:37 03.07.2020
612 Clear 25 1005 83 6000 2.1 320 05:55 03.07.2020
613 Clear 25 1005 83 10000 2.6 20 04:26 03.07.2020
614 Clear 26 1005 78 10000 3.6 20 02:57 03.07.2020
615 Clear 26 1005 74 10000 3.6 20 02:32 03.07.2020
616 Clear 27 1005 65 10000 3.1 30 01:51 03.07.2020
617 Clear 27 1005 61 10000 4.1 30 01:22 03.07.2020
618 Clear 27 1005 61 10000 6.2 40 00:42 03.07.2020
619 Clear 28 1006 65 10000 6.2 40 00:18 03.07.2020
620 Clear 29 1006 62 10000 5.7 30 23:43 02.07.2020
621 Clear 29 1006 62 10000 6.2 40 23:20 02.07.2020
622 Clear 29 1006 62 10000 6.2 40 22:57 02.07.2020
623 Clear 30 1006 58 10000 5.7 30 22:38 02.07.2020
624 Clear 30 1006 55 10000 4.6 340 22:20 02.07.2020
625 Clear 30 1006 55 10000 4.6 340 21:54 02.07.2020
626 Clear 32 1005 40 10000 5.7 350 21:36 02.07.2020
627 Clear 32 1005 38 10000 5.7 360 21:18 02.07.2020
628 Clear 33 1005 29 10000 5.1 360 20:41 02.07.2020
629 Clear 33 1005 29 10000 5.1 360 20:20 02.07.2020
630 Clear 33 1005 29 10000 5.1 360 19:56 02.07.2020
631 Clear 33 1004 28 10000 5.1 340 19:38 02.07.2020
632 Clear 34 1004 26 10000 5.1 340 19:19 02.07.2020
633 Clear 34 1004 26 10000 5.1 340 18:56 02.07.2020
634 Clear 35 1004 24 10000 5.1 330 18:37 02.07.2020
635 Clear 36 1004 20 10000 4.1 350 18:19 02.07.2020
636 Clear 36 1004 20 10000 4.1 350 17:39 02.07.2020
637 Clear 36 1004 19 10000 4.6 340 17:20 02.07.2020
638 Clear 36 1004 19 10000 4.6 340 16:56 02.07.2020
639 Clear 36 1004 19 10000 4.6 350 16:38 02.07.2020
640 Clear 36 1004 18 10000 4.1 350 16:19 02.07.2020
641 Clear 36 1004 18 10000 4.1 350 15:54 02.07.2020
642 Clear 36 1004 19 10000 3.6 350 15:36 02.07.2020
643 Clear 36 1004 23 10000 5.1 340 15:18 02.07.2020
644 Clear 36 1004 23 10000 3.6 330 14:42 02.07.2020
645 Clear 35 1004 28 10000 4.6 320 14:19 02.07.2020
646 Clear 35 1004 28 10000 4.6 320 14:19 02.07.2020
647 Clear 35 1004 28 10000 4.6 320 13:54 02.07.2020
648 Clear 35 1005 24 10000 4.6 330 13:36 02.07.2020
649 Clear 35 1005 28 10000 3.6 330 13:18 02.07.2020
650 Clear 34 1005 30 10000 2.1 340 12:39 02.07.2020
651 Clear 33 1006 38 10000 2.1 350 12:21 02.07.2020
652 Clear 32 1006 38 10000 2.1 350 11:44 02.07.2020
653 Clear 32 1006 38 10000 2.1 350 11:26 02.07.2020
654 Clear 31 1006 40 6000 2.1 350 10:57 02.07.2020
655 Clear 31 1006 40 6000 2.1 350 10:39 02.07.2020
656 Clear 30 1006 54 6000 3.6 20 10:21 02.07.2020
657 Clear 29 1006 54 6000 3.6 20 09:42 02.07.2020
658 Clear 29 1006 54 6000 3.6 20 09:21 02.07.2020
659 Clear 27 1006 65 6000 2.6 20 08:57 02.07.2020
660 Clear 27 1006 65 6000 2.6 20 08:38 02.07.2020
661 Clear 27 1006 61 6000 3.1 10 08:19 02.07.2020
662 Clear 27 1006 61 6000 3.1 10 07:41 02.07.2020
663 Clear 26 1006 78 6000 2.1 40 07:20 02.07.2020
664 Clear 25 1006 78 6000 2.1 50 06:41 02.07.2020
665 Clear 25 1006 78 6000 2.1 50 06:41 02.07.2020
666 Clear 25 1005 73 6000 2.1 40 06:20 02.07.2020
667 Clear 25 1005 73 10000 2.1 40 05:47 02.07.2020
668 Clear 25 1005 78 10000 2.1 50 04:49 02.07.2020
669 Clear 25 1005 78 10000 2.1 30 03:33 02.07.2020
670 Clear 26 1006 74 10000 3.6 30 01:49 02.07.2020
671 Clear 26 1006 78 10000 6.2 30 00:28 02.07.2020
672 Clear 26 1006 78 10000 7.2 30 23:57 01.07.2020
673 Clear 28 1006 65 10000 6.7 30 23:38 01.07.2020
674 Clear 28 1006 58 10000 5.7 40 23:20 01.07.2020
675 Clear 28 1006 58 10000 5.7 40 22:54 01.07.2020
676 Clear 29 1006 42 10000 3.1 40 22:36 01.07.2020
677 Clear 30 1006 40 10000 4.1 40 22:18 01.07.2020
678 Clear 30 1006 40 10000 4.1 40 21:55 01.07.2020
679 Clear 31 1006 38 10000 4.6 30 21:37 01.07.2020
680 Clear 31 1006 33 10000 4.1 10 21:19 01.07.2020
681 Clear 31 1006 35 10000 5.1 350 20:44 01.07.2020
682 Clear 31 1006 35 10000 5.1 350 20:25 01.07.2020
683 Clear 32 1006 33 10000 4.6 350 19:56 01.07.2020
684 Clear 32 1005 33 10000 4.6 350 19:38 01.07.2020
685 Clear 33 1005 31 10000 4.1 340 19:20 01.07.2020
686 Clear 34 1005 28 10000 4.1 320 18:54 01.07.2020
687 Clear 34 1005 28 10000 4.1 320 18:36 01.07.2020
688 Clear 34 1005 28 10000 4.1 320 18:18 01.07.2020
689 Clear 34 1005 28 10000 4.1 320 17:41 01.07.2020
690 Clear 34 1005 28 10000 4.1 320 17:41 01.07.2020
691 Clear 33 1005 31 10000 4.1 350 17:19 01.07.2020
692 Clear 33 1005 31 10000 4.1 350 16:48 01.07.2020
693 Clear 33 1005 31 10000 4.1 350 16:48 01.07.2020
694 Clear 33 1005 31 10000 4.1 350 16:29 01.07.2020
695 Clear 33 1005 29 10000 3.1 310 15:58 01.07.2020
696 Clear 33 1005 29 10000 3.1 310 15:39 01.07.2020
697 Clear 33 1006 27 10000 2.6 300 15:21 01.07.2020
698 Clear 33 1006 27 10000 2.6 300 14:45 01.07.2020
699 Clear 33 1006 29 10000 3.6 290 14:22 01.07.2020
700 Clear 33 1006 29 10000 3.6 290 13:59 01.07.2020
701 Clear 32 1006 31 10000 3.1 290 13:40 01.07.2020
702 Clear 31 1006 35 10000 3.6 280 13:21 01.07.2020
703 Clear 31 1006 35 10000 3.6 280 12:58 01.07.2020
704 Clear 31 1007 35 10000 2.1 290 12:39 01.07.2020
705 Clear 30 1007 40 10000 2.6 260 12:20 01.07.2020
706 Clear 30 1007 40 10000 2.6 260 11:55 01.07.2020
707 Clear 30 1007 40 10000 1.5 340 11:37 01.07.2020
708 Clear 29 1007 45 10000 3.6 330 11:18 01.07.2020
709 Clouds 28 1008 51 10000 3.1 320 10:41 01.07.2020
710 Clouds 27 1008 57 10000 2.6 350 10:23 01.07.2020
711 Clouds 26 1008 57 10000 2.6 350 09:59 01.07.2020
712 Clouds 26 1008 57 10000 2.6 350 09:37 01.07.2020
713 Clouds 26 1008 61 10000 2.6 350 09:19 01.07.2020
714 Clouds 26 1008 61 10000 2.6 350 08:55 01.07.2020
715 Clouds 25 1008 65 10000 2.1 330 08:37 01.07.2020
716 Clear 25 1008 65 10000 2.6 350 08:18 01.07.2020
717 Clear 25 1007 65 10000 2.1 340 07:39 01.07.2020
718 Clear 25 1007 64 10000 2.6 330 07:20 01.07.2020
719 Clear 24 1007 64 10000 2.1 330 06:50 01.07.2020
720 Clear 24 1007 64 10000 2.1 330 06:28 01.07.2020
721 Clear 23 1007 64 10000 3.1 320 05:23 01.07.2020
722 Clear 24 1007 53 10000 3.1 300 03:48 01.07.2020
723 Clear 24 1007 53 10000 3.1 300 03:27 01.07.2020
724 Clear 25 1007 47 10000 2.6 320 02:41 01.07.2020
725 Clear 25 1007 44 10000 4.1 320 01:49 01.07.2020
726 Clear 26 1007 44 10000 3.6 340 00:45 01.07.2020
727 Clear 26 1008 44 10000 3.1 330 00:25 01.07.2020
728 Clear 26 1008 44 10000 4.1 330 23:42 30.06.2020
729 Clear 26 1008 44 10000 4.1 330 23:23 30.06.2020
730 Clear 27 1008 39 10000 3.1 330 22:59 30.06.2020
731 Clear 27 1008 39 10000 4.6 330 22:41 30.06.2020
732 Clear 27 1008 34 10000 4.1 330 22:18 30.06.2020
733 Clear 28 1008 37 10000 5.1 310 21:41 30.06.2020
734 Clear 28 1007 35 10000 4.6 320 21:19 30.06.2020
735 Clear 28 1007 35 10000 4.6 320 21:19 30.06.2020
736 Clear 29 1007 35 10000 4.6 320 20:57 30.06.2020
737 Clear 29 1007 35 10000 5.1 350 20:39 30.06.2020
738 Clear 29 1007 28 10000 6.2 310 20:20 30.06.2020
739 Clear 30 1006 31 10000 5.7 320 19:42 30.06.2020
740 Clear 31 1006 27 10000 6.2 320 19:20 30.06.2020
741 Clear 31 1006 27 10000 5.7 310 18:46 30.06.2020
742 Clear 32 1006 19 10000 5.7 320 18:21 30.06.2020
743 Clear 33 1006 19 10000 5.7 320 17:59 30.06.2020
744 Clear 33 1006 24 10000 5.7 310 17:38 30.06.2020
745 Clear 33 1006 26 10000 6.2 310 17:19 30.06.2020
746 Clear 33 1006 26 10000 6.2 310 16:55 30.06.2020
747 Clear 34 1006 24 10000 6.2 320 16:36 30.06.2020
748 Clear 33 1006 27 10000 4.6 310 16:18 30.06.2020
749 Clear 33 1006 23 10000 5.1 320 15:41 30.06.2020
750 Clear 34 1006 23 10000 6.2 320 15:22 30.06.2020
751 Clear 34 1006 23 10000 6.2 320 14:58 30.06.2020
752 Clear 34 1006 26 10000 5.1 340 14:39 30.06.2020
753 Clear 33 1007 27 10000 4.6 300 14:18 30.06.2020
754 Clear 32 1007 29 10000 4.6 320 13:42 30.06.2020
755 Clear 32 1007 31 10000 3.6 310 13:21 30.06.2020
756 Clear 32 1007 31 10000 3.6 310 12:59 30.06.2020
757 Clear 31 1007 29 10000 4.6 290 12:40 30.06.2020
758 Clear 30 1007 37 10000 4.1 280 12:21 30.06.2020
759 Clear 30 1007 37 10000 4.1 280 11:59 30.06.2020
760 Clear 30 1008 37 10000 3.6 300 11:39 30.06.2020
761 Clouds 30 1008 35 10000 3.6 300 11:20 30.06.2020
762 Clouds 30 1008 35 10000 3.6 300 11:20 30.06.2020
763 Clouds 30 1008 35 10000 3.6 300 11:20 30.06.2020
764 Clouds 30 1008 35 10000 3.6 300 10:59 30.06.2020
765 Clear 34 1007 28 10000 5.1 320 16:44 28.06.2020
766 Clear 34 1007 28 10000 5.1 320 16:26 28.06.2020
767 Clear 34 1007 28 10000 5.1 320 16:26 28.06.2020
768 Clear 35 1008 24 10000 5.1 330 15:58 28.06.2020
769 Clear 35 1008 24 10000 5.1 330 15:39 28.06.2020
770 Clear 35 1008 28 10000 5.1 330 15:20 28.06.2020
771 Clear 34 1008 28 10000 5.1 330 14:55 28.06.2020
772 Clear 35 1008 24 10000 4.1 320 14:37 28.06.2020
773 Clouds 35 1009 23 10000 4.1 320 14:19 28.06.2020
774 Clouds 34 1009 23 10000 4.1 320 13:38 28.06.2020
775 Clouds 33 1009 31 10000 3.1 340 13:20 28.06.2020
776 Clouds 32 1009 31 10000 3.1 340 12:57 28.06.2020
777 Clouds 32 1009 31 10000 3.1 340 12:38 28.06.2020
778 Clouds 31 1009 42 10000 3.1 330 12:19 28.06.2020
779 Clouds 30 1009 42 10000 3.1 330 11:58 28.06.2020
780 Clouds 30 1009 42 10000 3.1 330 11:39 28.06.2020
781 Clouds 29 1010 54 6000 2.6 10 11:20 28.06.2020
782 Clouds 29 1010 54 6000 2.6 10 11:20 28.06.2020
783 Clouds 28 1010 54 6000 2.6 10 10:57 28.06.2020
784 Clouds 28 1010 54 6000 2.6 10 10:38 28.06.2020
785 Clouds 28 1010 54 6000 2.6 10 10:19 28.06.2020
786 Clouds 26 1010 65 6000 3.1 360 09:40 28.06.2020
787 Clouds 25 1010 69 6000 3.1 360 09:21 28.06.2020
788 Clouds 25 1010 73 6000 3.1 330 08:51 28.06.2020
789 Clouds 24 1010 73 6000 3.1 330 08:33 28.06.2020
790 Mist 23 1010 78 3000 3.1 360 07:53 28.06.2020
791 Mist 23 1010 78 3000 3.1 360 07:31 28.06.2020
792 Mist 22 1010 83 3000 3.1 360 06:53 28.06.2020
793 Mist 22 1010 83 3000 3.1 360 06:31 28.06.2020
794 Clouds 22 1010 83 6000 3.6 350 05:27 28.06.2020
795 Clear 23 1009 83 6000 3.1 330 03:45 28.06.2020
796 Clear 24 1009 78 6000 4.1 360 02:49 28.06.2020
797 Clear 24 1009 83 10000 4.6 350 02:19 28.06.2020
798 Clear 25 1009 78 10000 4.1 340 01:27 28.06.2020
799 Clear 25 1009 78 10000 4.1 340 00:51 28.06.2020
800 Clear 25 1009 78 10000 4.1 340 00:27 28.06.2020
801 Clear 25 1009 74 10000 4.6 350 23:43 27.06.2020
802 Clear 26 1009 74 10000 4.6 350 23:24 27.06.2020
803 -273 0 0 0 0 0 22:59 27.06.2020
804 Clear 27 1009 65 10000 5.7 340 22:41 27.06.2020
805 Clear 27 1009 65 10000 5.7 340 22:23 27.06.2020
806 Clear 28 1009 61 10000 6.2 350 21:57 27.06.2020
807 Clear 28 1009 58 10000 6.7 350 21:39 27.06.2020
808 Clear 28 1008 54 10000 7.2 350 21:20 27.06.2020
809 Clear 29 1008 48 10000 6.7 340 20:45 27.06.2020
810 Clear 30 1008 45 10000 6.7 340 20:19 27.06.2020
811 Clear 31 1008 45 10000 6.7 340 19:57 27.06.2020
812 Clear 31 1008 43 10000 6.7 340 19:37 27.06.2020
813 Clear 32 1007 35 10000 6.2 340 19:19 27.06.2020
814 Clear 32 1007 31 10000 5.7 330 18:47 27.06.2020
815 Clear 32 1007 31 10000 5.7 330 18:47 27.06.2020
816 Clear 33 1007 31 10000 6.2 340 18:28 27.06.2020
817 Clear 33 1007 31 10000 6.2 340 17:59 27.06.2020
818 Clear 33 1007 31 10000 6.2 340 17:59 27.06.2020
819 Clear 34 1007 28 10000 5.7 340 17:40 27.06.2020
820 Clear 34 1007 30 10000 5.1 350 17:20 27.06.2020
821 Clear 34 1007 30 10000 5.1 350 16:56 27.06.2020
822 Clear 34 1007 32 10000 5.1 330 16:38 27.06.2020
823 Clear 34 1008 30 10000 3.1 350 16:18 27.06.2020
824 Clear 34 1008 30 10000 5.1 330 15:42 27.06.2020
825 Clear 34 1008 30 10000 5.1 330 15:23 27.06.2020
826 Clear 33 1008 31 10000 2.6 20 14:56 27.06.2020
827 Clear 33 1008 33 10000 4.6 310 14:37 27.06.2020
828 Clear 33 1008 31 10000 4.1 10 14:19 27.06.2020
829 Clear 33 1009 33 10000 4.6 320 13:41 27.06.2020
830 Clear 32 1009 35 10000 4.1 320 13:20 27.06.2020
831 Clear 32 1009 35 10000 4.1 320 12:58 27.06.2020
832 Clear 31 1009 40 10000 5.7 320 12:40 27.06.2020
833 Clear 31 1009 40 10000 5.1 350 12:21 27.06.2020
834 Clear 31 1009 40 10000 5.1 350 11:57 27.06.2020
835 Clear 30 1010 48 10000 4.1 330 11:37 27.06.2020
836 Clear 30 1010 51 10000 3.1 350 11:19 27.06.2020
837 Clear 28 1010 54 10000 2.6 350 10:40 27.06.2020
838 Clear 27 1010 57 10000 5.7 350 10:19 27.06.2020
839 Clear 27 1010 57 10000 5.7 350 09:57 27.06.2020
840 Clear 26 1010 65 10000 3.1 10 09:37 27.06.2020
841 Clear 25 1010 73 10000 3.1 310 09:19 27.06.2020
842 Clear 24 1010 73 10000 3.1 310 08:41 27.06.2020
843 Clouds 24 1010 73 6000 3.1 350 08:22 27.06.2020
844 Clouds 24 1010 73 10000 3.1 310 08:22 27.06.2020
845 Clouds 24 1010 73 6000 3.1 350 07:46 27.06.2020
846 Clouds 24 1010 73 6000 3.1 350 07:25 27.06.2020
847 Clouds 23 1009 78 6000 4.1 350 06:51 27.06.2020
848 Clouds 23 1009 78 6000 4.1 350 06:33 27.06.2020
849 Clouds 23 1009 83 6000 4.6 340 04:24 27.06.2020
850 Clouds 23 1009 83 6000 4.6 340 03:59 27.06.2020
851 Clouds 23 1009 83 6000 4.6 340 03:41 27.06.2020
852 Clear 23 1009 83 10000 5.1 350 02:42 27.06.2020
853 Clear 23 1009 83 10000 5.1 350 02:22 27.06.2020
854 Clear 24 1009 78 10000 4.1 340 01:24 27.06.2020
855 Clear 25 1010 73 10000 4.6 350 00:42 27.06.2020
856 Clear 26 1010 65 10000 5.1 340 23:47 26.06.2020
857 Clear 26 1010 65 10000 5.1 340 23:27 26.06.2020
858 Clear 27 1010 61 10000 6.7 350 22:58 26.06.2020
859 Clear 27 1010 61 10000 6.7 350 22:39 26.06.2020
860 Clear 27 1009 65 10000 7.7 350 22:21 26.06.2020
861 Clear 27 1009 65 10000 7.7 350 21:58 26.06.2020
862 Clear 27 1009 65 10000 7.7 350 21:39 26.06.2020
863 Clear 27 1009 61 10000 7.2 350 21:20 26.06.2020
864 Clear 28 1009 58 10000 7.7 350 20:47 26.06.2020
865 Clear 28 1009 58 10000 7.7 350 20:27 26.06.2020
866 Clear 29 1009 54 10000 7.2 350 19:55 26.06.2020
867 Clear 30 1008 45 10000 7.7 360 19:37 26.06.2020
868 Clear 30 1008 38 10000 7.7 360 19:18 26.06.2020
869 Clear 32 1008 33 10000 7.2 360 18:41 26.06.2020
870 Clear 32 1008 33 10000 8.2 10 18:23 26.06.2020
871 Clear 33 1008 31 10000 7.2 10 17:45 26.06.2020
872 Clear 33 1008 31 10000 7.2 10 17:45 26.06.2020
873 Clear 33 1008 31 10000 7.2 10 17:27 26.06.2020
874 Clear 33 1008 31 10000 6.7 360 16:59 26.06.2020
875 Clear 33 1008 33 10000 7.2 350 16:41 26.06.2020
876 Clear 33 1008 33 10000 7.2 350 16:21 26.06.2020
877 Clear 32 1008 35 10000 6.7 360 15:41 26.06.2020
878 Clear 32 1008 33 10000 5.7 350 15:21 26.06.2020
879 Clear 32 1008 33 10000 5.7 350 14:58 26.06.2020
880 Clear 30 1009 42 10000 5.7 350 14:39 26.06.2020
881 Clear 30 1009 42 10000 5.7 350 14:21 26.06.2020
882 Clear 30 1009 42 10000 5.7 350 13:45 26.06.2020
883 Clear 30 1009 42 10000 5.7 350 13:23 26.06.2020
884 Clouds 30 1009 40 10000 4.6 360 12:56 26.06.2020
885 Clouds 30 1010 42 10000 5.1 350 12:38 26.06.2020
886 Clouds 30 1010 45 10000 5.1 360 12:19 26.06.2020
887 Clouds 29 1010 45 10000 5.1 360 11:56 26.06.2020
888 Clouds 28 1010 48 10000 5.1 360 11:38 26.06.2020
889 Clouds 28 1010 48 10000 5.1 360 11:19 26.06.2020
890 Clouds 28 1010 48 10000 5.1 360 10:56 26.06.2020
891 Clouds 27 1011 51 10000 5.1 10 10:37 26.06.2020
892 Clouds 27 1011 51 10000 5.1 10 10:37 26.06.2020
893 Clouds 27 1011 51 10000 5.1 350 10:18 26.06.2020
894 Clouds 26 1011 54 10000 5.1 360 09:42 26.06.2020
895 Clouds 25 1011 57 10000 5.1 10 09:22 26.06.2020
896 Clouds 25 1011 57 10000 5.1 10 08:51 26.06.2020
897 Clouds 24 1011 60 10000 5.1 360 08:28 26.06.2020
898 Clouds 24 1011 60 10000 5.7 360 07:52 26.06.2020
899 Clouds 23 1011 64 10000 6.2 10 07:24 26.06.2020
900 Clouds 23 1011 64 10000 5.7 10 06:57 26.06.2020
901 Clouds 23 1011 64 10000 5.7 10 06:35 26.06.2020
902 Clouds 23 1011 64 10000 5.7 10 05:58 26.06.2020
903 Clouds 23 1011 64 10000 5.7 350 05:31 26.06.2020
904 Clouds 23 1011 73 10000 5.1 350 02:42 26.06.2020
905 Clear 23 1012 73 10000 4.6 350 02:21 26.06.2020
906 Clear 23 1012 73 10000 5.7 360 00:58 26.06.2020
907 Clear 23 1012 73 10000 5.7 350 00:39 26.06.2020
908 Clear 24 1012 64 10000 5.7 350 23:48 25.06.2020
909 Clear 24 1012 64 10000 5.7 350 23:24 25.06.2020
910 Clear 24 1012 69 10000 6.2 350 22:59 25.06.2020
911 Clear 25 1012 61 10000 6.7 350 22:40 25.06.2020
912 Clouds 25 1012 57 10000 6.2 350 22:21 25.06.2020
913 Clouds 25 1012 57 10000 6.2 350 22:21 25.06.2020
914 Clouds 26 1012 57 10000 6.2 350 21:58 25.06.2020
915 Clouds 26 1012 57 10000 6.7 350 21:40 25.06.2020
916 Clouds 26 1012 57 10000 6.7 350 21:40 25.06.2020
917 Clouds 26 1012 57 10000 6.7 350 21:21 25.06.2020
918 Clouds 27 1012 57 10000 7.2 360 20:59 25.06.2020
919 Clouds 27 1012 51 10000 7.7 360 20:41 25.06.2020
920 Clouds 28 1012 51 10000 7.7 360 20:23 25.06.2020
921 Clouds 28 1011 51 10000 7.7 360 19:56 25.06.2020
922 Clouds 28 1011 48 10000 7.2 360 19:37 25.06.2020
923 Clouds 29 1011 48 10000 7.2 360 19:18 25.06.2020
924 Clouds 29 1011 42 10000 7.2 360 18:55 25.06.2020
925 Clouds 29 1011 42 10000 7.2 360 18:36 25.06.2020
926 Clouds 29 1011 42 10000 7.2 360 18:36 25.06.2020
927 Clear 30 1011 42 10000 6.7 360 18:18 25.06.2020
928 Clear 30 1010 42 10000 7.2 360 17:39 25.06.2020
929 Clear 30 1011 38 10000 6.2 350 17:19 25.06.2020
930 Clear 31 1011 38 10000 6.2 350 16:41 25.06.2020
931 Clear 31 1011 38 10000 6.2 350 16:21 25.06.2020
932 Clear 30 1011 37 10000 6.7 350 15:45 25.06.2020
933 Clear 30 1011 37 10000 6.7 350 15:27 25.06.2020
934 Clear 30 1011 40 10000 6.2 340 14:58 25.06.2020
935 Clear 30 1012 40 10000 5.7 350 14:40 25.06.2020
936 Clear 30 1012 40 10000 5.7 10 14:22 25.06.2020
937 Clear 30 1012 40 10000 5.7 10 13:56 25.06.2020
938 Clear 30 1012 42 10000 5.1 350 13:37 25.06.2020
939 Clouds 30 1012 42 10000 5.7 20 13:19 25.06.2020
940 Clouds 29 1013 42 10000 5.7 350 12:44 25.06.2020
941 Clouds 28 1013 45 10000 4.6 360 12:20 25.06.2020
942 Clouds 28 1013 45 10000 4.6 360 11:56 25.06.2020
943 Clouds 27 1013 51 10000 5.1 10 11:38 25.06.2020
944 Clouds 27 1014 51 10000 4.6 20 11:20 25.06.2020
945 Clouds 27 1014 51 10000 4.6 20 11:20 25.06.2020
946 Clouds 25 1014 57 10000 6.2 10 10:42 25.06.2020
947 Clouds 25 1014 57 10000 6.2 10 10:23 25.06.2020
948 Clouds 25 1014 57 10000 6.2 10 09:41 25.06.2020
949 Clouds 25 1014 57 10000 6.2 10 09:23 25.06.2020
950 Clouds 23 1014 69 10000 5.1 350 08:47 25.06.2020
951 Clouds 23 1014 69 10000 5.1 360 08:21 25.06.2020
952 Clouds 23 1014 69 10000 5.1 360 07:57 25.06.2020
953 Clouds 23 1014 73 10000 5.1 360 07:38 25.06.2020
954 Clouds 22 1014 78 10000 5.1 360 07:20 25.06.2020
955 Clouds 22 1014 78 10000 5.1 360 06:30 25.06.2020
956 Clouds 22 1014 78 10000 5.1 350 05:55 25.06.2020
957 Clouds 22 1014 73 10000 5.1 350 05:29 25.06.2020
958 Clouds 22 1014 73 10000 5.1 350 03:36 25.06.2020
959 Clouds 22 1014 73 10000 5.1 350 02:45 25.06.2020
960 Clouds 22 1015 73 10000 5.1 360 02:19 25.06.2020
961 Clouds 23 1015 69 10000 5.1 360 01:35 25.06.2020
962 Clouds 23 1015 64 10000 5.1 20 00:50 25.06.2020
963 Clouds 23 1016 64 10000 6.7 30 00:22 25.06.2020
964 Clouds 23 1016 64 10000 6.7 30 23:58 24.06.2020
965 Clouds 24 1016 60 10000 6.2 30 23:38 24.06.2020
966 Clouds 24 1016 60 10000 7.7 30 23:19 24.06.2020
967 Clouds 24 1016 53 10000 7.2 30 22:42 24.06.2020
968 Clouds 25 1016 53 10000 6.7 20 22:21 24.06.2020
969 Clouds 25 1016 53 10000 6.7 20 21:57 24.06.2020
970 Clouds 26 1016 54 10000 7.7 20 21:37 24.06.2020
971 Clouds 26 1016 51 10000 7.2 360 21:19 24.06.2020
972 Clouds 27 1016 51 10000 7.2 360 20:59 24.06.2020
973 Clouds 27 1016 51 10000 7.2 360 20:59 24.06.2020
974 Clouds 27 1016 51 10000 7.2 360 20:40 24.06.2020
975 Clouds 27 1015 48 10000 8.2 10 20:21 24.06.2020
976 Clouds 28 1015 48 10000 8.2 10 19:59 24.06.2020
977 Clouds 28 1015 51 10000 8.2 360 19:39 24.06.2020
978 Clouds 28 1014 48 10000 7.7 360 19:20 24.06.2020
979 Clouds 29 1014 48 10000 7.7 360 18:58 24.06.2020
980 Clouds 30 1014 42 10000 7.2 340 18:39 24.06.2020
981 Clouds 30 1014 42 10000 7.2 340 18:39 24.06.2020
982 Clouds 30 1014 33 10000 7.2 340 18:20 24.06.2020
983 Clouds 31 1014 33 10000 7.2 340 17:56 24.06.2020
984 Clouds 31 1014 33 10000 6.7 330 17:37 24.06.2020
985 Clouds 32 1014 33 10000 6.7 360 17:18 24.06.2020
986 Clouds 32 1014 33 10000 6.7 360 17:18 24.06.2020
987 Clouds 32 1014 33 10000 6.7 360 16:56 24.06.2020
988 Clouds 32 1014 33 10000 6.7 360 16:56 24.06.2020
989 Clouds 32 1014 31 10000 6.2 340 16:37 24.06.2020
990 Clouds 32 1014 29 10000 6.7 330 16:19 24.06.2020
991 Clouds 32 1014 29 10000 6.2 350 15:55 24.06.2020
992 Clouds 32 1014 29 10000 6.2 350 15:37 24.06.2020
993 Clouds 32 1014 31 10000 7.2 330 15:18 24.06.2020
994 Clouds 33 1014 29 10000 6.2 340 14:42 24.06.2020
995 Clouds 33 1014 29 10000 6.2 340 14:22 24.06.2020
996 Clear 32 1014 27 10000 5.7 360 13:43 24.06.2020
997 Clear 32 1014 29 10000 5.1 340 13:22 24.06.2020
998 Clear 32 1015 29 10000 4.1 30 12:55 24.06.2020
999 Clear 32 1015 29 10000 4.1 30 12:36 24.06.2020
1000 Clear 31 1015 29 10000 4.6 360 12:18 24.06.2020
1001 Clear 31 1015 29 10000 4.1 10 11:42 24.06.2020
1002 Clear 31 1015 29 10000 5.1 10 11:24 24.06.2020
1003 Clear 31 1015 29 10000 5.1 10 10:59 24.06.2020
1004 Clear 30 1015 30 10000 5.1 30 10:40 24.06.2020
1005 Clear 30 1015 35 10000 5.1 40 10:18 24.06.2020
1006 Clear 28 1015 39 10000 5.1 40 09:42 24.06.2020
1007 Clear 27 1015 42 10000 5.1 30 09:21 24.06.2020
1008 Clear 26 1015 54 10000 5.1 30 08:42 24.06.2020
1009 Clear 25 1015 53 10000 5.7 60 08:20 24.06.2020
1010 Clear 25 1015 64 10000 5.7 60 07:50 24.06.2020
1011 Clear 24 1015 64 10000 5.7 60 07:31 24.06.2020
1012 Clear 23 1015 78 10000 6.2 50 06:50 24.06.2020
1013 Clear 23 1015 78 10000 5.1 60 06:25 24.06.2020
1014 Clear 23 1014 73 10000 5.1 60 05:56 24.06.2020
1015 Clear 23 1014 73 10000 6.7 50 04:46 24.06.2020
1016 Clear 23 1014 73 10000 6.7 50 04:27 24.06.2020
1017 Clear 23 1014 73 10000 7.7 60 03:34 24.06.2020
1018 Clear 23 1015 73 10000 6.7 40 02:45 24.06.2020
1019 Clear 24 1015 69 10000 7.7 40 01:41 24.06.2020
1020 Clear 24 1015 69 10000 7.2 30 00:47 24.06.2020
1021 Clear 24 1015 57 10000 7.7 30 00:27 24.06.2020
1022 Clear 25 1015 57 10000 7.7 30 23:46 23.06.2020
1023 Clear 25 1015 50 10000 9.3 30 23:20 23.06.2020
1024 Clear 26 1015 50 10000 9.3 30 22:54 23.06.2020
1025 Clear 26 1015 50 10000 9.3 30 22:36 23.06.2020
1026 Clear 27 1014 42 10000 9.8 30 22:18 23.06.2020
1027 Clear 27 1014 42 10000 9.8 30 22:18 23.06.2020
1028 Clear 28 1014 42 10000 9.8 30 21:40 23.06.2020
1029 Clear 28 1013 51 10000 9.8 20 21:19 23.06.2020
1030 Clear 29 1013 51 10000 9.8 20 20:56 23.06.2020
1031 Clear 29 1013 51 10000 9.8 20 20:37 23.06.2020
1032 Clear 30 1012 35 10000 7.2 10 20:18 23.06.2020
1033 Clear 32 1012 35 10000 7.2 10 19:45 23.06.2020
1034 Clear 32 1012 35 10000 7.2 10 19:27 23.06.2020
1035 Clear 32 1012 29 10000 6.7 360 18:42 23.06.2020
1036 Clear 33 1012 29 10000 6.2 350 18:19 23.06.2020
1037 Clear 33 1012 29 10000 6.2 350 17:58 23.06.2020
1038 Clear 34 1012 26 10000 6.2 350 17:39 23.06.2020
1039 Clear 34 1012 21 10000 5.7 310 17:20 23.06.2020
1040 Clear 35 1012 21 10000 5.7 310 16:55 23.06.2020
1041 Clear 35 1012 21 10000 5.7 310 16:37 23.06.2020
1042 Clear 35 1012 20 10000 5.7 340 16:18 23.06.2020
1043 Clear 35 1012 20 10000 5.7 340 15:44 23.06.2020
1044 Clear 35 1012 19 10000 5.1 330 15:25 23.06.2020
1045 Clear 35 1012 19 10000 5.1 330 14:58 23.06.2020
1046 Clear 35 1012 19 10000 4.6 340 14:40 23.06.2020
1047 Clear 35 1012 20 10000 4.6 340 14:18 23.06.2020
1048 Clear 34 1012 20 10000 4.6 340 13:55 23.06.2020
1049 Clear 34 1013 20 10000 2.1 30 13:37 23.06.2020
1050 Clear 34 1013 20 10000 2.1 30 13:18 23.06.2020
1051 Clear 34 1013 20 10000 3.6 60 12:40 23.06.2020
1052 Clear 33 1013 21 10000 4.1 30 12:22 23.06.2020
1053 Clear 33 1013 21 10000 4.1 30 11:54 23.06.2020
1054 Clear 33 1013 21 10000 4.1 30 11:36 23.06.2020
1055 Clear 32 1013 22 10000 4.6 40 11:18 23.06.2020
1056 Clear 31 1013 22 10000 4.6 40 10:41 23.06.2020
1057 Clear 31 1013 22 10000 4.6 40 10:41 23.06.2020
1058 Clear 31 1013 22 10000 4.6 40 10:22 23.06.2020
1059 Clear 30 1013 23 10000 5.1 40 09:59 23.06.2020
1060 Clear 30 1013 23 10000 5.1 40 09:41 23.06.2020
1061 Clear 30 1013 22 10000 5.7 50 09:20 23.06.2020
1062 Clear 30 1013 21 10000 5.1 60 08:47 23.06.2020
1063 Clear 29 1013 21 10000 5.1 60 08:28 23.06.2020
1064 Clear 27 1013 36 10000 4.1 70 07:58 23.06.2020
1065 Clear 27 1013 36 10000 4.1 70 07:39 23.06.2020
1066 Clear 26 1013 61 10000 3.6 60 07:21 23.06.2020
1067 Clear 24 1012 78 10000 5.1 60 06:47 23.06.2020
1068 Clear 24 1012 78 10000 5.1 60 06:29 23.06.2020
1069 Clear 23 1012 78 10000 5.1 70 05:39 23.06.2020
1070 Clear 24 1012 64 10000 5.1 30 03:29 23.06.2020
1071 Clear 25 1012 61 10000 4.1 30 02:55 23.06.2020
1072 Clear 25 1012 57 10000 4.1 30 02:36 23.06.2020
1073 Clear 25 1012 57 10000 4.6 30 01:47 23.06.2020
1074 Clear 25 1012 57 10000 4.6 30 01:29 23.06.2020
1075 Clear 26 1012 61 10000 5.7 30 00:56 23.06.2020
1076 Clear 26 1012 61 10000 5.7 30 00:24 23.06.2020
1077 Clear 26 1012 61 10000 5.7 30 23:56 22.06.2020
1078 Clear 27 1012 54 10000 6.2 30 23:38 22.06.2020
1079 Clear 27 1012 54 10000 5.7 40 23:19 22.06.2020
1080 Clear 28 1012 48 10000 5.1 360 22:55 22.06.2020
1081 Clear 28 1012 48 10000 5.1 360 22:37 22.06.2020
1082 Clear 28 1012 48 10000 5.1 350 22:19 22.06.2020
1083 Clear 28 1012 48 10000 5.1 350 21:57 22.06.2020
1084 Clear 29 1012 45 10000 6.2 350 21:38 22.06.2020
1085 Clear 29 1011 42 10000 5.7 350 21:20 22.06.2020
1086 Clear 31 1011 27 10000 6.2 340 20:41 22.06.2020
1087 Clear 31 1011 27 10000 6.2 340 20:22 22.06.2020
1088 Clear 31 1010 27 10000 6.2 320 19:45 22.06.2020
1089 Clear 33 1010 24 10000 5.1 320 19:20 22.06.2020
1090 Clear 33 1010 24 10000 5.1 320 18:59 22.06.2020
1091 -273 0 0 0 0 0 18:59 22.06.2020
1092 -273 0 0 0 0 0 18:59 22.06.2020
1093 Clear 33 1010 24 10000 5.1 320 18:39 22.06.2020
1094 Clear 34 1010 24 10000 5.1 320 18:21 22.06.2020
1095 Clear 34 1010 24 10000 5.1 320 17:57 22.06.2020
1096 Clear 34 1010 23 10000 5.1 290 17:38 22.06.2020
1097 Clear 35 1010 23 10000 5.1 290 17:19 22.06.2020
1098 Clear 35 1010 23 10000 5.1 290 16:55 22.06.2020
1099 Clear 35 1010 23 10000 5.7 310 16:37 22.06.2020
1100 Clear 35 1010 23 10000 5.7 310 16:18 22.06.2020
1101 Clear 34 1010 23 10000 5.7 310 15:42 22.06.2020
1102 Clear 35 1010 23 10000 5.7 310 15:24 22.06.2020
1103 Clear 35 1010 23 10000 5.7 290 14:56 22.06.2020
1104 Clear 35 1010 21 10000 5.1 300 14:36 22.06.2020
1105 Clear 34 1010 21 10000 5.1 300 14:18 22.06.2020
1106 Clear 34 1010 20 10000 4.6 280 13:40 22.06.2020
1107 Clear 34 1010 20 10000 4.6 280 13:21 22.06.2020
1108 Clear 34 1010 20 10000 4.1 280 12:59 22.06.2020
1109 Clear 33 1011 18 10000 3.6 270 12:40 22.06.2020
1110 Clear 33 1011 18 10000 3.6 270 12:22 22.06.2020
1111 Clear 32 1011 25 10000 2.6 310 11:38 22.06.2020
1112 Clear 32 1011 25 10000 2.6 310 11:19 22.06.2020
1113 Clear 32 1011 31 10000 1.5 320 10:57 22.06.2020
1114 Clear 31 1011 33 10000 2.1 290 10:38 22.06.2020
1115 Clear 31 1011 33 10000 2.1 290 10:19 22.06.2020
1116 Clear 30 1011 37 10000 1.5 290 09:57 22.06.2020
1117 Clear 29 1011 42 10000 1.5 270 09:38 22.06.2020
1118 Clear 29 1011 42 10000 1.5 270 09:19 22.06.2020
1119 Clear 27 1011 54 10000 2.1 280 08:56 22.06.2020
1120 Clear 27 1011 54 10000 2.1 280 08:37 22.06.2020
1121 Clear 27 1011 54 10000 2.1 280 08:18 22.06.2020
1122 Clear 26 1010 61 10000 2.1 330 07:46 22.06.2020
1123 Clear 26 1010 61 10000 2.1 330 07:25 22.06.2020
1124 Clear 26 1010 57 10000 2.1 320 06:39 22.06.2020
1125 Clear 25 1009 50 10000 2.14 338 06:20 22.06.2020
1126 Clear 25 1009 50 10000 1.5 60 05:42 22.06.2020
1127 Clear 26 1009 47 10000 1.5 330 03:47 22.06.2020
1128 Clear 27 1009 47 10000 3.1 290 01:53 22.06.2020
1129 Clear 28 1009 45 10000 3.1 300 00:58 22.06.2020
1130 Clear 28 1009 45 10000 3.1 300 00:29 22.06.2020
1131 Clear 29 1009 37 10000 4.1 300 23:57 21.06.2020
1132 Clear 29 1009 37 10000 4.1 300 23:38 21.06.2020
1133 Clear 29 1009 37 10000 4.1 300 23:20 21.06.2020
1134 Clear 31 1009 29 10000 4.6 310 22:56 21.06.2020
1135 Clear 31 1009 29 10000 4.6 310 22:36 21.06.2020
1136 Clear 31 1009 29 10000 4.6 310 22:18 21.06.2020
1137 Clear 32 1009 25 10000 6.7 300 21:55 21.06.2020
1138 Clear 32 1009 25 10000 6.7 300 21:37 21.06.2020
1139 Clear 32 1009 25 10000 6.7 300 21:19 21.06.2020
1140 Clear 33 1008 22 10000 6.2 290 20:56 21.06.2020
1141 Clear 34 1007 24 10000 7.7 300 20:36 21.06.2020
1142 Clear 34 1007 24 10000 7.7 300 20:18 21.06.2020
1143 Clear 34 1007 24 10000 7.7 300 20:18 21.06.2020
1144 Clear 38 1006 13 10000 6.2 170 19:41 21.06.2020
1145 Clear 38 1006 13 10000 6.2 170 19:21 21.06.2020
1146 Clear 38 1006 13 10000 6.2 180 18:56 21.06.2020
1147 Clear 39 1006 11 10000 7.2 180 18:38 21.06.2020
1148 Clear 40 1006 11 10000 7.2 180 18:20 21.06.2020
1149 Clear 40 1006 11 10000 7.2 180 17:56 21.06.2020
1150 Clear 40 1006 11 10000 7.7 190 17:38 21.06.2020
1151 Clear 40 1006 11 10000 7.7 190 17:19 21.06.2020
1152 Clear 40 1006 11 10000 7.2 190 16:40 21.06.2020
1153 Clear 40 1006 11 10000 7.2 190 16:22 21.06.2020
1154 Clear 40 1007 11 10000 5.7 190 15:56 21.06.2020
1155 Clear 40 1007 12 10000 4.1 190 15:36 21.06.2020
1156 Clear 39 1007 12 10000 4.1 190 15:18 21.06.2020
1157 Clear 37 1008 14 10000 4.6 210 14:39 21.06.2020
1158 Clear 37 1008 14 10000 4.6 210 14:20 21.06.2020
1159 Clear 37 1009 17 10000 4.1 200 13:56 21.06.2020
1160 Clear 37 1009 17 10000 4.1 200 13:38 21.06.2020
1161 Clear 37 1009 17 10000 4.1 200 13:19 21.06.2020
1162 Clear 36 1009 16 10000 3.6 220 12:44 21.06.2020
1163 Clear 35 1009 16 10000 5.1 200 12:25 21.06.2020
1164 Clear 34 1009 17 10000 4.6 220 11:58 21.06.2020
1165 Clear 34 1009 16 10000 4.1 230 11:39 21.06.2020
1166 Clear 34 1009 16 10000 4.1 230 11:21 21.06.2020
1167 Clear 33 1009 16 10000 3.6 210 10:56 21.06.2020
1168 Clear 33 1009 16 10000 3.6 210 10:38 21.06.2020
1169 Clear 33 1009 16 10000 3.6 210 10:20 21.06.2020
1170 Clear 32 1009 15 10000 4.1 180 09:41 21.06.2020
1171 Clear 32 1009 15 10000 4.1 180 09:19 21.06.2020
1172 Clear 31 1009 16 10000 3.6 180 08:56 21.06.2020
1173 Clear 29 1009 26 10000 3.1 150 08:38 21.06.2020
1174 Clear 29 1009 26 10000 3.1 150 08:19 21.06.2020
1175 Clear 27 1010 54 10000 2.59 184 07:41 21.06.2020
1176 Clear 27 1010 54 10000 1.89 178 07:23 21.06.2020
1177 Clear 26 1010 57 6000 1.89 178 06:50 21.06.2020
1178 Clear 24 1010 60 6000 1.5 190 06:18 21.06.2020
1179 Clear 23 1010 64 6000 1.26 152 05:56 21.06.2020
1180 Clear 24 1010 60 10000 1.34 156 04:29 21.06.2020
1181 Clear 24 1010 60 10000 1.36 118 03:19 21.06.2020
1182 Clear 25 1011 57 10000 1.78 0 02:22 21.06.2020
1183 Clear 25 1011 57 10000 1 320 01:37 21.06.2020
1184 Clear 25 1011 57 10000 1 320 01:18 21.06.2020
1185 Clear 26 1012 54 10000 2.6 330 00:42 21.06.2020
1186 Clear 26 1012 54 10000 2.6 330 00:23 21.06.2020
1187 Clear 27 1013 51 10000 3.1 340 23:45 20.06.2020
1188 Clear 27 1013 51 10000 3.1 340 23:22 20.06.2020
1189 Clear 27 1013 51 10000 3.1 350 22:57 20.06.2020
1190 Clear 27 1013 51 10000 3.6 340 22:39 20.06.2020
1191 Clear 27 1013 51 10000 3.6 340 22:20 20.06.2020
1192 Clear 27 1012 51 10000 5.1 330 21:58 20.06.2020
1193 Clear 28 1012 48 10000 4.6 340 21:39 20.06.2020
1194 Clear 28 1012 48 10000 4.6 340 21:20 20.06.2020
1195 Clear 28 1012 45 10000 5.1 330 21:20 20.06.2020
1196 Clear 28 1012 45 10000 5.1 330 20:58 20.06.2020
1197 Clear 28 1012 42 10000 5.1 330 20:40 20.06.2020
1198 Clear 29 1011 39 10000 5.7 310 20:20 20.06.2020
1199 Clear 29 1011 39 10000 5.7 310 19:57 20.06.2020
1200 Clear 30 1011 37 10000 6.2 330 19:38 20.06.2020
1201 Clear 30 1011 37 10000 6.2 330 19:19 20.06.2020
1202 Clear 30 1011 31 10000 7.2 320 18:42 20.06.2020
1203 Clear 31 1011 31 10000 7.2 320 18:20 20.06.2020
1204 Clear 32 1010 25 10000 6.7 320 17:57 20.06.2020
1205 Clear 32 1010 22 10000 6.7 330 17:39 20.06.2020
1206 Clear 33 1010 22 10000 6.7 330 17:20 20.06.2020
1207 Clouds 33 1011 27 10000 6.2 320 16:42 20.06.2020
1208 Clouds 33 1011 27 10000 6.2 320 16:19 20.06.2020
1209 Clouds 33 1011 29 10000 7.2 330 15:58 20.06.2020
1210 Clouds 33 1011 27 10000 6.2 330 15:40 20.06.2020
1211 Clouds 33 1011 27 10000 6.2 330 15:18 20.06.2020
1212 Clouds 32 1011 33 10000 6.2 300 14:43 20.06.2020
1213 Clouds 32 1011 33 10000 6.2 300 14:21 20.06.2020
1214 Clear 31 1012 35 10000 6.7 300 13:42 20.06.2020
1215 Clear 31 1012 35 10000 6.7 300 13:24 20.06.2020
1216 Clear 31 1012 35 10000 6.7 280 12:57 20.06.2020
1217 Clear 31 1012 35 10000 4.6 300 12:38 20.06.2020
1218 Clear 31 1012 35 10000 4.6 300 12:19 20.06.2020
1219 Clear 30 1012 37 10000 5.1 290 11:55 20.06.2020
1220 Clear 29 1012 42 10000 4.1 300 11:36 20.06.2020
1221 Clear 29 1012 42 10000 4.1 300 11:18 20.06.2020
1222 Clear 29 1012 45 10000 4.6 270 10:44 20.06.2020
1223 Clear 28 1012 48 10000 3.6 280 10:21 20.06.2020
1224 Clear 27 1012 54 10000 3.6 290 09:55 20.06.2020
1225 Clear 26 1012 54 10000 3.6 270 09:36 20.06.2020
1226 Clear 26 1012 54 10000 3.6 270 09:18 20.06.2020
1227 Clear 26 1012 57 10000 3.1 290 08:45 20.06.2020
1228 Clear 25 1012 61 10000 3.6 280 08:27 20.06.2020
1229 Clouds 25 1012 61 10000 3.1 290 07:51 20.06.2020
1230 Clouds 24 1012 69 10000 3.1 300 07:27 20.06.2020
1231 Clouds 23 1012 73 10000 3.6 280 06:54 20.06.2020
1232 Clouds 22 1012 78 10000 2.1 260 06:23 20.06.2020
1233 Clouds 22 1012 78 10000 4.1 250 05:52 20.06.2020
1234 Clouds 22 1012 78 10000 3.6 250 04:52 20.06.2020
1235 Clouds 23 1011 73 10000 4.1 280 02:27 20.06.2020
1236 Clouds 23 1011 73 10000 3.6 280 01:48 20.06.2020
1237 Clouds 24 1012 64 10000 4.1 290 00:55 20.06.2020
1238 Clouds 25 1012 57 10000 3.6 300 00:21 20.06.2020
1239 Clouds 25 1012 57 10000 4.1 310 23:55 19.06.2020
1240 Clouds 26 1012 50 10000 4.6 310 23:37 19.06.2020
1241 Clouds 26 1012 50 10000 4.6 310 23:18 19.06.2020
1242 Clouds 27 1012 42 10000 4.6 330 22:40 19.06.2020
1243 Clouds 27 1012 42 10000 4.6 330 22:22 19.06.2020
1244 Clouds 27 1012 42 10000 4.6 340 21:58 19.06.2020
1245 Clouds 28 1011 39 10000 5.7 340 21:38 19.06.2020
1246 Clouds 28 1011 39 10000 5.7 340 21:18 19.06.2020
1247 Clouds 28 1011 39 10000 5.1 340 20:58 19.06.2020
1248 Clouds 29 1011 35 10000 5.1 320 20:40 19.06.2020
1249 Clouds 29 1011 35 10000 5.1 320 20:21 19.06.2020
1250 Clouds 29 1011 32 10000 5.1 330 19:57 19.06.2020
1251 Clouds 30 1011 33 10000 5.7 320 19:39 19.06.2020
1252 Clouds 30 1010 33 10000 6.2 320 19:21 19.06.2020
1253 Clouds 31 1010 31 10000 6.2 300 18:42 19.06.2020
1254 Clouds 31 1010 31 10000 6.2 300 18:22 19.06.2020
1255 Clouds 31 1010 31 10000 5.7 300 17:59 19.06.2020
1256 Clouds 31 1010 33 10000 7.2 310 17:40 19.06.2020
1257 Clouds 31 1010 33 10000 7.2 310 17:22 19.06.2020
1258 Clouds 32 1010 31 10000 6.2 300 16:56 19.06.2020
1259 Clouds 32 1010 27 10000 6.2 300 16:37 19.06.2020
1260 Clouds 32 1010 27 10000 6.2 300 16:19 19.06.2020
1261 Clouds 31 1010 33 10000 6.2 310 15:43 19.06.2020
1262 Clouds 31 1010 33 10000 6.2 310 15:24 19.06.2020
1263 Clouds 31 1010 33 10000 5.1 290 14:56 19.06.2020
1264 Clouds 31 1011 35 10000 4.1 310 14:38 19.06.2020
1265 Clouds 31 1011 35 10000 4.1 310 14:19 19.06.2020
1266 Clouds 31 1011 33 10000 3.6 280 13:45 19.06.2020
1267 Clouds 31 1011 33 10000 3.6 280 13:27 19.06.2020
1268 Clouds 30 1012 42 10000 3.1 280 12:58 19.06.2020
1269 Clouds 29 1012 42 10000 3.1 280 12:40 19.06.2020
1270 Clouds 29 1012 42 10000 3.1 280 12:18 19.06.2020
1271 Clouds 27 1012 51 10000 4.1 250 11:40 19.06.2020
1272 Clouds 27 1012 51 10000 4.1 250 11:19 19.06.2020
1273 Clouds 26 1013 57 10000 2.6 230 10:59 19.06.2020
1274 Clouds 26 1013 57 10000 2.6 230 10:40 19.06.2020
1275 Clouds 26 1013 57 10000 2.6 230 10:19 19.06.2020
1276 Clouds 24 1013 64 10000 1.5 240 09:44 19.06.2020
1277 Clouds 24 1013 64 10000 1.5 240 09:25 19.06.2020
1278 Clouds 23 1013 73 10000 3.6 270 08:58 19.06.2020
1279 Clouds 23 1013 73 10000 3.6 270 08:38 19.06.2020
1280 Clouds 23 1013 73 10000 4.1 200 08:20 19.06.2020
1281 Clouds 22 1013 78 10000 4.1 200 07:40 19.06.2020
1282 Clouds 22 1013 78 10000 4.1 200 07:21 19.06.2020
1283 Clouds 22 1013 73 10000 4.1 290 06:44 19.06.2020
1284 Clouds 22 1013 73 10000 4.1 290 06:20 19.06.2020
1285 Clear 22 1012 78 10000 2.6 300 04:30 19.06.2020
1286 Clear 22 1012 78 10000 2.6 330 03:29 19.06.2020
1287 Clear 23 1013 73 10000 3.6 310 01:45 19.06.2020
1288 Clear 23 1013 73 10000 5.1 320 00:43 19.06.2020
1289 Clear 23 1013 73 10000 5.1 320 00:22 19.06.2020
1290 Clear 24 1013 64 10000 5.7 310 23:56 18.06.2020
1291 Clear 24 1013 64 10000 5.7 310 23:37 18.06.2020
1292 Clear 24 1013 64 10000 5.7 310 23:19 18.06.2020
1293 Clear 25 1013 61 10000 6.2 300 22:39 18.06.2020
1294 Clear 25 1013 61 10000 6.2 300 22:20 18.06.2020
1295 Clear 26 1012 54 10000 5.7 300 21:56 18.06.2020
1296 Clear 26 1012 54 10000 5.7 300 21:36 18.06.2020
1297 Clear 26 1012 54 10000 5.7 300 21:18 18.06.2020
1298 Clear 28 1012 48 10000 5.7 310 20:40 18.06.2020
1299 Clear 28 1012 48 10000 5.7 310 20:20 18.06.2020
1300 Clear 29 1011 42 10000 6.2 300 19:57 18.06.2020
1301 Clear 29 1011 42 10000 6.2 300 19:38 18.06.2020
1302 Clear 29 1011 42 10000 6.2 300 19:19 18.06.2020
1303 Clear 30 1011 35 10000 6.2 290 18:39 18.06.2020
1304 Clear 30 1011 35 10000 6.2 290 18:21 18.06.2020
1305 Clear 31 1011 33 10000 6.7 280 17:54 18.06.2020
1306 Clear 31 1010 31 10000 6.7 280 17:36 18.06.2020
1307 Clear 32 1010 31 10000 6.7 280 17:18 18.06.2020
1308 Clear 31 1011 31 10000 6.7 290 16:41 18.06.2020
1309 Clear 31 1011 31 10000 6.7 290 16:23 18.06.2020
1310 Clouds 31 1011 35 10000 4.1 300 15:58 18.06.2020
1311 Clouds 31 1011 35 10000 4.1 300 15:39 18.06.2020
1312 Clouds 31 1011 35 10000 4.1 300 15:20 18.06.2020
1313 Clouds 31 1011 31 10000 4.1 290 14:56 18.06.2020
1314 Clouds 31 1011 31 10000 4.1 290 14:38 18.06.2020
1315 Clouds 31 1011 31 10000 4.1 290 14:20 18.06.2020
1316 Clouds 29 1012 37 10000 4.6 270 13:47 18.06.2020
1317 Clouds 29 1012 37 10000 4.6 270 13:28 18.06.2020
1318 Clouds 28 1012 45 10000 4.1 270 12:57 18.06.2020
1319 Clouds 28 1012 45 10000 4.1 270 12:39 18.06.2020
1320 Clouds 28 1012 45 10000 4.1 270 12:39 18.06.2020
1321 Clouds 28 1012 45 10000 4.1 270 12:20 18.06.2020
1322 Clouds 27 1013 44 10000 4.6 300 11:57 18.06.2020
1323 Clouds 27 1013 44 10000 4.6 300 11:38 18.06.2020
1324 Clouds 27 1013 44 10000 4.6 300 11:19 18.06.2020
1325 Clouds 26 1013 54 10000 2.6 290 10:40 18.06.2020
1326 Clouds 26 1013 54 10000 2.6 290 10:19 18.06.2020
1327 Clouds 24 1013 60 10000 4.1 320 09:46 18.06.2020
1328 Clouds 23 1012 64 10000 3.6 340 09:27 18.06.2020
1329 Clouds 23 1012 64 10000 3.6 340 08:58 18.06.2020
1330 Clouds 23 1012 64 10000 3.6 340 08:38 18.06.2020
1331 Clouds 23 1012 64 10000 3.6 340 08:19 18.06.2020
1332 Clouds 23 1012 69 10000 4.6 310 07:45 18.06.2020
1333 Clouds 23 1012 69 10000 4.6 310 07:25 18.06.2020
1334 Clouds 22 1012 73 10000 3.1 330 06:42 18.06.2020
1335 Clouds 22 1012 73 10000 3.1 330 05:34 18.06.2020
1336 Clear 22 1011 73 10000 4.1 310 04:21 18.06.2020
1337 Clear 24 1011 73 10000 6.7 310 01:49 18.06.2020
1338 Clear 24 1011 73 10000 6.7 310 01:27 18.06.2020
1339 Clear 25 1011 73 10000 6.7 310 00:54 18.06.2020
1340 Clear 25 1011 73 10000 6.7 310 00:32 18.06.2020
1341 Clear 25 1011 73 10000 6.7 310 23:56 17.06.2020
1342 Clear 25 1011 73 10000 6.7 310 23:38 17.06.2020
1343 Clear 25 1011 73 10000 6.7 310 23:19 17.06.2020
1344 Clear 26 1011 65 10000 7.2 310 22:57 17.06.2020
1345 Clear 26 1011 65 10000 7.2 310 22:57 17.06.2020
1346 Clear 26 1011 57 10000 7.2 310 22:37 17.06.2020
1347 Clear 26 1011 57 10000 7.2 310 22:37 17.06.2020
1348 Clear 27 1011 57 10000 7.2 310 22:19 17.06.2020
1349 Clear 29 1010 45 10000 5.7 330 21:40 17.06.2020
1350 Clear 29 1010 45 10000 5.7 330 21:22 17.06.2020
1351 Clear 30 1009 45 6000 5.7 330 20:57 17.06.2020
1352 Clear 30 1009 43 6000 5.7 330 20:38 17.06.2020
1353 Clear 31 1009 43 6000 5.7 330 20:19 17.06.2020
1354 Sand 32 1008 46 4000 8.7 300 19:44 17.06.2020
1355 Sand 33 1008 46 4000 8.7 300 19:23 17.06.2020
1356 Sand 33 1008 46 4000 8.7 300 18:56 17.06.2020
1357 Sand 35 1007 39 4000 9.3 310 18:38 17.06.2020
1358 Sand 35 1007 39 4000 9.3 310 18:20 17.06.2020
1359 Clear 38 1006 28 10000 5.7 210 17:42 17.06.2020
1360 Clear 40 1006 20 10000 5.1 210 17:22 17.06.2020
1361 Clear 41 1006 20 10000 5.1 210 16:57 17.06.2020
1362 Clear 41 1006 20 10000 6.2 240 16:38 17.06.2020
1363 Clear 41 1006 7 10000 6.2 240 16:20 17.06.2020
1364 Clear 41 1006 7 10000 5.1 220 15:56 17.06.2020
1365 Clear 41 1007 8 10000 3.6 210 15:38 17.06.2020
1366 Clear 42 1007 8 10000 3.6 210 15:18 17.06.2020
1367 Clear 41 1007 8 10000 2.1 210 14:55 17.06.2020
1368 Clear 41 1007 8 10000 5.7 220 14:36 17.06.2020
1369 Clear 41 1007 9 10000 5.7 220 14:18 17.06.2020
1370 Clear 41 1007 9 10000 4.1 240 13:41 17.06.2020
1371 Clear 41 1007 9 10000 4.1 240 13:22 17.06.2020
1372 Clear 40 1008 9 10000 3.1 250 12:58 17.06.2020
1373 Clear 40 1008 8 10000 2.6 190 12:40 17.06.2020
1374 Clear 40 1008 8 10000 2.6 190 12:20 17.06.2020
1375 Clear 41 1008 9 10000 2.1 170 11:44 17.06.2020
1376 Clear 39 1008 9 10000 4.1 110 11:24 17.06.2020
1377 Clear 39 1009 10 10000 3.1 140 10:55 17.06.2020
1378 Clear 38 1009 10 10000 2.6 100 10:37 17.06.2020
1379 Clear 38 1009 11 10000 2.6 100 10:18 17.06.2020
1380 Clear 37 1009 11 10000 4.1 90 09:55 17.06.2020
1381 Clear 36 1009 9 10000 2.6 90 09:36 17.06.2020
1382 Clear 36 1009 9 10000 2.6 90 09:18 17.06.2020
1383 Clear 34 1009 9 10000 3.6 110 08:42 17.06.2020
1384 Clear 34 1009 9 10000 3.6 110 08:19 17.06.2020
1385 Clear 32 1009 13 10000 5.7 80 07:43 17.06.2020
1386 Clear 32 1009 13 10000 5.7 80 07:23 17.06.2020
1387 Clear 28 1009 26 10000 6.2 80 06:58 17.06.2020
1388 Clear 28 1009 26 10000 6.2 80 06:39 17.06.2020
1389 Clear 28 1009 26 10000 6.2 80 06:21 17.06.2020
1390 Clear 24 1009 41 10000 4.6 60 05:48 17.06.2020
1391 Clear 24 1009 44 10000 3.6 50 04:36 17.06.2020
1392 Clear 26 1010 44 10000 5.1 60 01:55 17.06.2020
1393 Clear 26 1010 44 10000 5.1 60 00:49 17.06.2020
1394 Clear 26 1010 44 10000 5.1 60 00:30 17.06.2020
1395 Clear 26 1011 42 10000 6.2 50 23:58 16.06.2020
1396 Clear 27 1011 42 10000 6.2 50 23:40 16.06.2020
1397 Clear 27 1011 42 10000 6.2 50 23:22 16.06.2020
1398 Clear 27 1011 37 10000 6.7 40 22:57 16.06.2020
1399 Clear 28 1011 37 10000 6.7 40 22:38 16.06.2020
1400 Clear 28 1011 35 10000 7.2 30 22:19 16.06.2020
1401 Clear 29 1011 35 10000 7.2 30 21:57 16.06.2020
1402 Clear 29 1011 35 10000 7.2 30 21:39 16.06.2020
1403 Clear 29 1011 35 10000 7.2 30 21:20 16.06.2020
1404 Clear 30 1010 29 10000 8.2 30 20:43 16.06.2020
1405 Clear 31 1010 29 10000 8.2 30 20:22 16.06.2020
1406 Clear 32 1010 27 10000 7.7 20 19:58 16.06.2020
1407 Clear 32 1010 24 10000 7.7 20 19:40 16.06.2020
1408 Clear 33 1010 24 10000 7.7 20 19:22 16.06.2020
1409 Clear 34 1009 23 10000 7.2 30 18:56 16.06.2020
1410 Clear 34 1009 23 10000 7.2 30 18:38 16.06.2020
1411 Clear 34 1009 23 10000 7.2 30 18:20 16.06.2020
1412 Clear 34 1009 24 10000 6.7 30 17:55 16.06.2020
1413 Clear 34 1009 21 10000 6.2 30 17:37 16.06.2020
1414 Clear 35 1009 21 10000 6.2 30 17:18 16.06.2020
1415 Clear 34 1009 21 10000 6.2 10 16:55 16.06.2020
1416 Clear 35 1009 21 10000 6.2 10 16:37 16.06.2020
1417 Clear 35 1009 21 10000 6.2 10 16:18 16.06.2020
1418 Clear 34 1009 23 10000 6.2 20 15:55 16.06.2020
1419 Clear 34 1010 21 10000 5.7 30 15:37 16.06.2020
1420 Clear 34 1010 21 10000 5.7 30 15:19 16.06.2020
1421 Clear 33 1010 26 10000 3.1 30 14:42 16.06.2020
1422 Clear 33 1010 26 10000 3.1 30 14:23 16.06.2020
1423 Clear 33 1011 24 10000 5.7 20 13:50 16.06.2020
1424 Clear 33 1011 24 10000 5.7 20 13:27 16.06.2020
1425 Clear 33 1011 24 10000 5.7 10 12:57 16.06.2020
1426 Clear 32 1011 27 10000 5.7 40 12:39 16.06.2020
1427 Clear 31 1012 29 10000 5.1 50 12:21 16.06.2020
1428 Clear 31 1012 29 10000 5.1 50 11:55 16.06.2020
1429 Clear 31 1012 29 10000 5.1 50 11:37 16.06.2020
1430 Clear 31 1012 29 10000 5.1 50 11:19 16.06.2020
1431 Clear 29 1012 35 10000 5.7 50 10:43 16.06.2020
1432 Clear 29 1012 35 10000 5.7 50 10:21 16.06.2020
1433 Clear 28 1012 37 10000 5.1 50 09:58 16.06.2020
1434 Clear 27 1011 39 10000 5.7 50 09:40 16.06.2020
1435 Clear 27 1011 39 10000 5.7 50 09:21 16.06.2020
1436 Clear 26 1011 50 10000 6.2 60 08:45 16.06.2020
1437 Clear 25 1011 50 10000 6.2 60 08:26 16.06.2020
1438 Clear 24 1011 57 10000 5.7 70 07:50 16.06.2020
1439 Clear 23 1011 60 10000 6.2 70 07:27 16.06.2020
1440 Clear 23 1011 60 10000 5.7 70 06:54 16.06.2020
1441 Clear 22 1011 60 10000 5.1 70 06:27 16.06.2020
1442 Clear 21 1011 60 10000 3.1 60 05:39 16.06.2020
1443 Clear 21 1011 49 10000 3.1 60 04:40 16.06.2020
1444 Clear 22 1011 49 10000 3.6 70 02:59 16.06.2020
1445 Clear 23 1011 46 10000 3.1 50 02:00 16.06.2020
1446 Clear 23 1012 49 10000 3.6 50 01:30 16.06.2020
1447 Clear 24 1012 47 10000 3.6 60 00:45 16.06.2020
1448 Clear 24 1012 47 10000 3.6 60 00:21 16.06.2020
1449 Clear 25 1012 41 10000 5.1 40 23:43 15.06.2020
1450 Clear 25 1012 41 10000 5.1 40 23:23 15.06.2020
1451 Clear 25 1012 41 10000 5.1 40 22:56 15.06.2020
1452 Clear 26 1012 39 10000 5.7 40 22:38 15.06.2020
1453 Clear 26 1012 39 10000 5.7 40 22:18 15.06.2020
1454 Clear 26 1012 36 10000 7.2 30 21:56 15.06.2020
1455 Clear 26 1012 34 10000 7.2 30 21:37 15.06.2020
1456 Clear 27 1012 36 10000 7.2 30 21:19 15.06.2020
1457 Clear 27 1012 34 10000 7.2 30 21:19 15.06.2020
1458 Clear 27 1012 36 10000 7.2 30 20:56 15.06.2020
1459 Clear 27 1012 32 10000 8.2 30 20:37 15.06.2020
1460 Clear 28 1012 32 10000 8.2 30 20:19 15.06.2020
1461 Clear 28 1012 34 10000 7.2 20 19:55 15.06.2020
1462 Clear 28 1011 37 10000 7.7 360 19:37 15.06.2020
1463 Clear 29 1011 37 10000 7.7 360 19:19 15.06.2020
1464 Clear 30 1011 35 10000 7.2 10 18:55 15.06.2020
1465 Clear 30 1011 33 10000 7.7 360 18:37 15.06.2020
1466 Clear 30 1011 33 10000 7.7 360 18:18 15.06.2020
1467 Clear 31 1010 29 10000 6.2 350 17:42 15.06.2020
1468 Clear 31 1010 29 10000 6.2 350 17:21 15.06.2020
1469 Clear 31 1011 27 10000 7.2 360 16:58 15.06.2020
1470 Clear 31 1011 27 10000 5.7 10 16:40 15.06.2020
1471 Clear 31 1011 27 10000 5.7 10 16:19 15.06.2020
1472 Clear 32 1011 25 10000 5.1 10 15:56 15.06.2020
1473 Clear 32 1011 24 10000 5.1 340 15:36 15.06.2020
1474 Clear 32 1011 24 10000 5.1 340 15:18 15.06.2020
1475 Clear 31 1011 22 10000 5.1 350 14:42 15.06.2020
1476 Clear 32 1011 22 10000 5.1 350 14:21 15.06.2020
1477 Clear 31 1011 23 10000 7.2 350 13:59 15.06.2020
1478 Clear 30 1012 25 10000 7.2 20 13:40 15.06.2020
1479 Clear 30 1012 25 10000 7.2 20 13:22 15.06.2020
1480 Clear 30 1012 25 10000 6.7 350 12:56 15.06.2020
1481 Clear 30 1012 25 10000 6.7 360 12:38 15.06.2020
1482 Clear 30 1012 25 10000 6.7 360 12:19 15.06.2020
1483 Clear 30 1012 25 10000 4.1 40 11:43 15.06.2020
1484 Clear 29 1012 26 10000 6.2 360 11:24 15.06.2020
1485 Clear 28 1012 30 10000 7.2 10 10:44 15.06.2020
1486 Clear 28 1012 30 10000 7.2 10 10:22 15.06.2020
1487 Clear 27 1013 34 10000 5.7 30 09:56 15.06.2020
1488 Clear 26 1012 50 10000 3.1 360 09:38 15.06.2020
1489 Clear 25 1012 50 10000 3.1 360 09:19 15.06.2020
1490 Clear 25 1013 60 10000 3.6 20 08:39 15.06.2020
1491 Clear 24 1013 60 10000 3.6 20 08:21 15.06.2020
1492 Clouds 23 1012 64 10000 3.6 40 07:46 15.06.2020
1493 Clouds 23 1012 64 10000 2.1 10 07:28 15.06.2020
1494 Clouds 22 1012 68 10000 3.6 30 06:49 15.06.2020
1495 Clouds 22 1012 68 10000 3.6 40 06:25 15.06.2020
1496 Clouds 21 1012 68 10000 3.1 10 05:46 15.06.2020
1497 Clouds 21 1012 68 10000 3.1 10 05:26 15.06.2020
1498 Clouds 21 1011 68 10000 2.6 20 04:20 15.06.2020
1499 Clouds 22 1011 60 10000 3.1 10 03:41 15.06.2020
1500 Clouds 22 1011 60 10000 4.1 30 02:54 15.06.2020
1501 Clouds 22 1011 60 10000 4.1 40 01:58 15.06.2020
1502 Clouds 23 1011 56 10000 5.1 40 01:35 15.06.2020
1503 Clouds 23 1011 53 10000 5.1 40 00:59 15.06.2020
1504 Clouds 23 1011 53 10000 5.1 40 00:39 15.06.2020
1505 Clouds 23 1011 50 10000 6.7 30 00:20 15.06.2020
1506 Clouds 24 1011 50 10000 6.7 30 23:47 14.06.2020
1507 Clouds 24 1011 50 10000 6.7 30 23:25 14.06.2020
1508 Clouds 24 1011 50 10000 6.2 40 22:58 14.06.2020
1509 Clouds 24 1011 50 10000 6.2 40 22:39 14.06.2020
1510 Clouds 24 1011 50 10000 6.2 40 22:20 14.06.2020
1511 Clouds 25 1011 44 10000 8.2 30 21:58 14.06.2020
1512 Clouds 25 1011 44 10000 8.7 40 21:40 14.06.2020
1513 Clouds 25 1011 44 10000 8.7 40 21:19 14.06.2020
1514 Clouds 26 1011 44 10000 8.2 20 20:59 14.06.2020
1515 Clouds 27 1010 42 10000 6.7 40 20:39 14.06.2020
1516 Clouds 27 1010 42 10000 6.7 40 20:20 14.06.2020
1517 Clouds 28 1010 39 10000 7.7 40 19:59 14.06.2020
1518 Clouds 28 1009 39 10000 6.2 40 19:38 14.06.2020
1519 Clouds 28 1009 39 10000 6.2 40 19:19 14.06.2020
1520 Clouds 29 1009 37 10000 6.7 10 18:57 14.06.2020
1521 Clouds 30 1008 33 10000 6.7 10 18:39 14.06.2020
1522 Clouds 30 1008 33 10000 6.7 10 18:21 14.06.2020
1523 Clouds 31 1008 31 10000 4.6 350 17:58 14.06.2020
1524 Clear 31 1008 31 10000 5.1 20 17:39 14.06.2020
1525 Clear 31 1008 29 10000 4.6 10 17:20 14.06.2020
1526 Clear 31 1008 29 10000 4.6 10 16:55 14.06.2020
1527 Clear 32 1008 27 10000 5.7 360 16:36 14.06.2020
1528 Clear 32 1008 27 10000 5.7 360 16:18 14.06.2020
1529 Clear 31 1008 23 10000 5.1 360 15:41 14.06.2020
1530 Clear 31 1008 23 10000 5.1 360 15:20 14.06.2020
1531 Clear 31 1008 25 10000 5.7 360 14:59 14.06.2020
1532 Clear 30 1008 25 10000 6.2 20 14:40 14.06.2020
1533 Clear 30 1008 25 10000 6.2 20 14:22 14.06.2020
1534 Clear 30 1008 25 10000 5.1 360 13:58 14.06.2020
1535 Clear 30 1009 25 10000 5.1 350 13:39 14.06.2020
1536 Clear 30 1009 25 10000 5.1 350 13:21 14.06.2020
1537 Clear 30 1009 25 10000 5.1 350 13:21 14.06.2020
1538 Clear 29 1009 28 10000 4.6 350 12:57 14.06.2020
1539 Clear 29 1009 32 10000 4.6 10 12:38 14.06.2020
1540 Clear 29 1009 32 10000 4.6 10 12:20 14.06.2020
1541 Clear 28 1009 30 10000 4.1 360 11:56 14.06.2020
1542 Clear 28 1009 30 10000 4.1 360 11:38 14.06.2020
1543 Clear 28 1009 30 10000 4.1 360 11:19 14.06.2020
1544 Clouds 27 1009 39 10000 4.1 20 10:42 14.06.2020
1545 Clouds 27 1009 39 10000 4.1 20 10:20 14.06.2020
1546 Clouds 26 1010 44 10000 4.6 10 09:51 14.06.2020
1547 Clouds 25 1010 53 10000 4.1 360 09:26 14.06.2020
1548 Clouds 24 1010 60 10000 5.1 30 08:58 14.06.2020
1549 Clouds 23 1010 69 10000 5.1 30 08:40 14.06.2020
1550 Clouds 23 1010 69 10000 5.1 30 08:18 14.06.2020
1551 Clouds 23 1010 69 10000 4.1 20 07:51 14.06.2020
1552 Clouds 22 1010 73 10000 4.1 20 07:32 14.06.2020
1553 Clouds 21 1009 77 10000 5.1 20 06:39 14.06.2020
1554 Clouds 21 1009 77 10000 4.1 40 05:45 14.06.2020
1555 Clouds 22 1009 73 10000 5.1 40 04:59 14.06.2020
1556 Clouds 22 1009 73 10000 5.1 40 04:33 14.06.2020
1557 Clear 22 1009 68 10000 5.7 340 03:36 14.06.2020
1558 Clear 23 1009 64 10000 5.1 350 02:31 14.06.2020
1559 Clear 24 1009 53 10000 5.7 350 01:47 14.06.2020
1560 Clear 24 1009 53 10000 5.7 350 01:24 14.06.2020
1561 Clear 25 1009 53 10000 4.6 350 00:40 14.06.2020
1562 Clear 25 1009 53 10000 4.6 350 00:20 14.06.2020
1563 Clear 26 1009 47 10000 5.7 350 23:44 13.06.2020
1564 Clear 26 1009 47 10000 5.7 350 23:25 13.06.2020
1565 Clear 26 1009 44 10000 6.2 360 22:58 13.06.2020
1566 Clear 27 1009 42 10000 6.7 360 22:37 13.06.2020
1567 Clear 27 1009 42 10000 6.7 360 22:18 13.06.2020
1568 Clear 27 1009 42 10000 6.7 350 21:56 13.06.2020
1569 Clear 29 1009 35 10000 5.7 350 21:38 13.06.2020
1570 Clear 29 1009 35 10000 5.7 350 21:20 13.06.2020
1571 Clear 30 1008 35 10000 6.7 360 20:43 13.06.2020
1572 Clouds 30 1008 35 10000 6.7 360 20:19 13.06.2020
1573 Clouds 30 1007 35 10000 5.7 10 19:57 13.06.2020
1574 Clouds 31 1007 31 10000 5.7 350 19:36 13.06.2020
1575 Clouds 31 1007 31 10000 5.7 350 19:18 13.06.2020
1576 Clouds 32 1007 33 10000 5.1 340 18:55 13.06.2020
1577 Clouds 32 1007 33 10000 5.1 340 18:37 13.06.2020
1578 Clouds 32 1007 33 10000 5.1 340 18:18 13.06.2020
1579 Clouds 34 1007 26 10000 4.6 320 17:42 13.06.2020
1580 Clouds 34 1007 26 10000 4.6 320 17:23 13.06.2020
1581 Clouds 34 1006 24 10000 4.6 320 16:58 13.06.2020
1582 Clouds 34 1007 26 10000 4.1 290 16:40 13.06.2020
1583 Clouds 35 1007 26 10000 4.1 290 16:19 13.06.2020
1584 Clouds 35 1007 26 10000 4.1 290 15:59 13.06.2020
1585 Clouds 35 1007 26 10000 4.1 290 15:39 13.06.2020
1586 Clouds 35 1007 26 10000 4.1 290 15:20 13.06.2020
1587 Clouds 35 1007 26 10000 5.1 300 14:43 13.06.2020
1588 Clouds 35 1007 26 10000 5.1 300 14:22 13.06.2020
1589 Clouds 34 1007 28 10000 3.6 310 13:56 13.06.2020
1590 Clouds 34 1007 28 10000 3.6 310 13:37 13.06.2020
1591 Clouds 34 1007 28 10000 3.6 310 13:18 13.06.2020
1592 Clear 33 1009 29 10000 3.1 270 12:42 13.06.2020
1593 Clear 33 1009 29 10000 3.1 270 12:24 13.06.2020
1594 Clouds 31 1009 35 10000 3.1 290 11:55 13.06.2020
1595 Clouds 31 1009 35 10000 3.1 290 11:37 13.06.2020
1596 Clouds 31 1009 35 10000 3.1 290 11:18 13.06.2020
1597 Clear 30 1009 35 6000 4.6 300 10:42 13.06.2020
1598 Clear 30 1009 35 6000 4.6 300 10:23 13.06.2020
1599 Clear 30 1008 30 6000 5.1 270 09:55 13.06.2020
1600 Clear 30 1008 30 6000 5.1 270 09:36 13.06.2020
1601 Clear 30 1008 30 6000 5.1 270 09:18 13.06.2020
1602 Sand 30 1008 28 4000 5.7 250 08:44 13.06.2020
1603 Sand 30 1008 28 4000 5.7 250 08:26 13.06.2020
1604 Sand 29 1008 28 4000 5.7 250 07:44 13.06.2020
1605 Clear 29 1007 22 6000 4.1 270 07:25 13.06.2020
1606 Clear 30 1007 21 10000 3.1 200 06:44 13.06.2020
1607 Clear 29 1007 21 10000 3.1 200 06:25 13.06.2020
1608 Clear 28 1007 24 10000 1 190 05:29 13.06.2020
1609 Clear 29 1006 25 10000 1 280 04:38 13.06.2020
1610 Clear 29 1006 21 10000 1 280 03:43 13.06.2020
1611 Clear 29 1006 23 10000 1 210 02:45 13.06.2020
1612 Clear 28 1007 26 10000 2.6 180 01:50 13.06.2020
1613 Clear 28 1007 26 10000 1 80 01:24 13.06.2020
1614 Clear 28 1008 26 10000 2.6 50 00:54 13.06.2020
1615 Clear 28 1008 26 10000 1 50 00:29 13.06.2020
1616 Clear 29 1009 23 10000 4.1 70 23:59 12.06.2020
1617 Clear 29 1009 23 10000 5.7 70 23:38 12.06.2020
1618 Clear 29 1009 23 10000 5.7 70 23:18 12.06.2020
1619 Clear 30 1009 23 10000 6.2 70 22:54 12.06.2020
1620 Clear 31 1009 22 10000 5.1 60 22:36 12.06.2020
1621 Clear 31 1009 22 10000 5.1 60 22:18 12.06.2020
1622 Clear 31 1010 29 10000 6.2 30 21:42 12.06.2020
1623 Clear 31 1010 29 10000 6.2 30 21:23 12.06.2020
1624 Clear 32 1009 27 10000 6.2 30 20:57 12.06.2020
1625 Clear 33 1009 19 10000 5.7 40 20:37 12.06.2020
1626 Clear 33 1009 19 10000 5.7 40 20:19 12.06.2020
1627 Clear 34 1009 18 10000 4.6 20 19:42 12.06.2020
1628 Clear 34 1009 18 10000 4.6 20 19:21 12.06.2020
1629 Clear 35 1009 16 10000 3.6 20 18:58 12.06.2020
1630 Clear 35 1009 17 10000 3.6 340 18:37 12.06.2020
1631 Clear 35 1009 17 10000 3.6 340 18:18 12.06.2020
1632 Clear 36 1009 15 10000 3.6 360 17:43 12.06.2020
1633 Clear 36 1009 15 10000 3.6 360 17:25 12.06.2020
1634 Clear 36 1010 14 10000 3.6 20 16:47 12.06.2020
1635 Clear 36 1010 14 10000 3.6 20 16:22 12.06.2020
1636 Clear 36 1010 14 10000 3.1 310 15:53 12.06.2020
1637 Clear 36 1010 13 10000 2.1 320 15:29 12.06.2020
1638 Clear 35 1010 14 10000 5.1 360 14:59 12.06.2020
1639 Clear 35 1010 14 10000 4.6 40 14:41 12.06.2020
1640 Clear 35 1010 14 10000 4.6 40 14:22 12.06.2020
1641 Clear 35 1011 14 10000 4.1 70 13:56 12.06.2020
1642 Clear 35 1011 14 10000 4.1 70 13:37 12.06.2020
1643 Clear 35 1011 14 10000 4.1 70 13:18 12.06.2020
1644 Clear 34 1012 15 10000 3.1 20 12:39 12.06.2020
1645 Clear 34 1012 15 10000 3.1 20 12:19 12.06.2020
1646 Clear 32 1012 17 10000 3.1 60 11:44 12.06.2020
1647 Clear 32 1012 17 10000 3.1 60 11:23 12.06.2020
1648 Clear 32 1012 18 10000 3.6 60 10:56 12.06.2020
1649 Clear 31 1012 18 10000 3.6 60 10:38 12.06.2020
1650 Clear 31 1012 18 10000 3.6 60 10:19 12.06.2020
1651 Clear 30 1012 22 10000 6.2 70 09:44 12.06.2020
1652 Clear 30 1012 22 10000 6.2 70 09:20 12.06.2020
1653 Clear 28 1013 23 10000 4.6 70 08:41 12.06.2020
1654 Clear 28 1013 23 10000 4.6 70 08:23 12.06.2020
1655 Clear 26 1013 27 10000 5.1 70 07:42 12.06.2020
1656 Clear 26 1013 27 10000 5.1 70 07:24 12.06.2020
1657 Clear 24 1013 41 10000 2.6 90 06:43 12.06.2020
1658 Clear 24 1013 41 10000 2.6 90 06:22 12.06.2020
1659 Clear 22 1013 46 10000 3.6 80 05:49 12.06.2020
1660 Clear 23 1013 40 10000 2.6 50 05:24 12.06.2020
1661 Clear 23 1013 38 10000 3.1 50 03:56 12.06.2020
1662 Clear 25 1013 31 10000 2.6 20 02:43 12.06.2020
1663 Clear 25 1013 31 10000 2.6 30 01:47 12.06.2020
1664 Clear 25 1013 31 10000 2.6 30 01:21 12.06.2020
1665 Clear 27 1013 28 10000 3.6 360 00:41 12.06.2020
1666 Clear 27 1013 28 10000 3.6 360 00:22 12.06.2020
1667 Clear 27 1013 30 10000 4.6 360 23:58 11.06.2020
1668 Clear 27 1013 30 10000 4.6 360 23:39 11.06.2020
1669 Clear 27 1013 30 10000 4.6 360 23:20 11.06.2020
1670 Clear 28 1014 30 10000 4.6 350 22:57 11.06.2020
1671 Clear 28 1014 30 10000 4.6 350 22:38 11.06.2020
1672 Clouds 28 1014 30 10000 4.6 350 22:19 11.06.2020
1673 Clouds 29 1014 28 10000 3.6 330 21:54 11.06.2020
1674 Clouds 29 1014 28 10000 3.6 330 21:36 11.06.2020
1675 Clouds 29 1014 28 10000 3.6 330 21:18 11.06.2020
1676 Clouds 29 1013 28 10000 4.6 340 20:43 11.06.2020
1677 Clouds 30 1013 28 10000 4.6 340 20:21 11.06.2020
1678 Clouds 31 1012 27 10000 6.7 310 19:44 11.06.2020
1679 Clouds 31 1012 18 10000 6.7 320 19:23 11.06.2020
1680 Clouds 32 1012 18 10000 6.7 320 18:58 11.06.2020
1681 Clouds 32 1012 18 10000 6.7 320 18:40 11.06.2020
1682 Clouds 32 1012 21 10000 7.2 320 18:20 11.06.2020
1683 Clouds 32 1012 21 10000 7.2 320 17:56 11.06.2020
1684 Clouds 33 1011 22 10000 5.7 340 17:37 11.06.2020
1685 Clouds 33 1011 22 10000 6.7 310 17:19 11.06.2020
1686 Clouds 33 1011 20 10000 6.7 300 16:46 11.06.2020
1687 Clear 33 1012 19 10000 6.2 330 16:28 11.06.2020
1688 Clear 33 1012 19 10000 6.2 330 15:59 11.06.2020
1689 Clear 34 1012 21 10000 5.1 300 15:41 11.06.2020
1690 Clear 34 1012 23 10000 6.2 330 15:23 11.06.2020
1691 Clear 34 1012 23 10000 6.2 330 14:55 11.06.2020
1692 Clear 34 1012 20 10000 6.2 320 14:36 11.06.2020
1693 Clear 34 1012 23 10000 5.7 300 14:18 11.06.2020
1694 Clear 34 1012 23 10000 5.7 300 13:54 11.06.2020
1695 Clear 34 1013 23 10000 5.7 310 13:36 11.06.2020
1696 Clear 33 1013 24 10000 5.1 330 13:18 11.06.2020
1697 Clear 32 1013 24 10000 4.6 310 12:39 11.06.2020
1698 Clear 32 1013 25 10000 4.6 290 12:20 11.06.2020
1699 Clear 32 1013 25 10000 4.6 290 11:59 11.06.2020
1700 Clear 31 1013 31 10000 3.1 340 11:40 11.06.2020
1701 Clear 31 1013 29 10000 3.1 310 11:22 11.06.2020
1702 Clear 31 1013 29 10000 3.1 310 10:57 11.06.2020
1703 Clear 30 1014 33 10000 1.5 290 10:39 11.06.2020
1704 Clear 30 1014 33 10000 1.5 290 10:39 11.06.2020
1705 Clear 28 1014 47 10000 2.6 320 10:18 11.06.2020
1706 Clear 27 1014 47 10000 2.6 320 09:43 11.06.2020
1707 Clear 27 1014 47 10000 2.6 320 09:25 11.06.2020
1708 Clear 26 1014 57 10000 3.6 290 08:44 11.06.2020
1709 Clouds 26 1014 57 10000 2.6 310 08:21 11.06.2020
1710 Clouds 26 1014 57 10000 2.6 310 07:59 11.06.2020
1711 Clouds 25 1013 57 10000 2.6 310 07:41 11.06.2020
1712 Clouds 25 1013 57 10000 2.6 310 07:41 11.06.2020
1713 Clouds 25 1013 53 10000 3.1 340 07:22 11.06.2020
1714 Clouds 25 1013 53 10000 3.1 340 07:22 11.06.2020
1715 Clouds 24 1013 57 10000 2.6 340 06:31 11.06.2020
1716 Clouds 25 1013 57 10000 2.6 330 05:50 11.06.2020
1717 Clouds 26 1012 50 10000 4.6 340 03:59 11.06.2020
1718 Clouds 27 1012 36 10000 1.5 350 03:25 11.06.2020
1719 Clouds 27 1012 36 10000 1.5 350 02:45 11.06.2020
1720 Clear 26 1011 36 10000 3.1 40 01:56 11.06.2020
1721 Clear 26 1011 36 10000 3.1 40 01:34 11.06.2020
1722 Clear 27 1012 34 10000 3.6 30 00:52 11.06.2020
1723 Clear 27 1012 34 10000 3.6 30 00:32 11.06.2020
1724 Clear 28 1012 48 10000 6.7 30 23:56 10.06.2020
1725 Clear 28 1012 48 10000 6.7 30 23:56 10.06.2020
1726 Clear 28 1012 48 10000 6.7 30 23:37 10.06.2020
1727 Clear 28 1012 48 10000 6.7 20 23:18 10.06.2020
1728 Clear 28 1012 48 10000 6.7 20 22:40 10.06.2020
1729 Clear 30 1012 35 10000 7.2 30 22:22 10.06.2020
1730 Clear 30 1012 35 10000 7.2 30 21:59 10.06.2020
1731 Clear 31 1012 33 10000 5.7 40 21:41 10.06.2020
1732 Clear 32 1012 31 10000 6.7 40 21:19 10.06.2020
1733 Clear 32 1012 31 10000 6.7 40 20:58 10.06.2020
1734 Clear 33 1011 29 10000 5.7 30 20:40 10.06.2020
1735 Clear 34 1011 23 10000 4.1 360 20:21 10.06.2020
1736 Clear 34 1011 23 10000 4.1 360 19:58 10.06.2020
1737 Clear 34 1011 24 10000 4.1 330 19:38 10.06.2020
1738 Clear 34 1011 23 10000 4.1 340 19:18 10.06.2020
1739 Clear 35 1011 23 10000 4.1 320 18:42 10.06.2020
1740 Clear 35 1011 21 10000 4.1 340 18:22 10.06.2020
1741 Clear 35 1011 21 10000 4.1 340 17:59 10.06.2020
1742 Clear 36 1011 19 10000 3.1 340 17:41 10.06.2020
1743 Clear 36 1011 20 10000 3.6 330 17:20 10.06.2020
1744 Clear 36 1011 20 10000 3.6 330 16:59 10.06.2020
1745 Clear 36 1011 20 10000 4.1 330 16:40 10.06.2020
1746 Clear 36 1011 20 10000 4.1 340 16:20 10.06.2020
1747 Clear 36 1011 20 10000 4.1 340 15:57 10.06.2020
1748 Clear 36 1011 20 10000 3.6 330 15:37 10.06.2020
1749 Clear 36 1011 19 10000 3.6 350 15:19 10.06.2020
1750 Clear 35 1011 21 10000 3.6 10 14:41 10.06.2020
1751 Clear 35 1012 20 10000 3.6 360 14:22 10.06.2020
1752 Clear 35 1012 20 10000 3.6 360 13:57 10.06.2020
1753 Clear 35 1012 20 10000 3.6 360 13:39 10.06.2020
1754 Clear 34 1012 23 10000 3.6 330 13:21 10.06.2020
1755 Clear 33 1012 24 10000 3.1 10 12:41 10.06.2020
1756 Clear 32 1012 24 10000 1.5 350 12:19 10.06.2020
1757 Clear 32 1012 24 10000 1.5 350 11:56 10.06.2020
1758 Clear 31 1012 27 10000 2.1 350 11:38 10.06.2020
1759 Clear 30 1013 30 10000 2.1 360 11:19 10.06.2020
1760 Clear 30 1013 30 10000 2.1 360 10:44 10.06.2020
1761 Clear 29 1013 30 10000 2.1 360 10:25 10.06.2020
1762 Clear 28 1013 34 10000 2.6 20 09:59 10.06.2020
1763 Clear 28 1013 34 10000 2.6 20 09:39 10.06.2020
1764 Clear 27 1012 39 10000 4.1 70 09:20 10.06.2020
1765 Clear 27 1012 39 10000 4.1 70 09:20 10.06.2020
1766 Clear 27 1012 39 10000 4.1 70 08:43 10.06.2020
1767 Clear 25 1012 50 10000 4.1 90 08:23 10.06.2020
1768 Clear 25 1012 50 10000 4.1 90 07:43 10.06.2020
1769 Clear 23 1012 56 10000 4.1 50 07:24 10.06.2020
1770 Clear 23 1012 56 10000 4.1 50 06:59 10.06.2020
1771 Clear 23 1012 56 10000 4.1 50 06:39 10.06.2020
1772 Clear 22 1012 60 10000 4.1 50 06:18 10.06.2020
1773 Clear 22 1012 60 10000 4.1 50 05:51 10.06.2020
1774 Clear 22 1012 60 10000 5.7 50 05:19 10.06.2020
1775 Clear 22 1011 60 10000 5.7 50 04:29 10.06.2020
1776 Clear 23 1011 60 10000 3.1 40 02:46 10.06.2020
1777 Clear 23 1011 53 10000 3.6 30 01:48 10.06.2020
1778 Clear 24 1011 53 10000 3.6 30 01:28 10.06.2020
1779 Clear 24 1012 53 10000 4.1 40 00:39 10.06.2020
1780 Clear 24 1012 60 10000 5.7 40 00:21 10.06.2020
1781 Clear 24 1012 60 10000 5.7 40 23:54 09.06.2020
1782 Clear 24 1012 57 10000 5.7 40 23:36 09.06.2020
1783 Clear 25 1012 57 10000 6.7 40 23:18 09.06.2020
1784 Clear 25 1012 57 10000 6.7 40 22:54 09.06.2020
1785 Clear 26 1012 54 10000 6.7 40 22:36 09.06.2020
1786 Clear 26 1011 54 10000 6.7 40 22:18 09.06.2020
1787 Clear 27 1011 54 10000 6.7 40 21:54 09.06.2020
1788 Clear 27 1011 54 10000 6.7 40 21:54 09.06.2020
1789 Clouds 27 1011 54 10000 6.7 40 21:36 09.06.2020
1790 Clouds 27 1011 54 10000 6.7 360 21:18 09.06.2020
1791 Clouds 27 1011 54 10000 6.7 360 20:54 09.06.2020
1792 Clouds 27 1011 48 10000 6.7 360 20:36 09.06.2020
1793 Clouds 29 1010 35 10000 5.1 320 20:18 09.06.2020
1794 Clouds 30 1010 35 10000 5.1 320 19:54 09.06.2020
1795 Clouds 30 1010 35 10000 5.1 320 19:54 09.06.2020
1796 Clouds 30 1010 35 10000 5.1 320 19:36 09.06.2020
1797 Clouds 30 1009 31 10000 5.1 320 19:18 09.06.2020
1798 Clouds 31 1009 31 10000 5.1 320 18:42 09.06.2020
1799 Clouds 31 1009 29 10000 5.1 320 18:24 09.06.2020
1800 Clouds 32 1009 29 10000 5.1 320 17:57 09.06.2020
1801 Clouds 32 1009 29 10000 5.1 320 17:38 09.06.2020
1802 Clouds 32 1009 29 10000 5.1 320 17:20 09.06.2020
1803 Clouds 32 1009 29 10000 5.1 320 16:46 09.06.2020
1804 Clouds 32 1009 29 10000 5.1 320 16:28 09.06.2020
1805 Clouds 33 1010 26 10000 6.2 310 15:59 09.06.2020
1806 Clouds 32 1010 25 10000 5.7 320 15:39 09.06.2020
1807 Clouds 32 1010 31 10000 3.6 340 15:21 09.06.2020
1808 Clouds 32 1010 31 10000 3.6 340 14:55 09.06.2020
1809 Clouds 31 1010 31 10000 3.6 360 14:37 09.06.2020
1810 Clouds 31 1010 31 10000 4.1 340 14:18 09.06.2020
1811 Clouds 30 1011 33 10000 3.1 340 13:43 09.06.2020
1812 Clouds 30 1011 35 10000 3.1 340 13:21 09.06.2020
1813 Clouds 30 1011 35 10000 3.1 340 12:59 09.06.2020
1814 Clouds 30 1011 35 10000 4.1 350 12:41 09.06.2020
1815 Clouds 30 1011 37 10000 4.1 350 12:19 09.06.2020
1816 Clouds 29 1011 37 10000 4.1 350 11:55 09.06.2020
1817 Clouds 27 1011 44 10000 4.1 350 11:37 09.06.2020
1818 Clouds 27 1011 47 10000 4.1 340 11:19 09.06.2020
1819 Clouds 26 1011 50 10000 3.1 10 10:44 09.06.2020
1820 Clouds 26 1011 50 10000 3.1 10 10:25 09.06.2020
1821 Clouds 25 1011 53 10000 2.6 10 09:55 09.06.2020
1822 Clouds 25 1011 57 10000 2.6 10 09:36 09.06.2020
1823 Clouds 24 1011 69 10000 2.1 40 09:18 09.06.2020
1824 Clouds 23 1011 69 10000 2.1 40 08:39 09.06.2020
1825 Clouds 22 1011 73 10000 3.1 30 08:20 09.06.2020
1826 Clouds 22 1011 73 10000 3.1 30 07:40 09.06.2020
1827 Clouds 20 1011 82 10000 3.6 20 07:22 09.06.2020
1828 Clouds 20 1011 82 10000 3.6 20 06:55 09.06.2020
1829 Clouds 20 1011 82 10000 3.6 20 06:36 09.06.2020
1830 Clouds 20 1010 82 10000 3.6 40 05:36 09.06.2020
1831 Clear 21 1009 77 10000 4.1 20 03:52 09.06.2020
1832 Clear 22 1010 73 10000 5.1 40 01:54 09.06.2020
1833 Clear 22 1010 73 10000 5.1 40 01:36 09.06.2020
1834 Clear 22 1010 73 10000 5.1 40 01:18 09.06.2020
1835 Clear 22 1010 73 10000 5.1 40 00:39 09.06.2020
1836 Clear 22 1011 69 10000 5.1 30 00:18 09.06.2020
1837 Clear 23 1011 69 10000 5.1 30 23:41 08.06.2020
1838 Clear 23 1011 64 10000 5.7 360 23:20 08.06.2020
1839 Clear 24 1011 64 10000 5.7 360 22:56 08.06.2020
1840 Clear 24 1011 64 10000 5.7 360 22:56 08.06.2020
1841 Clear 24 1011 64 10000 5.7 360 22:38 08.06.2020
1842 Clear 25 1010 57 10000 6.2 360 22:19 08.06.2020
1843 Clear 26 1010 57 10000 6.2 360 21:55 08.06.2020
1844 Clear 26 1010 57 10000 6.2 360 21:36 08.06.2020
1845 Clear 26 1009 51 10000 6.7 340 21:18 08.06.2020
1846 Clear 27 1009 51 10000 6.7 340 20:54 08.06.2020
1847 Clear 27 1009 51 10000 6.7 340 20:36 08.06.2020
1848 Clear 28 1008 45 10000 7.7 340 20:18 08.06.2020
1849 Clear 29 1008 45 10000 7.7 340 19:43 08.06.2020
1850 Clear 30 1008 38 10000 7.2 350 19:21 08.06.2020
1851 Clear 31 1008 38 10000 7.2 350 18:43 08.06.2020
1852 Clear 32 1008 29 10000 6.2 340 18:21 08.06.2020
1853 Clear 32 1008 29 10000 6.2 340 17:58 08.06.2020
1854 Clear 32 1008 27 10000 5.7 330 17:39 08.06.2020
1855 Clear 33 1008 29 10000 5.1 300 17:21 08.06.2020
1856 Clear 33 1008 29 10000 5.1 300 16:58 08.06.2020
1857 Clear 33 1008 29 10000 5.1 300 16:39 08.06.2020
1858 Clear 33 1008 29 10000 5.1 300 16:39 08.06.2020
1859 Clear 33 1008 27 10000 3.6 340 16:21 08.06.2020
1860 Clear 33 1008 27 10000 3.6 340 15:42 08.06.2020
1861 Clouds 33 1008 29 10000 4.6 320 15:22 08.06.2020
1862 Clouds 33 1008 29 10000 4.6 320 14:58 08.06.2020
1863 Clouds 33 1008 29 10000 4.6 320 14:39 08.06.2020
1864 Clouds 32 1008 29 10000 3.6 360 14:19 08.06.2020
1865 Clouds 32 1008 29 10000 3.6 360 13:43 08.06.2020
1866 Clouds 31 1009 35 10000 4.1 340 13:23 08.06.2020
1867 Clouds 30 1009 35 10000 4.1 340 12:43 08.06.2020
1868 Clouds 29 1009 45 10000 4.1 10 12:20 08.06.2020
1869 Clouds 29 1009 45 10000 4.1 10 12:20 08.06.2020
1870 Clouds 28 1009 45 10000 4.1 10 11:59 08.06.2020
1871 Clouds 28 1009 45 10000 4.1 10 11:40 08.06.2020
1872 Clouds 27 1010 54 10000 4.1 350 11:21 08.06.2020
1873 Clouds 27 1010 54 10000 4.1 350 11:21 08.06.2020
1874 Clouds 26 1010 54 10000 4.1 350 10:58 08.06.2020
1875 Clouds 24 1010 64 10000 3.6 350 10:38 08.06.2020
1876 Clouds 24 1010 64 10000 3.6 350 10:20 08.06.2020
1877 Clouds 24 1010 64 10000 3.6 350 09:57 08.06.2020
1878 Clouds 24 1010 64 10000 3.6 350 09:57 08.06.2020
1879 Clouds 24 1010 64 10000 3.6 350 09:39 08.06.2020
1880 Clouds 23 1010 73 10000 5.1 360 09:20 08.06.2020
1881 Clouds 23 1010 73 10000 5.1 360 08:42 08.06.2020
1882 Clouds 22 1010 78 10000 4.6 360 08:20 08.06.2020
1883 Clouds 22 1010 78 10000 4.6 360 07:43 08.06.2020
1884 Clouds 22 1010 78 10000 4.6 360 07:21 08.06.2020
1885 Clouds 22 1010 78 6000 4.6 350 06:48 08.06.2020
1886 Clouds 22 1010 78 6000 4.6 350 06:28 08.06.2020
1887 Clouds 22 1009 83 6000 4.6 340 05:43 08.06.2020
1888 Clear 22 1009 78 10000 5.7 350 04:26 08.06.2020
1889 Clear 24 1008 60 10000 4.6 350 02:32 08.06.2020
1890 Clear 25 1009 50 10000 5.7 340 01:45 08.06.2020
1891 Clear 25 1009 50 10000 5.7 340 01:25 08.06.2020
1892 Clear 27 1009 34 10000 4.6 10 00:29 08.06.2020
1893 Clear 27 1009 34 10000 4.6 10 00:29 08.06.2020
1894 Clear 27 1009 34 10000 5.1 10 23:41 07.06.2020
1895 Clear 27 1009 34 10000 5.7 40 23:19 07.06.2020
1896 Clear 27 1009 34 10000 5.7 40 22:59 07.06.2020
1897 Clear 27 1009 34 10000 5.7 40 22:59 07.06.2020
1898 Clear 28 1009 37 10000 6.7 30 22:39 07.06.2020
1899 Clear 28 1009 39 10000 6.7 30 22:19 07.06.2020
1900 Clear 28 1009 39 10000 6.7 30 21:58 07.06.2020
1901 Clear 29 1008 30 10000 8.7 30 21:37 07.06.2020
1902 Clear 29 1008 30 10000 8.7 30 21:37 07.06.2020
1903 Clear 29 1008 35 10000 10.3 30 21:19 07.06.2020
1904 Clear 32 1008 38 10000 8.2 30 20:54 07.06.2020
1905 Clear 32 1008 38 10000 8.2 30 20:36 07.06.2020
1906 Clear 32 1007 24 10000 6.2 40 20:18 07.06.2020
1907 Clear 33 1007 24 10000 6.2 40 19:54 07.06.2020
1908 Clear 35 1007 21 10000 6.2 360 19:36 07.06.2020
1909 Clear 35 1007 21 10000 6.2 360 19:18 07.06.2020
1910 Clear 36 1007 18 10000 6.7 360 18:40 07.06.2020
1911 Clear 37 1007 11 10000 4.1 340 18:21 07.06.2020
1912 Clear 37 1007 11 10000 4.1 340 17:59 07.06.2020
1913 Clear 37 1006 10 10000 4.1 340 17:40 07.06.2020
1914 Clear 38 1007 8 10000 4.6 320 17:21 07.06.2020
1915 Clear 38 1007 10 10000 4.6 320 16:44 07.06.2020
1916 Clear 38 1007 12 10000 3.1 310 16:22 07.06.2020
1917 Clear 38 1007 13 10000 3.1 310 15:45 07.06.2020
1918 Clear 38 1007 13 10000 3.1 310 15:23 07.06.2020
1919 Clear 38 1007 12 10000 3.6 330 14:59 07.06.2020
1920 Clear 38 1008 9 10000 4.1 310 14:37 07.06.2020
1921 Clear 38 1008 12 10000 3.6 310 14:18 07.06.2020
1922 Clear 38 1008 7 10000 3.1 310 13:44 07.06.2020
1923 Clear 38 1008 7 10000 3.1 310 13:44 07.06.2020
1924 Clear 38 1008 7 10000 3.1 310 13:44 07.06.2020
1925 Clear 38 1008 7 10000 3.1 310 13:44 07.06.2020
1926 Clouds 38 1008 8 10000 3.6 290 13:19 07.06.2020
1927 Clouds 38 1008 8 10000 3.6 310 12:44 07.06.2020
1928 Clouds 37 1008 10 10000 3.6 300 12:26 07.06.2020
1929 Clouds 37 1008 10 10000 3.6 300 11:56 07.06.2020
1930 Clouds 37 1008 9 10000 2.1 20 11:38 07.06.2020
1931 Clouds 37 1008 9 10000 2.1 20 11:38 07.06.2020
1932 Clouds 36 1008 11 10000 2.1 10 11:20 07.06.2020
1933 Clouds 36 1008 11 10000 2.1 10 10:58 07.06.2020
1934 Clouds 35 1008 12 10000 3.1 40 10:39 07.06.2020
1935 Clear 34 1008 16 10000 3.6 30 10:19 07.06.2020
1936 Clear 35 1008 16 10000 3.6 30 10:19 07.06.2020
1937 Clear 34 1008 16 10000 3.6 30 09:56 07.06.2020
1938 Clear 33 1009 17 10000 3.6 40 09:37 07.06.2020
1939 Clouds 32 1009 19 10000 4.1 70 09:19 07.06.2020
1940 Clouds 32 1009 19 10000 4.1 70 08:44 07.06.2020
1941 Rain 32 1009 19 10000 4.1 70 08:23 07.06.2020
1942 Rain 32 1009 19 10000 4.1 70 08:23 07.06.2020
1943 Rain 29 1009 24 10000 2.6 30 07:46 07.06.2020
1944 Clouds 27 1009 24 10000 2.6 30 07:28 07.06.2020
1945 Clear 24 1008 38 10000 3.6 40 06:25 07.06.2020
1946 Clear 23 1008 38 10000 3.6 40 05:34 07.06.2020
1947 Clear 24 1009 33 10000 3.1 30 04:19 07.06.2020
1948 Clear 24 1009 44 10000 3.6 60 02:31 07.06.2020
1949 Clear 24 1009 44 10000 3.6 60 02:31 07.06.2020
1950 Clear 25 1010 41 10000 5.1 50 01:44 07.06.2020
1951 Clear 25 1010 41 10000 5.1 50 01:24 07.06.2020
1952 Clear 25 1010 44 10000 5.1 50 00:41 07.06.2020
1953 Clear 26 1011 41 10000 5.1 50 00:18 07.06.2020
1954 Clear 26 1011 41 10000 5.1 50 23:56 06.06.2020
1955 Clear 26 1011 41 10000 5.1 50 23:36 06.06.2020
1956 Clear 26 1011 39 10000 4.6 30 23:18 06.06.2020
1957 Clear 27 1011 39 10000 4.6 30 22:55 06.06.2020
1958 Clear 27 1011 39 10000 4.6 30 22:37 06.06.2020
1959 Clear 27 1011 39 10000 6.7 40 22:18 06.06.2020
1960 Clear 27 1011 37 10000 6.7 40 21:42 06.06.2020
1961 Clear 28 1010 35 10000 7.2 30 21:22 06.06.2020
1962 Clear 29 1010 35 10000 7.2 30 20:55 06.06.2020
1963 Clear 30 1010 33 10000 6.7 30 20:36 06.06.2020
1964 Clouds 30 1010 31 10000 6.2 20 20:18 06.06.2020
1965 Clouds 31 1010 27 10000 5.1 350 19:54 06.06.2020
1966 Clouds 32 1010 27 10000 5.1 350 19:36 06.06.2020
1967 Clouds 32 1009 26 10000 4.6 360 19:18 06.06.2020
1968 Clouds 33 1009 26 10000 5.1 10 18:42 06.06.2020
1969 Clouds 33 1009 24 10000 4.6 360 18:23 06.06.2020
1970 Clouds 34 1009 19 10000 4.1 340 17:44 06.06.2020
1971 Clear 35 1009 19 10000 3.6 20 17:21 06.06.2020
1972 Clear 35 1009 19 10000 3.6 20 16:58 06.06.2020
1973 Clear 35 1010 17 10000 5.1 340 16:39 06.06.2020
1974 Clouds 35 1010 19 10000 3.6 30 16:21 06.06.2020
1975 Clouds 35 1010 19 10000 3.6 30 15:55 06.06.2020
1976 Clouds 35 1010 18 10000 4.6 50 15:36 06.06.2020
1977 Clear 34 1010 18 10000 4.6 50 15:18 06.06.2020
1978 Clear 34 1010 20 10000 6.2 70 14:39 06.06.2020
1979 Clear 33 1010 21 10000 6.7 70 14:20 06.06.2020
1980 Clear 33 1010 21 10000 6.7 70 13:54 06.06.2020
1981 Clear 32 1011 24 10000 5.1 50 13:36 06.06.2020
1982 Clear 31 1012 27 10000 5.7 50 13:18 06.06.2020
1983 Clear 30 1012 30 10000 4.6 40 12:41 06.06.2020
1984 Clear 30 1013 35 10000 5.1 20 12:21 06.06.2020
1985 Clear 29 1013 35 10000 5.1 20 11:58 06.06.2020
1986 Clear 29 1013 35 10000 5.1 20 11:58 06.06.2020
1987 Clear 28 1014 37 10000 4.6 40 11:38 06.06.2020
1988 Clear 27 1014 44 10000 4.1 20 11:19 06.06.2020
1989 Clear 27 1014 44 10000 4.1 20 10:57 06.06.2020
1990 Clear 26 1014 47 10000 4.6 30 10:39 06.06.2020
1991 Clear 25 1014 53 10000 4.6 30 10:20 06.06.2020
1992 Clear 25 1014 57 10000 4.1 20 09:45 06.06.2020
1993 Clear 24 1014 57 10000 4.1 20 09:27 06.06.2020
1994 Clear 23 1014 64 10000 5.1 30 08:56 06.06.2020
1995 Clear 22 1014 68 10000 5.1 30 08:38 06.06.2020
1996 Clear 22 1014 68 10000 5.1 30 08:19 06.06.2020
1997 Clear 22 1014 68 10000 5.1 30 07:45 06.06.2020
1998 Clear 21 1014 73 10000 5.1 40 07:21 06.06.2020
1999 Clear 20 1013 77 10000 5.1 70 06:46 06.06.2020
2000 Clear 20 1013 77 10000 5.1 70 06:27 06.06.2020
2001 Clear 19 1013 82 10000 6.2 50 05:53 06.06.2020
2002 Clear 19 1013 82 10000 6.2 50 05:27 06.06.2020
2003 Clear 19 1013 82 10000 5.1 50 04:42 06.06.2020
2004 Clear 19 1013 72 10000 5.1 20 02:45 06.06.2020
2005 Clear 20 1014 72 10000 6.2 30 01:45 06.06.2020
2006 Clear 20 1014 72 10000 6.7 30 01:18 06.06.2020
2007 Clear 20 1014 72 10000 6.7 30 00:43 06.06.2020
2008 Clear 20 1014 72 10000 6.7 30 00:25 06.06.2020
2009 Clear 21 1014 64 10000 6.7 30 23:55 05.06.2020
2010 Clear 21 1014 64 10000 6.7 30 23:36 05.06.2020
2011 Clear 21 1015 60 10000 7.2 30 23:18 05.06.2020
2012 Clear 22 1015 60 10000 7.2 30 22:41 05.06.2020
2013 Clear 22 1015 60 10000 7.2 30 22:23 05.06.2020
2014 Clear 22 1015 56 10000 7.2 30 21:58 05.06.2020
2015 Clear 22 1015 53 10000 8.2 30 21:40 05.06.2020
2016 Clear 23 1015 50 10000 7.2 20 21:20 05.06.2020
2017 Clear 24 1015 50 10000 7.2 20 20:57 05.06.2020
2018 Clear 25 1014 47 10000 7.2 20 20:38 05.06.2020
2019 Clear 25 1014 47 10000 7.2 20 20:19 05.06.2020
2020 Clear 26 1013 44 10000 7.2 20 19:40 05.06.2020
2021 Clear 26 1013 44 10000 7.2 20 19:22 05.06.2020
2022 Clear 26 1013 44 10000 7.2 20 18:54 05.06.2020
2023 Clear 27 1013 39 10000 7.2 10 18:36 05.06.2020
2024 Clear 28 1013 37 10000 7.2 350 18:18 05.06.2020
2025 Clear 28 1013 37 10000 7.2 350 17:55 05.06.2020
2026 Clear 29 1013 30 10000 7.2 350 17:37 05.06.2020
2027 Clear 29 1013 30 10000 6.2 350 17:18 05.06.2020
2028 Clear 30 1013 30 10000 6.2 10 16:38 05.06.2020
2029 Clear 30 1013 30 10000 6.2 10 16:19 05.06.2020
2030 Clear 30 1013 30 10000 6.7 360 15:42 05.06.2020
2031 Clear 30 1013 30 10000 5.7 360 15:21 05.06.2020
2032 Clear 30 1013 30 10000 5.7 360 14:58 05.06.2020
2033 Clear 30 1013 30 10000 5.7 360 14:40 05.06.2020
2034 Clear 30 1014 35 10000 6.2 350 14:22 05.06.2020
2035 Clear 29 1014 35 10000 6.2 350 13:58 05.06.2020
2036 Clear 29 1014 35 10000 6.2 10 13:38 05.06.2020
2037 Clear 28 1015 37 10000 5.7 20 13:19 05.06.2020
2038 Clear 28 1015 37 10000 5.7 20 12:42 05.06.2020
2039 Clear 27 1015 42 10000 5.7 10 12:20 05.06.2020
2040 Clear 27 1015 42 10000 5.7 10 11:55 05.06.2020
2041 Clear 27 1015 42 10000 6.2 20 11:37 05.06.2020
2042 Clear 26 1015 47 10000 6.7 40 11:18 05.06.2020
2043 Clear 25 1016 53 10000 6.2 20 10:42 05.06.2020
2044 Clear 25 1016 53 10000 6.2 20 10:21 05.06.2020
2045 Clear 24 1016 57 10000 7.2 30 09:58 05.06.2020
2046 Clear 23 1016 60 10000 6.7 40 09:40 05.06.2020
2047 Clear 23 1016 60 10000 7.2 30 09:21 05.06.2020
2048 Clear 23 1016 60 10000 7.2 30 08:58 05.06.2020
2049 Clear 23 1016 60 10000 7.2 30 08:58 05.06.2020
2050 Clear 22 1016 68 10000 7.7 30 08:40 05.06.2020
2051 Clear 22 1016 68 10000 7.7 30 08:19 05.06.2020
2052 Clear 22 1016 68 10000 7.7 30 07:53 05.06.2020
2053 Clear 21 1016 77 10000 7.2 30 07:35 05.06.2020
2054 Clear 20 1015 77 10000 6.7 30 06:51 05.06.2020
2055 Clear 20 1015 77 10000 6.2 30 05:24 05.06.2020
2056 Clouds 20 1015 77 10000 6.7 30 04:31 05.06.2020
2057 Clouds 20 1015 77 10000 6.7 30 03:49 05.06.2020
2058 Clouds 21 1015 77 10000 6.7 30 02:37 05.06.2020
2059 Clear 21 1015 73 10000 6.7 30 02:18 05.06.2020
2060 Clear 21 1015 73 10000 6.7 30 01:36 05.06.2020
2061 Clear 21 1015 73 10000 6.7 30 01:36 05.06.2020
2062 Clear 21 1015 73 10000 6.7 30 00:56 05.06.2020
2063 Clear 21 1016 68 10000 6.7 20 00:37 05.06.2020
2064 Clear 22 1016 68 10000 6.7 20 00:18 05.06.2020
2065 Clear 22 1016 64 10000 7.2 30 23:42 04.06.2020
2066 Clear 22 1016 64 10000 7.7 30 23:24 04.06.2020
2067 Clear 22 1016 60 10000 8.7 30 22:44 04.06.2020
2068 Clear 23 1016 60 10000 8.7 40 22:22 04.06.2020
2069 Clear 23 1016 60 10000 8.7 40 21:59 04.06.2020
2070 Clear 23 1015 57 10000 8.2 30 21:40 04.06.2020
2071 Clear 24 1015 53 10000 7.7 30 21:21 04.06.2020
2072 Clear 25 1015 53 10000 7.7 30 20:57 04.06.2020
2073 Clear 25 1014 50 10000 9.3 30 20:39 04.06.2020
2074 Clouds 25 1014 44 10000 8.7 30 20:20 04.06.2020
2075 Clouds 26 1014 44 10000 8.7 30 19:55 04.06.2020
2076 Clouds 26 1014 44 10000 8.7 30 19:37 04.06.2020
2077 Clouds 27 1013 39 10000 9.8 30 19:19 04.06.2020
2078 Clouds 30 1013 35 10000 7.2 10 18:40 04.06.2020
2079 Clouds 30 1012 33 10000 6.2 360 18:21 04.06.2020
2080 -273 0 0 0 0 0 17:59 04.06.2020
2081 Clouds 30 1012 30 10000 6.2 360 17:41 04.06.2020
2082 Clouds 30 1012 29 10000 5.7 10 17:20 04.06.2020
2083 Clouds 31 1012 29 10000 5.7 360 16:41 04.06.2020
2084 Clouds 31 1012 29 10000 5.7 10 16:21 04.06.2020
2085 Clouds 31 1012 29 10000 5.7 10 15:55 04.06.2020
2086 Clouds 31 1012 29 10000 5.7 10 15:37 04.06.2020
2087 Clouds 31 1012 29 10000 5.7 30 15:19 04.06.2020
2088 Clouds 30 1012 30 10000 4.6 10 14:38 04.06.2020
2089 Clouds 30 1013 30 10000 5.1 10 14:19 04.06.2020
2090 Clouds 30 1013 30 10000 5.1 10 13:54 04.06.2020
2091 Clouds 30 1013 32 10000 5.7 20 13:36 04.06.2020
2092 Clouds 30 1013 30 10000 4.6 10 13:18 04.06.2020
2093 Clouds 29 1013 32 10000 5.7 10 12:41 04.06.2020
2094 Clouds 29 1013 32 10000 5.7 10 12:23 04.06.2020
2095 Clouds 27 1014 36 10000 6.2 30 11:59 04.06.2020
2096 Clouds 27 1014 36 10000 6.2 30 11:38 04.06.2020
2097 Clouds 27 1014 36 10000 6.2 30 11:20 04.06.2020
2098 Clouds 27 1014 36 10000 6.2 30 10:57 04.06.2020
2099 Clouds 26 1014 36 10000 7.2 20 10:38 04.06.2020
2100 Clouds 25 1014 47 10000 7.7 50 10:19 04.06.2020
2101 Clouds 25 1014 47 10000 7.7 50 09:43 04.06.2020
2102 Clouds 25 1014 47 10000 7.7 50 09:24 04.06.2020
2103 Clouds 22 1013 64 10000 5.1 40 08:46 04.06.2020
2104 Clouds 22 1013 64 10000 5.1 40 08:26 04.06.2020
2105 Clouds 22 1013 64 10000 5.1 40 07:48 04.06.2020
2106 Clouds 22 1013 64 10000 5.1 40 07:28 04.06.2020
2107 Clouds 21 1012 68 10000 5.1 20 06:44 04.06.2020
2108 Clouds 21 1012 68 10000 5.1 20 06:44 04.06.2020
2109 Clouds 21 1012 68 10000 4.6 20 06:26 04.06.2020
2110 Clouds 21 1012 68 10000 4.6 20 05:39 04.06.2020
2111 Clear 21 1011 68 10000 5.7 50 05:20 04.06.2020
2112 Clear 21 1011 68 10000 6.7 50 03:25 04.06.2020
2113 Clouds 22 1011 64 10000 7.2 30 01:57 04.06.2020
2114 Clear 22 1011 64 10000 7.2 30 01:20 04.06.2020
2115 Clear 22 1012 64 10000 7.2 40 00:49 04.06.2020
2116 Clear 23 1012 64 10000 7.2 30 23:55 03.06.2020
2117 Clear 23 1012 64 10000 7.2 30 23:36 03.06.2020
2118 Clear 23 1012 64 10000 7.2 30 23:36 03.06.2020
2119 Clear 23 1013 57 10000 8.2 30 23:18 03.06.2020
2120 Clear 24 1013 57 10000 8.2 30 22:39 03.06.2020
2121 Clear 24 1012 60 10000 9.3 50 22:19 03.06.2020
2122 Clear 24 1012 60 10000 9.3 50 22:19 03.06.2020
2123 Clear 24 1012 60 10000 9.3 50 21:58 03.06.2020
2124 Clear 24 1012 60 10000 9.3 50 21:39 03.06.2020
2125 Clear 25 1011 51 10000 6.7 30 21:21 03.06.2020
2126 Clear 27 1011 51 10000 6.7 30 20:57 03.06.2020
2127 Clear 27 1011 51 10000 6.7 30 20:38 03.06.2020
2128 Clear 28 1011 28 10000 4.1 360 20:20 03.06.2020
2129 Clear 29 1011 28 10000 4.1 360 19:56 03.06.2020
2130 Clear 29 1011 28 10000 4.1 360 19:37 03.06.2020
2131 Clear 29 1010 28 10000 3.6 340 19:19 03.06.2020
2132 Clear 29 1010 28 10000 3.6 340 18:54 03.06.2020
2133 Clear 29 1010 28 10000 3.6 340 18:36 03.06.2020
2134 Clear 29 1010 27 10000 3.6 330 18:18 03.06.2020
2135 Clear 30 1010 27 10000 3.6 330 17:41 03.06.2020
2136 Clear 30 1010 23 10000 4.1 300 17:21 03.06.2020
2137 Clear 31 1010 23 10000 4.1 300 16:55 03.06.2020
2138 Clear 31 1010 23 10000 4.1 300 16:37 03.06.2020
2139 Clear 31 1011 23 10000 4.6 210 16:18 03.06.2020
2140 Clear 31 1011 23 10000 4.6 210 15:41 03.06.2020
2141 Clear 31 1011 23 10000 4.6 210 15:21 03.06.2020
2142 Clear 30 1011 25 10000 3.6 290 14:57 03.06.2020
2143 Clear 30 1011 25 10000 3.6 290 14:37 03.06.2020
2144 Clear 30 1011 25 10000 1.5 200 14:19 03.06.2020
2145 Clear 30 1011 25 10000 1.5 200 13:38 03.06.2020
2146 Clear 30 1012 23 10000 3.6 270 13:19 03.06.2020
2147 Clear 30 1012 23 10000 3.6 270 12:43 03.06.2020
2148 Clear 30 1012 25 10000 2.6 260 12:21 03.06.2020
2149 Clear 29 1012 25 10000 2.6 260 11:47 03.06.2020
2150 Clear 29 1012 25 10000 2.6 260 11:27 03.06.2020
2151 Clear 29 1012 25 10000 1 100 10:58 03.06.2020
2152 Clear 29 1012 25 10000 1 100 10:39 03.06.2020
2153 Clear 29 1012 25 10000 1 100 10:21 03.06.2020
2154 Clear 27 1012 26 10000 1 10 09:44 03.06.2020
2155 Clear 26 1012 27 10000 2.1 40 09:20 03.06.2020
2156 Clear 26 1012 27 10000 2.1 40 08:58 03.06.2020
2157 Clear 26 1012 27 10000 2.1 40 08:58 03.06.2020
2158 Clear 26 1012 26 10000 2.1 50 08:40 03.06.2020
2159 Clear 25 1011 27 10000 2.6 60 08:19 03.06.2020
2160 Clear 25 1011 27 10000 2.6 60 07:42 03.06.2020
2161 Clear 24 1011 38 10000 3.1 110 07:20 03.06.2020
2162 Clear 23 1011 46 10000 3.6 110 06:52 03.06.2020
2163 Clear 23 1011 46 10000 3.6 110 06:30 03.06.2020
2164 Clear 21 1011 49 10000 2.1 80 05:47 03.06.2020
2165 Clear 21 1011 52 10000 0.5 50 04:56 03.06.2020
2166 Clear 21 1011 64 10000 2.1 50 03:50 03.06.2020
2167 Clear 21 1011 64 10000 3.1 60 02:57 03.06.2020
2168 Clear 21 1012 64 10000 3.6 50 01:53 03.06.2020
2169 Clear 22 1012 60 10000 5.1 40 00:44 03.06.2020
2170 Clear 22 1012 60 10000 5.1 40 00:25 03.06.2020
2171 Clear 23 1012 56 10000 5.1 360 23:52 02.06.2020
2172 Clear 23 1012 56 10000 5.1 360 23:28 02.06.2020
2173 Clear 24 1012 53 10000 5.1 360 22:57 02.06.2020
2174 Clear 24 1012 53 10000 5.1 360 22:38 02.06.2020
2175 Clear 24 1011 47 10000 6.7 340 22:19 02.06.2020
2176 Clear 24 1011 47 10000 6.7 340 21:56 02.06.2020
2177 Clear 25 1011 44 10000 6.7 340 21:38 02.06.2020
2178 Clear 25 1011 41 10000 5.7 330 21:19 02.06.2020
2179 Clear 26 1011 41 10000 5.7 330 20:58 02.06.2020
2180 Clear 26 1010 34 10000 5.7 330 20:39 02.06.2020
2181 Clear 26 1009 32 10000 5.1 310 20:20 02.06.2020
2182 Clear 27 1009 32 10000 5.1 310 19:43 02.06.2020
2183 Clear 27 1009 32 10000 5.1 310 19:25 02.06.2020
2184 Clear 28 1009 30 10000 4.1 330 18:58 02.06.2020
2185 Clear 28 1009 28 10000 4.6 300 18:39 02.06.2020
2186 Clear 29 1009 28 10000 4.6 300 18:20 02.06.2020
2187 Clear 29 1009 25 10000 6.2 280 17:55 02.06.2020
2188 Clear 29 1009 25 10000 6.2 280 17:37 02.06.2020
2189 Clear 30 1009 25 10000 6.7 290 17:18 02.06.2020
2190 Clear 30 1009 25 10000 6.7 290 16:41 02.06.2020
2191 Clear 30 1009 28 10000 7.2 290 16:21 02.06.2020
2192 Clear 30 1009 28 10000 7.2 290 15:59 02.06.2020
2193 Clear 30 1009 23 10000 6.7 270 15:40 02.06.2020
2194 Clear 30 1009 28 10000 7.2 280 15:20 02.06.2020
2195 Clear 31 1009 23 10000 6.7 270 15:20 02.06.2020
2196 Clear 30 1009 27 10000 7.7 280 14:46 02.06.2020
2197 Clear 30 1009 27 10000 7.7 280 14:27 02.06.2020
2198 Clear 30 1009 27 10000 6.2 300 13:55 02.06.2020
2199 Clear 30 1009 23 10000 8.7 270 13:36 02.06.2020
2200 Clear 30 1009 23 10000 8.7 270 13:18 02.06.2020
2201 Clear 30 1009 23 10000 8.7 270 12:55 02.06.2020
2202 Clear 30 1010 25 10000 7.2 270 12:37 02.06.2020
2203 Clear 29 1010 25 10000 4.6 280 12:18 02.06.2020
2204 Clear 28 1010 26 10000 6.2 300 11:41 02.06.2020
2205 Clear 28 1010 26 10000 6.2 300 11:22 02.06.2020
2206 Clear 28 1010 23 10000 3.6 260 10:55 02.06.2020
2207 Clear 26 1010 41 10000 3.6 260 10:37 02.06.2020
2208 Clear 26 1010 41 10000 4.1 290 10:19 02.06.2020
2209 Clear 25 1010 50 10000 4.1 290 09:42 02.06.2020
2210 Clear 25 1009 57 10000 4.1 280 09:21 02.06.2020
2211 Clear 24 1009 57 10000 1.5 280 08:53 02.06.2020
2212 Clear 24 1009 57 10000 1.5 280 08:28 02.06.2020
2213 Clear 23 1009 64 10000 1.5 280 07:58 02.06.2020
2214 Clear 23 1009 64 10000 1.5 280 07:33 02.06.2020
2215 Clear 22 1008 64 10000 3.1 310 06:59 02.06.2020
2216 Clear 22 1008 64 10000 3.1 310 06:37 02.06.2020
2217 Clear 21 1008 68 10000 4.1 280 05:37 02.06.2020
2218 Clear 22 1008 53 10000 6.2 280 04:23 02.06.2020
2219 Clear 23 1007 56 10000 6.2 280 02:37 02.06.2020
2220 Clouds 25 1007 57 10000 6.2 280 01:53 02.06.2020
2221 Clouds 26 1007 47 10000 5.7 290 00:51 02.06.2020
2222 Clouds 28 1006 32 10000 2.6 220 00:21 02.06.2020
2223 Clouds 30 1006 30 10000 2.6 220 23:39 01.06.2020
2224 Clouds 30 1007 33 10000 5.1 110 23:20 01.06.2020
2225 Clouds 30 1007 33 10000 5.1 110 22:58 01.06.2020
2226 Clouds 30 1007 33 10000 5.1 110 22:39 01.06.2020
2227 Clouds 30 1007 33 10000 8.2 90 22:19 01.06.2020
2228 Clouds 30 1007 33 10000 8.2 90 21:42 01.06.2020
2229 Clouds 30 1007 27 10000 6.7 70 21:22 01.06.2020
2230 Clouds 31 1007 27 10000 6.7 70 20:59 01.06.2020
2231 Clouds 32 1007 24 10000 7.2 70 20:41 01.06.2020
2232 Clouds 32 1007 24 10000 7.7 60 20:21 01.06.2020
2233 Clouds 32 1007 24 10000 7.7 60 19:59 01.06.2020
2234 Clouds 34 1007 15 10000 4.6 40 19:41 01.06.2020
2235 Clouds 34 1007 15 10000 5.1 30 19:20 01.06.2020
2236 Clouds 34 1007 15 10000 5.1 30 19:20 01.06.2020
2237 Clouds 34 1007 14 10000 3.6 30 18:58 01.06.2020
2238 Clouds 35 1007 14 10000 3.6 30 18:39 01.06.2020
2239 Clouds 35 1007 14 10000 4.6 30 18:19 01.06.2020
2240 Clouds 35 1007 14 10000 4.6 20 17:54 01.06.2020
2241 Clouds 35 1007 14 10000 4.6 20 17:36 01.06.2020
2242 Clouds 35 1007 13 10000 3.6 330 17:18 01.06.2020
2243 Clouds 36 1008 13 10000 4.6 300 16:39 01.06.2020
2244 Clouds 36 1008 11 10000 3.1 350 16:20 01.06.2020
2245 Clouds 36 1008 11 10000 2.6 230 15:55 01.06.2020
2246 Clouds 36 1008 11 10000 2.6 230 15:37 01.06.2020
2247 Clouds 37 1008 12 10000 1 300 15:18 01.06.2020
2248 Clouds 37 1008 12 10000 1 300 14:56 01.06.2020
2249 Clouds 37 1009 12 10000 1 50 14:37 01.06.2020
2250 Clouds 36 1009 12 10000 2.6 200 14:18 01.06.2020
2251 Clouds 35 1010 13 10000 2.6 220 13:42 01.06.2020
2252 Clouds 35 1010 13 10000 2.6 220 13:21 01.06.2020
2253 Clouds 35 1010 13 10000 3.1 40 12:58 01.06.2020
2254 Clouds 35 1010 12 10000 4.6 70 12:40 01.06.2020
2255 Clouds 35 1010 12 10000 4.6 70 12:21 01.06.2020
2256 Clouds 34 1010 14 10000 5.7 100 11:57 01.06.2020
2257 Clouds 33 1011 15 10000 7.2 90 11:37 01.06.2020
2258 Clouds 33 1011 15 10000 7.2 90 11:18 01.06.2020
2259 Clear 33 1011 16 10000 9.8 80 10:54 01.06.2020
2260 Clear 32 1011 15 10000 8.2 90 10:36 01.06.2020
2261 Clear 32 1011 15 10000 8.2 90 10:18 01.06.2020
2262 Clear 30 1011 17 10000 9.3 90 09:43 01.06.2020
2263 Clear 29 1011 18 10000 9.8 90 09:24 01.06.2020
2264 Clear 28 1012 18 10000 7.2 90 08:54 01.06.2020
2265 Clear 26 1012 19 10000 6.2 90 08:31 01.06.2020
2266 Clear 25 1013 25 10000 5.1 90 07:58 01.06.2020
2267 Clear 24 1013 38 10000 5.1 90 07:39 01.06.2020
2268 Clear 23 1013 38 10000 5.1 90 07:21 01.06.2020
2269 Clear 21 1013 52 10000 6.7 70 06:49 01.06.2020
2270 Clear 19 1013 63 10000 6.7 70 05:56 01.06.2020
2271 Clear 19 1013 63 10000 4.6 70 04:56 01.06.2020
2272 Clear 19 1013 63 10000 5.1 70 03:55 01.06.2020
2273 Clear 19 1014 60 10000 5.1 70 03:35 01.06.2020
2274 Clear 20 1014 60 10000 5.7 50 02:42 01.06.2020
2275 Clear 20 1015 52 10000 5.1 30 01:38 01.06.2020
2276 Clear 20 1015 52 10000 5.1 30 01:18 01.06.2020
2277 Clear 21 1015 49 10000 5.1 30 00:40 01.06.2020
2278 Clear 21 1015 49 10000 5.1 30 00:21 01.06.2020
2279 Clear 21 1015 49 10000 5.1 30 00:21 01.06.2020
2280 Clear 21 1015 49 10000 5.7 30 23:59 31.05.2020
2281 Clear 22 1015 46 10000 6.2 40 23:40 31.05.2020
2282 Clear 22 1015 46 10000 6.2 40 23:22 31.05.2020
2283 Clear 22 1015 37 10000 6.7 40 22:58 31.05.2020
2284 Clear 22 1015 33 10000 7.2 40 22:40 31.05.2020
2285 Clear 22 1015 33 10000 7.2 40 22:21 31.05.2020
2286 Clear 23 1015 33 10000 6.7 40 21:56 31.05.2020
2287 Clear 23 1015 40 10000 6.7 40 21:38 31.05.2020
2288 Clear 23 1015 40 10000 6.7 40 21:19 31.05.2020
2289 Clear 25 1015 36 10000 7.7 30 20:42 31.05.2020
2290 Clear 25 1015 36 10000 7.7 30 20:23 31.05.2020
2291 Clear 26 1015 36 10000 6.7 30 19:56 31.05.2020
2292 Clear 26 1014 28 10000 6.7 30 19:37 31.05.2020
2293 Clear 27 1014 28 10000 6.7 30 19:19 31.05.2020
2294 Clear 27 1014 26 10000 5.7 30 18:44 31.05.2020
2295 Clear 28 1014 24 10000 6.7 10 18:25 31.05.2020
2296 Clear 28 1014 24 10000 7.7 10 17:58 31.05.2020
2297 Clear 28 1014 24 10000 7.7 10 17:39 31.05.2020
2298 Clear 28 1014 24 10000 7.7 10 17:20 31.05.2020
2299 Clear 29 1014 23 10000 6.7 10 16:41 31.05.2020
2300 Clear 29 1014 23 10000 6.7 10 16:21 31.05.2020
2301 Clear 29 1014 18 10000 6.2 360 15:55 31.05.2020
2302 Clear 29 1014 18 10000 8.2 10 15:36 31.05.2020
2303 Clear 29 1014 18 10000 8.2 10 15:18 31.05.2020
2304 Clear 29 1014 17 10000 7.2 360 14:40 31.05.2020
2305 Clear 29 1014 17 10000 7.2 360 14:19 31.05.2020
2306 Clear 28 1015 24 10000 6.7 360 13:55 31.05.2020
2307 Clear 28 1015 21 10000 6.2 350 13:37 31.05.2020
2308 Clear 28 1015 21 10000 6.2 350 13:19 31.05.2020
2309 Clear 27 1015 26 10000 6.2 30 12:43 31.05.2020
2310 Clear 27 1015 26 10000 6.2 30 12:24 31.05.2020
2311 Clear 26 1016 27 10000 5.7 30 11:56 31.05.2020
2312 Clear 26 1016 27 10000 5.7 30 11:38 31.05.2020
2313 Clear 26 1016 27 10000 5.7 30 11:19 31.05.2020
2314 Clear 24 1016 38 10000 5.7 50 10:44 31.05.2020
2315 Clear 24 1016 38 10000 5.7 50 10:26 31.05.2020
2316 Clear 23 1016 40 10000 6.7 50 09:58 31.05.2020
2317 Clear 22 1017 46 10000 6.7 60 09:40 31.05.2020
2318 Clear 22 1017 46 10000 6.7 60 09:20 31.05.2020
2319 Clear 20 1017 60 10000 7.2 40 08:43 31.05.2020
2320 Clear 20 1017 60 10000 7.2 40 08:24 31.05.2020
2321 Clear 20 1017 60 10000 7.2 40 07:52 31.05.2020
2322 Clear 19 1017 63 10000 7.2 40 07:22 31.05.2020
2323 Clear 19 1017 63 10000 5.7 30 06:57 31.05.2020
2324 Clear 19 1017 63 10000 5.7 30 06:57 31.05.2020
2325 Clear 18 1017 68 10000 3.6 20 06:36 31.05.2020
2326 Clear 17 1017 72 10000 3.6 30 05:55 31.05.2020
2327 Clear 17 1017 72 10000 4.6 40 05:37 31.05.2020
2328 Clear 17 1017 67 10000 4.6 40 04:20 31.05.2020
2329 Clear 17 1017 67 10000 4.1 40 03:45 31.05.2020
2330 Clear 18 1018 63 10000 5.7 30 02:50 31.05.2020
2331 Clear 19 1017 59 10000 4.6 30 01:46 31.05.2020
2332 Clear 19 1018 59 10000 6.7 30 00:46 31.05.2020
2333 Clear 19 1018 59 10000 6.7 30 00:28 31.05.2020
2334 Clear 20 1018 56 10000 7.7 30 23:43 30.05.2020
2335 Clear 20 1018 56 10000 7.7 30 23:25 30.05.2020
2336 Clear 20 1018 52 10000 6.7 30 22:58 30.05.2020
2337 Clear 21 1018 49 10000 8.2 30 22:40 30.05.2020
2338 Clear 21 1018 49 10000 8.2 30 22:21 30.05.2020
2339 Clear 21 1018 46 10000 8.7 30 21:55 30.05.2020
2340 Clear 22 1018 40 10000 7.7 40 21:37 30.05.2020
2341 Clear 22 1018 40 10000 7.7 40 21:18 30.05.2020
2342 Clear 22 1017 40 10000 8.7 30 20:56 30.05.2020
2343 Clear 22 1017 38 10000 9.3 40 20:37 30.05.2020
2344 Clear 23 1017 38 10000 9.3 40 20:19 30.05.2020
2345 Clear 25 1016 33 10000 6.7 10 19:41 30.05.2020
2346 Clear 25 1016 33 10000 6.7 10 19:21 30.05.2020
2347 Clear 26 1016 29 10000 6.7 340 18:45 30.05.2020
2348 Clear 26 1016 29 10000 6.7 340 18:22 30.05.2020
2349 Clear 26 1016 29 10000 6.7 340 17:46 30.05.2020
2350 Clear 27 1016 26 10000 7.2 30 17:27 30.05.2020
2351 Clouds 27 1016 24 10000 4.6 360 16:59 30.05.2020
2352 Clouds 27 1016 24 10000 4.6 360 16:59 30.05.2020
2353 Clouds 27 1016 26 10000 6.2 350 16:41 30.05.2020
2354 Clouds 27 1016 26 10000 6.2 350 16:21 30.05.2020
2355 Clouds 27 1016 26 10000 5.1 40 15:48 30.05.2020
2356 Clouds 27 1016 24 10000 5.7 30 15:28 30.05.2020
2357 Clouds 27 1016 24 10000 3.6 330 14:46 30.05.2020
2358 Clouds 27 1016 28 10000 5.1 360 14:27 30.05.2020
2359 Clouds 27 1016 28 10000 5.1 350 13:46 30.05.2020
2360 Clouds 27 1016 28 10000 7.2 360 13:27 30.05.2020
2361 Clouds 25 1016 31 10000 5.7 20 12:57 30.05.2020
2362 Clouds 25 1017 31 10000 7.7 30 12:39 30.05.2020
2363 Clouds 25 1017 31 10000 7.7 30 12:19 30.05.2020
2364 Clouds 24 1017 33 10000 6.7 40 11:41 30.05.2020
2365 Clouds 24 1017 33 10000 6.7 40 11:23 30.05.2020
2366 Clouds 23 1018 38 10000 5.1 40 10:58 30.05.2020
2367 Clouds 23 1018 38 10000 5.1 40 10:38 30.05.2020
2368 Clouds 23 1018 38 10000 5.1 40 10:20 30.05.2020
2369 Clouds 22 1018 40 10000 6.2 30 09:45 30.05.2020
2370 Clouds 21 1018 46 10000 6.2 40 09:26 30.05.2020
2371 Clouds 20 1018 56 10000 5.7 30 08:45 30.05.2020
2372 Clouds 20 1018 56 10000 5.7 30 08:27 30.05.2020
2373 Clear 19 1018 63 6000 4.6 30 07:41 30.05.2020
2374 Clear 19 1018 63 6000 4.6 30 07:20 30.05.2020
2375 Clear 18 1018 68 6000 4.6 40 06:31 30.05.2020
2376 Clear 17 1018 72 6000 4.6 30 05:52 30.05.2020
2377 Clear 17 1018 72 6000 4.6 30 05:19 30.05.2020
2378 Clear 18 1018 63 10000 4.1 20 03:35 30.05.2020
2379 Clear 18 1018 63 10000 4.6 30 02:29 30.05.2020
2380 Clear 19 1018 59 10000 5.7 30 01:30 30.05.2020
2381 Clear 20 1019 56 10000 6.2 30 00:36 30.05.2020
2382 Clear 20 1019 56 10000 6.2 30 00:18 30.05.2020
2383 Clear 20 1019 56 10000 6.2 30 23:41 29.05.2020
2384 Clear 20 1019 56 10000 8.2 30 23:20 29.05.2020
2385 Clear 20 1019 56 10000 8.2 30 22:56 29.05.2020
2386 Clear 20 1019 56 10000 8.2 30 22:38 29.05.2020
2387 Clear 20 1019 56 10000 8.2 30 22:19 29.05.2020
2388 Clear 21 1018 49 10000 8.7 30 21:41 29.05.2020
2389 Clear 21 1018 49 10000 8.7 30 21:21 29.05.2020
2390 Clear 23 1018 43 10000 9.8 30 20:59 29.05.2020
2391 Clear 23 1018 43 10000 9.8 30 20:40 29.05.2020
2392 Clear 23 1018 43 10000 9.8 30 20:19 29.05.2020
2393 Clouds 23 1017 43 10000 10.3 30 19:44 29.05.2020
2394 Clouds 25 1017 36 10000 6.7 10 19:26 29.05.2020
2395 Clouds 26 1017 31 10000 6.2 10 18:55 29.05.2020
2396 Clouds 26 1017 31 10000 6.2 10 18:37 29.05.2020
2397 Clouds 26 1017 31 10000 6.2 10 18:18 29.05.2020
2398 Clouds 26 1017 29 10000 5.1 20 17:40 29.05.2020
2399 Clouds 26 1017 29 10000 5.1 20 17:22 29.05.2020
2400 Clouds 26 1017 29 10000 5.1 20 17:22 29.05.2020
2401 Clouds 26 1017 27 10000 5.7 20 16:59 29.05.2020
2402 Clouds 26 1017 27 10000 5.7 20 16:58 29.05.2020
2403 Clouds 26 1017 27 10000 5.1 340 16:40 29.05.2020
2404 Clouds 26 1017 27 10000 5.1 340 16:22 29.05.2020
2405 Clouds 26 1017 29 10000 3.6 360 15:55 29.05.2020
2406 Clouds 26 1017 29 10000 3.6 360 15:37 29.05.2020
2407 Clouds 26 1017 29 10000 3.6 360 15:18 29.05.2020
2408 Clouds 26 1017 29 10000 3.6 40 14:39 29.05.2020
2409 Clouds 26 1017 29 10000 3.6 40 14:21 29.05.2020
2410 Clouds 25 1018 33 10000 5.7 30 13:43 29.05.2020
2411 Clouds 25 1018 33 10000 5.7 30 13:24 29.05.2020
2412 Clouds 25 1018 31 10000 5.7 10 12:58 29.05.2020
2413 Clouds 25 1018 31 10000 5.7 10 12:40 29.05.2020
2414 Clouds 25 1018 31 10000 5.7 10 12:21 29.05.2020
2415 Clouds 24 1019 33 10000 4.1 30 11:45 29.05.2020
2416 Clouds 24 1019 33 10000 4.1 30 11:26 29.05.2020
2417 Clouds 23 1019 40 10000 4.6 350 10:57 29.05.2020
2418 Clouds 23 1019 40 10000 4.6 350 10:36 29.05.2020
2419 Clouds 23 1019 40 10000 4.6 350 10:18 29.05.2020
2420 Clouds 22 1019 46 10000 5.1 20 09:43 29.05.2020
2421 Clouds 22 1019 46 10000 4.6 30 09:20 29.05.2020
2422 Clouds 22 1019 46 10000 4.6 30 09:20 29.05.2020
2423 Clouds 22 1019 46 10000 4.6 30 08:48 29.05.2020
2424 Clouds 21 1019 52 10000 4.6 30 08:26 29.05.2020
2425 Clear 20 1019 60 10000 5.1 20 07:59 29.05.2020
2426 Clear 20 1019 60 10000 5.1 20 07:39 29.05.2020
2427 Clear 20 1019 60 10000 5.1 20 07:21 29.05.2020
2428 Clear 20 1019 60 10000 4.6 10 06:46 29.05.2020
2429 Clear 19 1018 68 10000 3.6 20 06:27 29.05.2020
2430 Clear 19 1018 63 10000 4.1 360 05:46 29.05.2020
2431 Clear 19 1017 63 10000 5.1 10 02:37 29.05.2020
2432 Clear 20 1018 60 10000 4.6 360 01:30 29.05.2020
2433 Clear 20 1018 60 10000 4.1 360 00:55 29.05.2020
2434 Clear 20 1018 60 10000 4.6 350 00:34 29.05.2020
2435 Clear 20 1018 56 10000 5.7 360 23:59 28.05.2020
2436 Clear 21 1018 52 10000 5.7 10 23:39 28.05.2020
2437 Clear 21 1018 52 10000 5.7 10 23:39 28.05.2020
2438 Clear 21 1018 52 10000 5.7 10 23:19 28.05.2020
2439 Clear 21 1018 52 10000 5.7 10 23:19 28.05.2020
2440 Clear 21 1018 52 10000 6.7 10 22:44 28.05.2020
2441 Clear 21 1018 52 10000 7.2 360 22:26 28.05.2020
2442 Clear 22 1018 53 10000 6.7 340 21:57 28.05.2020
2443 Clear 22 1017 46 10000 8.2 340 21:39 28.05.2020
2444 Clear 23 1017 46 10000 8.2 340 21:20 28.05.2020
2445 Clear 23 1017 49 10000 8.7 340 20:57 28.05.2020
2446 Clear 24 1017 41 10000 8.2 330 20:39 28.05.2020
2447 Clear 25 1017 41 10000 8.2 330 20:18 28.05.2020
2448 Clear 26 1016 34 10000 7.2 330 19:56 28.05.2020
2449 Clear 27 1016 26 10000 7.2 320 19:37 28.05.2020
2450 Clear 27 1016 26 10000 7.2 320 19:19 28.05.2020
2451 Clear 27 1015 26 10000 7.2 330 18:42 28.05.2020
2452 Clear 28 1015 26 10000 7.2 330 18:23 28.05.2020
2453 Clear 28 1015 24 10000 7.7 320 17:56 28.05.2020
2454 Clear 28 1015 26 10000 5.7 320 17:38 28.05.2020
2455 Clear 28 1015 26 10000 5.7 320 17:18 28.05.2020
2456 Clear 28 1015 26 10000 5.7 340 16:44 28.05.2020
2457 Clear 28 1015 26 10000 5.7 340 16:20 28.05.2020
2458 Clear 28 1015 26 10000 6.2 340 15:46 28.05.2020
2459 Clear 29 1015 23 10000 4.6 320 15:25 28.05.2020
2460 Clear 28 1015 24 10000 6.7 340 14:59 28.05.2020
2461 Clear 28 1015 26 10000 5.7 350 14:40 28.05.2020
2462 Clear 28 1015 26 10000 5.7 350 14:21 28.05.2020
2463 Clear 26 1016 29 10000 4.1 350 13:44 28.05.2020
2464 Clear 26 1016 29 10000 4.1 350 13:25 28.05.2020
2465 Clear 26 1016 31 10000 2.6 10 12:43 28.05.2020
2466 Clear 26 1017 31 10000 3.6 330 12:19 28.05.2020
2467 Clouds 26 1017 36 10000 2.6 330 11:54 28.05.2020
2468 Clouds 25 1017 41 10000 4.1 330 11:36 28.05.2020
2469 Clouds 24 1017 41 10000 4.1 330 11:18 28.05.2020
2470 Clouds 23 1017 46 10000 3.6 20 10:42 28.05.2020
2471 Clouds 23 1017 49 10000 4.1 360 10:24 28.05.2020
2472 Clouds 22 1017 56 10000 4.6 360 09:41 28.05.2020
2473 Clouds 22 1017 56 10000 4.6 360 09:22 28.05.2020
2474 Clouds 21 1018 64 10000 5.7 360 08:57 28.05.2020
2475 Clouds 21 1018 64 10000 5.7 360 08:39 28.05.2020
2476 Clouds 21 1018 64 10000 5.7 360 08:20 28.05.2020
2477 Clouds 20 1018 68 10000 5.1 350 07:41 28.05.2020
2478 Clouds 20 1018 68 10000 5.1 350 07:23 28.05.2020
2479 Clouds 19 1017 72 10000 4.1 340 06:44 28.05.2020
2480 Clouds 19 1017 72 10000 4.1 340 06:26 28.05.2020
2481 Clouds 19 1017 72 10000 4.1 340 05:38 28.05.2020
2482 Clouds 19 1017 72 10000 3.6 330 04:36 28.05.2020
2483 Clouds 19 1017 72 10000 3.6 330 03:53 28.05.2020
2484 Clouds 19 1017 72 10000 5.1 340 02:55 28.05.2020
2485 Clouds 19 1017 72 10000 5.1 340 02:28 28.05.2020
2486 Clouds 20 1017 68 10000 5.7 340 01:45 28.05.2020
2487 Clouds 20 1017 68 10000 5.7 340 00:47 28.05.2020
2488 Clouds 20 1017 68 10000 5.7 340 00:19 28.05.2020
2489 Clouds 21 1017 64 10000 5.7 340 23:56 27.05.2020
2490 Clouds 21 1017 64 10000 5.7 340 23:37 27.05.2020
2491 Clouds 21 1017 64 10000 5.7 340 23:19 27.05.2020
2492 Clouds 21 1017 60 10000 6.7 350 22:41 27.05.2020
2493 Clouds 22 1017 60 10000 6.7 350 22:23 27.05.2020
2494 Clouds 22 1017 60 10000 6.7 350 21:56 27.05.2020
2495 Clouds 23 1017 56 10000 6.7 350 21:38 27.05.2020
2496 Clouds 23 1017 56 10000 6.7 350 21:20 27.05.2020
2497 Clouds 24 1016 53 10000 6.7 350 20:58 27.05.2020
2498 Clouds 24 1016 53 10000 6.7 350 20:58 27.05.2020
2499 Clouds 24 1016 53 10000 7.2 340 20:39 27.05.2020
2500 Clouds 25 1016 53 10000 7.2 340 20:19 27.05.2020
2501 Clouds 25 1016 53 10000 7.2 340 19:45 27.05.2020
2502 Clouds 26 1015 50 10000 8.7 350 19:21 27.05.2020
2503 Clouds 28 1014 45 10000 8.2 350 18:45 27.05.2020
2504 Clouds 28 1014 45 10000 8.2 350 18:21 27.05.2020
2505 Clouds 29 1014 39 10000 7.7 340 17:59 27.05.2020
2506 Clouds 30 1014 30 10000 5.7 320 17:40 27.05.2020
2507 Clouds 30 1014 30 10000 5.7 320 17:22 27.05.2020
2508 Clouds 30 1014 30 10000 6.7 300 16:56 27.05.2020
2509 Clouds 30 1014 33 10000 5.1 320 16:38 27.05.2020
2510 Clouds 30 1014 33 10000 5.1 320 16:19 27.05.2020
2511 Clouds 30 1014 35 10000 4.1 330 15:48 27.05.2020
2512 Clouds 30 1014 35 10000 5.1 330 15:23 27.05.2020
2513 Clouds 29 1014 37 10000 5.7 320 14:55 27.05.2020
2514 Clouds 29 1014 32 10000 4.6 340 14:37 27.05.2020
2515 Clouds 29 1014 32 10000 4.6 340 14:19 27.05.2020
2516 Clouds 29 1015 35 10000 3.6 340 13:41 27.05.2020
2517 Clouds 29 1015 35 10000 3.6 340 13:23 27.05.2020
2518 Clouds 28 1015 39 10000 3.1 340 12:42 27.05.2020
2519 Clouds 27 1015 42 10000 3.1 350 12:24 27.05.2020
2520 Clouds 26 1015 50 10000 2.6 340 11:58 27.05.2020
2521 Clouds 25 1015 53 10000 3.6 350 11:37 27.05.2020
2522 Clouds 25 1015 53 10000 3.6 350 11:19 27.05.2020
2523 Clouds 23 1015 56 6000 3.6 340 10:43 27.05.2020
2524 Clouds 23 1015 56 6000 3.6 340 10:24 27.05.2020
2525 Clouds 23 1015 60 6000 3.1 340 09:57 27.05.2020
2526 Clouds 22 1016 64 6000 2.6 10 09:39 27.05.2020
2527 Clouds 22 1016 64 6000 2.6 10 09:20 27.05.2020
2528 Clouds 21 1016 68 6000 3.6 360 08:42 27.05.2020
2529 Clouds 20 1015 72 6000 3.6 360 08:24 27.05.2020
2530 Clouds 20 1015 72 6000 4.1 340 07:54 27.05.2020
2531 Clouds 19 1015 82 6000 4.1 340 07:35 27.05.2020
2532 Clouds 20 1015 82 6000 4.1 340 07:35 27.05.2020
2533 Clouds 19 1015 82 6000 4.6 350 06:57 27.05.2020
2534 Clouds 19 1015 82 6000 4.6 350 06:33 27.05.2020
2535 Clear 19 1015 77 6000 3.6 350 05:55 27.05.2020
2536 Clear 19 1015 77 10000 3.6 350 05:35 27.05.2020
2537 Clear 19 1014 77 10000 4.1 360 04:19 27.05.2020
2538 Clear 21 1014 64 10000 4.1 350 02:30 27.05.2020
2539 Clear 21 1014 64 10000 4.1 360 01:51 27.05.2020
2540 Clear 21 1014 60 10000 4.6 360 01:20 27.05.2020
2541 Clear 22 1015 60 10000 5.1 40 00:44 27.05.2020
2542 Clear 22 1015 60 10000 5.1 40 00:19 27.05.2020
2543 Clear 22 1015 56 10000 4.6 40 23:43 26.05.2020
2544 Clear 22 1015 53 10000 5.1 50 23:25 26.05.2020
2545 Clear 23 1015 53 10000 5.7 40 22:59 26.05.2020
2546 Clear 24 1015 47 10000 5.1 40 22:39 26.05.2020
2547 Clear 24 1015 47 10000 5.1 40 22:20 26.05.2020
2548 Clear 24 1015 47 10000 7.2 40 21:57 26.05.2020
2549 Clear 25 1015 47 10000 7.7 30 21:39 26.05.2020
2550 Clear 25 1015 47 10000 7.7 30 21:20 26.05.2020
2551 Clear 27 1014 42 10000 8.7 10 20:43 26.05.2020
2552 Clear 27 1014 42 10000 8.7 10 20:21 26.05.2020
2553 Clear 29 1013 26 10000 5.7 360 19:57 26.05.2020
2554 Clear 29 1013 26 10000 5.1 340 19:37 26.05.2020
2555 Clear 29 1013 26 10000 5.1 340 19:18 26.05.2020
2556 Clear 29 1013 20 10000 4.6 350 18:43 26.05.2020
2557 Clear 30 1013 20 10000 4.6 350 18:22 26.05.2020
2558 Clear 31 1013 22 10000 5.1 340 17:57 26.05.2020
2559 Clear 31 1013 22 10000 5.1 340 17:38 26.05.2020
2560 Clear 31 1013 22 10000 5.1 340 17:20 26.05.2020
2561 Clear 31 1013 20 10000 4.6 310 16:42 26.05.2020
2562 Clear 31 1013 20 10000 4.6 310 16:19 26.05.2020
2563 Clear 31 1013 23 10000 4.1 330 15:55 26.05.2020
2564 Clear 31 1013 23 10000 4.6 340 15:36 26.05.2020
2565 Clear 31 1013 23 10000 4.6 340 15:18 26.05.2020
2566 Clear 30 1014 28 10000 2.6 350 14:43 26.05.2020
2567 Clear 30 1014 28 10000 2.6 350 14:22 26.05.2020
2568 Clear 29 1014 28 10000 3.6 350 13:56 26.05.2020
2569 Clear 29 1014 28 10000 3.1 360 13:37 26.05.2020
2570 Clear 30 1014 28 10000 3.1 360 13:18 26.05.2020
2571 Clear 28 1015 30 10000 2.1 40 12:42 26.05.2020
2572 Clear 28 1015 30 10000 2.1 40 12:20 26.05.2020
2573 Clear 27 1015 34 10000 3.6 10 11:58 26.05.2020
2574 Clear 27 1015 36 10000 2.6 30 11:40 26.05.2020
2575 Clear 27 1015 36 10000 2.6 30 11:18 26.05.2020
2576 Clear 25 1015 57 10000 3.1 30 10:41 26.05.2020
2577 Clear 24 1015 57 10000 3.1 30 10:19 26.05.2020
2578 Clear 23 1016 60 10000 3.1 20 09:40 26.05.2020
2579 Clear 23 1016 60 10000 3.1 20 09:20 26.05.2020
2580 Clear 21 1016 73 10000 3.6 30 08:43 26.05.2020
2581 Clear 22 1016 64 10000 3.6 40 08:43 26.05.2020
2582 Clear 21 1016 73 10000 3.6 30 08:22 26.05.2020
2583 Clear 20 1016 77 10000 4.1 40 07:58 26.05.2020
2584 Clear 20 1016 82 10000 4.1 30 07:39 26.05.2020
2585 Clear 19 1016 82 10000 4.1 30 07:21 26.05.2020
2586 Clear 19 1016 82 10000 4.1 30 06:46 26.05.2020
2587 Clear 19 1016 82 10000 4.1 30 06:23 26.05.2020
2588 Clear 19 1016 77 10000 4.1 30 05:35 26.05.2020
2589 Clear 19 1016 72 10000 4.6 20 04:56 26.05.2020
2590 Clear 19 1015 72 10000 5.1 30 04:37 26.05.2020
2591 Clear 19 1015 72 10000 5.1 30 04:18 26.05.2020
2592 Clear 20 1015 68 10000 5.7 30 02:51 26.05.2020
2593 Clear 21 1016 60 10000 4.1 20 01:49 26.05.2020
2594 Clear 21 1016 60 10000 4.6 30 01:29 26.05.2020
2595 Clear 22 1016 60 10000 4.6 50 00:39 26.05.2020
2596 Clear 22 1016 60 10000 4.6 50 00:19 26.05.2020
2597 Clear 22 1017 60 10000 5.1 30 23:58 25.05.2020
2598 Clear 22 1017 60 10000 5.1 40 23:38 25.05.2020
2599 Clear 22 1017 60 10000 5.1 40 23:19 25.05.2020
2600 Clear 22 1017 60 10000 5.1 40 23:19 25.05.2020
2601 Clear 23 1017 56 10000 5.1 340 22:55 25.05.2020
2602 Clear 23 1017 56 10000 5.1 340 22:37 25.05.2020
2603 Clear 23 1017 56 10000 5.1 340 22:18 25.05.2020
2604 Clear 24 1017 53 10000 5.7 340 21:57 25.05.2020
2605 Clear 25 1016 50 10000 6.2 340 21:36 25.05.2020
2606 Clear 25 1016 50 10000 6.2 340 21:18 25.05.2020
2607 Clear 27 1016 26 10000 4.1 340 20:43 25.05.2020
2608 Clear 27 1016 26 10000 4.1 340 20:43 25.05.2020
2609 Clear 27 1016 26 10000 4.1 340 20:22 25.05.2020
2610 Clear 28 1015 23 10000 4.1 340 19:59 25.05.2020
2611 Clear 28 1015 23 10000 5.1 340 19:41 25.05.2020
2612 Clear 28 1015 23 10000 5.1 340 19:19 25.05.2020
2613 Clear 28 1015 23 10000 4.1 330 18:58 25.05.2020
2614 Clear 28 1015 23 10000 3.6 10 18:40 25.05.2020
2615 Clear 28 1015 23 10000 3.6 10 18:20 25.05.2020
2616 Clear 29 1015 20 10000 3.1 330 17:44 25.05.2020
2617 Clear 29 1015 18 10000 3.6 350 17:25 25.05.2020
2618 Clear 29 1015 18 10000 3.6 350 16:58 25.05.2020
2619 Clear 29 1015 20 10000 2.1 320 16:40 25.05.2020
2620 Clear 29 1015 20 10000 2.1 320 16:21 25.05.2020
2621 Clear 29 1015 20 10000 3.1 340 15:45 25.05.2020
2622 Clear 29 1016 20 10000 4.1 310 15:21 25.05.2020
2623 Clear 28 1016 18 10000 3.6 10 14:59 25.05.2020
2624 Clear 28 1016 18 10000 3.6 10 14:59 25.05.2020
2625 Clear 28 1016 18 10000 3.6 10 14:40 25.05.2020
2626 Clear 28 1016 18 10000 3.6 10 14:22 25.05.2020
2627 Clear 28 1016 20 10000 2.6 260 13:56 25.05.2020
2628 Clear 27 1016 19 10000 2.6 330 13:37 25.05.2020
2629 Clear 27 1016 19 10000 2.6 330 13:19 25.05.2020
2630 Clear 27 1017 22 10000 1.5 240 12:39 25.05.2020
2631 Clear 27 1017 22 10000 1.5 240 12:21 25.05.2020
2632 Clear 26 1017 22 10000 1 110 11:57 25.05.2020
2633 Clear 25 1017 27 10000 1 300 11:37 25.05.2020
2634 Clear 25 1017 27 10000 1 300 11:18 25.05.2020
2635 Clear 23 1017 38 10000 1.5 260 10:41 25.05.2020
2636 Clear 23 1017 38 10000 1.5 260 10:21 25.05.2020
2637 Clear 23 1017 38 10000 1.5 260 10:21 25.05.2020
2638 Clear 23 1017 43 10000 1 10 09:56 25.05.2020
2639 Clear 22 1017 52 10000 1.5 360 09:38 25.05.2020
2640 Clear 21 1017 52 10000 1.5 360 09:19 25.05.2020
2641 Clear 19 1017 63 10000 3.6 310 08:44 25.05.2020
2642 Clear 19 1017 63 10000 3.6 310 08:25 25.05.2020
2643 Clear 19 1017 63 10000 3.1 320 07:59 25.05.2020
2644 Clear 19 1017 63 10000 3.1 320 07:41 25.05.2020
2645 Clear 19 1017 63 10000 3.1 320 07:20 25.05.2020
2646 Clear 18 1017 63 10000 2.1 340 06:46 25.05.2020
2647 Clear 18 1017 63 10000 2.1 340 06:27 25.05.2020
2648 Clear 18 1017 59 10000 4.6 320 03:46 25.05.2020
2649 Clear 18 1017 59 10000 4.6 320 03:22 25.05.2020
2650 Clear 18 1017 59 10000 4.6 320 02:44 25.05.2020
2651 Clear 18 1017 59 10000 5.1 320 01:46 25.05.2020
2652 Clear 18 1018 59 10000 5.7 320 01:28 25.05.2020
2653 Clear 19 1018 52 10000 5.1 320 00:36 25.05.2020
2654 Clear 19 1018 52 10000 5.1 320 00:18 25.05.2020
2655 Clear 19 1018 52 10000 5.7 320 23:43 24.05.2020
2656 Clear 19 1018 48 10000 5.7 340 23:23 24.05.2020
2657 Clear 19 1018 48 10000 6.7 340 22:59 24.05.2020
2658 Clear 20 1018 45 10000 6.7 340 22:41 24.05.2020
2659 Clear 20 1018 45 10000 6.7 340 22:19 24.05.2020
2660 Clear 20 1018 42 10000 6.7 340 21:56 24.05.2020
2661 Clear 20 1018 42 10000 6.7 340 21:56 24.05.2020
2662 Clear 21 1018 40 10000 6.7 340 21:38 24.05.2020
2663 Clear 21 1018 40 10000 6.7 340 21:19 24.05.2020
2664 Clear 21 1017 35 10000 7.2 340 20:43 24.05.2020
2665 Clear 21 1018 37 10000 6.7 340 20:43 24.05.2020
2666 Clear 22 1017 35 10000 7.2 340 20:22 24.05.2020
2667 Clear 22 1017 33 10000 7.2 340 19:59 24.05.2020
2668 Clear 22 1016 31 10000 7.2 340 19:41 24.05.2020
2669 Clear 23 1016 31 10000 7.2 340 19:19 24.05.2020
2670 Clear 24 1016 29 10000 6.7 340 18:57 24.05.2020
2671 Clear 25 1016 29 10000 6.7 340 18:38 24.05.2020
2672 Clear 25 1016 29 10000 6.7 340 18:20 24.05.2020
2673 Clear 26 1015 27 10000 6.2 320 17:41 24.05.2020
2674 Clear 26 1015 27 10000 6.2 320 17:22 24.05.2020
2675 Clear 26 1016 26 10000 5.1 320 16:58 24.05.2020
2676 Clouds 26 1015 26 10000 5.1 320 16:39 24.05.2020
2677 Clouds 26 1015 26 10000 5.1 320 16:20 24.05.2020
2678 Clouds 26 1015 26 10000 5.1 320 16:20 24.05.2020
2679 Clouds 26 1015 24 10000 7.2 310 15:57 24.05.2020
2680 Clouds 26 1015 26 10000 6.7 330 15:39 24.05.2020
2681 Clouds 26 1016 26 10000 6.7 310 15:19 24.05.2020
2682 Clouds 26 1016 26 10000 6.7 310 14:55 24.05.2020
2683 Clouds 26 1016 26 10000 5.7 310 14:37 24.05.2020
2684 Clouds 26 1016 26 10000 5.7 310 14:18 24.05.2020
2685 Clouds 26 1016 26 10000 6.7 330 13:44 24.05.2020
2686 Clouds 26 1016 29 10000 6.7 330 13:23 24.05.2020
2687 Clouds 25 1016 29 10000 6.2 290 12:59 24.05.2020
2688 Clouds 25 1017 36 10000 6.7 320 12:41 24.05.2020
2689 Clouds 24 1017 36 10000 6.7 320 12:23 24.05.2020
2690 Clouds 24 1017 36 10000 6.2 330 11:59 24.05.2020
2691 Clouds 23 1017 35 10000 7.7 320 11:41 24.05.2020
2692 Clouds 23 1017 35 10000 7.7 320 11:23 24.05.2020
2693 Clouds 23 1017 35 10000 7.7 320 11:23 24.05.2020
2694 Clouds 23 1017 38 10000 7.2 310 10:59 24.05.2020
2695 Clouds 23 1017 38 10000 6.7 310 10:39 24.05.2020
2696 Clouds 23 1017 38 10000 6.7 310 10:21 24.05.2020
2697 Clouds 22 1017 43 10000 7.7 310 09:42 24.05.2020
2698 Clouds 22 1017 43 10000 7.7 310 09:19 24.05.2020
2699 Clouds 22 1017 43 10000 7.7 310 09:19 24.05.2020
2700 Clouds 21 1017 49 10000 8.2 320 08:59 24.05.2020
2701 Clouds 20 1017 52 10000 7.2 310 08:40 24.05.2020
2702 Clouds 20 1017 52 10000 7.2 310 08:40 24.05.2020
2703 Clouds 20 1017 52 10000 7.2 310 08:22 24.05.2020
2704 Clear 20 1017 56 10000 7.2 300 07:52 24.05.2020
2705 Clear 20 1017 60 10000 6.7 300 07:27 24.05.2020
2706 Clear 19 1017 63 10000 5.1 290 06:58 24.05.2020
2707 Clear 19 1017 59 10000 5.7 280 06:37 24.05.2020
2708 Clear 18 1016 63 10000 5.7 300 05:24 24.05.2020
2709 Clear 19 1017 55 10000 7.2 290 03:42 24.05.2020
2710 Clear 19 1017 55 10000 6.2 290 02:48 24.05.2020
2711 Clear 19 1017 55 10000 5.7 290 02:18 24.05.2020
2712 Clear 20 1018 56 10000 5.7 300 00:43 24.05.2020
2713 Clear 20 1018 56 10000 5.7 300 00:25 24.05.2020
2714 Clear 20 1018 56 10000 5.7 300 00:25 24.05.2020
2715 Clear 20 1018 56 10000 7.2 300 23:59 23.05.2020
2716 Clear 20 1018 56 10000 7.2 300 23:36 23.05.2020
2717 Clear 20 1018 56 10000 7.2 300 23:18 23.05.2020
2718 Clear 21 1018 49 10000 6.7 290 22:55 23.05.2020
2719 Clear 21 1018 49 10000 6.7 290 22:37 23.05.2020
2720 Clear 21 1018 49 10000 6.7 290 22:18 23.05.2020
2721 Clear 22 1017 43 10000 7.7 320 21:54 23.05.2020
2722 Clear 22 1017 43 10000 7.7 320 21:36 23.05.2020
2723 Clear 22 1017 43 10000 7.7 320 21:18 23.05.2020
2724 Clear 23 1017 36 10000 7.2 310 20:39 23.05.2020
2725 Clear 24 1017 36 10000 7.2 310 20:20 23.05.2020
2726 Clear 24 1016 33 10000 6.7 310 19:58 23.05.2020
2727 Clear 24 1016 29 10000 7.2 320 19:40 23.05.2020
2728 Clear 25 1016 29 10000 7.2 320 19:19 23.05.2020
2729 Clouds 27 1015 28 10000 8.7 300 18:41 23.05.2020
2730 Clouds 27 1015 28 10000 8.7 300 18:41 23.05.2020
2731 Clouds 28 1015 28 10000 8.7 300 18:22 23.05.2020
2732 Clouds 28 1015 28 10000 8.7 300 17:58 23.05.2020
2733 Clouds 28 1015 28 10000 8.7 300 17:58 23.05.2020
2734 Clouds 28 1015 28 10000 7.2 300 17:40 23.05.2020
2735 Clouds 28 1015 28 10000 7.2 300 17:20 23.05.2020
2736 Clouds 29 1015 28 10000 7.2 310 16:59 23.05.2020
2737 Clouds 29 1015 28 10000 7.7 310 16:41 23.05.2020
2738 Clouds 29 1015 28 10000 7.7 310 16:20 23.05.2020
2739 Clouds 30 1015 30 10000 6.2 310 15:56 23.05.2020
2740 Clouds 30 1015 30 10000 5.1 290 15:38 23.05.2020
2741 Clouds 29 1015 30 10000 5.1 290 15:20 23.05.2020
2742 Clouds 29 1016 30 10000 5.1 320 14:41 23.05.2020
2743 Clouds 29 1016 30 10000 5.1 320 14:23 23.05.2020
2744 Clouds 29 1016 30 10000 5.1 320 14:23 23.05.2020
2745 Clouds 28 1016 34 10000 4.6 320 13:55 23.05.2020
2746 Clouds 28 1016 34 10000 4.6 320 13:37 23.05.2020
2747 Clouds 28 1016 34 10000 4.6 320 13:18 23.05.2020
2748 Clouds 28 1016 39 10000 5.1 310 12:41 23.05.2020
2749 Clouds 27 1017 47 10000 4.6 350 12:19 23.05.2020
2750 Clouds 26 1017 47 10000 4.6 350 11:57 23.05.2020
2751 Clouds 26 1017 47 10000 4.6 350 11:37 23.05.2020
2752 Clouds 26 1017 47 10000 4.6 350 11:19 23.05.2020
2753 Clouds 25 1017 53 10000 4.1 330 10:54 23.05.2020
2754 Clouds 25 1017 53 10000 4.1 330 10:36 23.05.2020
2755 Clouds 25 1017 53 10000 4.1 330 10:18 23.05.2020
2756 Clouds 24 1017 57 10000 4.6 350 09:42 23.05.2020
2757 Clouds 24 1017 57 10000 4.6 350 09:24 23.05.2020
2758 Clouds 23 1017 64 10000 4.6 360 08:58 23.05.2020
2759 Clouds 23 1017 64 10000 4.6 360 08:38 23.05.2020
2760 Clouds 23 1017 64 10000 4.6 360 08:19 23.05.2020
2761 Clouds 22 1016 68 10000 4.1 350 07:44 23.05.2020
2762 Clouds 21 1016 77 10000 4.1 350 07:44 23.05.2020
2763 Clouds 21 1016 77 10000 4.1 350 07:22 23.05.2020
2764 Clouds 21 1016 77 10000 3.6 330 06:42 23.05.2020
2765 Clouds 21 1016 73 10000 3.1 360 05:55 23.05.2020
2766 Clouds 21 1016 73 10000 3.1 360 05:55 23.05.2020
2767 Clouds 21 1016 73 10000 4.1 360 03:52 23.05.2020
2768 Clear 21 1016 73 10000 4.1 360 03:24 23.05.2020
2769 Clear 22 1016 64 10000 4.1 360 02:33 23.05.2020
2770 Clouds 22 1016 64 10000 4.1 360 01:48 23.05.2020
2771 Clear 22 1016 64 10000 4.1 360 01:18 23.05.2020
2772 Clear 22 1017 64 10000 4.6 350 00:42 23.05.2020
2773 Clear 23 1017 64 10000 4.1 350 23:59 22.05.2020
2774 Clear 24 1017 60 10000 4.1 350 23:41 22.05.2020
2775 Clear 24 1017 60 10000 4.1 350 23:22 22.05.2020
2776 Clear 24 1017 60 10000 4.1 350 22:58 22.05.2020
2777 Clear 25 1017 57 10000 4.1 350 22:40 22.05.2020
2778 Clear 25 1017 57 10000 4.1 350 22:20 22.05.2020
2779 Clear 25 1017 53 10000 5.7 360 21:47 22.05.2020
2780 Clear 25 1017 53 10000 5.7 360 21:23 22.05.2020
2781 Clear 27 1016 47 10000 7.2 350 20:59 22.05.2020
2782 Clear 27 1016 47 10000 7.2 350 20:40 22.05.2020
2783 Clear 27 1016 47 10000 7.2 350 20:20 22.05.2020
2784 Clear 27 1016 47 10000 8.7 340 19:44 22.05.2020
2785 Clear 30 1014 30 10000 6.2 330 19:25 22.05.2020
2786 Clear 30 1014 33 10000 7.2 340 18:54 22.05.2020
2787 Clear 31 1014 29 10000 6.7 340 18:36 22.05.2020
2788 Clear 31 1014 29 10000 6.7 340 18:18 22.05.2020
2789 Clear 32 1013 25 10000 7.2 350 17:40 22.05.2020
2790 Clear 32 1013 25 10000 7.2 350 17:40 22.05.2020
2791 Clear 32 1013 25 10000 7.2 350 17:20 22.05.2020
2792 Clear 33 1013 24 10000 6.2 330 16:57 22.05.2020
2793 Clear 33 1013 24 10000 6.2 340 16:39 22.05.2020
2794 Clear 33 1013 24 10000 6.2 340 16:19 22.05.2020
2795 Clear 33 1013 24 10000 6.7 350 15:42 22.05.2020
2796 Clear 33 1013 24 10000 6.7 350 15:22 22.05.2020
2797 Clear 33 1013 26 10000 6.2 330 14:56 22.05.2020
2798 Clear 33 1013 26 10000 5.1 340 14:38 22.05.2020
2799 Clear 33 1013 26 10000 5.1 340 14:20 22.05.2020
2800 Clear 32 1014 29 10000 6.2 340 13:41 22.05.2020
2801 Clear 32 1014 29 10000 6.2 340 13:19 22.05.2020
2802 Clear 32 1014 31 10000 6.2 340 12:43 22.05.2020
2803 Clear 32 1014 31 10000 6.2 340 12:43 22.05.2020
2804 Clear 30 1014 37 10000 6.2 340 12:24 22.05.2020
2805 Clear 30 1014 37 10000 6.2 340 11:47 22.05.2020
2806 Clear 29 1014 37 10000 4.6 10 11:22 22.05.2020
2807 Clear 29 1014 39 10000 4.6 360 10:59 22.05.2020
2808 Clear 28 1014 45 10000 4.1 360 10:39 22.05.2020
2809 Clear 28 1014 45 10000 4.1 360 10:20 22.05.2020
2810 Clear 26 1014 50 10000 4.6 350 09:55 22.05.2020
2811 Clear 26 1014 50 10000 4.6 350 09:36 22.05.2020
2812 Clear 26 1014 50 10000 4.6 350 09:18 22.05.2020
2813 Clear 24 1014 64 10000 4.1 360 08:42 22.05.2020
2814 Clear 24 1014 64 10000 4.1 360 08:19 22.05.2020
2815 Clear 25 1014 61 10000 5.1 330 07:52 22.05.2020
2816 Clouds 23 1012 73 10000 3.1 20 07:23 22.05.2020
2817 Clouds 23 1012 73 10000 3.1 20 06:54 22.05.2020
2818 Clouds 23 1013 73 10000 4.1 360 06:32 22.05.2020
2819 Clouds 23 1012 78 10000 3.6 340 05:38 22.05.2020
2820 Clear 23 1012 78 10000 4.1 310 04:50 22.05.2020
2821 Clear 23 1012 78 10000 4.6 320 04:19 22.05.2020
2822 Clear 23 1012 78 10000 5.1 310 03:45 22.05.2020
2823 Clear 24 1011 78 10000 6.7 310 02:59 22.05.2020
2824 Clear 25 1011 69 10000 5.7 310 01:52 22.05.2020
2825 Clear 25 1011 69 10000 5.1 310 01:24 22.05.2020
2826 Clear 27 1010 61 10000 5.7 310 00:34 22.05.2020
2827 Clear 28 1010 51 10000 5.7 310 23:59 21.05.2020
2828 Clear 30 1010 45 10000 5.7 310 23:41 21.05.2020
2829 Clear 30 1010 45 10000 5.7 310 23:23 21.05.2020
2830 Clear 32 1009 38 10000 5.1 320 22:57 21.05.2020
2831 Clear 32 1009 38 10000 5.1 320 22:57 21.05.2020
2832 Clear 34 1009 24 10000 4.6 310 22:37 21.05.2020
2833 Clouds 34 1009 24 10000 4.6 310 22:19 21.05.2020
2834 Clouds 35 1009 16 10000 3.1 40 21:55 21.05.2020
2835 Clear 36 1008 18 10000 4.1 90 21:37 21.05.2020
2836 Clouds 36 1008 18 10000 4.1 90 21:18 21.05.2020
2837 Clear 36 1007 15 10000 5.7 50 20:42 21.05.2020
2838 Clouds 36 1007 15 10000 5.7 50 20:22 21.05.2020
2839 Clouds 38 1006 21 10000 6.7 10 19:40 21.05.2020
2840 Clouds 38 1006 21 10000 6.7 10 19:20 21.05.2020
2841 Clouds 38 1006 22 10000 7.7 30 18:59 21.05.2020
2842 Clouds 39 1006 18 10000 6.2 10 18:39 21.05.2020
2843 Clouds 39 1006 18 10000 6.2 10 18:19 21.05.2020
2844 Clouds 40 1006 13 10000 6.7 360 17:56 21.05.2020
2845 Clouds 40 1006 12 10000 7.2 350 17:38 21.05.2020
2846 Clouds 40 1006 12 10000 7.2 350 17:38 21.05.2020
2847 Clouds 40 1006 12 10000 7.2 350 17:19 21.05.2020
2848 Clouds 41 1006 12 10000 6.7 360 16:44 21.05.2020
2849 Clouds 41 1006 11 10000 6.2 320 16:22 21.05.2020
2850 Clouds 42 1006 8 10000 5.1 330 15:44 21.05.2020
2851 Clouds 42 1006 8 10000 5.1 330 15:24 21.05.2020
2852 Clouds 41 1006 7 10000 5.1 300 14:56 21.05.2020
2853 Clouds 42 1007 8 10000 5.1 310 14:36 21.05.2020
2854 Clear 42 1007 8 10000 5.1 310 14:18 21.05.2020
2855 Clear 42 1007 9 10000 4.6 310 13:39 21.05.2020
2856 Clear 42 1007 9 10000 4.6 310 13:39 21.05.2020
2857 Clear 42 1007 9 10000 4.6 310 13:21 21.05.2020
2858 Clear 42 1007 8 10000 3.6 310 12:55 21.05.2020
2859 Clear 42 1007 6 10000 4.1 290 12:36 21.05.2020
2860 Clear 42 1007 6 10000 4.1 290 12:18 21.05.2020
2861 Clear 42 1008 6 10000 3.1 350 11:40 21.05.2020
2862 Clear 42 1008 6 10000 3.1 350 11:22 21.05.2020
2863 Clear 42 1008 8 10000 1.5 40 10:55 21.05.2020
2864 Clear 41 1008 8 10000 1.5 60 10:37 21.05.2020
2865 Clear 40 1008 8 10000 1.5 60 10:18 21.05.2020
2866 Clear 40 1008 10 10000 1 10 09:43 21.05.2020
2867 Clear 39 1008 10 10000 1 10 09:25 21.05.2020
2868 Clear 38 1008 12 10000 2.1 30 08:59 21.05.2020
2869 Clear 36 1007 11 10000 2.6 90 08:40 21.05.2020
2870 Clear 36 1007 11 10000 2.6 90 08:22 21.05.2020
2871 Clear 33 1007 16 10000 1.5 70 07:44 21.05.2020
2872 Clear 33 1007 16 10000 1.5 70 07:25 21.05.2020
2873 Clear 31 1007 20 10000 1.5 60 06:48 21.05.2020
2874 Clear 30 1007 25 10000 2.6 40 05:53 21.05.2020
2875 Clear 31 1006 20 10000 2.6 30 04:53 21.05.2020
2876 Clear 32 1006 18 10000 3.6 80 03:21 21.05.2020
2877 Clear 32 1006 19 10000 4.1 90 02:38 21.05.2020
2878 Clear 32 1006 19 10000 4.1 90 02:20 21.05.2020
2879 Clear 32 1006 21 10000 4.6 80 01:42 21.05.2020
2880 Clear 32 1007 25 10000 5.7 90 01:19 21.05.2020
2881 Clear 31 1007 31 10000 4.1 80 00:45 21.05.2020
2882 Clear 32 1007 33 10000 2.6 60 00:21 21.05.2020
2883 Clear 32 1008 35 10000 4.1 60 23:41 20.05.2020
2884 Clear 32 1008 35 10000 4.1 60 23:20 20.05.2020
2885 Clear 32 1008 33 10000 5.1 60 22:57 20.05.2020
2886 Clear 33 1008 27 10000 3.1 20 22:38 20.05.2020
2887 Clear 33 1008 27 10000 3.1 20 22:20 20.05.2020
2888 Clear 35 1008 30 10000 3.6 30 21:40 20.05.2020
2889 Clear 35 1008 30 10000 3.6 30 21:21 20.05.2020
2890 Clear 37 1007 22 10000 5.1 30 20:44 20.05.2020
2891 Clear 37 1007 22 10000 5.1 30 20:24 20.05.2020
2892 Clear 38 1007 16 10000 3.6 20 19:57 20.05.2020
2893 Clear 39 1006 12 10000 5.7 10 19:38 20.05.2020
2894 Clear 39 1006 12 10000 5.7 10 19:19 20.05.2020
2895 Clear 40 1006 10 10000 4.6 360 18:43 20.05.2020
2896 Clear 40 1006 10 10000 4.6 360 18:24 20.05.2020
2897 Clear 41 1005 9 10000 5.7 350 17:44 20.05.2020
2898 Clear 42 1005 9 10000 5.1 10 17:24 20.05.2020
2899 Clear 43 1006 8 10000 5.1 10 16:58 20.05.2020
2900 Clear 43 1006 8 10000 4.6 330 16:39 20.05.2020
2901 Clear 43 1006 8 10000 4.6 330 16:39 20.05.2020
2902 Clear 43 1006 8 10000 4.6 330 16:39 20.05.2020
2903 Clear 43 1006 8 10000 4.6 330 16:21 20.05.2020
2904 Clear 43 1006 8 10000 3.6 340 15:55 20.05.2020
2905 Clear 43 1006 6 10000 5.1 330 15:36 20.05.2020
2906 Clear 43 1006 6 10000 5.1 330 15:18 20.05.2020
2907 Clear 43 1007 8 10000 4.1 340 14:41 20.05.2020
2908 Clear 43 1007 8 10000 4.1 340 14:20 20.05.2020
2909 Clear 42 1007 9 10000 4.1 360 13:40 20.05.2020
2910 Clear 42 1007 9 10000 4.1 360 13:19 20.05.2020
2911 Clear 40 1008 7 10000 2.6 20 12:43 20.05.2020
2912 Clear 40 1008 7 10000 2.6 20 12:21 20.05.2020
2913 Clear 40 1008 7 10000 2.6 20 12:21 20.05.2020
2914 Clear 40 1008 7 10000 4.6 40 11:58 20.05.2020
2915 Clear 39 1008 8 10000 5.7 40 11:36 20.05.2020
2916 Clear 39 1008 8 10000 5.7 40 11:18 20.05.2020
2917 Clear 39 1008 8 6000 6.7 30 10:42 20.05.2020
2918 Clear 39 1008 8 6000 6.2 40 10:20 20.05.2020
2919 Clear 38 1008 8 6000 6.7 40 09:44 20.05.2020
2920 Clear 38 1008 8 6000 6.7 40 09:44 20.05.2020
2921 Clear 38 1008 8 6000 6.7 40 09:21 20.05.2020
2922 Clear 38 1008 8 6000 6.7 40 09:21 20.05.2020
2923 Clear 36 1008 11 6000 5.7 40 08:56 20.05.2020
2924 Clear 36 1008 11 6000 5.7 40 08:38 20.05.2020
2925 Clear 36 1008 11 6000 5.7 40 08:18 20.05.2020
2926 Clear 36 1008 9 6000 6.7 90 07:45 20.05.2020
2927 Clear 36 1008 9 6000 6.7 90 07:19 20.05.2020
2928 Clear 33 1008 13 6000 6.2 90 06:35 20.05.2020
2929 Clear 30 1008 16 6000 6.2 90 05:23 20.05.2020
2930 Clear 31 1008 15 6000 6.2 80 04:26 20.05.2020
2931 Clear 31 1008 15 10000 6.7 80 03:42 20.05.2020
2932 Clear 31 1008 18 10000 7.2 80 02:25 20.05.2020
2933 Clear 32 1009 15 10000 7.2 80 01:28 20.05.2020
2934 Clear 32 1009 18 10000 7.2 80 00:44 20.05.2020
2935 Clear 32 1009 18 10000 7.2 80 00:23 20.05.2020
2936 Clear 32 1009 18 10000 5.1 70 23:42 19.05.2020
2937 Clear 32 1009 18 10000 5.1 70 23:19 19.05.2020
2938 Clear 33 1009 17 10000 6.7 60 22:56 19.05.2020
2939 Clear 33 1009 17 10000 6.7 60 22:38 19.05.2020
2940 Clear 33 1009 17 10000 6.7 60 22:19 19.05.2020
2941 Clear 34 1009 16 10000 6.7 60 21:57 19.05.2020
2942 Clear 34 1009 16 10000 6.7 60 21:37 19.05.2020
2943 Clear 34 1009 16 10000 6.7 60 21:19 19.05.2020
2944 Clear 36 1008 18 10000 6.7 40 20:57 19.05.2020
2945 Clear 36 1008 18 10000 6.7 40 20:39 19.05.2020
2946 Clear 36 1008 18 10000 6.7 40 20:20 19.05.2020
2947 Clouds 37 1008 16 10000 7.2 30 19:55 19.05.2020
2948 Clouds 37 1007 15 10000 8.7 30 19:36 19.05.2020
2949 Clouds 38 1007 15 10000 8.7 30 19:18 19.05.2020
2950 Clouds 39 1007 14 10000 9.8 20 18:40 19.05.2020
2951 Clouds 40 1007 14 10000 9.8 20 18:20 19.05.2020
2952 Clouds 41 1007 12 10000 8.7 20 17:43 19.05.2020
2953 Clouds 42 1007 6 10000 8.7 30 17:21 19.05.2020
2954 Clouds 42 1007 6 10000 8.7 30 16:59 19.05.2020
2955 Clouds 42 1007 6 10000 8.7 30 16:59 19.05.2020
2956 Clouds 42 1007 8 10000 7.7 10 16:38 19.05.2020
2957 Clouds 42 1007 8 10000 7.7 10 16:19 19.05.2020
2958 Clouds 42 1007 13 10000 6.7 360 15:47 19.05.2020
2959 Clouds 41 1008 12 10000 5.1 10 15:22 19.05.2020
2960 Clouds 41 1008 12 10000 5.1 10 14:57 19.05.2020
2961 Clear 41 1008 12 10000 5.1 10 14:39 19.05.2020
2962 Clear 41 1008 12 10000 5.1 10 14:20 19.05.2020
2963 Clear 41 1009 13 10000 4.6 10 13:58 19.05.2020
2964 Clear 41 1009 13 10000 4.6 10 13:39 19.05.2020
2965 Clear 41 1009 13 10000 4.6 10 13:20 19.05.2020
2966 Clear 38 1009 15 10000 3.6 10 12:57 19.05.2020
2967 Clear 38 1009 15 10000 3.6 10 12:38 19.05.2020
2968 Clear 38 1009 15 10000 3.6 10 12:20 19.05.2020
2969 Clear 36 1010 20 10000 4.6 30 11:54 19.05.2020
2970 Clear 36 1010 20 10000 4.6 30 11:36 19.05.2020
2971 Clear 36 1010 20 10000 4.6 30 11:36 19.05.2020
2972 Clear 35 1010 24 6000 4.6 20 11:18 19.05.2020
2973 Clear 34 1010 24 6000 4.6 20 10:42 19.05.2020
2974 Clear 34 1010 24 6000 4.6 20 10:23 19.05.2020
2975 Clear 31 1010 35 6000 3.1 30 09:55 19.05.2020
2976 Clear 31 1010 35 6000 3.1 30 09:37 19.05.2020
2977 Clear 31 1010 35 6000 3.1 30 09:18 19.05.2020
2978 Clear 29 1010 39 6000 3.1 20 08:41 19.05.2020
2979 Clear 29 1010 39 6000 3.1 20 08:23 19.05.2020
2980 Clear 27 1010 47 6000 1.5 30 07:42 19.05.2020
2981 Clear 27 1010 47 6000 1.5 30 07:24 19.05.2020
2982 Clear 25 1010 53 6000 3.1 50 06:41 19.05.2020
2983 Clear 25 1010 53 6000 3.1 50 06:22 19.05.2020
2984 Clear 25 1009 50 6000 3.1 40 05:40 19.05.2020
2985 Clear 25 1009 47 6000 2.1 40 04:54 19.05.2020
2986 Clear 27 1009 34 6000 3.6 40 02:59 19.05.2020
2987 Clear 28 1009 32 6000 1.5 80 01:22 19.05.2020
2988 Clear 30 1009 30 10000 3.6 40 00:41 19.05.2020
2989 Clear 29 1009 30 10000 3.6 40 00:21 19.05.2020
2990 Clear 29 1010 28 10000 3.6 50 23:40 18.05.2020
2991 Clear 30 1010 28 10000 3.6 50 23:21 18.05.2020
2992 Clear 31 1010 27 10000 4.1 50 22:59 18.05.2020
2993 Clear 31 1010 25 10000 5.1 30 22:40 18.05.2020
2994 Clear 31 1010 25 10000 5.1 30 22:21 18.05.2020
2995 Clear 32 1010 24 10000 5.7 50 21:43 18.05.2020
2996 Clear 33 1009 22 10000 6.7 50 21:22 18.05.2020
2997 Clouds 33 1009 22 10000 7.2 40 20:59 18.05.2020
2998 Clouds 34 1009 23 10000 7.2 40 20:41 18.05.2020
2999 Clouds 34 1009 23 10000 7.2 40 20:21 18.05.2020
3000 Clouds 35 1008 21 10000 6.7 30 19:57 18.05.2020
3001 Clouds 35 1008 24 10000 8.2 30 19:39 18.05.2020
3002 Clouds 35 1008 24 10000 8.2 30 19:19 18.05.2020
3003 Clouds 37 1008 19 10000 8.7 20 18:45 18.05.2020
3004 Clouds 37 1007 20 10000 8.7 10 18:24 18.05.2020
3005 Clouds 39 1007 24 10000 8.2 10 17:41 18.05.2020
3006 Clouds 39 1007 24 10000 8.2 10 17:18 18.05.2020
3007 Clouds 39 1007 24 10000 7.7 360 16:59 18.05.2020
3008 Clouds 40 1007 19 10000 7.2 10 16:40 18.05.2020
3009 Clear 40 1007 19 10000 7.2 10 16:20 18.05.2020
3010 Clear 39 1007 20 10000 6.7 30 15:57 18.05.2020
3011 Clear 39 1008 22 10000 6.2 360 15:38 18.05.2020
3012 Clear 39 1008 22 10000 6.2 360 15:20 18.05.2020
3013 Clear 39 1008 22 10000 6.7 360 14:55 18.05.2020
3014 Clear 38 1008 22 10000 5.7 350 14:37 18.05.2020
3015 Clear 38 1008 22 10000 5.7 350 14:19 18.05.2020
3016 Clear 37 1009 25 10000 5.1 350 13:40 18.05.2020
3017 Clear 37 1009 25 10000 5.1 350 13:20 18.05.2020
3018 Clear 37 1009 25 10000 5.1 10 12:58 18.05.2020
3019 Clear 36 1010 26 10000 5.1 350 12:39 18.05.2020
3020 Clear 36 1010 26 10000 5.1 350 12:19 18.05.2020
3021 Clear 35 1010 28 10000 4.6 350 11:47 18.05.2020
3022 Clear 33 1010 29 10000 3.1 350 11:27 18.05.2020
3023 Clear 33 1010 29 10000 3.1 350 10:59 18.05.2020
3024 Clear 32 1010 31 10000 3.1 20 10:41 18.05.2020
3025 Clear 32 1010 31 10000 3.1 20 10:22 18.05.2020
3026 Clear 31 1010 33 10000 3.6 10 09:44 18.05.2020
3027 Clear 31 1010 33 10000 4.1 30 09:25 18.05.2020
3028 Clear 30 1011 35 10000 6.2 30 08:46 18.05.2020
3029 Clear 30 1011 32 10000 6.2 30 08:27 18.05.2020
3030 Clear 28 1010 34 10000 4.1 30 07:58 18.05.2020
3031 Clear 28 1010 34 10000 4.1 30 07:39 18.05.2020
3032 Clear 28 1010 34 10000 4.1 30 07:20 18.05.2020
3033 Clear 27 1010 34 10000 4.1 30 06:45 18.05.2020
3034 Clear 26 1010 34 10000 4.1 30 06:18 18.05.2020
3035 Clear 26 1010 31 10000 4.1 30 05:42 18.05.2020
3036 Clear 26 1009 34 10000 4.1 30 03:37 18.05.2020
3037 Clear 27 1010 36 10000 4.1 30 02:31 18.05.2020
3038 Clouds 27 1010 39 10000 4.6 60 01:32 18.05.2020
3039 Clouds 29 1011 32 10000 4.6 60 00:27 18.05.2020
3040 Clouds 29 1011 32 10000 4.6 60 23:58 17.05.2020
3041 Clouds 29 1011 32 10000 4.6 60 23:58 17.05.2020
3042 Clouds 29 1011 32 10000 4.6 60 23:58 17.05.2020
3043 Clouds 29 1011 28 10000 4.6 60 23:40 17.05.2020
3044 Clouds 30 1011 28 10000 4.6 60 23:20 17.05.2020
3045 Clouds 30 1011 33 10000 4.6 60 22:58 17.05.2020
3046 Clouds 30 1011 33 10000 4.6 60 22:38 17.05.2020
3047 Clouds 30 1011 33 10000 4.6 60 22:20 17.05.2020
3048 Clouds 30 1011 37 10000 7.7 40 21:57 17.05.2020
3049 Clouds 30 1010 35 10000 7.7 40 21:39 17.05.2020
3050 Clear 31 1010 35 10000 7.7 40 21:19 17.05.2020
3051 Clear 32 1010 27 10000 6.2 40 20:42 17.05.2020
3052 Clouds 33 1009 24 10000 6.7 40 20:22 17.05.2020
3053 Clouds 34 1009 21 10000 6.2 30 19:58 17.05.2020
3054 Clouds 37 1008 18 10000 8.7 30 19:40 17.05.2020
3055 Clouds 37 1008 18 10000 8.7 30 19:22 17.05.2020
3056 Clouds 39 1008 17 0 7.15 20 18:55 17.05.2020
3057 Clouds 39 1008 17 10000 7.2 20 18:37 17.05.2020
3058 Clouds 39 1008 17 10000 7.2 20 18:19 17.05.2020
3059 Clouds 39 1008 17 10000 7.2 20 17:40 17.05.2020
3060 Clouds 39 1008 17 10000 7.2 20 17:40 17.05.2020
3061 Clouds 39 1008 17 10000 7.2 20 17:40 17.05.2020
3062 Clouds 39 1008 17 10000 7.2 20 17:21 17.05.2020
3063 Clouds 39 1008 17 10000 8.2 20 16:56 17.05.2020
3064 Clouds 39 1008 20 10000 7.7 20 16:37 17.05.2020
3065 Clouds 39 1008 20 10000 7.7 20 16:19 17.05.2020
3066 Clouds 40 1009 16 10000 6.7 360 15:41 17.05.2020
3067 Clouds 40 1009 16 10000 6.7 360 15:23 17.05.2020
3068 Clouds 40 1009 16 10000 6.7 360 14:57 17.05.2020
3069 Clouds 39 1009 17 10000 5.7 360 14:38 17.05.2020
3070 Clouds 39 1009 17 10000 5.7 360 14:19 17.05.2020
3071 Clouds 39 1009 17 10000 5.7 360 14:19 17.05.2020
3072 Clouds 38 1010 19 10000 4.6 360 13:41 17.05.2020
3073 Clouds 38 1010 19 10000 4.6 360 13:20 17.05.2020
3074 Clouds 24 1010 57 10000 4.1 20 05:22 17.05.2020
3075 Clear 25 1010 53 10000 4.1 40 03:31 17.05.2020
3076 Clouds 26 1010 47 10000 4.6 40 02:26 17.05.2020
3077 Clouds 27 1010 39 10000 5.1 30 01:54 17.05.2020
3078 Clouds 27 1010 34 10000 3.1 60 00:48 17.05.2020
3079 Clouds 27 1010 42 10000 3.1 60 00:30 17.05.2020
3080 Clouds 28 1011 39 10000 4.1 40 23:42 16.05.2020
3081 Clouds 28 1011 39 10000 4.1 40 23:24 16.05.2020
3082 Clouds 29 1011 37 10000 4.6 20 22:59 16.05.2020
3083 Clouds 29 1011 39 10000 4.6 30 22:41 16.05.2020
3084 Clouds 29 1011 39 10000 4.6 30 22:22 16.05.2020
3085 Clouds 29 1011 39 10000 4.6 30 22:22 16.05.2020
3086 Clouds 30 1011 37 10000 5.1 40 21:57 16.05.2020
3087 Clouds 30 1010 38 10000 4.6 30 21:38 16.05.2020
3088 Clouds 31 1010 38 10000 4.6 30 21:19 16.05.2020
3089 Clouds 31 1010 38 10000 4.6 30 20:56 16.05.2020
3090 Clouds 31 1010 43 10000 3.1 40 20:38 16.05.2020
3091 Clouds 31 1010 43 10000 3.1 40 20:38 16.05.2020
3092 Clouds 31 1010 43 10000 3.1 40 20:19 16.05.2020
3093 Clouds 32 1009 33 10000 5.1 10 19:43 16.05.2020
3094 Clouds 33 1009 33 10000 5.1 10 19:23 16.05.2020
3095 Clouds 33 1009 33 10000 6.2 30 18:59 16.05.2020
3096 Clouds 33 1009 33 10000 6.2 30 18:59 16.05.2020
3097 Clouds 33 1009 30 10000 5.1 350 18:40 16.05.2020
3098 Clouds 34 1009 30 10000 5.1 350 18:22 16.05.2020
3099 Clouds 36 1008 25 10000 6.7 360 17:42 16.05.2020
3100 Clouds 36 1008 25 10000 6.7 360 17:21 16.05.2020
3101 Clouds 36 1009 26 10000 6.2 360 16:57 16.05.2020
3102 Clouds 36 1009 25 10000 6.7 360 16:39 16.05.2020
3103 Clouds 37 1009 23 10000 5.7 350 16:18 16.05.2020
3104 Clouds 37 1009 23 10000 5.7 350 15:54 16.05.2020
3105 Clouds 37 1009 25 10000 6.2 330 15:36 16.05.2020
3106 Clouds 37 1009 25 10000 6.2 330 15:18 16.05.2020
3107 Clouds 36 1009 23 10000 4.1 350 14:42 16.05.2020
3108 Clouds 36 1009 23 10000 4.1 350 14:20 16.05.2020
3109 Clouds 36 1009 25 10000 4.1 340 13:56 16.05.2020
3110 Clouds 35 1010 26 10000 4.6 350 13:36 16.05.2020
3111 Clouds 35 1010 26 10000 4.6 350 13:18 16.05.2020
3112 Clouds 32 1010 35 10000 3.1 20 12:43 16.05.2020
3113 Clouds 32 1010 35 10000 3.1 20 12:20 16.05.2020
3114 Clouds 32 1010 35 10000 3.1 20 12:20 16.05.2020
3115 Clouds 30 1011 37 10000 5.7 30 11:43 16.05.2020
3116 Clouds 30 1011 37 10000 5.7 30 11:24 16.05.2020
3117 Clouds 29 1011 42 10000 4.1 30 10:59 16.05.2020
3118 Clouds 28 1011 48 10000 4.6 30 10:40 16.05.2020
3119 Clouds 28 1011 48 10000 4.6 30 10:21 16.05.2020
3120 Clouds 28 1011 48 10000 4.6 20 09:58 16.05.2020
3121 Clouds 27 1011 51 10000 4.1 20 09:38 16.05.2020
3122 Clear 27 1011 51 10000 4.1 20 09:18 16.05.2020
3123 Clear 27 1011 51 10000 4.1 20 09:18 16.05.2020
3124 Clear 25 1011 57 10000 6.2 30 08:42 16.05.2020
3125 Clouds 25 1011 57 10000 6.2 30 08:21 16.05.2020
3126 Clouds 24 1011 60 10000 5.7 20 07:45 16.05.2020
3127 Clouds 24 1011 60 10000 5.1 30 07:25 16.05.2020
3128 Clouds 24 1011 60 10000 5.1 30 06:57 16.05.2020
3129 Clouds 22 1010 68 10000 4.1 40 06:37 16.05.2020
3130 Clouds 22 1010 68 10000 4.1 40 06:18 16.05.2020
3131 Clouds 22 1010 68 10000 3.6 60 05:32 16.05.2020
3132 Clouds 23 1010 64 10000 4.1 30 03:36 16.05.2020
3133 Clouds 23 1010 64 10000 4.1 30 02:59 16.05.2020
3134 Clouds 23 1010 64 10000 4.1 50 02:20 16.05.2020
3135 Clouds 23 1009 64 10000 4.6 50 01:47 16.05.2020
3136 Clouds 24 1010 60 10000 4.6 50 01:22 16.05.2020
3137 Clouds 25 1010 53 10000 4.6 20 00:46 16.05.2020
3138 Clouds 25 1010 53 10000 4.6 20 00:21 16.05.2020
3139 Clouds 25 1011 53 10000 5.7 20 23:41 15.05.2020
3140 Clear 25 1011 53 10000 5.7 20 23:20 15.05.2020
3141 Clear 25 1011 53 10000 6.7 20 22:58 15.05.2020
3142 Clear 26 1010 39 10000 5.1 20 22:38 15.05.2020
3143 Clear 27 1010 39 10000 5.1 20 22:18 15.05.2020
3144 Clear 27 1010 39 10000 5.1 20 22:18 15.05.2020
3145 Clear 28 1010 34 10000 6.7 30 21:40 15.05.2020
3146 Clear 28 1010 34 10000 6.7 30 21:22 15.05.2020
3147 Clear 29 1010 30 10000 5.7 20 20:59 15.05.2020
3148 Clear 29 1009 28 10000 5.7 20 20:40 15.05.2020
3149 Clouds 30 1009 28 10000 5.7 20 20:22 15.05.2020
3150 Clouds 30 1009 30 10000 6.2 10 19:56 15.05.2020
3151 Clouds 30 1009 27 10000 6.2 20 19:37 15.05.2020
3152 Clouds 31 1009 27 10000 6.2 20 19:19 15.05.2020
3153 Clouds 31 1009 27 10000 6.7 20 18:45 15.05.2020
3154 Clouds 32 1008 24 10000 6.2 30 18:27 15.05.2020
3155 Clouds 32 1008 21 10000 9.3 10 17:40 15.05.2020
3156 Clouds 33 1008 21 10000 9.3 10 17:20 15.05.2020
3157 Clouds 33 1008 27 10000 8.7 30 16:58 15.05.2020
3158 Clouds 32 1008 33 10000 8.2 20 16:39 15.05.2020
3159 Clouds 32 1008 33 10000 8.2 20 16:19 15.05.2020
3160 Clouds 34 1009 26 10000 7.7 10 15:58 15.05.2020
3161 Clouds 34 1009 26 10000 7.7 10 15:39 15.05.2020
3162 Clouds 34 1009 26 10000 7.7 10 15:19 15.05.2020
3163 Clear 35 1009 19 10000 8.7 20 14:42 15.05.2020
3164 Clouds 35 1009 19 10000 8.7 20 14:24 15.05.2020
3165 Clouds 35 1009 21 10000 8.7 350 13:59 15.05.2020
3166 Clouds 34 1009 24 10000 8.2 10 13:39 15.05.2020
3167 Clouds 34 1009 24 10000 8.2 10 13:20 15.05.2020
3168 Clouds 32 1010 31 10000 8.7 20 12:40 15.05.2020
3169 Clouds 32 1010 31 10000 8.7 20 12:19 15.05.2020
3170 Clouds 31 1010 33 10000 8.2 20 11:57 15.05.2020
3171 Clouds 30 1010 35 10000 7.2 30 11:39 15.05.2020
3172 Clouds 30 1010 35 10000 7.2 30 11:21 15.05.2020
3173 Clouds 29 1011 37 10000 8.2 30 10:59 15.05.2020
3174 Clouds 28 1011 45 10000 7.7 30 10:40 15.05.2020
3175 Clouds 28 1011 45 10000 7.7 30 10:40 15.05.2020
3176 Clouds 28 1011 45 10000 7.7 30 10:21 15.05.2020
3177 Clouds 26 1011 54 10000 6.7 30 09:58 15.05.2020
3178 Clouds 26 1011 54 10000 6.7 30 09:58 15.05.2020
3179 Clouds 24 1011 60 10000 7.2 30 09:37 15.05.2020
3180 Clear 24 1011 60 10000 7.2 30 09:18 15.05.2020
3181 Clear 23 1012 64 10000 6.7 30 08:55 15.05.2020
3182 Clear 22 1012 78 10000 6.7 30 08:37 15.05.2020
3183 Clouds 22 1012 78 10000 6.7 30 08:18 15.05.2020
3184 Clouds 21 1012 83 6000 6.2 20 07:42 15.05.2020
3185 Clouds 21 1012 83 6000 6.2 20 07:24 15.05.2020
3186 Clouds 20 1011 94 6000 5.1 30 06:35 15.05.2020
3187 Clouds 20 1011 94 6000 5.1 40 05:49 15.05.2020
3188 Clouds 20 1011 94 6000 5.7 30 04:25 15.05.2020
3189 Clouds 20 1010 94 6000 6.2 40 03:40 15.05.2020
3190 Clouds 22 1011 78 10000 6.2 30 01:38 15.05.2020
3191 Clouds 22 1011 78 10000 6.2 30 01:19 15.05.2020
3192 Clouds 22 1011 73 10000 6.7 20 00:45 15.05.2020
3193 Clouds 22 1011 73 10000 6.7 20 00:25 15.05.2020
3194 Clouds 23 1011 64 10000 7.2 30 23:43 14.05.2020
3195 Clouds 23 1011 64 10000 7.2 30 23:21 14.05.2020
3196 Clouds 24 1012 53 10000 6.7 30 22:56 14.05.2020
3197 Clouds 24 1012 53 10000 6.7 30 22:56 14.05.2020
3198 Clouds 24 1012 53 10000 6.7 30 22:37 14.05.2020
3199 Clouds 24 1012 53 10000 6.7 30 22:19 14.05.2020
3200 Clouds 26 1011 34 10000 7.7 30 21:55 14.05.2020
3201 Clouds 26 1011 34 10000 7.7 30 21:37 14.05.2020
3202 Clouds 26 1011 34 10000 7.7 30 21:18 14.05.2020
3203 Clouds 27 1011 34 10000 7.7 40 20:42 14.05.2020
3204 Clouds 27 1011 34 10000 7.7 40 20:21 14.05.2020
3205 Clouds 29 1011 30 10000 7.2 30 19:59 14.05.2020
3206 Clouds 30 1010 22 10000 6.2 20 19:39 14.05.2020
3207 Clouds 31 1010 22 10000 6.2 20 19:20 14.05.2020
3208 Clouds 32 1010 21 10000 6.7 10 18:58 14.05.2020
3209 Clouds 32 1010 21 10000 6.7 10 18:38 14.05.2020
3210 Clouds 32 1010 21 10000 6.7 10 18:20 14.05.2020
3211 Clouds 32 1010 24 10000 6.7 10 17:58 14.05.2020
3212 Clouds 32 1009 21 10000 7.7 360 17:37 14.05.2020
3213 Clouds 32 1009 21 10000 7.7 360 17:19 14.05.2020
3214 Clouds 32 1009 21 10000 7.7 360 16:57 14.05.2020
3215 Clouds 32 1010 21 10000 7.7 360 16:38 14.05.2020
3216 Clouds 32 1010 21 10000 7.7 360 16:19 14.05.2020
3217 Clouds 33 1010 18 10000 6.7 10 15:56 14.05.2020
3218 Clouds 33 1010 18 10000 4.6 350 15:37 14.05.2020
3219 Clear 33 1010 18 10000 4.6 350 15:18 14.05.2020
3220 Clear 32 1011 17 10000 5.7 360 14:40 14.05.2020
3221 Clouds 32 1011 17 10000 5.7 360 14:21 14.05.2020
3222 Clouds 32 1011 19 10000 3.6 40 13:59 14.05.2020
3223 Clouds 32 1011 19 10000 3.6 40 13:59 14.05.2020
3224 Clouds 32 1011 19 10000 3.6 40 13:41 14.05.2020
3225 Clouds 32 1011 19 10000 3.6 40 13:20 14.05.2020
3226 Clouds 31 1012 15 10000 7.2 30 12:59 14.05.2020
3227 Clouds 31 1012 15 10000 7.2 30 12:39 14.05.2020
3228 Clouds 31 1012 15 10000 7.2 30 12:39 14.05.2020
3229 Clouds 31 1012 15 10000 7.2 30 12:20 14.05.2020
3230 Clouds 29 1012 18 10000 6.7 20 11:58 14.05.2020
3231 Clouds 29 1012 18 10000 6.7 20 11:39 14.05.2020
3232 Clouds 29 1012 18 10000 6.7 20 11:21 14.05.2020
3233 Clouds 28 1013 17 10000 7.2 30 10:56 14.05.2020
3234 Clouds 28 1013 17 10000 7.2 30 10:37 14.05.2020
3235 Clouds 28 1013 17 10000 7.2 30 10:37 14.05.2020
3236 Clouds 28 1013 17 10000 7.2 30 10:19 14.05.2020
3237 Clouds 27 1013 18 10000 7.2 30 09:42 14.05.2020
3238 Clear 26 1013 24 10000 5.7 40 09:23 14.05.2020
3239 Clear 23 1013 43 10000 5.7 40 08:42 14.05.2020
3240 Clear 23 1013 43 10000 5.7 40 08:21 14.05.2020
3241 Clear 22 1013 53 10000 6.2 40 07:47 14.05.2020
3242 Clear 21 1013 68 6000 4.6 40 07:25 14.05.2020
3243 Clear 20 1013 68 6000 3.6 40 06:55 14.05.2020
3244 Clear 19 1013 68 6000 3.6 40 06:31 14.05.2020
3245 Clear 19 1013 68 6000 4.1 30 05:57 14.05.2020
3246 Clear 19 1013 63 10000 3.1 30 05:35 14.05.2020
3247 Clear 20 1012 60 10000 3.1 40 04:32 14.05.2020
3248 Clear 21 1012 56 10000 4.1 30 03:28 14.05.2020
3249 Clear 21 1012 52 10000 3.1 20 02:43 14.05.2020
3250 Clouds 21 1013 52 10000 3.6 20 02:18 14.05.2020
3251 Clouds 21 1013 40 10000 5.1 40 01:28 14.05.2020
3252 Clouds 21 1013 37 10000 4.6 40 00:50 14.05.2020
3253 Clouds 22 1014 35 10000 3.6 40 00:25 14.05.2020
3254 Clouds 22 1014 35 10000 5.1 50 23:44 13.05.2020
3255 Clouds 23 1014 33 10000 5.7 30 23:22 13.05.2020
3256 Clouds 23 1014 31 10000 6.2 30 22:56 13.05.2020
3257 Clouds 23 1014 29 10000 5.7 30 22:37 13.05.2020
3258 Clouds 24 1014 29 10000 5.7 30 22:19 13.05.2020
3259 Clouds 24 1014 27 10000 6.7 30 21:57 13.05.2020
3260 Clouds 24 1014 23 10000 8.7 30 21:38 13.05.2020
3261 Clouds 25 1014 23 10000 8.7 30 21:18 13.05.2020
3262 Clouds 25 1014 19 10000 8.2 20 20:41 13.05.2020
3263 Clouds 26 1014 19 10000 8.2 20 20:23 13.05.2020
3264 Clouds 27 1013 21 10000 7.7 20 19:56 13.05.2020
3265 Clouds 27 1013 19 10000 8.7 30 19:38 13.05.2020
3266 Clouds 27 1013 19 10000 8.7 30 19:19 13.05.2020
3267 Clouds 29 1014 14 10000 8.7 40 18:42 13.05.2020
3268 Clouds 29 1014 14 10000 8.7 40 18:42 13.05.2020
3269 Clouds 29 1014 14 10000 8.7 40 18:21 13.05.2020
3270 Clouds 30 1013 12 10000 8.7 30 17:40 13.05.2020
3271 Clouds 31 1013 11 10000 8.7 30 17:20 13.05.2020
3272 Clouds 31 1013 11 10000 8.7 30 17:20 13.05.2020
3273 Clouds 32 1013 19 10000 9.3 20 16:59 13.05.2020
3274 Clouds 32 1013 19 10000 9.3 20 16:40 13.05.2020
3275 Clouds 32 1013 19 10000 9.3 20 16:19 13.05.2020
3276 Clouds 32 1013 21 10000 8.7 10 15:54 13.05.2020
3277 Clouds 32 1013 21 10000 9.8 10 15:36 13.05.2020
3278 Clouds 33 1013 21 10000 9.8 10 15:18 13.05.2020
3279 Clouds 34 1013 16 10000 8.7 30 14:41 13.05.2020
3280 Clouds 34 1013 16 10000 8.7 30 14:22 13.05.2020
3281 Clouds 34 1014 14 10000 8.7 20 13:58 13.05.2020
3282 Clouds 34 1014 16 10000 7.2 10 13:39 13.05.2020
3283 Clouds 34 1014 16 10000 7.2 10 13:21 13.05.2020
3284 Clouds 34 1014 16 10000 7.2 10 13:21 13.05.2020
3285 Clouds 33 1014 13 10000 7.7 20 12:57 13.05.2020
3286 Clouds 33 1014 13 10000 7.2 20 12:39 13.05.2020
3287 Clouds 33 1014 13 10000 7.2 20 12:18 13.05.2020
3288 Clouds 33 1015 13 10000 7.7 20 11:56 13.05.2020
3289 Clouds 32 1015 13 10000 7.2 30 11:36 13.05.2020
3290 Clouds 32 1015 13 10000 7.2 30 11:18 13.05.2020
3291 Clouds 31 1015 16 10000 6.7 30 10:56 13.05.2020
3292 Clouds 30 1015 16 10000 7.7 40 10:38 13.05.2020
3293 Clouds 30 1015 16 10000 7.7 40 10:18 13.05.2020
3294 Clouds 27 1015 26 10000 5.7 30 09:43 13.05.2020
3295 Clouds 27 1015 26 10000 5.7 30 09:23 13.05.2020
3296 Clouds 27 1015 26 10000 5.7 30 09:23 13.05.2020
3297 Clouds 26 1015 29 10000 5.1 30 08:57 13.05.2020
3298 Clouds 25 1015 38 10000 5.1 30 08:37 13.05.2020
3299 Clouds 24 1015 38 10000 5.1 30 08:18 13.05.2020
3300 Clouds 22 1015 43 10000 5.1 30 07:43 13.05.2020
3301 Clouds 22 1015 43 10000 5.1 30 07:24 13.05.2020
3302 Clouds 21 1015 46 10000 5.1 30 06:47 13.05.2020
3303 Clouds 21 1015 46 10000 5.1 30 06:27 13.05.2020
3304 Clouds 20 1015 56 10000 3.6 50 04:50 13.05.2020
3305 Clouds 20 1015 60 10000 5.7 50 03:27 13.05.2020
3306 Clouds 21 1015 60 10000 7.7 50 02:32 13.05.2020
3307 Clouds 21 1015 60 10000 8.2 30 01:37 13.05.2020
3308 Clouds 21 1016 60 10000 8.2 30 00:50 13.05.2020
3309 Clouds 21 1016 60 10000 8.2 30 00:20 13.05.2020
3310 Clouds 22 1016 53 10000 8.2 30 23:40 12.05.2020
3311 Clouds 22 1016 53 10000 8.2 30 23:21 12.05.2020
3312 Clouds 22 1016 56 10000 9.3 30 22:58 12.05.2020
3313 Clouds 22 1016 49 10000 9.3 30 22:40 12.05.2020
3314 Clouds 23 1016 49 10000 9.3 30 22:21 12.05.2020
3315 Clouds 24 1016 44 10000 9.3 30 21:56 12.05.2020
3316 Clouds 24 1016 38 10000 9.3 30 21:37 12.05.2020
3317 Clouds 25 1016 38 10000 9.3 30 21:19 12.05.2020
3318 Clouds 25 1016 36 10000 9.3 30 20:57 12.05.2020
3319 Clouds 27 1016 30 10000 8.7 30 20:38 12.05.2020
3320 Clouds 27 1016 30 10000 8.7 30 20:20 12.05.2020
3321 Clouds 28 1015 28 10000 8.2 30 19:56 12.05.2020
3322 Clouds 28 1015 28 10000 8.2 20 19:38 12.05.2020
3323 Clear 28 1015 28 10000 8.2 20 19:20 12.05.2020
3324 Clear 31 1014 25 10000 8.7 20 18:43 12.05.2020
3325 Clear 31 1014 25 10000 8.7 20 18:24 12.05.2020
3326 Clear 32 1014 22 10000 8.2 20 17:59 12.05.2020
3327 Clear 33 1014 18 10000 8.7 10 17:41 12.05.2020
3328 Clear 33 1014 18 10000 8.7 10 17:22 12.05.2020
3329 Clear 33 1014 21 10000 8.7 20 16:47 12.05.2020
3330 Clear 34 1014 17 10000 8.7 10 16:24 12.05.2020
3331 Clear 34 1014 17 10000 8.7 10 15:56 12.05.2020
3332 Clear 34 1014 16 10000 8.2 20 15:37 12.05.2020
3333 Clear 34 1014 16 10000 8.2 20 15:19 12.05.2020
3334 Clear 33 1014 15 10000 8.2 20 14:55 12.05.2020
3335 Clear 33 1014 15 10000 8.2 20 14:37 12.05.2020
3336 Clouds 33 1014 15 10000 8.2 20 14:18 12.05.2020
3337 Clouds 33 1015 15 10000 7.2 30 13:57 12.05.2020
3338 Clouds 32 1015 15 10000 8.2 30 13:39 12.05.2020
3339 Clouds 32 1015 15 10000 8.2 30 13:19 12.05.2020
3340 Clouds 32 1015 15 10000 8.2 30 13:19 12.05.2020
3341 Clouds 32 1015 15 10000 7.2 20 12:57 12.05.2020
3342 Clouds 31 1015 16 10000 7.7 20 12:39 12.05.2020
3343 Clear 31 1015 16 10000 7.7 20 12:21 12.05.2020
3344 Clear 31 1015 15 10000 8.2 30 11:57 12.05.2020
3345 Clear 30 1016 17 10000 8.2 40 11:38 12.05.2020
3346 Clear 30 1016 17 10000 8.2 40 11:20 12.05.2020
3347 Clear 28 1016 21 10000 8.7 40 10:56 12.05.2020
3348 Clear 27 1016 28 10000 8.7 40 10:38 12.05.2020
3349 Clear 27 1016 28 10000 8.7 40 10:19 12.05.2020
3350 Clear 27 1016 28 10000 8.7 40 09:57 12.05.2020
3351 Clear 25 1016 31 10000 9.3 50 09:38 12.05.2020
3352 Clear 25 1016 31 10000 9.3 50 09:38 12.05.2020
3353 Clear 25 1016 31 10000 9.3 50 09:20 12.05.2020
3354 Clear 23 1016 33 10000 9.3 50 08:42 12.05.2020
3355 Clouds 23 1016 33 10000 9.3 50 08:21 12.05.2020
3356 Clouds 23 1016 69 10000 8.2 50 07:57 12.05.2020
3357 Clouds 21 1016 49 10000 7.2 50 07:39 12.05.2020
3358 Clouds 21 1016 49 10000 7.2 50 07:19 12.05.2020
3359 Clouds 19 1016 59 10000 6.7 40 06:38 12.05.2020
3360 Clouds 19 1016 59 10000 6.7 40 06:20 12.05.2020
3361 Clouds 19 1016 63 10000 5.7 50 05:46 12.05.2020
3362 Clouds 18 1016 82 10000 7.7 60 04:41 12.05.2020
3363 Clouds 19 1016 82 10000 7.2 50 03:22 12.05.2020
3364 Clouds 19 1017 77 10000 7.2 50 02:27 12.05.2020
3365 Clouds 19 1017 77 10000 8.2 50 01:46 12.05.2020
3366 Clouds 20 1017 64 10000 7.2 50 00:59 12.05.2020
3367 Clouds 20 1017 64 10000 7.2 50 00:24 12.05.2020
3368 Clouds 20 1017 64 10000 7.7 40 23:57 11.05.2020
3369 Clouds 20 1017 56 10000 7.7 40 23:38 11.05.2020
3370 Clouds 21 1018 56 10000 7.7 40 23:20 11.05.2020
3371 Clouds 21 1018 56 10000 7.7 40 22:57 11.05.2020
3372 Clouds 21 1018 53 10000 7.7 40 22:39 11.05.2020
3373 Clouds 21 1018 53 10000 7.7 40 22:39 11.05.2020
3374 Clouds 22 1018 53 10000 7.7 40 22:19 11.05.2020
3375 Clouds 22 1018 49 10000 7.7 40 21:55 11.05.2020
3376 Clouds 22 1017 40 10000 9.3 30 21:37 11.05.2020
3377 Clouds 23 1017 40 10000 9.3 30 21:18 11.05.2020
3378 Clouds 23 1017 38 10000 8.7 30 20:56 11.05.2020
3379 Clouds 23 1017 36 10000 8.7 30 20:38 11.05.2020
3380 Clear 24 1017 36 10000 8.7 30 20:18 11.05.2020
3381 Clear 26 1017 24 10000 9.8 30 19:41 11.05.2020
3382 Clear 27 1017 24 10000 9.8 30 19:22 11.05.2020
3383 Clear 27 1017 24 10000 9.3 30 18:58 11.05.2020
3384 Clear 29 1016 23 10000 8.2 340 18:39 11.05.2020
3385 Clear 29 1016 23 10000 8.2 340 18:20 11.05.2020
3386 Clear 29 1016 20 10000 8.7 10 17:58 11.05.2020
3387 Clear 30 1016 22 10000 8.7 350 17:40 11.05.2020
3388 Clear 30 1016 22 10000 8.7 350 17:21 11.05.2020
3389 Clear 30 1016 23 10000 7.7 360 16:57 11.05.2020
3390 Clear 30 1016 22 10000 7.7 340 16:38 11.05.2020
3391 Clear 30 1016 22 10000 7.7 340 16:19 11.05.2020
3392 Clear 30 1016 19 10000 6.7 360 15:42 11.05.2020
3393 Clear 30 1016 19 10000 6.7 360 15:21 11.05.2020
3394 Clear 31 1016 18 10000 6.7 10 14:59 11.05.2020
3395 Clear 30 1016 19 10000 6.7 10 14:41 11.05.2020
3396 Clear 30 1016 19 10000 6.7 10 14:22 11.05.2020
3397 Clear 30 1017 16 10000 7.2 30 13:58 11.05.2020
3398 Clear 30 1017 18 10000 7.2 30 13:39 11.05.2020
3399 Clear 29 1017 18 10000 7.2 30 13:18 11.05.2020
3400 Clear 29 1017 18 10000 7.2 30 13:18 11.05.2020
3401 Clear 29 1017 18 10000 7.2 30 13:18 11.05.2020
3402 Clear 29 1017 17 10000 7.2 50 12:56 11.05.2020
3403 Clear 28 1017 18 10000 7.2 50 12:38 11.05.2020
3404 Clear 28 1017 18 10000 7.2 50 12:19 11.05.2020
3405 Clear 28 1017 18 10000 8.2 40 11:54 11.05.2020
3406 Clear 27 1017 21 10000 8.2 50 11:36 11.05.2020
3407 Clear 27 1017 21 10000 8.2 50 11:18 11.05.2020
3408 Clear 27 1017 21 10000 8.2 50 10:54 11.05.2020
3409 Clear 24 1018 31 10000 7.7 40 10:36 11.05.2020
3410 Clear 24 1018 31 10000 7.7 40 10:18 11.05.2020
3411 Clear 23 1018 38 10000 7.7 40 09:41 11.05.2020
3412 Clear 23 1018 38 10000 7.7 40 09:20 11.05.2020
3413 Clear 21 1018 49 10000 7.2 40 08:57 11.05.2020
3414 Clear 20 1018 60 10000 7.2 60 08:38 11.05.2020
3415 Clear 20 1018 60 10000 7.2 60 08:18 11.05.2020
3416 Clouds 19 1018 72 10000 6.2 40 07:47 11.05.2020
3417 Clouds 18 1018 77 10000 5.1 50 07:28 11.05.2020
3418 Clouds 18 1018 82 10000 4.1 60 06:52 11.05.2020
3419 Clouds 17 1017 88 10000 5.7 50 06:18 11.05.2020
3420 Clouds 17 1017 82 10000 5.1 50 05:28 11.05.2020
3421 Clear 17 1017 82 10000 4.6 30 04:35 11.05.2020
3422 Clear 17 1017 88 10000 4.6 30 03:35 11.05.2020
3423 Clear 18 1017 82 10000 5.1 20 02:34 11.05.2020
3424 Clear 18 1017 77 10000 6.2 20 01:46 11.05.2020
3425 Clear 19 1018 72 10000 5.1 40 00:53 11.05.2020
3426 Clear 19 1018 72 10000 6.2 50 00:21 11.05.2020
3427 Clear 19 1018 68 10000 6.2 30 23:45 10.05.2020
3428 Clear 20 1018 68 10000 6.2 30 23:26 10.05.2020
3429 Clear 22 1018 56 10000 6.7 30 22:58 10.05.2020
3430 Clear 22 1018 56 10000 6.7 30 22:40 10.05.2020
3431 Clear 22 1018 56 10000 6.7 30 22:22 10.05.2020
3432 Clear 22 1018 56 10000 5.7 10 21:44 10.05.2020
3433 Clear 23 1018 56 10000 6.2 10 21:21 10.05.2020
3434 Clear 24 1017 53 10000 7.7 10 20:56 10.05.2020
3435 Clear 25 1017 38 10000 7.2 340 20:38 10.05.2020
3436 Clear 25 1017 38 10000 7.2 340 20:20 10.05.2020
3437 Clear 26 1016 31 10000 5.1 340 19:54 10.05.2020
3438 Clear 27 1016 32 10000 5.1 340 19:36 10.05.2020
3439 Clear 27 1016 32 10000 5.1 340 19:18 10.05.2020
3440 Clear 27 1016 32 10000 4.6 350 18:54 10.05.2020
3441 Clear 27 1016 30 10000 3.6 330 18:36 10.05.2020
3442 Clear 27 1016 30 10000 3.6 330 18:18 10.05.2020
3443 Clear 28 1016 28 10000 5.7 330 17:41 10.05.2020
3444 Clear 28 1016 28 10000 5.7 330 17:22 10.05.2020
3445 Clear 28 1016 24 10000 4.6 320 16:59 10.05.2020
3446 Clear 28 1016 24 10000 4.6 320 16:41 10.05.2020
3447 Clear 28 1016 24 10000 4.6 320 16:20 10.05.2020
3448 Clear 28 1016 26 10000 5.1 330 15:57 10.05.2020
3449 Clear 28 1016 24 10000 3.1 290 15:36 10.05.2020
3450 Clear 28 1016 24 10000 3.1 290 15:18 10.05.2020
3451 Clear 28 1016 24 10000 2.6 330 14:55 10.05.2020
3452 Clear 27 1016 26 10000 3.1 250 14:37 10.05.2020
3453 Clear 27 1016 26 10000 3.1 250 14:18 10.05.2020
3454 Clear 27 1016 26 10000 2.6 300 13:55 10.05.2020
3455 Clear 26 1017 29 10000 2.6 260 13:36 10.05.2020
3456 Clear 26 1017 29 10000 2.6 260 13:18 10.05.2020
3457 Clear 25 1017 31 10000 2.6 330 12:41 10.05.2020
3458 Clear 25 1017 31 10000 2.6 330 12:21 10.05.2020
3459 Clear 24 1018 36 10000 2.1 320 11:58 10.05.2020
3460 Clear 23 1018 35 10000 3.6 360 11:40 10.05.2020
3461 Clear 23 1018 35 10000 3.6 360 11:20 10.05.2020
3462 Clear 23 1018 35 10000 3.6 360 10:54 10.05.2020
3463 Clear 22 1018 37 10000 3.1 340 10:36 10.05.2020
3464 Clear 22 1018 37 10000 3.1 340 10:18 10.05.2020
3465 Clear 21 1018 46 10000 2.1 330 09:41 10.05.2020
3466 Clear 21 1018 46 10000 2.1 330 09:22 10.05.2020
3467 Clear 20 1017 56 10000 2.1 40 08:55 10.05.2020
3468 Clear 19 1017 63 10000 2.1 40 08:25 10.05.2020
3469 Clouds 18 1017 72 6000 1.5 60 07:59 10.05.2020
3470 Clouds 18 1017 72 6000 1.5 60 07:38 10.05.2020
3471 Clouds 18 1017 72 6000 1.5 60 07:19 10.05.2020
3472 Clouds 17 1017 77 6000 1.5 60 06:50 10.05.2020
3473 Clouds 17 1017 77 6000 1.5 60 06:23 10.05.2020
3474 Clouds 17 1016 82 6000 2.1 360 05:44 10.05.2020
3475 Clouds 17 1016 82 6000 2.6 330 04:42 10.05.2020
3476 Clouds 17 1016 82 6000 2.6 330 04:23 10.05.2020
3477 Clouds 17 1016 82 6000 3.6 320 03:43 10.05.2020
3478 Clouds 18 1016 77 6000 3.1 320 02:55 10.05.2020
3479 Clouds 18 1016 77 6000 3.1 320 02:24 10.05.2020
3480 Clouds 19 1016 72 6000 3.1 310 01:57 10.05.2020
3481 Clouds 19 1016 72 6000 3.1 310 01:57 10.05.2020
3482 Clouds 19 1016 72 6000 3.1 310 01:39 10.05.2020
3483 Clouds 19 1016 72 6000 3.1 310 01:18 10.05.2020
3484 Clouds 19 1016 72 6000 3.1 300 00:42 10.05.2020
3485 Clouds 19 1016 72 6000 3.1 300 00:20 10.05.2020
3486 Clouds 20 1017 64 6000 5.7 310 23:40 09.05.2020
3487 Clouds 20 1017 64 6000 5.7 310 23:21 09.05.2020
3488 Clouds 21 1016 60 6000 5.7 310 22:57 09.05.2020
3489 Clouds 21 1016 60 6000 5.7 310 22:38 09.05.2020
3490 Clouds 21 1016 60 6000 5.7 310 22:20 09.05.2020
3491 Clouds 22 1016 53 6000 5.7 320 21:55 09.05.2020
3492 Clouds 22 1016 53 6000 5.7 320 21:37 09.05.2020
3493 Clouds 22 1016 53 6000 5.7 320 21:19 09.05.2020
3494 Clouds 24 1015 47 6000 6.2 320 20:55 09.05.2020
3495 Clouds 24 1015 47 6000 6.2 320 20:36 09.05.2020
3496 Clouds 24 1014 47 6000 4.6 310 20:18 09.05.2020
3497 Clouds 24 1014 44 6000 4.6 310 19:40 09.05.2020
3498 Clouds 25 1014 44 6000 4.6 310 19:20 09.05.2020
3499 Clouds 26 1014 41 6000 4.6 320 18:55 09.05.2020
3500 Clouds 26 1014 41 6000 4.6 320 18:55 09.05.2020
3501 Clouds 26 1013 36 10000 4.6 320 18:37 09.05.2020
3502 Clouds 26 1013 36 10000 4.6 320 18:18 09.05.2020
3503 Clouds 26 1013 36 10000 4.6 320 18:18 09.05.2020
3504 Clouds 26 1013 34 10000 4.1 310 17:42 09.05.2020
3505 Clouds 27 1013 34 10000 4.1 310 17:22 09.05.2020
3506 Clouds 27 1013 36 10000 4.1 310 16:41 09.05.2020
3507 Clouds 27 1013 36 10000 4.1 310 16:20 09.05.2020
3508 Clouds 26 1013 39 10000 4.1 330 15:58 09.05.2020
3509 Clear 26 1013 39 0 4.02 330 15:39 09.05.2020
3510 Clear 26 1016 39 0 2.68 280 15:21 09.05.2020
3511 Clear 26 1016 39 0 2.68 280 14:43 09.05.2020
3512 Clear 25 1016 44 0 3.58 330 14:20 09.05.2020
3513 Clear 25 1016 44 0 3.58 330 13:59 09.05.2020
3514 Clear 25 1016 44 0 3.58 330 13:41 09.05.2020
3515 Clear 29 1013 25 0 2.02 308 13:21 09.05.2020
3516 Clear 29 1013 25 0 2.02 308 12:58 09.05.2020
3517 Clear 29 1013 25 0 2.02 308 12:39 09.05.2020
3518 Clouds 22 1014 56 0 3.58 310 12:21 09.05.2020
3519 Clouds 22 1014 56 10000 3.6 310 11:44 09.05.2020
3520 Clouds 22 1014 56 10000 3.6 310 11:20 09.05.2020
3521 Clouds 22 1014 56 10000 3.6 310 10:48 09.05.2020
3522 Clouds 22 1014 56 10000 3.6 310 10:27 09.05.2020
3523 Clouds 21 1014 68 10000 4.6 290 09:59 09.05.2020
3524 Clouds 21 1014 68 10000 4.6 290 09:41 09.05.2020
3525 Clouds 21 1014 68 10000 4.6 290 09:19 09.05.2020
3526 Clouds 20 1014 72 10000 4.1 290 08:52 09.05.2020
3527 Clouds 20 1013 72 10000 5.1 290 08:34 09.05.2020
3528 Clouds 20 1013 72 10000 4.1 290 07:56 09.05.2020
3529 Clouds 18 1013 82 10000 6.2 280 07:38 09.05.2020
3530 Clouds 18 1013 82 10000 6.2 280 07:20 09.05.2020
3531 Clouds 18 1012 82 10000 6.2 280 06:27 09.05.2020
3532 Clouds 18 1012 82 10000 5.7 280 05:50 09.05.2020
3533 Clouds 18 1012 77 10000 5.1 280 05:19 09.05.2020
3534 Clouds 19 1011 68 6000 5.1 270 03:39 09.05.2020
3535 Clouds 19 1011 68 6000 5.1 280 02:53 09.05.2020
3536 Clouds 18 1011 72 10000 6.2 280 02:30 09.05.2020
3537 Clouds 19 1012 68 10000 6.7 280 01:49 09.05.2020
3538 Clouds 19 1012 68 10000 5.7 280 01:21 09.05.2020
3539 Clouds 19 1012 68 10000 5.1 290 00:42 09.05.2020
3540 Clouds 19 1012 68 10000 5.1 290 00:18 09.05.2020
3541 Clouds 19 1012 59 10000 7.2 310 23:43 08.05.2020
3542 Clouds 19 1012 59 10000 7.2 310 23:25 08.05.2020
3543 Clouds 19 1012 59 10000 7.2 310 22:55 08.05.2020
3544 Clouds 19 1012 64 10000 6.7 300 22:37 08.05.2020
3545 Clouds 20 1012 64 10000 6.7 300 22:19 08.05.2020
3546 Clouds 20 1012 64 6000 9.3 300 21:54 08.05.2020
3547 Clouds 20 1012 60 6000 9.3 280 21:36 08.05.2020
3548 Clouds 21 1012 60 6000 9.3 280 21:18 08.05.2020
3549 Clouds 23 1010 56 6000 9.8 280 20:55 08.05.2020
3550 Clouds 23 1010 56 6000 9.8 280 20:37 08.05.2020
3551 Clouds 23 1010 56 6000 9.8 280 20:19 08.05.2020
3552 Clouds 26 1009 34 6000 7.2 290 19:42 08.05.2020
3553 Clouds 26 1009 34 6000 7.2 290 19:21 08.05.2020
3554 Clouds 27 1008 28 6000 9.3 300 18:46 08.05.2020
3555 Clouds 27 1008 28 6000 9.3 300 18:46 08.05.2020
3556 Clouds 30 1007 17 6000 8.7 300 18:28 08.05.2020
3557 Clouds 33 1006 13 6000 11.3 290 17:43 08.05.2020
3558 Clouds 33 1006 13 6000 11.3 290 17:20 08.05.2020
3559 Clouds 35 1005 11 10000 5.1 280 16:56 08.05.2020
3560 Clouds 35 1006 9 10000 4.6 300 16:38 08.05.2020
3561 Clouds 36 1006 9 10000 4.6 300 16:19 08.05.2020
3562 Clouds 35 1006 9 10000 3.1 260 15:43 08.05.2020
3563 Clear 35 1006 9 10000 4.6 260 15:22 08.05.2020
3564 Clear 35 1007 9 10000 4.6 250 14:58 08.05.2020
3565 Clear 35 1008 11 10000 3.1 270 14:40 08.05.2020
3566 Clear 35 1008 11 10000 3.1 270 14:20 08.05.2020
3567 Clear 35 1008 11 10000 3.6 280 13:56 08.05.2020
3568 Clear 35 1008 12 10000 3.1 320 13:38 08.05.2020
3569 Clouds 34 1008 12 10000 3.1 320 13:18 08.05.2020
3570 Clouds 34 1009 12 10000 3.6 320 12:44 08.05.2020
3571 Clouds 34 1009 11 10000 4.1 330 12:23 08.05.2020
3572 Clouds 34 1009 10 10000 1.5 30 11:55 08.05.2020
3573 Clouds 34 1009 10 10000 1 340 11:36 08.05.2020
3574 Clouds 34 1009 10 10000 1 340 11:36 08.05.2020
3575 Clouds 34 1009 10 10000 1 340 11:18 08.05.2020
3576 Clouds 32 1010 16 10000 3.1 70 10:43 08.05.2020
3577 Clouds 31 1010 16 10000 3.1 70 10:21 08.05.2020
3578 Clouds 31 1010 16 10000 3.1 70 09:59 08.05.2020
3579 Clouds 29 1010 26 10000 3.6 70 09:40 08.05.2020
3580 Clouds 28 1010 26 10000 3.6 70 09:19 08.05.2020
3581 Clouds 30 1010 20 10000 2.1 80 08:45 08.05.2020
3582 Clear 28 1010 26 10000 2.1 80 08:24 08.05.2020
3583 Clear 27 1011 28 10000 4.1 110 07:45 08.05.2020
3584 Clear 26 1011 29 10000 4.1 110 07:25 08.05.2020
3585 Clear 25 1011 29 10000 4.1 110 06:53 08.05.2020
3586 Clear 23 1011 33 10000 4.1 110 06:25 08.05.2020
3587 Clear 22 1011 33 10000 4.1 110 05:59 08.05.2020
3588 Clear 21 1011 37 10000 2.6 50 04:56 08.05.2020
3589 Clear 21 1012 43 10000 2.6 40 02:59 08.05.2020
3590 Clear 21 1012 43 10000 2.6 40 02:24 08.05.2020
3591 Clear 21 1012 43 10000 3.1 60 01:38 08.05.2020
3592 Clear 22 1012 43 10000 3.1 60 01:19 08.05.2020
3593 Clear 22 1013 53 10000 4.6 40 00:46 08.05.2020
3594 Clear 22 1013 53 10000 4.6 40 00:24 08.05.2020
3595 Clear 23 1013 49 10000 6.2 40 23:46 07.05.2020
3596 Clear 23 1013 49 10000 6.2 40 23:24 07.05.2020
3597 Clear 24 1013 47 10000 6.7 30 22:59 07.05.2020
3598 Clear 25 1013 44 10000 6.7 30 22:41 07.05.2020
3599 Clear 25 1013 44 10000 6.7 30 22:20 07.05.2020
3600 Clear 25 1013 41 10000 4.6 350 21:57 07.05.2020
3601 Clear 27 1013 28 10000 4.6 350 21:38 07.05.2020
3602 Clear 27 1013 28 10000 4.6 350 21:38 07.05.2020
3603 Clear 27 1013 28 10000 4.6 350 21:20 07.05.2020
3604 Clear 27 1013 28 10000 4.6 350 21:19 07.05.2020
3605 Clear 27 1013 26 10000 3.6 360 20:57 07.05.2020
3606 Clear 28 1012 24 10000 4.1 350 20:37 07.05.2020
3607 Clear 28 1012 24 10000 4.1 350 20:19 07.05.2020
3608 Clear 28 1012 24 10000 4.6 340 19:46 07.05.2020
3609 Clear 28 1012 24 10000 4.6 340 19:22 07.05.2020
3610 Clear 29 1012 25 10000 4.6 330 18:56 07.05.2020
3611 Clear 29 1012 22 10000 4.1 330 18:38 07.05.2020
3612 Clear 30 1012 22 10000 4.1 330 18:20 07.05.2020
3613 Clear 30 1012 17 10000 3.1 320 17:41 07.05.2020
3614 Clear 30 1012 17 10000 3.1 320 17:20 07.05.2020
3615 Clear 30 1012 20 10000 3.6 330 16:43 07.05.2020
3616 Clear 30 1012 20 10000 3.6 330 16:19 07.05.2020
3617 Clear 30 1012 17 10000 3.1 330 15:57 07.05.2020
3618 Clear 31 1013 18 10000 3.1 310 15:39 07.05.2020
3619 Clear 31 1013 18 10000 3.1 310 15:18 07.05.2020
3620 Clear 30 1013 19 10000 2.1 350 14:57 07.05.2020
3621 Clear 30 1013 21 10000 3.6 310 14:39 07.05.2020
3622 Clear 29 1013 21 10000 3.6 310 14:18 07.05.2020
3623 Clear 29 1014 20 10000 3.1 280 13:42 07.05.2020
3624 Clear 29 1014 20 10000 3.1 280 13:24 07.05.2020
3625 Clear 28 1014 23 10000 2.1 270 12:43 07.05.2020
3626 Clear 28 1014 23 10000 2.1 270 12:20 07.05.2020
3627 Clear 27 1014 27 10000 1.5 10 11:57 07.05.2020
3628 Clear 26 1014 27 10000 1.5 10 11:38 07.05.2020
3629 Clear 26 1014 27 10000 1.5 10 11:20 07.05.2020
3630 Clear 25 1015 31 10000 2.1 40 10:40 07.05.2020
3631 Clear 25 1015 31 10000 2.1 40 10:21 07.05.2020
3632 Clear 23 1015 40 10000 1 20 09:41 07.05.2020
3633 Clear 23 1015 40 10000 1 20 09:20 07.05.2020
3634 Clear 23 1015 43 10000 1 80 08:57 07.05.2020
3635 Clear 22 1015 53 10000 1.71 352 08:38 07.05.2020
3636 Clear 22 1015 53 10000 2.04 353 08:20 07.05.2020
3637 Clear 21 1015 56 10000 2.04 353 07:45 07.05.2020
3638 Clear 21 1015 64 10000 1 350 07:26 07.05.2020
3639 Clear 20 1015 72 10000 1 350 06:52 07.05.2020
3640 Clear 19 1014 72 10000 2.08 359 06:33 07.05.2020
3641 Clear 17 1014 77 10000 2.02 2 05:32 07.05.2020
3642 Clear 18 1014 72 10000 3.1 70 03:55 07.05.2020
3643 Clear 18 1015 72 10000 3.1 70 03:25 07.05.2020
3644 Clear 19 1015 68 10000 3.1 80 02:53 07.05.2020
3645 Clear 19 1016 63 10000 4.1 30 01:45 07.05.2020
3646 Clear 19 1016 63 10000 4.1 30 01:24 07.05.2020
3647 Clear 19 1016 63 10000 4.1 30 00:47 07.05.2020
3648 Clear 19 1016 63 10000 4.6 30 00:28 07.05.2020
3649 Clear 20 1016 60 10000 4.1 30 23:57 06.05.2020
3650 Clear 20 1016 60 10000 4.1 30 23:38 06.05.2020
3651 Clear 20 1016 60 10000 4.1 30 23:19 06.05.2020
3652 Clear 21 1017 52 10000 3.6 10 22:54 06.05.2020
3653 Clear 21 1017 52 10000 2.6 340 22:36 06.05.2020
3654 Clear 21 1017 52 10000 2.6 340 22:18 06.05.2020
3655 Clear 22 1016 53 10000 5.7 340 21:42 06.05.2020
3656 Clear 22 1016 53 10000 5.7 340 21:22 06.05.2020
3657 Clear 23 1016 49 10000 6.7 350 20:56 06.05.2020
3658 Clear 23 1015 41 10000 5.1 340 20:37 06.05.2020
3659 Clear 24 1015 41 10000 5.1 340 20:19 06.05.2020
3660 Clear 25 1015 33 10000 5.1 330 19:56 06.05.2020
3661 Clear 25 1015 33 10000 4.1 330 19:37 06.05.2020
3662 Clear 25 1015 33 10000 4.1 330 19:18 06.05.2020
3663 Clear 25 1015 33 10000 4.1 330 19:18 06.05.2020
3664 Clear 26 1014 31 10000 4.6 300 18:55 06.05.2020
3665 Clear 26 1014 31 10000 4.6 300 18:55 06.05.2020
3666 Clear 26 1014 31 10000 3.6 310 18:36 06.05.2020
3667 Clear 26 1014 31 10000 3.6 310 18:18 06.05.2020
3668 Clear 26 1014 34 10000 2.6 320 17:54 06.05.2020
3669 Clear 27 1014 32 10000 4.6 280 17:36 06.05.2020
3670 Clear 27 1014 32 10000 4.6 280 17:18 06.05.2020
3671 Clear 27 1014 32 10000 4.1 320 16:56 06.05.2020
3672 Clear 27 1014 32 10000 4.6 280 16:38 06.05.2020
3673 Clear 27 1014 32 10000 4.6 280 16:19 06.05.2020
3674 Clear 26 1014 31 10000 4.6 310 15:45 06.05.2020
3675 Clear 27 1015 30 10000 3.1 300 15:22 06.05.2020
3676 Clear 26 1015 36 10000 4.1 280 14:56 06.05.2020
3677 Clear 26 1015 36 10000 3.1 230 14:38 06.05.2020
3678 Clear 26 1015 36 10000 3.1 230 14:19 06.05.2020
3679 Clear 25 1015 36 10000 3.1 240 13:57 06.05.2020
3680 Clear 25 1016 38 10000 2.6 230 13:37 06.05.2020
3681 Clear 25 1016 38 10000 2.6 230 13:19 06.05.2020
3682 Clouds 24 1016 41 10000 3.6 320 12:42 06.05.2020
3683 Clouds 24 1016 41 10000 3.6 320 12:24 06.05.2020
3684 Clouds 22 1016 49 10000 3.1 300 11:42 06.05.2020
3685 Clouds 22 1016 49 10000 3.1 300 11:42 06.05.2020
3686 Clouds 22 1016 49 10000 3.1 300 11:42 06.05.2020
3687 Clouds 22 1016 49 10000 3.1 300 11:22 06.05.2020
3688 Clear 21 1016 52 10000 3.1 240 10:58 06.05.2020
3689 Clear 21 1016 52 10000 3.1 300 10:39 06.05.2020
3690 Clear 21 1016 52 10000 3.1 300 10:19 06.05.2020
3691 -273 0 0 0 0 0 09:59 06.05.2020
3692 Clear 20 1016 56 10000 3.6 310 09:38 06.05.2020
3693 Clear 20 1016 56 10000 3.6 310 09:20 06.05.2020
3694 Clouds 19 1016 59 10000 3.1 300 08:43 06.05.2020
3695 Clouds 19 1016 59 10000 3.1 300 08:20 06.05.2020
3696 Clouds 19 1016 59 10000 5.1 330 07:56 06.05.2020
3697 Clouds 18 1016 68 10000 3.6 300 07:38 06.05.2020
3698 Clouds 18 1016 68 10000 3.6 300 07:18 06.05.2020
3699 Clouds 18 1016 63 10000 2.6 280 06:46 06.05.2020
3700 Clouds 17 1016 67 10000 3.1 300 06:21 06.05.2020
3701 Clouds 17 1016 67 10000 2.6 290 05:49 06.05.2020
3702 Clouds 17 1016 67 10000 2.6 290 05:49 06.05.2020
3703 Clouds 17 1016 67 10000 3.1 280 05:31 06.05.2020
3704 Clouds 17 1016 67 10000 4.1 310 03:53 06.05.2020
3705 Clouds 17 1016 67 10000 4.6 320 03:28 06.05.2020
3706 Clouds 17 1016 67 10000 3.6 310 02:55 06.05.2020
3707 Clouds 17 1016 63 10000 5.1 300 02:27 06.05.2020
3708 Clouds 17 1016 63 10000 5.7 320 01:43 06.05.2020
3709 Clouds 17 1016 63 10000 5.7 300 01:25 06.05.2020
3710 Clouds 17 1016 63 10000 5.7 300 00:44 06.05.2020
3711 Clouds 18 1016 59 10000 6.2 310 00:19 06.05.2020
3712 Clouds 18 1017 59 10000 6.2 280 23:42 05.05.2020
3713 Clouds 18 1017 59 10000 6.2 280 23:20 05.05.2020
3714 Clouds 18 1017 59 10000 6.2 280 22:57 05.05.2020
3715 Clouds 18 1017 55 10000 6.2 280 22:38 05.05.2020
3716 Clouds 18 1017 52 10000 5.1 290 22:19 05.05.2020
3717 Clouds 19 1017 45 10000 5.7 290 21:41 05.05.2020
3718 Clouds 19 1017 45 10000 5.7 290 21:22 05.05.2020
3719 Clouds 19 1016 45 10000 6.2 300 20:59 05.05.2020
3720 Clouds 20 1016 42 10000 6.7 310 20:41 05.05.2020
3721 Clouds 20 1016 42 10000 6.7 310 20:20 05.05.2020
3722 Clouds 20 1014 42 10000 7.2 300 19:59 05.05.2020
3723 Clouds 20 1014 42 10000 7.2 300 19:41 05.05.2020
3724 Clouds 20 1014 42 10000 7.2 300 19:23 05.05.2020
3725 Clouds 21 1014 43 10000 7.2 320 18:57 05.05.2020
3726 Clouds 21 1014 35 10000 7.7 290 18:39 05.05.2020
3727 Clouds 22 1014 35 10000 7.7 290 18:19 05.05.2020
3728 Clouds 23 1014 31 10000 6.2 290 17:57 05.05.2020
3729 Clouds 23 1013 33 10000 8.7 300 17:38 05.05.2020
3730 Clouds 23 1013 33 10000 8.7 300 17:20 05.05.2020
3731 Clouds 24 1013 38 10000 7.7 300 16:40 05.05.2020
3732 Clouds 24 1013 38 10000 7.7 300 16:21 05.05.2020
3733 Clouds 24 1012 38 10000 9.8 290 15:59 05.05.2020
3734 Clouds 24 1012 25 10000 10.8 280 15:39 05.05.2020
3735 Clouds 25 1012 25 10000 10.8 280 15:21 05.05.2020
3736 Clouds 25 1012 27 10000 11.3 300 14:55 05.05.2020
3737 Clouds 25 1012 27 10000 9.3 290 14:37 05.05.2020
3738 Clouds 25 1012 27 10000 9.3 290 14:19 05.05.2020
3739 Clouds 25 1012 27 10000 7.7 290 13:56 05.05.2020
3740 Clouds 25 1012 33 10000 9.8 240 13:38 05.05.2020
3741 Clouds 25 1012 33 10000 9.8 240 13:38 05.05.2020
3742 Clouds 25 1012 33 10000 9.8 240 13:19 05.05.2020
3743 Clouds 25 1012 33 10000 7.7 250 12:56 05.05.2020
3744 Clouds 25 1012 33 10000 7.7 250 12:37 05.05.2020
3745 Clouds 25 1012 33 10000 7.7 250 12:19 05.05.2020
3746 Clouds 24 1012 47 10000 6.2 260 11:41 05.05.2020
3747 Clouds 24 1012 47 10000 6.2 260 11:20 05.05.2020
3748 Clouds 23 1012 49 6000 7.7 270 10:56 05.05.2020
3749 Clouds 22 1012 53 6000 5.1 280 10:38 05.05.2020
3750 Clouds 22 1012 53 6000 5.1 280 10:19 05.05.2020
3751 Clouds 22 1012 56 6000 4.1 280 09:55 05.05.2020
3752 Clouds 21 1012 60 6000 4.6 280 09:37 05.05.2020
3753 Clouds 21 1012 60 6000 4.6 280 09:18 05.05.2020
3754 Clouds 20 1011 64 6000 3.6 290 08:41 05.05.2020
3755 Clouds 20 1011 64 6000 3.6 290 08:19 05.05.2020
3756 Clouds 19 1011 72 6000 3.6 300 07:56 05.05.2020
3757 Clouds 19 1011 72 6000 3.6 300 07:38 05.05.2020
3758 Clouds 19 1011 72 6000 3.6 300 07:18 05.05.2020
3759 Clear 19 1014 72 6000 4.6 280 06:40 05.05.2020
3760 Clear 19 1014 72 6000 4.6 280 06:20 05.05.2020
3761 Clear 19 1010 63 6000 4.1 310 05:30 05.05.2020
3762 Clear 20 1009 64 10000 1.5 70 03:19 05.05.2020
3763 Clear 20 1010 64 10000 4.6 50 01:25 05.05.2020
3764 Clear 21 1011 60 10000 5.1 50 00:50 05.05.2020
3765 Clear 21 1011 60 10000 5.1 50 00:19 05.05.2020
3766 Clear 21 1011 64 10000 5.7 40 23:43 04.05.2020
3767 Clear 21 1011 64 10000 5.7 40 23:43 04.05.2020
3768 Clear 21 1011 64 10000 5.7 40 23:21 04.05.2020
3769 Clear 22 1011 64 10000 6.7 40 22:56 04.05.2020
3770 Clear 22 1011 64 10000 6.7 40 22:56 04.05.2020
3771 Clear 22 1011 64 10000 6.7 40 22:37 04.05.2020
3772 Clear 22 1011 64 10000 6.7 40 22:19 04.05.2020
3773 Clear 23 1011 56 10000 7.7 30 21:52 04.05.2020
3774 Clear 23 1011 56 10000 7.7 30 21:52 04.05.2020
3775 Clear 23 1011 56 10000 7.7 30 21:52 04.05.2020
3776 Clear 23 1011 56 10000 7.7 30 21:52 04.05.2020
3777 Clear 23 1011 56 10000 7.7 30 21:52 04.05.2020
3778 Clear 23 1011 56 10000 7.7 30 21:28 04.05.2020
3779 Clear 23 1011 56 10000 7.7 30 21:28 04.05.2020
3780 Clear 23 1011 56 10000 7.7 30 21:28 04.05.2020
3781 Clear 23 1011 56 10000 7.7 30 21:27 04.05.2020
3782 Clear 25 1010 53 10000 7.7 20 20:43 04.05.2020
3783 Clear 25 1010 53 10000 7.7 20 20:23 04.05.2020
3784 Clear 25 1010 53 10000 7.7 20 20:23 04.05.2020
3785 Clear 25 1010 50 10000 9.3 30 19:59 04.05.2020
3786 Clear 27 1009 44 10000 9.8 10 19:40 04.05.2020
3787 Clear 27 1009 44 10000 9.8 10 19:20 04.05.2020
3788 Clear 30 1008 23 10000 5.1 310 18:55 04.05.2020
3789 Clear 30 1008 23 10000 5.1 310 18:36 04.05.2020
3790 Clear 30 1008 23 10000 5.1 310 18:18 04.05.2020
3791 Clouds 31 1008 22 10000 5.1 330 17:54 04.05.2020
3792 Clouds 31 1008 22 10000 5.1 330 17:36 04.05.2020
3793 Clouds 31 1008 22 10000 5.1 330 17:18 04.05.2020
3794 Clouds 32 1008 21 10000 5.1 290 16:42 04.05.2020
3795 Clouds 32 1008 21 10000 5.1 290 16:21 04.05.2020
3796 Clouds 32 1008 18 10000 2.6 290 15:46 04.05.2020
3797 Clouds 32 1008 18 10000 2.6 290 15:25 04.05.2020
3798 Clouds 32 1009 17 10000 6.2 210 14:56 04.05.2020
3799 Clouds 32 1009 17 10000 6.2 210 14:56 04.05.2020
3800 Clouds 32 1010 18 10000 2.6 250 14:38 04.05.2020
3801 Clouds 32 1010 18 10000 2.6 250 14:38 04.05.2020
3802 Clouds 32 1010 18 10000 2.6 250 14:38 04.05.2020
3803 Clouds 32 1010 18 10000 2.6 250 14:38 04.05.2020
3804 Clouds 32 1010 18 10000 2.6 250 14:38 04.05.2020
3805 Clear 31 1010 19 10000 2.1 170 13:42 04.05.2020
3806 Clear 31 1010 19 10000 2.1 170 13:42 04.05.2020
3807 Clear 31 1010 19 10000 3.1 260 12:46 04.05.2020
3808 Clear 31 1010 19 10000 3.1 260 12:46 04.05.2020
3809 Clear 31 1010 19 10000 3.1 260 12:46 04.05.2020
3810 Clear 30 1011 22 10000 4.1 290 12:01 04.05.2020
3811 Clear 28 1011 26 10000 1.5 290 09:32 04.05.2020
3812 Clear 28 1011 30 10000 1.5 310 08:50 04.05.2020
3813 Clear 28 1011 30 10000 1.5 310 08:50 04.05.2020
3814 Clear 28 1011 30 10000 1.5 310 08:50 04.05.2020
3815 Clear 28 1011 30 10000 1.5 310 08:50 04.05.2020
3816 Clear 28 1011 30 10000 1.5 310 08:50 04.05.2020
3817 Clear 24 1010 38 10000 0.5 170 07:44 04.05.2020
3818 Clear 24 1010 38 10000 0.5 170 07:44 04.05.2020
3819 Clear 24 1010 38 10000 0.5 170 07:44 04.05.2020
3820 Clear 23 1010 38 10000 0.5 170 06:44 04.05.2020
3821 Clear 22 1010 43 10000 3.6 150 06:43 04.05.2020
3822 Clear 20 1010 45 10000 4.6 120 04:55 04.05.2020
3823 Clear 20 1010 68 10000 4.6 90 03:18 04.05.2020
3824 Clear 20 1010 68 10000 4.6 90 03:18 04.05.2020
3825 Clear 20 1011 68 10000 4.6 90 02:30 04.05.2020
3826 Clear 21 1012 73 10000 5.1 70 00:38 04.05.2020
3827 Clear 21 1012 73 10000 5.7 50 23:45 03.05.2020
3828 Clear 21 1012 73 10000 5.7 50 23:24 03.05.2020
3829 Clear 22 1012 68 10000 6.7 40 22:56 03.05.2020
3830 Clear 22 1012 68 10000 6.7 40 22:56 03.05.2020
3831 Clear 22 1012 64 10000 6.7 50 22:38 03.05.2020
3832 Clear 22 1012 64 10000 6.7 50 22:19 03.05.2020
3833 Clear 24 1012 33 10000 5.1 350 21:41 03.05.2020
3834 Clear 24 1012 33 10000 5.1 350 21:41 03.05.2020
3835 Clear 24 1012 33 10000 5.1 350 21:20 03.05.2020
3836 Clear 25 1012 29 10000 5.7 350 20:47 03.05.2020
3837 Clouds 26 1011 31 10000 6.7 340 20:23 03.05.2020
3838 Clouds 26 1011 34 10000 6.7 320 19:55 03.05.2020
3839 Clouds 26 1011 34 10000 6.7 320 19:55 03.05.2020
3840 Clouds 26 1010 30 10000 5.7 310 19:36 03.05.2020
3841 Clouds 27 1010 30 10000 5.7 310 19:18 03.05.2020
3842 Clouds 27 1010 32 10000 5.1 300 18:39 03.05.2020
3843 Clouds 27 1010 32 10000 5.1 300 18:20 03.05.2020
3844 Clouds 29 1010 25 10000 4.6 300 17:54 03.05.2020
3845 Clouds 29 1010 26 10000 3.6 320 17:36 03.05.2020
3846 Clouds 29 1010 26 10000 3.6 320 17:18 03.05.2020
3847 Clouds 29 1010 26 10000 4.6 310 16:40 03.05.2020
3848 Clouds 29 1010 26 10000 4.6 310 16:18 03.05.2020
3849 Clouds 30 1010 25 10000 5.1 280 15:56 03.05.2020
3850 Clouds 30 1010 22 10000 5.7 290 15:37 03.05.2020
3851 Clouds 30 1010 22 10000 5.7 290 15:19 03.05.2020
3852 Clouds 30 1010 20 10000 4.6 280 14:54 03.05.2020
3853 Clouds 30 1010 22 10000 1.5 290 14:36 03.05.2020
3854 Clouds 30 1010 22 10000 1.5 290 14:18 03.05.2020
3855 Clouds 29 1011 21 10000 4.6 310 13:37 03.05.2020
3856 Clouds 29 1011 21 10000 4.6 310 13:37 03.05.2020
3857 Clouds 29 1011 21 10000 4.6 310 13:37 03.05.2020
3858 Clouds 29 1011 21 10000 4.6 310 13:37 03.05.2020
3859 Clouds 29 1011 20 10000 4.6 320 12:52 03.05.2020
3860 Clouds 27 1011 26 10000 3.1 330 12:27 03.05.2020
3861 Clouds 26 1012 34 10000 2.1 330 11:57 03.05.2020
3862 Clouds 25 1012 36 10000 1.5 320 11:39 03.05.2020
3863 Clouds 25 1012 36 10000 1.5 320 11:20 03.05.2020
3864 Clouds 24 1013 47 6000 2.1 300 10:54 03.05.2020
3865 Clouds 23 1013 53 6000 2.1 310 10:25 03.05.2020
3866 Clouds 22 1012 60 6000 3.6 340 09:41 03.05.2020
3867 Clouds 22 1012 60 6000 3.6 340 09:41 03.05.2020
3868 Clouds 22 1012 60 6000 3.6 340 09:41 03.05.2020
3869 Clouds 22 1012 60 6000 3.6 340 09:41 03.05.2020
3870 Clouds 22 1012 68 10000 2.1 40 08:59 03.05.2020
3871 Clouds 22 1012 68 10000 2.1 40 08:59 03.05.2020
3872 Clouds 22 1012 68 10000 2.1 40 08:35 03.05.2020
3873 Clouds 20 1012 77 10000 2.1 40 07:44 03.05.2020
3874 Clouds 20 1012 77 10000 2.1 40 07:44 03.05.2020
3875 Clouds 20 1012 77 10000 2.1 40 07:44 03.05.2020
3876 Clouds 20 1012 77 10000 2.1 40 07:44 03.05.2020
3877 Clouds 21 1012 73 10000 2.1 40 07:44 03.05.2020
3878 Clouds 18 1011 82 10000 2.1 40 06:52 03.05.2020
3879 Clouds 18 1011 82 10000 2.1 40 06:51 03.05.2020
3880 Clear 18 1011 77 10000 2.1 340 05:56 03.05.2020
3881 Clear 18 1011 72 10000 2.1 340 05:37 03.05.2020
3882 Clear 19 1011 72 10000 2.1 30 04:28 03.05.2020
3883 Clear 19 1011 72 10000 2.1 30 03:41 03.05.2020
3884 Clear 19 1011 72 10000 3.1 70 02:32 03.05.2020
3885 Clear 20 1011 72 10000 5.7 50 01:59 03.05.2020
3886 Clear 20 1011 72 10000 5.7 50 01:39 03.05.2020
3887 Clear 20 1011 72 10000 5.7 50 01:21 03.05.2020
3888 Clear 20 1012 68 10000 6.7 40 00:38 03.05.2020
3889 Clear 20 1012 68 10000 6.7 40 00:20 03.05.2020
3890 Clear 20 1013 64 10000 6.7 40 23:46 02.05.2020
3891 Clear 21 1013 64 10000 6.7 40 23:28 02.05.2020
3892 Clear 21 1013 64 10000 6.7 40 22:57 02.05.2020
3893 Clear 21 1013 64 10000 6.7 40 22:57 02.05.2020
3894 Clear 21 1013 60 10000 6.7 40 22:39 02.05.2020
3895 Clear 22 1013 60 10000 6.7 40 22:20 02.05.2020
3896 Clear 24 1013 53 10000 6.7 10 21:41 02.05.2020
3897 Clear 24 1013 53 10000 6.7 10 21:20 02.05.2020
3898 Clear 25 1012 38 10000 5.7 340 20:58 02.05.2020
3899 Clear 26 1012 34 10000 5.1 340 20:39 02.05.2020
3900 Clear 26 1012 34 10000 5.1 340 20:20 02.05.2020
3901 Clear 26 1012 34 10000 5.1 340 20:20 02.05.2020
3902 Clear 27 1011 32 10000 4.6 350 19:59 02.05.2020
3903 Clear 27 1011 30 10000 3.1 350 19:39 02.05.2020
3904 Clear 27 1011 30 10000 3.1 350 19:20 02.05.2020
3905 Clear 28 1011 26 10000 3.1 340 18:56 02.05.2020
3906 Clear 28 1011 26 10000 4.1 340 18:38 02.05.2020
3907 Clear 28 1011 26 10000 4.1 340 18:20 02.05.2020
3908 Clear 29 1011 23 10000 4.6 300 17:56 02.05.2020
3909 Clear 29 1011 23 10000 4.6 300 17:38 02.05.2020
3910 Clear 29 1011 23 10000 4.6 300 17:19 02.05.2020
3911 Clear 29 1011 21 10000 4.6 270 16:54 02.05.2020
3912 Clear 29 1011 23 10000 3.6 280 16:36 02.05.2020
3913 Clear 29 1011 23 10000 3.6 280 16:18 02.05.2020
3914 Clear 29 1012 21 10000 5.1 270 15:41 02.05.2020
3915 Clear 29 1012 21 10000 5.1 270 15:19 02.05.2020
3916 Clear 29 1012 21 10000 5.1 270 14:42 02.05.2020
3917 Clear 28 1012 24 10000 4.6 310 14:24 02.05.2020
3918 Clear 28 1013 26 10000 5.1 290 13:59 02.05.2020
3919 Clear 28 1013 32 10000 3.6 290 13:39 02.05.2020
3920 Clear 28 1013 32 10000 3.6 290 13:19 02.05.2020
3921 Clear 26 1013 36 10000 2.1 270 12:41 02.05.2020
3922 Clear 26 1013 36 10000 2.1 270 12:22 02.05.2020
3923 Clear 26 1013 36 10000 2.1 270 11:57 02.05.2020
3924 Clear 24 1014 47 10000 2.6 10 11:39 02.05.2020
3925 Clear 24 1014 47 10000 2.6 10 11:20 02.05.2020
3926 Clouds 23 1014 53 10000 2.1 320 10:54 02.05.2020
3927 Clouds 23 1014 53 10000 2.6 340 10:36 02.05.2020
3928 Clouds 23 1014 53 10000 2.6 340 10:18 02.05.2020
3929 Clouds 23 1014 53 10000 2.6 340 10:18 02.05.2020
3930 Clouds 22 1014 60 10000 2.1 340 09:54 02.05.2020
3931 Clouds 21 1014 68 10000 2.1 40 09:36 02.05.2020
3932 Clouds 21 1014 68 10000 2.1 40 09:18 02.05.2020
3933 Clouds 20 1014 77 10000 3.1 360 08:41 02.05.2020
3934 Clouds 19 1014 77 10000 3.1 360 08:22 02.05.2020
3935 Clear 18 1014 82 10000 3.6 20 07:46 02.05.2020
3936 Clear 18 1014 82 10000 3.6 20 07:27 02.05.2020
3937 Clear 18 1013 82 10000 3.6 30 06:47 02.05.2020
3938 Clear 18 1013 77 10000 4.6 40 05:28 02.05.2020
3939 Clear 18 1013 68 10000 4.1 350 04:37 02.05.2020
3940 Clear 19 1013 68 10000 4.1 30 03:59 02.05.2020
3941 Clear 20 1013 60 10000 3.1 10 02:43 02.05.2020
3942 Clear 20 1013 60 10000 3.1 10 02:19 02.05.2020
3943 Clear 21 1013 56 10000 3.1 360 01:33 02.05.2020
3944 Clear 23 1013 46 10000 3.6 350 00:45 02.05.2020
3945 Clear 23 1013 46 10000 3.6 350 00:24 02.05.2020
3946 Clear 23 1013 43 10000 3.6 360 23:57 01.05.2020
3947 Clear 23 1013 43 10000 3.6 360 23:37 01.05.2020
3948 Clear 23 1013 43 10000 3.6 360 23:19 01.05.2020
3949 Clear 24 1013 47 10000 4.1 360 22:54 01.05.2020
3950 Clear 24 1014 47 10000 5.1 350 22:36 01.05.2020
3951 Clear 24 1014 47 10000 5.1 350 22:18 01.05.2020
3952 Clear 24 1013 44 10000 5.1 350 21:41 01.05.2020
3953 Clear 25 1013 44 10000 5.1 350 21:21 01.05.2020
3954 Clear 26 1013 41 10000 6.7 350 20:58 01.05.2020
3955 Clear 27 1012 36 10000 8.2 350 20:40 01.05.2020
3956 Clear 27 1012 36 10000 8.2 350 20:20 01.05.2020
3957 Clear 29 1011 26 10000 3.1 350 19:59 01.05.2020
3958 Clear 29 1011 26 10000 3.6 340 19:41 01.05.2020
3959 Clear 29 1011 26 10000 3.6 340 19:21 01.05.2020
3960 Clear 29 1011 28 10000 3.6 320 18:56 01.05.2020
3961 Clear 29 1011 27 10000 3.6 330 18:38 01.05.2020
3962 Clear 30 1011 27 10000 3.6 330 18:19 01.05.2020
3963 Clear 30 1011 27 10000 3.6 330 18:19 01.05.2020
3964 Clear 30 1011 27 10000 3.6 330 18:19 01.05.2020
3965 Clear 30 1011 23 10000 4.6 280 17:41 01.05.2020
3966 Clear 31 1011 23 10000 4.6 280 17:23 01.05.2020
3967 Clear 31 1011 23 10000 4.6 280 17:23 01.05.2020
3968 Clear 31 1011 23 10000 4.1 290 16:58 01.05.2020
3969 Clear 31 1011 23 10000 4.6 290 16:40 01.05.2020
3970 Clear 31 1011 23 10000 4.6 290 16:21 01.05.2020
3971 Clear 31 1012 23 10000 5.1 270 15:58 01.05.2020
3972 Clear 31 1012 23 10000 4.1 280 15:40 01.05.2020
3973 Clear 31 1012 23 10000 4.1 280 15:20 01.05.2020
3974 Clear 32 1012 22 10000 1 290 14:44 01.05.2020
3975 Clear 31 1012 22 10000 3.1 230 14:25 01.05.2020
3976 Clear 31 1012 22 10000 1.5 350 13:57 01.05.2020
3977 Clear 30 1013 23 10000 2.6 200 13:39 01.05.2020
3978 Clear 30 1013 23 10000 2.6 200 13:21 01.05.2020
3979 Clear 30 1013 25 10000 2.1 340 12:56 01.05.2020
3980 Clear 30 1013 25 10000 2.1 250 12:37 01.05.2020
3981 Clear 30 1013 25 10000 2.1 250 12:19 01.05.2020
3982 Clear 29 1013 26 10000 1.5 40 11:43 01.05.2020
3983 Clear 28 1014 26 10000 1.5 280 11:25 01.05.2020
3984 Clouds 28 1014 28 10000 1.5 280 10:58 01.05.2020
3985 Clouds 28 1014 28 10000 1.5 260 10:40 01.05.2020
3986 Clouds 28 1014 28 10000 1.5 260 10:20 01.05.2020
3987 Clouds 28 1014 28 10000 1.5 260 10:20 01.05.2020
3988 Clouds 26 1014 31 10000 1 160 09:44 01.05.2020
3989 Clouds 26 1014 31 10000 1 160 09:44 01.05.2020
3990 Clouds 26 1014 31 10000 1 160 09:20 01.05.2020
3991 Clouds 25 1014 33 10000 1 200 08:59 01.05.2020
3992 Clouds 24 1014 41 10000 2.1 190 08:41 01.05.2020
3993 Clouds 24 1014 41 10000 2.1 190 08:22 01.05.2020
3994 Clouds 23 1014 40 10000 2.6 200 07:46 01.05.2020
3995 Clouds 21 1014 46 10000 1 220 07:23 01.05.2020
3996 Clouds 20 1014 49 10000 1.67 351 06:51 01.05.2020
3997 Clouds 19 1013 42 10000 1.67 348 05:36 01.05.2020
3998 Clouds 19 1013 42 10000 1.48 2 04:47 01.05.2020
3999 Clouds 19 1012 45 10000 3.1 20 03:31 01.05.2020
4000 Clouds 20 1013 49 10000 1.5 60 02:45 01.05.2020
4001 Clouds 20 1013 49 10000 1.5 60 02:25 01.05.2020
4002 Clouds 20 1013 56 6000 4.1 70 01:29 01.05.2020
4003 Clouds 20 1014 56 6000 4.1 70 00:59 01.05.2020
4004 Clouds 20 1014 56 6000 5.1 70 00:37 01.05.2020
4005 Clouds 21 1014 56 6000 5.1 70 00:19 01.05.2020
4006 Clouds 21 1014 60 6000 5.1 60 23:55 30.04.2020
4007 Clouds 21 1014 60 6000 5.1 60 23:55 30.04.2020
4008 Clouds 21 1014 64 6000 5.7 90 23:37 30.04.2020
4009 Clouds 21 1014 64 6000 5.7 90 23:19 30.04.2020
4010 Clouds 22 1015 60 6000 4.6 40 22:41 30.04.2020
4011 Clouds 22 1015 60 6000 4.6 40 22:21 30.04.2020
4012 Clouds 22 1015 60 6000 4.6 30 21:57 30.04.2020
4013 Clouds 22 1014 60 6000 5.1 40 21:38 30.04.2020
4014 Clouds 22 1014 60 6000 5.1 40 21:20 30.04.2020
4015 Clouds 22 1014 60 6000 4.1 20 20:54 30.04.2020
4016 Clouds 23 1014 56 6000 5.1 360 20:36 30.04.2020
4017 Clouds 23 1014 56 6000 5.1 360 20:18 30.04.2020
4018 Clouds 24 1014 50 6000 6.2 330 19:43 30.04.2020
4019 Clouds 24 1014 50 6000 6.2 330 19:24 30.04.2020
4020 Clouds 26 1014 29 6000 7.2 300 18:56 30.04.2020
4021 Clouds 26 1014 26 6000 5.1 310 18:38 30.04.2020
4022 Clouds 27 1014 26 6000 5.1 310 18:20 30.04.2020
4023 Clouds 27 1014 24 6000 5.7 320 17:56 30.04.2020
4024 Clouds 27 1013 23 6000 5.1 340 17:38 30.04.2020
4025 Clouds 28 1013 23 6000 5.1 340 17:20 30.04.2020
4026 Clear 28 1013 23 10000 5.7 320 16:54 30.04.2020
4027 Clear 28 1013 21 10000 6.7 310 16:36 30.04.2020
4028 Clear 28 1013 21 10000 6.7 310 16:18 30.04.2020
4029 Clear 28 1013 23 10000 3.6 320 15:44 30.04.2020
4030 Clear 28 1013 20 10000 4.1 20 15:23 30.04.2020
4031 Clear 27 1013 22 10000 2.1 30 14:43 30.04.2020
4032 Clear 27 1013 22 10000 2.1 30 14:22 30.04.2020
4033 Clear 27 1013 22 10000 2.6 20 13:59 30.04.2020
4034 Clear 26 1014 26 10000 3.1 50 13:41 30.04.2020
4035 Clear 26 1014 26 10000 3.1 50 13:23 30.04.2020
4036 Clear 25 1014 27 10000 2.6 30 12:59 30.04.2020
4037 Clear 25 1014 27 10000 4.1 360 12:41 30.04.2020
4038 Clear 25 1014 27 10000 4.1 360 12:19 30.04.2020
4039 Clear 23 1015 35 10000 3.6 60 11:38 30.04.2020
4040 Clear 23 1015 35 10000 3.6 60 11:19 30.04.2020
4041 Clear 23 1015 35 10000 2.6 10 10:59 30.04.2020
4042 Clear 22 1015 37 10000 3.6 40 10:40 30.04.2020
4043 Clear 22 1015 37 10000 3.6 40 10:21 30.04.2020
4044 Clear 21 1015 46 10000 4.1 50 09:56 30.04.2020
4045 Clear 20 1015 56 10000 3.1 50 09:38 30.04.2020
4046 Clear 20 1015 56 10000 3.1 50 09:19 30.04.2020
4047 Clear 18 1016 72 10000 1.5 20 08:45 30.04.2020
4048 Clear 18 1016 72 10000 1.5 20 08:45 30.04.2020
4049 Clear 18 1016 72 10000 1.5 20 08:26 30.04.2020
4050 Clear 17 1015 77 6000 1.5 50 07:44 30.04.2020
4051 Clear 17 1015 77 6000 1.5 50 07:25 30.04.2020
4052 Clear 16 1015 77 6000 2.1 50 06:54 30.04.2020
4053 Clear 16 1015 77 6000 2.1 50 06:26 30.04.2020
4054 Clear 16 1015 77 6000 1.5 20 05:46 30.04.2020
4055 Clear 16 1014 77 10000 2.1 20 04:43 30.04.2020
4056 Clear 16 1014 77 10000 2.1 20 04:19 30.04.2020
4057 Clear 17 1015 72 10000 4.6 30 02:48 30.04.2020
4058 Clear 17 1015 67 10000 5.1 30 02:26 30.04.2020
4059 Clear 17 1015 67 10000 5.1 30 01:37 30.04.2020
4060 Clear 18 1016 63 10000 5.7 50 00:42 30.04.2020
4061 Clear 18 1016 63 10000 5.7 50 00:20 30.04.2020
4062 Clear 18 1016 63 10000 5.7 40 23:58 29.04.2020
4063 Clear 18 1016 63 10000 5.7 40 23:39 29.04.2020
4064 Clear 18 1016 63 10000 5.7 40 23:21 29.04.2020
4065 Clear 20 1016 52 10000 5.1 360 22:56 29.04.2020
4066 Clear 20 1016 52 10000 5.1 360 22:38 29.04.2020
4067 Clear 20 1016 52 10000 5.1 360 22:18 29.04.2020
4068 Clear 20 1016 49 10000 6.7 350 21:38 29.04.2020
4069 Clear 20 1016 49 10000 6.7 350 21:20 29.04.2020
4070 Clear 21 1016 43 10000 6.7 350 20:58 29.04.2020
4071 Clear 21 1015 40 10000 6.7 350 20:39 29.04.2020
4072 Clear 22 1015 40 10000 6.7 350 20:19 29.04.2020
4073 Clear 22 1015 40 10000 6.7 350 20:19 29.04.2020
4074 Clear 23 1014 31 10000 5.1 310 19:43 29.04.2020
4075 Clear 24 1014 31 10000 5.1 310 19:22 29.04.2020
4076 Clear 24 1014 31 10000 5.1 310 18:58 29.04.2020
4077 Clear 24 1014 29 10000 5.1 310 18:40 29.04.2020
4078 Clear 25 1014 29 10000 5.1 310 18:19 29.04.2020
4079 Clear 26 1013 27 10000 4.1 300 17:44 29.04.2020
4080 Clear 26 1013 27 10000 4.1 300 17:22 29.04.2020
4081 Clear 26 1013 27 10000 3.6 310 16:59 29.04.2020
4082 Clear 26 1013 29 10000 5.1 330 16:37 29.04.2020
4083 Clear 26 1013 29 10000 5.1 330 16:18 29.04.2020
4084 Clear 25 1014 29 10000 3.1 300 15:55 29.04.2020
4085 Clear 25 1014 29 10000 3.1 300 15:37 29.04.2020
4086 Clear 25 1014 29 10000 3.1 300 15:37 29.04.2020
4087 Clear 25 1014 29 10000 3.1 300 15:19 29.04.2020
4088 Clear 24 1014 31 10000 3.6 350 14:44 29.04.2020
4089 Clear 24 1014 31 10000 3.6 350 14:26 29.04.2020
4090 Clear 23 1015 35 10000 4.1 350 13:58 29.04.2020
4091 Clear 23 1015 35 10000 4.1 350 13:38 29.04.2020
4092 Clear 23 1015 35 10000 4.1 350 13:19 29.04.2020
4093 Clear 23 1015 35 10000 3.6 320 12:55 29.04.2020
4094 Clear 23 1015 35 10000 3.6 320 12:37 29.04.2020
4095 Clear 23 1015 35 10000 3.6 320 12:18 29.04.2020
4096 Clear 21 1016 46 10000 3.1 340 11:39 29.04.2020
4097 Clear 21 1016 46 10000 3.1 340 11:20 29.04.2020
4098 Clear 21 1016 46 10000 3.1 340 11:20 29.04.2020
4099 Clouds 20 1015 49 10000 3.6 10 10:55 29.04.2020
4100 Clouds 20 1015 49 10000 3.6 10 10:37 29.04.2020
4101 Clouds 20 1015 49 10000 3.6 10 10:18 29.04.2020
4102 Clouds 18 1016 55 10000 3.6 360 09:41 29.04.2020
4103 Clouds 18 1016 55 10000 3.6 360 09:41 29.04.2020
4104 Clouds 18 1016 55 10000 3.6 360 09:21 29.04.2020
4105 Clouds 18 1016 55 10000 3.6 360 09:21 29.04.2020
4106 Clouds 17 1016 59 10000 3.6 340 08:44 29.04.2020
4107 Clouds 17 1016 59 10000 3.6 340 08:26 29.04.2020
4108 Clouds 17 1016 59 10000 4.1 360 07:56 29.04.2020
4109 Clouds 17 1015 59 10000 4.1 360 07:37 29.04.2020
4110 Clouds 17 1015 59 10000 4.1 360 07:18 29.04.2020
4111 Clouds 17 1015 59 10000 4.1 10 06:45 29.04.2020
4112 Clouds 16 1015 63 10000 3.1 350 06:26 29.04.2020
4113 Clouds 16 1014 63 10000 4.6 350 05:20 29.04.2020
4114 Clouds 16 1014 63 10000 4.6 350 04:20 29.04.2020
4115 Clouds 16 1014 63 10000 5.1 350 03:54 29.04.2020
4116 Clouds 17 1014 67 10000 5.1 360 02:30 29.04.2020
4117 Clouds 17 1014 67 10000 4.6 350 01:37 29.04.2020
4118 Clouds 17 1014 67 10000 4.6 350 01:19 29.04.2020
4119 Clouds 17 1015 67 10000 5.7 360 00:38 29.04.2020
4120 Clouds 17 1015 67 10000 5.7 360 00:18 29.04.2020
4121 Clear 18 1015 63 10000 5.7 350 23:45 28.04.2020
4122 Clear 18 1015 63 10000 5.1 350 23:22 28.04.2020
4123 Clear 19 1014 59 10000 5.7 360 22:40 28.04.2020
4124 Clear 19 1014 59 10000 5.7 360 22:22 28.04.2020
4125 Clear 19 1014 59 10000 5.7 360 22:22 28.04.2020
4126 Clear 19 1014 59 10000 6.7 360 21:59 28.04.2020
4127 Clear 19 1014 59 10000 6.7 360 21:59 28.04.2020
4128 Clear 19 1014 56 10000 6.7 350 21:41 28.04.2020
4129 Clear 19 1014 56 10000 6.7 350 21:41 28.04.2020
4130 Clear 20 1014 56 10000 6.7 350 21:23 28.04.2020
4131 Clear 21 1014 52 10000 6.7 360 20:59 28.04.2020
4132 Clear 21 1014 52 10000 6.7 360 20:59 28.04.2020
4133 Clear 22 1013 49 10000 7.2 360 20:40 28.04.2020
4134 Clear 22 1013 49 10000 7.2 360 20:21 28.04.2020
4135 Clear 22 1013 49 10000 7.2 360 19:58 28.04.2020
4136 Clear 24 1012 44 10000 8.2 350 19:39 28.04.2020
4137 Clear 24 1012 44 10000 8.2 350 19:20 28.04.2020
4138 Clear 24 1011 44 10000 8.7 10 18:57 28.04.2020
4139 Clear 26 1011 39 10000 7.2 340 18:38 28.04.2020
4140 Clear 26 1011 39 10000 7.2 340 18:18 28.04.2020
4141 Clear 28 1010 32 10000 6.2 330 17:38 28.04.2020
4142 Clear 28 1010 32 10000 6.2 330 17:20 28.04.2020
4143 Clear 28 1010 30 10000 5.7 330 16:58 28.04.2020
4144 Clear 28 1010 28 10000 5.7 340 16:40 28.04.2020
4145 Clear 28 1010 28 10000 5.7 340 16:40 28.04.2020
4146 Clear 28 1010 28 10000 5.7 340 16:22 28.04.2020
4147 Clear 28 1010 28 10000 5.1 330 15:56 28.04.2020
4148 Clear 28 1010 30 10000 5.1 330 15:38 28.04.2020
4149 Clear 28 1010 30 10000 5.1 330 15:20 28.04.2020
4150 Clear 28 1010 30 10000 5.1 330 14:56 28.04.2020
4151 Clear 28 1010 30 10000 5.1 330 14:56 28.04.2020
4152 Clear 28 1010 30 10000 4.6 330 14:38 28.04.2020
4153 Clear 29 1010 30 10000 4.6 330 14:19 28.04.2020
4154 Clear 28 1010 30 10000 5.7 340 13:56 28.04.2020
4155 Clear 28 1011 30 10000 4.6 320 13:37 28.04.2020
4156 Clear 28 1011 30 10000 4.6 320 13:19 28.04.2020
4157 Clear 27 1011 30 10000 4.1 350 12:43 28.04.2020
4158 Clear 27 1011 30 10000 4.1 350 12:23 28.04.2020
4159 Clear 27 1011 32 10000 4.1 330 11:43 28.04.2020
4160 Clear 26 1011 36 10000 4.1 20 11:24 28.04.2020
4161 Clear 25 1011 38 10000 4.6 340 10:58 28.04.2020
4162 Clear 25 1011 38 10000 4.1 10 10:38 28.04.2020
4163 Clear 25 1011 38 10000 4.1 10 10:19 28.04.2020
4164 Clear 24 1011 41 10000 4.6 30 09:55 28.04.2020
4165 Clear 24 1011 41 10000 4.6 30 09:37 28.04.2020
4166 Clear 24 1011 41 10000 4.6 30 09:19 28.04.2020
4167 Clear 22 1011 49 10000 4.1 40 08:45 28.04.2020
4168 Clear 22 1011 49 10000 4.1 40 08:26 28.04.2020
4169 Clear 20 1011 52 10000 4.1 40 07:44 28.04.2020
4170 Clear 20 1011 52 10000 4.1 40 07:19 28.04.2020
4171 Clear 19 1010 55 10000 4.1 40 06:48 28.04.2020
4172 Clear 18 1010 59 10000 4.1 40 06:20 28.04.2020
4173 Clear 18 1010 52 10000 4.1 40 05:40 28.04.2020
4174 Clear 19 1009 52 10000 4.1 70 04:39 28.04.2020
4175 Clear 20 1010 52 10000 6.2 40 02:59 28.04.2020
4176 Clear 20 1010 52 10000 6.2 40 02:28 28.04.2020
4177 Clear 20 1010 52 10000 6.7 30 01:23 28.04.2020
4178 Clear 20 1011 60 10000 6.7 30 00:51 28.04.2020
4179 Clear 20 1011 60 10000 6.7 30 00:20 28.04.2020
4180 Clear 21 1011 53 10000 6.7 30 23:45 27.04.2020
4181 Clear 22 1011 53 10000 6.7 30 23:23 27.04.2020
4182 Clear 22 1011 53 10000 6.7 30 23:23 27.04.2020
4183 Clear 22 1011 53 10000 6.7 30 22:55 27.04.2020
4184 Clear 22 1011 46 10000 6.7 30 22:37 27.04.2020
4185 Clear 23 1011 46 10000 6.7 30 22:18 27.04.2020
4186 Clear 23 1011 43 10000 5.1 60 21:55 27.04.2020
4187 Clear 23 1010 41 10000 5.1 60 21:37 27.04.2020
4188 Clear 24 1010 41 10000 5.1 60 21:18 27.04.2020
4189 Clear 26 1010 28 10000 2.6 10 20:43 27.04.2020
4190 Clear 26 1010 28 10000 2.6 10 20:22 27.04.2020
4191 Clear 26 1009 26 10000 2.6 70 19:58 27.04.2020
4192 Clear 27 1009 26 10000 2.6 70 19:39 27.04.2020
4193 Clear 27 1009 26 10000 2.6 70 19:20 27.04.2020
4194 Clear 28 1009 24 10000 3.1 70 18:57 27.04.2020
4195 Clear 28 1009 24 10000 2.6 80 18:39 27.04.2020
4196 Clear 28 1009 24 10000 2.6 80 18:19 27.04.2020
4197 Clear 28 1010 25 10000 3.1 40 17:43 27.04.2020
4198 Clear 29 1010 25 10000 3.1 40 17:21 27.04.2020
4199 Clouds 29 1010 25 10000 3.6 50 16:58 27.04.2020
4200 Clouds 29 1010 23 10000 3.6 20 16:39 27.04.2020
4201 Clouds 29 1010 23 10000 3.6 20 16:39 27.04.2020
4202 Clouds 29 1010 23 10000 3.6 20 16:20 27.04.2020
4203 Clouds 29 1010 23 10000 2.1 30 15:56 27.04.2020
4204 Clouds 28 1011 24 10000 2.1 320 15:38 27.04.2020
4205 Clouds 28 1011 24 10000 2.1 320 15:38 27.04.2020
4206 Clouds 28 1011 24 10000 2.1 320 15:18 27.04.2020
4207 Clouds 28 1011 24 10000 2.6 200 14:42 27.04.2020
4208 Clouds 28 1011 24 10000 2.6 200 14:42 27.04.2020
4209 Clouds 28 1011 24 10000 2.6 200 14:23 27.04.2020
4210 -273 0 0 0 0 0 13:59 27.04.2020
4211 Clouds 28 1013 24 10000 2.1 300 13:41 27.04.2020
4212 Clouds 28 1013 24 10000 2.1 300 13:20 27.04.2020
4213 Clouds 28 1013 24 10000 2.1 300 12:56 27.04.2020
4214 Clouds 26 1013 27 10000 2.6 220 12:38 27.04.2020
4215 Clouds 26 1013 27 10000 2.6 220 12:19 27.04.2020
4216 Clouds 26 1014 29 10000 3.1 230 11:41 27.04.2020
4217 Clouds 26 1014 29 10000 3.1 230 11:19 27.04.2020
4218 Clouds 26 1013 27 10000 3.1 220 10:57 27.04.2020
4219 Clouds 25 1013 29 10000 4.1 190 10:38 27.04.2020
4220 Clouds 25 1013 29 10000 4.1 190 10:20 27.04.2020
4221 Clouds 25 1014 31 10000 2.6 190 09:44 27.04.2020
4222 Clouds 25 1014 31 10000 2.6 190 09:19 27.04.2020
4223 Clouds 23 1014 38 10000 0.5 180 08:58 27.04.2020
4224 Clouds 22 1014 40 10000 2.31 174 08:38 27.04.2020
4225 Clouds 22 1014 40 10000 2.31 174 08:19 27.04.2020
4226 Clouds 21 1014 43 10000 1 290 07:44 27.04.2020
4227 Clouds 20 1013 49 10000 2.31 174 07:20 27.04.2020
4228 Clouds 20 1013 49 10000 2.31 174 06:47 27.04.2020
4229 Clear 19 1013 52 10000 2.81 144 06:25 27.04.2020
4230 Clear 18 1012 55 10000 1 120 05:50 27.04.2020
4231 Clear 19 1014 48 10000 2.1 290 04:49 27.04.2020
4232 Clear 19 1012 48 10000 1.5 120 03:49 27.04.2020
4233 Clear 19 1013 55 10000 4.1 130 02:58 27.04.2020
4234 Clear 18 1014 59 10000 3.1 100 01:35 27.04.2020
4235 Clear 18 1014 63 10000 5.1 90 00:57 27.04.2020
4236 Clear 18 1014 63 10000 6.2 80 00:20 27.04.2020
4237 Clear 19 1015 59 10000 5.7 70 23:56 26.04.2020
4238 Clear 19 1015 59 10000 4.6 60 23:38 26.04.2020
4239 Clear 19 1015 59 10000 4.6 60 23:19 26.04.2020
4240 Clear 19 1015 59 10000 5.1 60 22:58 26.04.2020
4241 Clear 19 1015 59 10000 6.2 50 22:39 26.04.2020
4242 Clear 19 1015 59 10000 6.2 50 22:39 26.04.2020
4243 Clear 19 1015 56 10000 6.2 60 22:20 26.04.2020
4244 Clear 20 1015 56 10000 6.2 60 21:57 26.04.2020
4245 Clear 20 1015 52 10000 6.2 40 21:38 26.04.2020
4246 Clouds 21 1015 52 10000 6.2 40 21:18 26.04.2020
4247 Clouds 21 1015 52 10000 6.2 40 21:18 26.04.2020
4248 Clouds 21 1015 30 10000 5.7 10 20:54 26.04.2020
4249 Clouds 23 1014 31 10000 7.7 320 20:36 26.04.2020
4250 Clouds 23 1014 31 10000 7.7 320 20:18 26.04.2020
4251 Clouds 23 1014 31 10000 3.1 320 19:56 26.04.2020
4252 Clouds 24 1014 29 10000 4.1 310 19:36 26.04.2020
4253 Clouds 24 1014 29 10000 4.1 310 19:18 26.04.2020
4254 Clouds 24 1013 27 10000 4.6 300 18:40 26.04.2020
4255 Clear 25 1013 27 10000 4.6 300 18:21 26.04.2020
4256 Clear 25 1013 29 10000 5.1 310 17:42 26.04.2020
4257 Clear 25 1013 29 10000 5.1 310 17:22 26.04.2020
4258 Clouds 25 1013 29 10000 4.6 290 16:55 26.04.2020
4259 Clouds 25 1013 29 10000 3.6 260 16:37 26.04.2020
4260 Clouds 25 1013 29 10000 3.6 260 16:19 26.04.2020
4261 Clouds 25 1013 31 10000 4.1 290 15:56 26.04.2020
4262 Clouds 25 1013 29 10000 4.6 250 15:37 26.04.2020
4263 Clouds 25 1013 29 10000 4.6 250 15:18 26.04.2020
4264 Clouds 25 1014 36 10000 3.6 280 14:40 26.04.2020
4265 Clouds 24 1014 36 10000 3.6 280 14:19 26.04.2020
4266 Clouds 24 1014 36 10000 4.1 250 13:58 26.04.2020
4267 Clouds 23 1014 38 10000 2.6 320 13:39 26.04.2020
4268 Clouds 23 1014 38 10000 2.6 320 13:21 26.04.2020
4269 Clouds 23 1014 35 10000 4.6 270 12:55 26.04.2020
4270 Clouds 23 1014 38 10000 3.6 240 12:37 26.04.2020
4271 Clouds 23 1014 38 10000 3.6 240 12:18 26.04.2020
4272 Clouds 23 1014 38 10000 3.1 310 11:54 26.04.2020
4273 Clouds 22 1015 40 10000 5.7 310 11:36 26.04.2020
4274 Clouds 22 1015 40 10000 5.7 310 11:18 26.04.2020
4275 Clouds 21 1015 52 10000 3.6 320 10:41 26.04.2020
4276 Clouds 21 1015 52 10000 3.6 320 10:23 26.04.2020
4277 Clouds 21 1015 52 10000 0.5 310 09:58 26.04.2020
4278 Clouds 20 1014 56 10000 1 20 09:38 26.04.2020
4279 Clouds 20 1014 56 10000 1 20 09:19 26.04.2020
4280 Clouds 18 1014 63 10000 2.1 320 08:41 26.04.2020
4281 Clouds 18 1014 63 10000 1.5 320 08:22 26.04.2020
4282 Clouds 18 1014 63 10000 1.5 320 07:49 26.04.2020
4283 Clouds 18 1014 68 10000 1.5 290 07:24 26.04.2020
4284 Clouds 17 1014 72 10000 2.1 310 06:50 26.04.2020
4285 Clouds 16 1014 77 10000 2.6 290 06:25 26.04.2020
4286 Clouds 16 1013 72 10000 2.1 280 05:51 26.04.2020
4287 Clouds 16 1013 72 10000 2.1 300 05:32 26.04.2020
4288 Clouds 16 1013 77 10000 3.1 290 04:41 26.04.2020
4289 Clouds 16 1013 77 10000 3.6 280 03:43 26.04.2020
4290 Clouds 17 1013 72 10000 2.6 290 02:38 26.04.2020
4291 Clouds 17 1013 72 10000 2.6 290 02:19 26.04.2020
4292 Clouds 17 1013 72 10000 4.1 290 01:37 26.04.2020
4293 Clouds 18 1013 63 10000 3.6 290 00:41 26.04.2020
4294 Clouds 18 1013 63 10000 3.6 290 00:21 26.04.2020
4295 Clouds 18 1013 63 10000 3.6 290 23:57 25.04.2020
4296 Clouds 18 1013 63 10000 2.6 300 23:37 25.04.2020
4297 Clouds 18 1013 63 10000 2.6 300 23:18 25.04.2020
4298 Clouds 18 1013 63 10000 3.1 320 22:42 25.04.2020
4299 Clouds 19 1013 59 10000 4.1 320 22:21 25.04.2020
4300 Clouds 19 1013 55 10000 5.7 310 21:59 25.04.2020
4301 Clouds 19 1012 52 10000 4.6 320 21:39 25.04.2020
4302 Clouds 20 1012 52 10000 4.6 320 21:19 25.04.2020
4303 Clouds 20 1012 49 10000 5.1 310 20:55 25.04.2020
4304 Clouds 20 1012 49 10000 5.1 320 20:37 25.04.2020
4305 Clouds 20 1012 49 10000 5.1 320 20:18 25.04.2020
4306 Clouds 21 1011 46 10000 6.2 320 19:41 25.04.2020
4307 Clouds 21 1011 46 10000 6.2 320 19:22 25.04.2020
4308 Clouds 21 1011 46 10000 4.6 320 18:57 25.04.2020
4309 Clouds 22 1011 43 10000 5.7 300 18:39 25.04.2020
4310 Clouds 22 1011 43 10000 5.7 300 18:20 25.04.2020
4311 Clouds 22 1011 40 10000 7.2 310 17:56 25.04.2020
4312 Clouds 22 1011 38 10000 6.2 300 17:37 25.04.2020
4313 Clouds 23 1011 38 10000 6.2 300 17:19 25.04.2020
4314 Clouds 23 1010 38 10000 5.7 310 16:48 25.04.2020
4315 Clouds 23 1010 38 10000 6.7 290 16:29 25.04.2020
4316 Clouds 23 1010 38 10000 6.7 300 15:59 25.04.2020
4317 Clouds 23 1010 35 10000 7.2 260 15:39 25.04.2020
4318 Clouds 23 1010 35 10000 7.2 260 15:19 25.04.2020
4319 Clouds 23 1010 35 10000 6.7 290 14:58 25.04.2020
4320 Clouds 24 1010 36 10000 7.7 250 14:38 25.04.2020
4321 Clouds 24 1010 36 10000 7.7 250 14:20 25.04.2020
4322 Clouds 22 1011 43 10000 6.2 260 13:43 25.04.2020
4323 Clouds 22 1011 43 10000 6.2 260 13:19 25.04.2020
4324 Clouds 22 1011 43 10000 6.7 260 12:58 25.04.2020
4325 Clouds 22 1012 43 10000 7.2 250 12:40 25.04.2020
4326 Clouds 22 1012 43 10000 7.2 250 12:20 25.04.2020
4327 Clouds 21 1012 49 10000 6.2 270 11:57 25.04.2020
4328 Clouds 20 1012 52 10000 6.2 270 11:39 25.04.2020
4329 Clouds 20 1012 52 10000 6.2 270 11:20 25.04.2020
4330 Clouds 20 1012 52 10000 5.1 250 10:43 25.04.2020
4331 Clouds 19 1012 52 10000 5.1 250 10:23 25.04.2020
4332 Clouds 19 1012 52 10000 4.6 270 09:48 25.04.2020
4333 -273 0 0 0 0 0 09:29 25.04.2020
4334 Clouds 18 1012 55 10000 4.6 280 08:58 25.04.2020
4335 Clouds 18 1012 55 10000 4.6 280 08:58 25.04.2020
4336 Clouds 17 1012 59 10000 6.2 270 08:40 25.04.2020
4337 Clouds 17 1012 59 10000 6.2 270 08:21 25.04.2020
4338 Clouds 17 1012 63 10000 5.1 280 07:58 25.04.2020
4339 Clouds 17 1012 63 10000 5.1 280 07:39 25.04.2020
4340 Clouds 16 1012 72 10000 4.6 290 06:48 25.04.2020
4341 Clouds 16 1011 72 10000 4.6 290 06:30 25.04.2020
4342 Clouds 16 1011 72 10000 3.6 300 05:40 25.04.2020
4343 Clouds 16 1011 72 10000 3.6 300 05:19 25.04.2020
4344 Clouds 17 1011 72 10000 4.6 290 02:59 25.04.2020
4345 Clouds 17 1011 72 10000 4.6 290 02:25 25.04.2020
4346 Clouds 17 1011 77 10000 5.1 300 01:54 25.04.2020
4347 Clouds 17 1011 77 10000 5.1 300 01:34 25.04.2020
4348 Clouds 18 1011 72 10000 5.1 300 00:58 25.04.2020
4349 Clouds 18 1011 72 10000 5.1 300 00:34 25.04.2020
4350 Clouds 18 1011 72 10000 7.7 320 23:55 24.04.2020
4351 Clouds 18 1011 72 10000 7.7 320 23:37 24.04.2020
4352 Clouds 18 1011 72 10000 7.7 320 23:19 24.04.2020
4353 Clouds 19 1011 63 10000 6.2 310 22:40 24.04.2020
4354 Clouds 19 1011 63 10000 6.2 310 22:20 24.04.2020
4355 Clouds 19 1010 63 10000 7.7 320 21:57 24.04.2020
4356 Clouds 19 1010 63 10000 7.7 320 21:39 24.04.2020
4357 Clouds 19 1010 63 10000 7.7 320 21:20 24.04.2020
4358 Clouds 20 1010 56 10000 6.7 320 20:56 24.04.2020
4359 Clouds 20 1009 60 10000 7.2 330 20:38 24.04.2020
4360 Clouds 20 1009 60 10000 7.2 330 20:18 24.04.2020
4361 Clouds 20 1008 60 6000 7.2 310 19:43 24.04.2020
4362 Clouds 21 1008 60 6000 7.2 310 19:25 24.04.2020
4363 Clouds 21 1007 60 6000 7.2 310 18:46 24.04.2020
4364 Clouds 22 1007 56 6000 9.8 290 18:28 24.04.2020
4365 Clouds 22 1006 56 6000 8.7 310 17:59 24.04.2020
4366 Clouds 24 1005 57 6000 8.7 310 17:41 24.04.2020
4367 Clouds 24 1005 57 6000 8.7 310 17:22 24.04.2020
4368 Sand 24 1004 57 4000 9.8 290 16:58 24.04.2020
4369 Sand 25 1003 54 4000 12.3 290 16:40 24.04.2020
4370 Sand 26 1003 54 4000 12.3 290 16:21 24.04.2020
4371 Sand 29 1002 32 4000 12.9 250 15:55 24.04.2020
4372 Sand 31 1001 20 4000 12.9 250 15:37 24.04.2020
4373 Sand 31 1001 20 4000 12.9 250 15:18 24.04.2020
4374 Sand 34 1000 11 2000 12.3 240 14:40 24.04.2020
4375 Sand 34 1000 10 2000 12.3 240 14:20 24.04.2020
4376 Sand 34 1000 8 1000 12.3 240 13:55 24.04.2020
4377 Sand 34 1000 8 1000 12.3 240 13:36 24.04.2020
4378 Sand 34 1000 8 1000 12.3 240 13:18 24.04.2020
4379 Sand 33 1000 13 1000 11.8 210 12:41 24.04.2020
4380 Sand 32 1000 13 1000 11.8 210 12:21 24.04.2020
4381 Sand 32 1001 13 1000 15.4 220 11:57 24.04.2020
4382 Sand 32 1001 13 1000 15.4 220 11:37 24.04.2020
4383 Sand 32 1001 13 1000 15.4 220 11:19 24.04.2020
4384 Sand 32 1002 14 1000 15.4 210 10:54 24.04.2020
4385 Clouds 30 1002 30 10000 3.1 280 10:36 24.04.2020
4386 Clouds 28 1002 30 10000 3.1 280 10:18 24.04.2020
4387 Clouds 29 1002 28 10000 2.1 300 09:44 24.04.2020
4388 Clouds 29 1002 28 10000 2.1 300 09:24 24.04.2020
4389 Clouds 28 1002 18 10000 5.1 180 08:55 24.04.2020
4390 Clouds 28 1002 18 10000 5.1 180 08:37 24.04.2020
4391 Clouds 28 1002 18 10000 5.1 180 08:18 24.04.2020
4392 Clouds 26 1002 27 10000 5.7 160 07:44 24.04.2020
4393 Clouds 25 1002 27 10000 5.7 160 07:26 24.04.2020
4394 Clouds 23 1003 38 10000 4.6 120 06:50 24.04.2020
4395 Clouds 20 1003 60 10000 5.1 100 06:31 24.04.2020
4396 Clouds 19 1004 68 10000 7.2 70 05:42 24.04.2020
4397 Clouds 19 1004 68 10000 7.2 70 05:42 24.04.2020
4398 Clouds 20 1005 68 10000 6.7 80 04:26 24.04.2020
4399 Clouds 18 1007 72 10000 7.7 70 02:58 24.04.2020
4400 Clouds 18 1008 72 10000 6.2 70 02:38 24.04.2020
4401 Clouds 19 1009 72 10000 6.2 50 01:58 24.04.2020
4402 Clouds 19 1010 72 10000 6.2 50 01:18 24.04.2020
4403 Clouds 19 1011 68 10000 6.2 40 00:36 24.04.2020
4404 Clear 20 1011 68 10000 6.2 40 00:18 24.04.2020
4405 Clear 20 1011 68 10000 6.7 30 23:42 23.04.2020
4406 Clear 20 1011 68 10000 6.7 30 23:23 23.04.2020
4407 Clear 21 1011 64 10000 5.1 40 22:55 23.04.2020
4408 Clear 21 1011 64 10000 8.2 70 22:36 23.04.2020
4409 Clear 21 1011 64 10000 8.2 70 22:18 23.04.2020
4410 Clear 21 1010 60 10000 9.3 70 21:56 23.04.2020
4411 Clear 22 1011 60 10000 8.2 50 21:37 23.04.2020
4412 Clear 22 1011 60 10000 8.2 50 21:19 23.04.2020
4413 Clear 26 1011 36 10000 3.6 10 20:42 23.04.2020
4414 Clear 26 1011 36 10000 3.6 10 20:22 23.04.2020
4415 Clear 26 1011 36 10000 4.6 10 19:59 23.04.2020
4416 Clear 26 1010 34 10000 4.1 350 19:40 23.04.2020
4417 Clear 27 1010 34 10000 4.1 350 19:22 23.04.2020
4418 Clear 27 1010 34 10000 4.1 330 18:57 23.04.2020
4419 Clear 27 1010 34 10000 3.6 320 18:38 23.04.2020
4420 Clear 27 1010 34 10000 3.6 320 18:20 23.04.2020
4421 Clear 28 1010 32 10000 4.1 330 17:55 23.04.2020
4422 Clear 28 1010 32 10000 2.6 330 17:37 23.04.2020
4423 Clear 28 1010 32 10000 2.6 330 17:19 23.04.2020
4424 Clear 28 1010 32 10000 4.1 320 16:43 23.04.2020
4425 Clear 28 1010 32 10000 4.1 320 16:20 23.04.2020
4426 Clear 29 1010 28 10000 3.1 260 15:43 23.04.2020
4427 Clear 29 1010 28 10000 3.1 260 15:24 23.04.2020
4428 Clear 28 1011 30 10000 4.1 290 14:59 23.04.2020
4429 Clear 28 1011 30 10000 2.6 280 14:39 23.04.2020
4430 Clear 28 1011 30 10000 2.6 280 14:21 23.04.2020
4431 Clear 28 1011 30 10000 2.6 280 14:21 23.04.2020
4432 Clear 27 1011 30 10000 3.1 250 13:57 23.04.2020
4433 Clear 27 1012 28 10000 3.6 290 13:38 23.04.2020
4434 Clear 27 1012 28 10000 3.6 290 13:19 23.04.2020
4435 Clear 27 1012 30 10000 2.1 270 12:55 23.04.2020
4436 Clear 26 1012 29 10000 2.1 250 12:37 23.04.2020
4437 Clear 26 1012 29 10000 2.1 250 12:19 23.04.2020
4438 Clear 26 1013 34 10000 1 240 11:44 23.04.2020
4439 Clear 25 1013 41 10000 1 280 11:26 23.04.2020
4440 Clear 24 1013 44 6000 2.61 290 10:56 23.04.2020
4441 Haze 23 1014 49 4000 2.1 310 10:38 23.04.2020
4442 Haze 23 1014 49 4000 2.1 310 10:19 23.04.2020
4443 Mist 20 1014 64 4000 2.1 10 09:38 23.04.2020
4444 Mist 20 1014 64 4000 2.1 10 09:18 23.04.2020
4445 Mist 19 1014 82 4000 2.1 360 08:47 23.04.2020
4446 Mist 18 1014 82 4000 2.1 360 08:29 23.04.2020
4447 Mist 17 1013 88 4000 1.5 300 07:45 23.04.2020
4448 Mist 17 1013 88 4000 1.5 300 07:24 23.04.2020
4449 Mist 17 1013 88 4000 1.5 300 06:57 23.04.2020
4450 Clouds 17 1013 88 6000 1.5 300 06:39 23.04.2020
4451 Clouds 17 1013 88 10000 3.1 260 05:33 23.04.2020
4452 Clouds 17 1013 88 10000 4.6 260 04:54 23.04.2020
4453 Clouds 18 1013 82 10000 4.6 260 02:41 23.04.2020
4454 Clouds 18 1013 82 10000 4.6 260 02:22 23.04.2020
4455 Clouds 19 1012 72 10000 3.6 280 01:38 23.04.2020
4456 Clouds 20 1012 68 10000 3.6 280 00:50 23.04.2020
4457 Clouds 20 1012 68 10000 3.6 280 00:26 23.04.2020
4458 Clouds 20 1012 68 10000 6.2 270 23:53 22.04.2020
4459 Clouds 20 1012 68 10000 6.2 270 23:26 22.04.2020
4460 Clouds 20 1011 68 10000 8.2 280 22:59 22.04.2020
4461 Clouds 20 1011 68 10000 8.2 280 22:39 22.04.2020
4462 Clouds 20 1011 68 10000 8.2 280 22:20 22.04.2020
4463 Clear 20 1011 68 6000 7.2 270 21:58 22.04.2020
4464 Clear 20 1011 64 6000 7.2 270 21:40 22.04.2020
4465 Clear 21 1011 64 6000 7.2 270 21:21 22.04.2020
4466 Clear 22 1010 56 6000 7.2 270 20:55 22.04.2020
4467 Clear 22 1009 53 6000 10.8 250 20:37 22.04.2020
4468 Clear 22 1009 53 6000 10.8 250 20:18 22.04.2020
4469 Clear 24 1009 47 6000 9.8 260 19:56 22.04.2020
4470 Clear 26 1008 39 6000 8.7 280 19:37 22.04.2020
4471 Clear 26 1008 39 6000 8.7 280 19:18 22.04.2020
4472 Sand 28 1007 37 4000 9.8 270 18:55 22.04.2020
4473 Sand 29 1007 35 3000 10.8 270 18:37 22.04.2020
4474 Sand 29 1007 35 3000 10.8 270 18:19 22.04.2020
4475 Sand 31 1006 22 3000 9.3 270 17:42 22.04.2020
4476 Sand 31 1006 22 3000 9.3 270 17:24 22.04.2020
4477 Sand 32 1005 19 3000 8.7 260 16:56 22.04.2020
4478 Sand 33 1005 17 3000 10.8 260 16:36 22.04.2020
4479 Sand 33 1005 17 3000 10.8 260 16:18 22.04.2020
4480 Sand 33 1005 17 3000 10.8 260 16:18 22.04.2020
4481 Sand 33 1005 16 3000 8.2 260 15:40 22.04.2020
4482 Sand 33 1005 16 3000 8.2 260 15:21 22.04.2020
4483 Sand 34 1006 16 3000 7.2 240 14:57 22.04.2020
4484 Sand 33 1006 16 3000 7.7 260 14:37 22.04.2020
4485 Sand 33 1006 16 3000 7.7 260 14:19 22.04.2020
4486 Sand 33 1006 16 3000 7.7 260 13:44 22.04.2020
4487 Sand 33 1006 11 3000 10.3 250 13:20 22.04.2020
4488 Sand 33 1006 11 2000 8.7 250 12:54 22.04.2020
4489 Sand 33 1006 11 2000 8.7 250 12:54 22.04.2020
4490 Sand 33 1006 10 2000 7.7 230 12:36 22.04.2020
4491 Sand 33 1006 10 2000 7.7 230 12:18 22.04.2020
4492 Sand 32 1007 13 2000 11.3 260 11:39 22.04.2020
4493 Sand 30 1007 16 3000 11.3 220 11:20 22.04.2020
4494 Sand 30 1007 16 3000 11.3 220 10:57 22.04.2020
4495 Sand 31 1007 13 3000 8.2 200 10:38 22.04.2020
4496 Sand 31 1007 13 3000 8.2 200 10:18 22.04.2020
4497 Sand 29 1007 13 3000 11.3 170 09:39 22.04.2020
4498 Sand 29 1007 13 3000 11.3 170 09:19 22.04.2020
4499 Sand 29 1006 14 3000 12.3 180 08:54 22.04.2020
4500 Sand 28 1006 15 3000 10.8 180 08:36 22.04.2020
4501 Sand 28 1006 15 3000 10.8 180 08:18 22.04.2020
4502 Clear 29 1007 14 6000 6.7 180 07:46 22.04.2020
4503 Clear 27 1006 14 10000 6.7 170 07:22 22.04.2020
4504 Clear 26 1006 14 10000 5.7 160 06:45 22.04.2020
4505 Clear 24 1006 22 10000 4.1 150 05:47 22.04.2020
4506 Clear 23 1006 25 10000 4.1 150 05:27 22.04.2020
4507 Clear 24 1007 23 10000 2.6 170 03:55 22.04.2020
4508 Clear 22 1007 37 10000 1.5 70 02:39 22.04.2020
4509 Clear 23 1008 40 10000 2.24 156 01:43 22.04.2020
4510 Clear 23 1008 40 10000 2.24 156 01:24 22.04.2020
4511 Clear 23 1008 40 10000 2.24 156 00:46 22.04.2020
4512 Clear 23 1009 43 10000 4.1 70 00:22 22.04.2020
4513 Clear 23 1009 43 10000 5.1 80 23:56 21.04.2020
4514 Clear 23 1009 43 10000 5.1 70 23:37 21.04.2020
4515 Clear 23 1009 43 10000 5.1 70 23:18 21.04.2020
4516 Clear 24 1009 41 10000 5.7 60 22:40 21.04.2020
4517 Clear 24 1009 41 10000 5.7 60 22:21 21.04.2020
4518 Clear 25 1009 36 10000 5.7 60 21:58 21.04.2020
4519 Clear 25 1009 36 10000 5.7 60 21:58 21.04.2020
4520 Clear 25 1009 36 10000 5.7 50 21:40 21.04.2020
4521 Clear 25 1009 36 10000 5.7 50 21:22 21.04.2020
4522 Clear 26 1009 14 10000 2.6 170 20:42 21.04.2020
4523 Clear 27 1009 14 10000 2.6 170 20:23 21.04.2020
4524 -273 0 0 0 0 0 19:59 21.04.2020
4525 Clear 29 1009 10 10000 3.1 180 19:40 21.04.2020
4526 Clear 29 1008 9 10000 3.1 180 19:19 21.04.2020
4527 Clear 29 1009 10 10000 3.1 180 19:19 21.04.2020
4528 Clear 30 1008 9 10000 3.1 180 18:56 21.04.2020
4529 Clear 30 1009 10 10000 2.6 210 18:38 21.04.2020
4530 Clear 31 1009 10 10000 2.6 210 18:18 21.04.2020
4531 Clear 32 1008 13 10000 3.6 220 17:41 21.04.2020
4532 Clear 32 1008 13 10000 3.6 220 17:22 21.04.2020
4533 Clear 32 1008 14 10000 3.1 240 16:59 21.04.2020
4534 Clear 32 1008 13 10000 2.6 210 16:38 21.04.2020
4535 Clear 32 1008 13 10000 2.6 210 16:38 21.04.2020
4536 Clear 32 1008 13 10000 2.6 210 16:19 21.04.2020
4537 Clear 32 1008 13 10000 3.6 240 15:56 21.04.2020
4538 Clear 32 1008 11 10000 4.1 210 15:38 21.04.2020
4539 Clear 32 1008 11 10000 4.1 210 15:19 21.04.2020
4540 Clear 32 1009 12 10000 5.1 210 14:45 21.04.2020
4541 Clear 32 1009 14 10000 2.1 180 14:25 21.04.2020
4542 Clear 31 1009 18 10000 2.6 230 13:59 21.04.2020
4543 Clear 31 1010 19 10000 1.5 170 13:40 21.04.2020
4544 Clear 31 1010 19 10000 1.5 170 13:22 21.04.2020
4545 Clear 30 1010 22 10000 1.5 40 12:54 21.04.2020
4546 Clear 30 1010 25 10000 1.5 310 12:36 21.04.2020
4547 Clear 29 1010 25 10000 1.5 310 12:18 21.04.2020
4548 Clear 29 1010 25 10000 1.5 310 12:18 21.04.2020
4549 Clear 29 1011 23 10000 1.5 320 11:54 21.04.2020
4550 Clear 27 1011 26 10000 2.6 360 11:36 21.04.2020
4551 Clear 27 1011 26 10000 2.6 360 11:18 21.04.2020
4552 Clear 27 1011 26 10000 2.6 20 10:55 21.04.2020
4553 Clear 26 1011 29 10000 3.6 40 10:36 21.04.2020
4554 Clear 26 1011 29 10000 3.6 40 10:18 21.04.2020
4555 Clear 24 1011 35 10000 5.1 50 09:37 21.04.2020
4556 Clouds 23 1011 35 10000 5.1 50 09:18 21.04.2020
4557 Clouds 23 1011 73 10000 5.7 50 08:55 21.04.2020
4558 Clouds 20 1011 60 10000 2.1 50 08:37 21.04.2020
4559 Clouds 20 1011 60 10000 2.1 50 08:18 21.04.2020
4560 Clouds 19 1011 68 10000 2.6 50 07:43 21.04.2020
4561 Clouds 18 1011 68 10000 2.6 50 07:20 21.04.2020
4562 Clouds 18 1011 68 10000 2.6 50 06:44 21.04.2020
4563 Clouds 17 1011 72 10000 3.6 40 06:19 21.04.2020
4564 Clouds 17 1011 72 10000 2.6 30 05:45 21.04.2020
4565 Clouds 18 1010 68 10000 5.7 50 03:48 21.04.2020
4566 Clouds 18 1011 68 10000 5.1 30 03:27 21.04.2020
4567 Clouds 19 1012 59 10000 5.1 30 01:40 21.04.2020
4568 Clouds 19 1012 59 10000 6.2 40 00:52 21.04.2020
4569 Clouds 19 1013 55 10000 5.7 30 00:31 21.04.2020
4570 Clouds 20 1013 49 10000 5.1 40 23:44 20.04.2020
4571 Clouds 20 1013 49 10000 5.1 40 23:23 20.04.2020
4572 Clouds 20 1013 49 10000 6.7 40 22:57 20.04.2020
4573 Clouds 20 1013 43 10000 6.2 20 22:38 20.04.2020
4574 Clouds 21 1013 43 10000 6.2 20 22:19 20.04.2020
4575 Clouds 21 1013 43 10000 6.2 20 22:19 20.04.2020
4576 Clouds 21 1013 43 10000 6.2 20 22:19 20.04.2020
4577 Clouds 21 1013 43 10000 6.2 20 22:19 20.04.2020
4578 Clouds 21 1013 46 10000 7.7 30 21:56 20.04.2020
4579 Clouds 22 1013 43 10000 7.2 30 21:38 20.04.2020
4580 Clear 22 1013 43 10000 7.2 30 21:19 20.04.2020
4581 Clear 22 1012 40 10000 6.7 20 20:56 20.04.2020
4582 Clear 23 1011 35 10000 7.2 20 20:37 20.04.2020
4583 Clear 23 1011 35 10000 7.2 20 20:18 20.04.2020
4584 Clear 23 1011 35 10000 7.7 30 19:55 20.04.2020
4585 Clear 23 1011 33 10000 8.7 20 19:37 20.04.2020
4586 Clear 24 1011 33 10000 8.7 20 19:18 20.04.2020
4587 Clear 26 1010 27 10000 7.2 20 18:42 20.04.2020
4588 Clear 26 1010 27 10000 7.2 20 18:22 20.04.2020
4589 Clear 26 1010 27 10000 7.2 20 18:22 20.04.2020
4590 Clear 26 1010 26 10000 8.2 30 17:55 20.04.2020
4591 Clear 27 1010 24 10000 6.2 40 17:37 20.04.2020
4592 Clear 27 1010 24 10000 6.2 40 17:19 20.04.2020
4593 Clear 27 1010 26 10000 7.7 10 16:57 20.04.2020
4594 Clear 28 1010 26 10000 7.7 360 16:38 20.04.2020
4595 Clear 28 1010 26 10000 7.7 360 16:18 20.04.2020
4596 Clear 28 1010 26 10000 5.7 10 15:42 20.04.2020
4597 Clear 28 1010 26 10000 5.7 10 15:23 20.04.2020
4598 Clear 28 1010 28 10000 6.7 10 14:55 20.04.2020
4599 Clear 27 1011 30 10000 5.7 20 14:36 20.04.2020
4600 Clear 27 1011 30 10000 5.7 20 14:18 20.04.2020
4601 Clear 26 1012 31 10000 4.1 340 13:41 20.04.2020
4602 Clear 26 1012 31 10000 4.1 340 13:23 20.04.2020
4603 Clear 26 1012 31 10000 6.2 360 12:58 20.04.2020
4604 Clear 25 1012 31 10000 6.7 30 12:39 20.04.2020
4605 Clear 25 1012 31 10000 6.7 30 12:18 20.04.2020
4606 Clear 24 1013 36 10000 4.6 20 11:41 20.04.2020
4607 Clear 24 1013 36 10000 4.6 20 11:22 20.04.2020
4608 Clear 23 1013 38 6000 6.2 40 10:57 20.04.2020
4609 Clear 22 1013 43 6000 5.7 40 10:39 20.04.2020
4610 Clear 22 1013 43 6000 5.7 40 10:19 20.04.2020
4611 Clear 21 1013 52 6000 4.6 30 09:58 20.04.2020
4612 Clear 19 1013 68 6000 4.1 30 09:39 20.04.2020
4613 Clear 19 1013 68 6000 4.1 30 09:20 20.04.2020
4614 Mist 17 1013 88 3000 4.1 20 08:41 20.04.2020
4615 Mist 17 1013 88 3000 4.1 20 08:23 20.04.2020
4616 Mist 17 1013 88 3000 4.6 40 07:53 20.04.2020
4617 Mist 16 1014 93 3000 3.6 10 07:29 20.04.2020
4618 Mist 16 1014 93 3000 3.6 10 07:29 20.04.2020
4619 Mist 16 1014 87 3000 3.6 360 06:58 20.04.2020
4620 Mist 16 1013 87 3000 4.6 360 06:37 20.04.2020
4621 Clear 15 1013 93 10000 3.1 10 05:44 20.04.2020
4622 Clear 16 1013 87 10000 4.1 350 04:33 20.04.2020
4623 Clear 16 1012 82 10000 4.1 30 02:47 20.04.2020
4624 Clear 16 1012 82 10000 4.1 30 02:19 20.04.2020
4625 Clear 17 1013 72 10000 5.1 40 01:29 20.04.2020
4626 Clear 18 1013 63 10000 5.1 30 00:44 20.04.2020
4627 Clear 18 1013 63 10000 5.1 30 00:20 20.04.2020
4628 Clear 18 1014 55 10000 5.7 20 23:39 19.04.2020
4629 Clear 18 1014 55 10000 5.7 20 23:21 19.04.2020
4630 Clear 19 1014 48 10000 7.7 30 22:55 19.04.2020
4631 Clear 19 1014 48 10000 7.7 30 22:55 19.04.2020
4632 Clear 19 1014 48 10000 7.7 30 22:37 19.04.2020
4633 Clear 19 1014 48 10000 7.7 30 22:19 19.04.2020
4634 Clear 20 1014 40 10000 6.7 10 21:42 19.04.2020
4635 Clear 20 1014 40 10000 6.7 10 21:23 19.04.2020
4636 Clear 21 1014 37 10000 7.7 10 20:58 19.04.2020
4637 Clear 22 1013 37 10000 8.7 360 20:39 19.04.2020
4638 Clear 22 1013 37 10000 8.7 360 20:20 19.04.2020
4639 Clear 22 1013 37 10000 8.7 360 19:56 19.04.2020
4640 Clear 24 1012 33 10000 8.7 360 19:38 19.04.2020
4641 Clear 24 1012 33 10000 8.7 360 19:20 19.04.2020
4642 Clear 24 1012 33 10000 8.2 360 18:56 19.04.2020
4643 Clear 24 1012 29 10000 8.2 360 18:38 19.04.2020
4644 Clear 26 1011 27 10000 7.7 20 18:18 19.04.2020
4645 Clear 26 1011 27 10000 7.7 20 17:56 19.04.2020
4646 Clear 26 1011 29 10000 8.2 360 17:37 19.04.2020
4647 Clear 27 1011 26 10000 7.7 20 17:19 19.04.2020
4648 Clear 27 1011 26 10000 7.7 20 16:40 19.04.2020
4649 Clear 27 1011 26 10000 7.7 20 16:21 19.04.2020
4650 Clear 27 1011 26 10000 8.2 20 15:58 19.04.2020
4651 Clear 27 1011 24 10000 7.2 20 15:40 19.04.2020
4652 Clear 27 1011 24 10000 7.2 20 15:19 19.04.2020
4653 Clear 27 1012 26 10000 7.7 360 14:39 19.04.2020
4654 Clear 27 1012 26 10000 7.7 360 14:21 19.04.2020
4655 Clear 27 1013 28 10000 8.2 10 13:57 19.04.2020
4656 Clear 27 1013 28 10000 8.2 10 13:37 19.04.2020
4657 Clear 27 1013 28 10000 8.2 10 13:18 19.04.2020
4658 Clear 26 1013 31 10000 8.2 20 12:44 19.04.2020
4659 Clear 26 1013 31 10000 8.2 20 12:24 19.04.2020
4660 Clear 24 1015 36 10000 8.7 20 11:55 19.04.2020
4661 Clear 24 1015 36 10000 8.7 20 11:37 19.04.2020
4662 Clear 24 1015 36 10000 8.7 20 11:18 19.04.2020
4663 Clear 22 1015 40 10000 8.2 10 10:41 19.04.2020
4664 Clear 22 1015 40 10000 8.2 10 10:21 19.04.2020
4665 Clear 20 1015 56 10000 7.7 30 09:59 19.04.2020
4666 Clear 20 1015 56 10000 7.7 30 09:59 19.04.2020
4667 Clear 20 1015 56 10000 7.7 30 09:41 19.04.2020
4668 Clear 20 1015 60 10000 6.7 10 09:20 19.04.2020
4669 Clear 18 1015 88 6000 4.6 360 08:40 19.04.2020
4670 Clear 18 1015 88 6000 4.6 360 08:21 19.04.2020
4671 Mist 17 1015 93 3000 4.6 360 07:56 19.04.2020
4672 Mist 16 1015 100 3000 4.6 360 07:38 19.04.2020
4673 Mist 16 1015 100 3000 4.6 360 07:19 19.04.2020
4674 Mist 16 1014 93 3000 4.1 350 06:26 19.04.2020
4675 Mist 16 1014 93 4000 3.6 360 05:35 19.04.2020
4676 Mist 16 1014 93 4000 4.1 350 04:22 19.04.2020
4677 Clouds 17 1014 88 6000 4.1 350 02:52 19.04.2020
4678 Clouds 17 1014 88 6000 4.1 350 02:19 19.04.2020
4679 Clear 18 1014 82 10000 4.6 20 01:31 19.04.2020
4680 Clear 18 1014 72 10000 5.1 20 00:41 19.04.2020
4681 Clear 18 1014 72 10000 5.1 20 00:20 19.04.2020
4682 Clear 18 1015 68 10000 4.1 360 23:44 18.04.2020
4683 Clear 19 1015 59 10000 5.1 360 23:21 18.04.2020
4684 Clear 19 1015 59 10000 5.7 10 22:58 18.04.2020
4685 Clear 19 1015 52 10000 5.7 20 22:38 18.04.2020
4686 Clear 20 1015 52 10000 5.7 20 22:20 18.04.2020
4687 Clear 20 1015 49 10000 6.7 360 21:56 18.04.2020
4688 Clear 20 1015 46 10000 7.2 350 21:37 18.04.2020
4689 Clear 21 1015 46 10000 7.2 350 21:19 18.04.2020
4690 Clear 22 1015 40 10000 7.2 360 20:40 18.04.2020
4691 Clear 22 1015 40 10000 7.2 360 20:22 18.04.2020
4692 Clouds 22 1015 40 10000 7.7 360 19:54 18.04.2020
4693 Clouds 23 1014 38 10000 8.7 360 19:36 18.04.2020
4694 Clouds 23 1014 38 10000 8.7 360 19:18 18.04.2020
4695 Clouds 25 1013 31 10000 8.7 360 18:37 18.04.2020
4696 Clouds 25 1013 31 10000 8.7 360 18:19 18.04.2020
4697 Clouds 26 1013 34 10000 7.7 10 17:43 18.04.2020
4698 Clouds 27 1012 30 10000 6.7 360 17:21 18.04.2020
4699 Clouds 27 1012 30 10000 6.7 360 16:57 18.04.2020
4700 Clouds 27 1012 30 10000 6.7 360 16:38 18.04.2020
4701 Clouds 27 1012 30 10000 6.7 360 16:19 18.04.2020
4702 Clouds 27 1013 32 10000 6.7 10 15:39 18.04.2020
4703 Clouds 27 1013 32 10000 6.7 10 15:21 18.04.2020
4704 Clouds 27 1013 34 10000 6.2 360 14:46 18.04.2020
4705 Clouds 26 1013 39 10000 5.7 10 14:27 18.04.2020
4706 Clouds 25 1014 41 10000 6.2 360 13:58 18.04.2020
4707 Clouds 25 1014 47 10000 6.2 20 13:40 18.04.2020
4708 Clouds 24 1014 47 10000 6.2 20 13:19 18.04.2020
4709 Clouds 24 1015 47 6000 4.1 350 12:42 18.04.2020
4710 Clouds 24 1015 47 6000 4.1 350 12:23 18.04.2020
4711 Clouds 23 1016 49 6000 3.6 350 11:55 18.04.2020
4712 Clouds 22 1016 56 6000 2.6 350 11:36 18.04.2020
4713 Clouds 22 1016 56 6000 2.6 350 11:18 18.04.2020
4714 Clouds 20 1016 68 6000 2.1 10 10:40 18.04.2020
4715 Mist 20 1016 77 4000 1.5 320 10:19 18.04.2020
4716 Mist 20 1016 77 4000 1.5 320 09:58 18.04.2020
4717 Mist 18 1016 82 4000 2.6 350 09:38 18.04.2020
4718 Mist 18 1016 82 4000 2.6 350 09:20 18.04.2020
4719 Mist 18 1016 82 4000 2.6 350 09:20 18.04.2020
4720 Mist 17 1016 93 4000 2.6 40 08:39 18.04.2020
4721 Mist 16 1016 93 4000 2.6 40 08:21 18.04.2020
4722 Mist 16 1015 100 4000 2.6 40 07:41 18.04.2020
4723 Mist 16 1015 100 4000 2.6 40 07:20 18.04.2020
4724 Mist 16 1015 93 2000 1 20 06:38 18.04.2020
4725 Mist 16 1015 93 2000 3.1 20 05:48 18.04.2020
4726 Mist 16 1014 93 2000 3.1 360 04:54 18.04.2020
4727 Mist 16 1014 87 4000 3.1 360 04:29 18.04.2020
4728 Clear 16 1014 87 10000 1.5 30 02:58 18.04.2020
4729 Clear 16 1014 82 10000 3.1 350 02:40 18.04.2020
4730 Clear 17 1014 82 10000 3.1 350 02:19 18.04.2020
4731 Clear 17 1015 82 10000 3.1 350 01:36 18.04.2020
4732 Clear 17 1015 77 10000 4.6 350 00:54 18.04.2020
4733 Clear 17 1015 72 10000 4.6 350 00:24 18.04.2020
4734 Clear 18 1015 72 10000 6.2 360 23:57 17.04.2020
4735 Clear 18 1015 72 10000 6.2 360 23:57 17.04.2020
4736 Clouds 18 1015 72 10000 6.2 360 23:39 17.04.2020
4737 Clouds 18 1015 72 10000 6.2 360 23:19 17.04.2020
4738 Clouds 19 1015 63 10000 6.2 360 22:58 17.04.2020
4739 Clouds 19 1015 63 10000 6.2 360 22:40 17.04.2020
4740 Clouds 19 1015 63 10000 6.2 360 22:19 17.04.2020
4741 Clouds 19 1015 63 10000 6.2 360 21:56 17.04.2020
4742 Clouds 19 1015 56 10000 6.2 360 21:37 17.04.2020
4743 Clouds 20 1015 56 10000 6.2 360 21:18 17.04.2020
4744 Clouds 21 1014 49 10000 6.2 360 20:54 17.04.2020
4745 Clouds 22 1014 46 10000 6.2 350 20:36 17.04.2020
4746 Clouds 22 1014 46 10000 6.2 350 20:18 17.04.2020
4747 Clouds 22 1013 40 10000 6.2 350 19:42 17.04.2020
4748 Clouds 22 1013 40 10000 6.2 350 19:23 17.04.2020
4749 Clouds 23 1013 35 10000 7.2 360 18:45 17.04.2020
4750 Clouds 23 1013 35 10000 7.2 350 18:24 17.04.2020
4751 Clouds 24 1012 33 10000 7.7 350 17:57 17.04.2020
4752 Clouds 24 1012 33 10000 7.2 350 17:37 17.04.2020
4753 Clouds 24 1012 33 10000 7.2 350 17:18 17.04.2020
4754 Clouds 25 1012 31 10000 6.7 340 16:43 17.04.2020
4755 Clouds 25 1012 31 10000 7.2 340 16:23 17.04.2020
4756 Clouds 25 1012 36 10000 7.2 310 15:55 17.04.2020
4757 Clouds 25 1012 36 10000 6.2 330 15:37 17.04.2020
4758 Clouds 25 1012 36 10000 6.2 330 15:18 17.04.2020
4759 Clouds 25 1012 38 10000 6.7 320 14:40 17.04.2020
4760 Clouds 25 1012 38 10000 6.7 320 14:22 17.04.2020
4761 Clouds 24 1012 41 10000 5.7 330 13:56 17.04.2020
4762 Clouds 24 1013 44 10000 5.1 310 13:37 17.04.2020
4763 Clouds 23 1013 49 6000 5.1 320 13:18 17.04.2020
4764 Clouds 24 1013 44 10000 5.1 310 13:18 17.04.2020
4765 Clouds 23 1013 49 6000 5.1 320 12:45 17.04.2020
4766 Clouds 23 1013 49 6000 4.6 330 12:24 17.04.2020
4767 Clouds 21 1014 56 6000 4.6 330 11:42 17.04.2020
4768 Clouds 21 1014 56 6000 4.6 330 11:20 17.04.2020
4769 Clouds 20 1014 56 6000 4.6 320 11:20 17.04.2020
4770 Clouds 20 1014 56 6000 4.6 320 10:57 17.04.2020
4771 Clouds 19 1014 63 6000 3.6 290 10:39 17.04.2020
4772 Clouds 19 1014 63 6000 3.6 290 10:19 17.04.2020
4773 Clouds 17 1014 77 6000 4.1 310 09:41 17.04.2020
4774 Clouds 17 1014 77 6000 4.1 310 09:22 17.04.2020
4775 Clouds 16 1014 82 6000 3.6 310 08:59 17.04.2020
4776 Clouds 16 1014 82 6000 3.6 310 08:40 17.04.2020
4777 Clouds 16 1014 82 6000 5.1 320 08:21 17.04.2020
4778 Clouds 16 1013 82 6000 5.1 320 07:44 17.04.2020
4779 Clouds 16 1013 82 6000 5.7 320 07:24 17.04.2020
4780 Clouds 15 1013 87 6000 4.6 310 06:50 17.04.2020
4781 Clouds 15 1013 87 6000 5.1 320 06:23 17.04.2020
4782 Clouds 15 1013 82 6000 5.7 320 05:38 17.04.2020
4783 Clouds 16 1012 82 10000 5.1 290 03:21 17.04.2020
4784 Clouds 16 1013 77 10000 4.6 280 02:34 17.04.2020
4785 Clouds 16 1013 77 10000 4.6 280 01:30 17.04.2020
4786 Clouds 16 1014 72 10000 6.2 290 00:53 17.04.2020
4787 Clear 16 1014 72 10000 5.1 280 00:19 17.04.2020
4788 Clear 16 1014 67 10000 6.2 280 23:45 16.04.2020
4789 Clear 16 1014 67 10000 6.2 280 23:23 16.04.2020
4790 Clouds 17 1014 63 10000 5.7 280 22:58 16.04.2020
4791 Clouds 17 1014 59 10000 5.1 290 22:38 16.04.2020
4792 Clouds 17 1014 59 10000 5.1 290 22:20 16.04.2020
4793 Clouds 17 1014 59 10000 5.1 290 21:56 16.04.2020
4794 Clouds 17 1014 59 10000 6.2 310 21:37 16.04.2020
4795 Clouds 17 1013 59 10000 7.2 310 21:18 16.04.2020
4796 Clouds 17 1013 59 10000 8.2 310 20:40 16.04.2020
4797 Clouds 18 1013 59 10000 8.2 310 20:22 16.04.2020
4798 Clouds 18 1013 59 10000 8.2 310 19:56 16.04.2020
4799 Clouds 18 1012 55 10000 8.2 310 19:37 16.04.2020
4800 Clouds 19 1012 56 10000 8.7 320 19:19 16.04.2020
4801 Clouds 20 1011 49 10000 8.2 290 18:45 16.04.2020
4802 Clouds 21 1011 43 10000 8.2 310 18:26 16.04.2020
4803 Clouds 22 1011 46 10000 8.2 310 17:58 16.04.2020
4804 Clouds 22 1011 46 10000 8.2 310 17:39 16.04.2020
4805 Clouds 23 1011 46 10000 8.2 300 17:20 16.04.2020
4806 Clouds 23 1010 41 10000 7.7 320 16:44 16.04.2020
4807 Clouds 24 1010 41 10000 7.7 320 16:26 16.04.2020
4808 Clouds 24 1010 44 10000 7.2 290 15:57 16.04.2020
4809 Clouds 26 1010 39 6000 6.2 300 15:39 16.04.2020
4810 Clouds 26 1010 39 6000 6.2 300 15:18 16.04.2020
4811 Clouds 25 1011 44 6000 4.6 280 14:45 16.04.2020
4812 Clouds 25 1011 44 6000 4.6 280 14:45 16.04.2020
4813 Clouds 25 1011 34 6000 8.2 270 14:25 16.04.2020
4814 Clouds 26 1011 34 6000 8.2 270 13:59 16.04.2020
4815 Clouds 26 1011 34 6000 8.2 270 13:59 16.04.2020
4816 Clouds 25 1012 41 6000 6.7 280 13:41 16.04.2020
4817 Clear 25 1012 41 10000 7.7 270 13:23 16.04.2020
4818 Clear 25 1012 41 10000 7.7 270 12:58 16.04.2020
4819 Clear 25 1012 41 10000 7.2 300 12:39 16.04.2020
4820 Clear 25 1012 33 10000 6.2 270 12:20 16.04.2020
4821 Clear 25 1012 33 10000 6.2 270 11:59 16.04.2020
4822 Clear 25 1012 27 6000 5.1 300 11:40 16.04.2020
4823 Clear 25 1013 23 6000 5.7 290 11:21 16.04.2020
4824 Clear 25 1013 23 6000 5.7 290 10:55 16.04.2020
4825 Clear 25 1013 22 6000 4.6 260 10:37 16.04.2020
4826 Clear 25 1013 20 6000 4.1 270 10:18 16.04.2020
4827 Clear 24 1013 21 6000 4.6 240 09:39 16.04.2020
4828 Haze 24 1013 22 4000 4.6 250 09:21 16.04.2020
4829 Haze 24 1013 22 4000 4.6 250 09:00 16.04.2020
4830 Haze 24 1013 27 4000 4.6 220 08:41 16.04.2020
4831 Clear 23 1013 27 6000 4.1 210 08:21 16.04.2020
4832 Clear 22 1013 30 6000 4.6 180 07:46 16.04.2020
4833 Clear 22 1013 30 6000 4.1 180 07:26 16.04.2020
4834 Clear 20 1013 34 6000 6.2 160 06:43 16.04.2020
4835 Clear 20 1013 39 6000 4.1 160 06:25 16.04.2020
4836 Clear 20 1013 40 6000 4.6 160 05:34 16.04.2020
4837 Haze 20 1014 49 4000 2.6 190 03:53 16.04.2020
4838 Haze 20 1014 49 4000 2.6 190 03:23 16.04.2020
4839 Haze 20 1014 49 4000 3.1 180 02:47 16.04.2020
4840 Haze 20 1014 49 4000 3.1 180 02:28 16.04.2020
4841 Haze 21 1015 46 4000 2.1 180 01:19 16.04.2020
4842 Haze 22 1015 43 4000 2.6 210 00:32 16.04.2020
4843 Haze 22 1015 43 4000 2.6 190 23:59 15.04.2020
4844 Haze 22 1015 43 4000 2.6 160 23:41 15.04.2020
4845 Haze 22 1015 43 4000 1.5 170 23:21 15.04.2020
4846 Haze 23 1015 43 4000 1.5 90 22:41 15.04.2020
4847 Haze 23 1015 41 4000 1 50 22:22 15.04.2020
4848 Haze 24 1015 41 4000 1 50 21:59 15.04.2020
4849 Haze 25 1016 36 4000 2.6 320 21:41 15.04.2020
4850 Clouds 25 1015 31 6000 3.1 300 21:22 15.04.2020
4851 Clouds 26 1015 31 6000 3.1 300 20:58 15.04.2020
4852 Clouds 26 1015 27 6000 1.5 300 20:40 15.04.2020
4853 Clouds 26 1015 27 6000 1.5 300 20:21 15.04.2020
4854 Clouds 27 1015 24 10000 1 30 19:46 15.04.2020
4855 Clouds 27 1015 24 10000 2.1 40 19:21 15.04.2020
4856 Clouds 28 1015 24 10000 2.1 40 18:57 15.04.2020
4857 Clouds 28 1014 23 10000 2.6 50 18:39 15.04.2020
4858 Clouds 28 1014 23 10000 3.1 100 18:21 15.04.2020
4859 Clouds 28 1015 24 10000 2.6 80 17:54 15.04.2020
4860 Clouds 28 1015 24 10000 2.6 80 17:36 15.04.2020
4861 Clouds 28 1015 24 10000 2.6 80 17:36 15.04.2020
4862 Clouds 28 1015 26 10000 4.6 50 17:18 15.04.2020
4863 Clouds 28 1015 26 10000 3.1 120 16:54 15.04.2020
4864 Clouds 28 1015 26 10000 3.1 120 16:36 15.04.2020
4865 Clouds 28 1015 28 10000 3.1 60 16:18 15.04.2020
4866 Clouds 28 1016 26 10000 1.5 60 15:55 15.04.2020
4867 Clouds 28 1016 26 10000 1.5 60 15:36 15.04.2020
4868 Clouds 28 1016 28 10000 3.6 50 15:18 15.04.2020
4869 Clouds 27 1017 30 10000 4.6 350 14:41 15.04.2020
4870 Clouds 27 1017 30 10000 4.6 350 14:23 15.04.2020
4871 Clouds 27 1017 32 10000 3.6 20 13:59 15.04.2020
4872 Clouds 26 1018 34 10000 2.6 360 13:40 15.04.2020
4873 Clouds 26 1018 36 10000 3.1 30 13:21 15.04.2020
4874 Clouds 26 1018 36 10000 3.1 30 12:59 15.04.2020
4875 Clouds 24 1018 38 10000 4.1 30 12:40 15.04.2020
4876 Clear 24 1018 38 10000 4.1 30 12:22 15.04.2020
4877 Clear 24 1018 38 10000 4.1 30 11:58 15.04.2020
4878 Clear 23 1019 43 10000 4.1 30 11:38 15.04.2020
4879 Clear 23 1019 43 10000 4.1 30 11:38 15.04.2020
4880 Clear 22 1019 46 10000 4.1 20 11:20 15.04.2020
4881 Clear 21 1019 52 10000 5.1 30 10:38 15.04.2020
4882 Clear 20 1020 56 10000 4.6 40 10:20 15.04.2020
4883 Clear 20 1020 56 10000 4.6 40 09:57 15.04.2020
4884 Clear 20 1019 63 10000 4.1 50 09:38 15.04.2020
4885 Clear 19 1020 63 10000 3.1 20 09:20 15.04.2020
4886 Clear 18 1019 72 10000 3.1 20 08:55 15.04.2020
4887 Clear 18 1019 72 10000 3.1 20 08:36 15.04.2020
4888 Clear 17 1019 77 10000 2.6 10 08:18 15.04.2020
4889 Clear 16 1019 82 10000 4.6 50 07:46 15.04.2020
4890 Clear 16 1019 82 10000 4.6 50 07:27 15.04.2020
4891 Clear 15 1018 77 10000 5.1 60 06:29 15.04.2020
4892 Clear 15 1018 72 10000 3.6 50 05:49 15.04.2020
4893 Clear 15 1018 67 10000 4.6 50 04:48 15.04.2020
4894 Clear 15 1018 63 10000 4.6 50 04:23 15.04.2020
4895 Clear 16 1019 63 10000 4.6 50 03:23 15.04.2020
4896 Clear 16 1019 63 10000 4.1 20 02:50 15.04.2020
4897 Clear 17 1019 59 10000 4.6 20 01:53 15.04.2020
4898 Clear 17 1020 59 10000 4.6 30 01:25 15.04.2020
4899 Clear 17 1020 59 10000 4.6 30 00:51 15.04.2020
4900 Clear 17 1020 59 10000 4.6 30 00:29 15.04.2020
4901 Clear 18 1019 55 10000 5.7 40 23:57 14.04.2020
4902 Clear 18 1019 55 10000 5.7 40 23:38 14.04.2020
4903 Clear 18 1019 55 10000 6.2 30 23:20 14.04.2020
4904 Clear 18 1019 55 10000 6.2 30 22:58 14.04.2020
4905 Clear 18 1019 55 10000 6.2 30 22:39 14.04.2020
4906 Clear 18 1019 48 10000 7.7 30 22:21 14.04.2020
4907 Clear 19 1019 48 10000 7.7 30 21:57 14.04.2020
4908 Clear 19 1019 48 10000 7.7 30 21:39 14.04.2020
4909 Clear 20 1018 37 10000 8.2 30 21:20 14.04.2020
4910 Clear 21 1018 37 10000 8.2 30 20:58 14.04.2020
4911 Clear 21 1018 37 10000 8.2 30 20:39 14.04.2020
4912 Clear 21 1018 33 10000 8.7 20 20:21 14.04.2020
4913 Clear 21 1018 33 10000 8.7 20 20:21 14.04.2020
4914 Clear 22 1018 33 10000 8.7 20 19:41 14.04.2020
4915 Clear 22 1017 31 10000 7.7 30 19:23 14.04.2020
4916 Clear 23 1017 31 10000 7.7 30 18:59 14.04.2020
4917 Clear 23 1017 29 10000 7.2 20 18:41 14.04.2020
4918 Clear 24 1017 27 10000 7.2 20 18:22 14.04.2020
4919 Clear 24 1017 27 10000 7.2 20 17:58 14.04.2020
4920 Clear 24 1016 25 10000 7.2 20 17:39 14.04.2020
4921 Clear 25 1016 25 6000 6.7 10 17:20 14.04.2020
4922 Clear 25 1016 25 6000 6.7 10 16:57 14.04.2020
4923 Clear 25 1016 24 6000 7.2 360 16:38 14.04.2020
4924 Clear 25 1016 23 6000 6.2 10 16:20 14.04.2020
4925 Clear 25 1016 23 6000 6.2 10 15:56 14.04.2020
4926 Clear 25 1016 21 6000 7.2 350 15:38 14.04.2020
4927 Clear 25 1016 25 6000 5.7 350 15:18 14.04.2020
4928 Clear 25 1016 25 6000 5.7 350 14:57 14.04.2020
4929 Clear 25 1016 25 6000 5.7 350 14:38 14.04.2020
4930 Clear 25 1017 29 6000 6.2 360 14:20 14.04.2020
4931 Clear 24 1017 29 6000 6.2 360 13:43 14.04.2020
4932 Clear 23 1017 31 6000 7.2 360 13:24 14.04.2020
4933 Clear 23 1017 31 6000 7.2 360 12:56 14.04.2020
4934 Clear 23 1017 31 6000 7.2 360 12:38 14.04.2020
4935 Haze 22 1018 43 4000 4.6 360 12:19 14.04.2020
4936 Haze 21 1018 43 4000 4.6 360 11:41 14.04.2020
4937 Haze 20 1018 68 4000 4.1 320 11:22 14.04.2020
4938 Haze 19 1018 68 4000 4.1 320 10:56 14.04.2020
4939 Haze 19 1018 68 4000 4.1 320 10:38 14.04.2020
4940 Haze 19 1018 68 4000 3.6 330 10:19 14.04.2020
4941 Mist 18 1018 72 4000 3.6 10 09:42 14.04.2020
4942 Mist 17 1018 82 3000 3.6 20 09:22 14.04.2020
4943 Mist 17 1018 82 3000 3.6 20 08:56 14.04.2020
4944 Mist 16 1018 93 3000 3.1 350 08:36 14.04.2020
4945 Mist 16 1018 93 3000 3.1 350 08:36 14.04.2020
4946 Mist 15 1018 93 2000 3.1 360 08:18 14.04.2020
4947 Mist 15 1017 93 2000 2.6 350 07:49 14.04.2020
4948 Mist 15 1017 93 2000 2.6 350 07:26 14.04.2020
4949 Mist 15 1017 93 3000 3.1 10 06:45 14.04.2020
4950 Mist 15 1017 93 4000 3.6 360 05:47 14.04.2020
4951 Clouds 16 1017 82 6000 3.6 360 03:48 14.04.2020
4952 Clouds 16 1017 82 6000 3.6 20 02:38 14.04.2020
4953 Clouds 16 1018 82 6000 4.6 40 01:28 14.04.2020
4954 Clear 16 1018 82 6000 3.6 360 00:59 14.04.2020
4955 Clear 16 1018 77 6000 4.1 360 00:32 14.04.2020
4956 Clear 17 1018 72 10000 6.2 30 23:59 13.04.2020
4957 Clear 17 1018 72 10000 6.2 30 23:39 13.04.2020
4958 Clear 17 1018 67 10000 5.7 30 23:20 13.04.2020
4959 Clear 17 1018 59 10000 6.7 20 22:55 13.04.2020
4960 Clear 17 1018 59 10000 6.7 20 22:55 13.04.2020
4961 Clear 18 1018 59 10000 6.7 20 22:37 13.04.2020
4962 Clear 18 1018 59 10000 6.7 20 22:18 13.04.2020
4963 Clear 18 1018 48 10000 6.7 30 21:42 13.04.2020
4964 Clear 19 1017 42 10000 8.2 30 21:21 13.04.2020
4965 Clear 19 1017 42 10000 8.2 30 20:59 13.04.2020
4966 Clear 20 1017 32 10000 9.3 20 20:40 13.04.2020
4967 Clear 20 1017 28 10000 8.2 30 20:20 13.04.2020
4968 Clear 21 1017 28 10000 8.2 30 19:58 13.04.2020
4969 Clear 21 1016 28 10000 7.7 20 19:37 13.04.2020
4970 Clear 21 1016 28 10000 7.7 20 19:37 13.04.2020
4971 Clear 22 1016 23 10000 5.7 340 19:19 13.04.2020
4972 Clear 23 1016 23 10000 6.2 340 18:57 13.04.2020
4973 Clear 23 1016 23 10000 6.2 340 18:38 13.04.2020
4974 Clear 24 1016 23 10000 6.2 340 18:19 13.04.2020
4975 Clear 24 1016 23 10000 6.2 340 17:57 13.04.2020
4976 Clear 24 1016 25 10000 4.6 330 17:37 13.04.2020
4977 Clear 24 1016 23 10000 5.7 330 17:19 13.04.2020
4978 Clear 24 1016 23 10000 5.7 330 16:58 13.04.2020
4979 Clear 24 1016 23 10000 5.1 340 16:38 13.04.2020
4980 Clear 24 1016 18 10000 4.6 350 16:19 13.04.2020
4981 Clear 24 1016 18 10000 4.6 350 15:57 13.04.2020
4982 Clear 24 1016 22 10000 5.1 340 15:38 13.04.2020
4983 Clear 24 1016 23 10000 4.1 350 15:20 13.04.2020
4984 Clear 24 1016 19 10000 3.6 20 14:42 13.04.2020
4985 Clear 24 1016 19 10000 3.6 20 14:24 13.04.2020
4986 Clear 24 1017 19 10000 4.1 350 13:57 13.04.2020
4987 Clear 23 1017 25 10000 3.1 30 13:39 13.04.2020
4988 Clear 23 1017 25 10000 4.1 20 13:21 13.04.2020
4989 Clear 23 1017 25 10000 4.1 20 12:59 13.04.2020
4990 Clear 23 1018 23 10000 4.1 360 12:40 13.04.2020
4991 Clear 22 1018 24 10000 4.1 360 12:20 13.04.2020
4992 Clear 22 1018 24 10000 4.1 360 11:58 13.04.2020
4993 Clear 22 1018 26 10000 2.6 30 11:40 13.04.2020
4994 Clear 21 1019 30 10000 4.1 30 11:18 13.04.2020
4995 Clear 20 1019 40 10000 4.1 20 10:55 13.04.2020
4996 Clear 20 1019 40 10000 4.1 20 10:37 13.04.2020
4997 Clear 20 1019 52 10000 4.1 20 10:18 13.04.2020
4998 Clear 18 1019 59 10000 4.1 40 09:44 13.04.2020
4999 Clear 18 1019 59 10000 4.1 40 09:26 13.04.2020
5000 Clear 18 1019 59 10000 4.1 40 09:26 13.04.2020
5001 Clear 17 1019 72 10000 3.1 60 08:48 13.04.2020
5002 Clear 17 1019 72 10000 3.1 60 08:29 13.04.2020
5003 Clear 16 1019 77 6000 3.1 60 07:58 13.04.2020
5004 Clear 15 1019 82 6000 3.1 60 07:38 13.04.2020
5005 Clear 15 1019 82 6000 3.1 60 07:20 13.04.2020
5006 Clear 15 1018 82 6000 3.1 60 06:47 13.04.2020
5007 Clear 15 1018 82 6000 3.1 60 05:56 13.04.2020
5008 Clear 14 1018 87 6000 2.1 60 05:28 13.04.2020
5009 Clear 15 1018 82 6000 2.6 40 04:52 13.04.2020
5010 Clear 15 1018 82 6000 2.6 40 04:22 13.04.2020
5011 Clear 15 1018 77 6000 3.6 40 03:46 13.04.2020
5012 Clear 16 1018 82 10000 3.6 40 02:50 13.04.2020
5013 Clear 16 1019 82 10000 3.1 40 01:54 13.04.2020
5014 Clear 16 1019 82 10000 3.1 40 01:36 13.04.2020
5015 Clear 16 1019 82 10000 5.7 40 00:58 13.04.2020
5016 Clear 16 1019 77 10000 5.7 40 00:39 13.04.2020
5017 Clear 17 1019 77 10000 5.7 40 00:18 13.04.2020
5018 Clear 17 1019 77 10000 5.7 40 23:45 12.04.2020
5019 Clouds 17 1019 68 10000 6.7 20 23:22 12.04.2020
5020 Clouds 18 1019 68 10000 6.7 20 22:58 12.04.2020
5021 Clouds 18 1019 63 10000 6.7 20 22:37 12.04.2020
5022 Clouds 18 1019 59 10000 6.7 20 22:19 12.04.2020
5023 Clouds 19 1019 52 10000 6.7 20 21:40 12.04.2020
5024 Clouds 20 1018 52 10000 7.7 20 21:21 12.04.2020
5025 Clouds 20 1018 52 10000 7.7 20 20:57 12.04.2020
5026 Clouds 21 1018 52 10000 8.2 30 20:38 12.04.2020
5027 Clouds 21 1018 37 10000 8.2 30 20:20 12.04.2020
5028 Clouds 21 1018 37 10000 8.2 30 19:55 12.04.2020
5029 Clouds 23 1017 28 10000 5.7 10 19:36 12.04.2020
5030 Clouds 23 1017 28 10000 5.1 360 19:18 12.04.2020
5031 Clouds 23 1017 28 10000 5.1 350 18:40 12.04.2020
5032 Clouds 24 1017 25 10000 5.1 330 18:21 12.04.2020
5033 Clouds 24 1017 25 10000 4.6 330 17:56 12.04.2020
5034 Clouds 24 1017 25 10000 4.6 330 17:38 12.04.2020
5035 Clouds 24 1017 36 10000 4.6 350 17:19 12.04.2020
5036 Clouds 24 1017 36 10000 4.6 350 16:56 12.04.2020
5037 Clouds 24 1017 36 10000 4.6 350 16:37 12.04.2020
5038 Clouds 24 1017 25 10000 5.7 340 16:19 12.04.2020
5039 Clouds 24 1017 25 10000 4.1 330 15:42 12.04.2020
5040 Clouds 24 1018 25 6000 3.6 300 15:22 12.04.2020
5041 Clouds 24 1018 25 6000 3.6 300 14:41 12.04.2020
5042 Clouds 24 1018 25 6000 3.6 300 14:22 12.04.2020
5043 Clouds 24 1018 25 6000 3.6 300 13:58 12.04.2020
5044 Clouds 23 1018 35 6000 3.1 350 13:40 12.04.2020
5045 Clouds 23 1019 38 6000 3.6 340 13:21 12.04.2020
5046 Clouds 22 1019 37 6000 3.1 340 12:47 12.04.2020
5047 Clouds 22 1020 43 6000 2.85 44 12:22 12.04.2020
5048 Clouds 22 1020 43 6000 2.85 44 11:59 12.04.2020
5049 Clouds 21 1020 43 6000 2.6 340 11:39 12.04.2020
5050 Haze 20 1020 49 4000 3.1 340 11:20 12.04.2020
5051 Haze 20 1020 49 4000 3.1 340 10:58 12.04.2020
5052 Haze 18 1020 68 4000 2.1 50 10:39 12.04.2020
5053 Haze 18 1020 68 4000 2.1 50 10:20 12.04.2020
5054 Haze 18 1020 68 4000 2.1 50 09:58 12.04.2020
5055 Mist 17 1020 72 4000 1.5 30 09:39 12.04.2020
5056 Mist 17 1020 77 3000 1 360 09:20 12.04.2020
5057 Clear 17 1020 77 0 0.89 360 08:51 12.04.2020
5058 Clouds 15 1019 87 6000 2.6 350 08:32 12.04.2020
5059 Clear 15 1019 82 0 2.24 10 07:55 12.04.2020
5060 Clouds 15 1019 82 6000 2.6 10 07:36 12.04.2020
5061 Clouds 15 1019 82 6000 2.6 10 07:18 12.04.2020
5062 Clear 15 1018 82 10000 2.1 360 06:31 12.04.2020
5063 Clear 15 1018 82 0 2.68 360 05:49 12.04.2020
5064 Clear 15 1018 82 10000 3.1 360 05:27 12.04.2020
5065 Clear 15 1018 82 10000 3.6 20 03:32 12.04.2020
5066 Clear 15 1018 77 10000 4.1 30 02:51 12.04.2020
5067 Clear 16 1018 77 10000 4.1 30 02:30 12.04.2020
5068 Clear 16 1018 77 10000 4.6 40 01:31 12.04.2020
5069 Clear 16 1018 77 10000 5.1 30 00:56 12.04.2020
5070 Clear 16 1018 77 10000 5.1 30 00:38 12.04.2020
5071 Clear 16 1018 77 10000 5.1 30 00:38 12.04.2020
5072 Clear 16 1018 77 10000 5.1 40 00:19 12.04.2020
5073 Clear 16 1018 72 10000 5.7 40 23:44 11.04.2020
5074 Clear 17 1018 72 10000 5.7 40 23:23 11.04.2020
5075 Clear 18 1018 63 10000 5.7 20 22:41 11.04.2020
5076 Clear 18 1018 63 10000 7.2 30 22:22 11.04.2020
5077 Clear 18 1018 63 10000 7.2 30 21:57 11.04.2020
5078 Clear 20 1017 49 10000 5.1 350 21:37 11.04.2020
5079 Clouds 20 1017 40 10000 3.6 360 21:19 11.04.2020
5080 Clouds 21 1017 40 10000 3.6 360 20:57 11.04.2020
5081 Clouds 21 1017 40 10000 3.6 10 20:39 11.04.2020
5082 Clouds 21 1017 40 10000 4.1 360 20:20 11.04.2020
5083 Clouds 21 1017 40 10000 4.1 360 19:58 11.04.2020
5084 Clouds 21 1016 40 10000 4.1 350 19:38 11.04.2020
5085 Clouds 21 1016 40 10000 3.6 340 19:19 11.04.2020
5086 Clouds 21 1016 40 10000 3.6 340 18:56 11.04.2020
5087 Clouds 22 1016 35 10000 4.1 350 18:38 11.04.2020
5088 Clouds 22 1016 35 10000 4.1 350 18:38 11.04.2020
5089 Clouds 22 1016 37 10000 3.1 310 18:20 11.04.2020
5090 Clouds 22 1016 37 10000 3.1 310 17:58 11.04.2020
5091 Clouds 22 1016 35 10000 3.6 340 17:40 11.04.2020
5092 Clouds 22 1016 37 10000 4.6 340 17:20 11.04.2020
5093 Clouds 22 1016 37 10000 4.6 340 16:55 11.04.2020
5094 Clouds 23 1016 35 10000 2.6 320 16:37 11.04.2020
5095 Clouds 23 1016 35 10000 3.1 290 16:18 11.04.2020
5096 Clouds 23 1016 35 10000 3.6 300 15:37 11.04.2020
5097 Clouds 22 1016 37 10000 4.1 280 15:18 11.04.2020
5098 Clouds 22 1016 40 10000 2.6 330 14:42 11.04.2020
5099 Clouds 22 1017 37 10000 3.1 310 14:24 11.04.2020
5100 Clouds 22 1017 37 10000 3.1 310 13:59 11.04.2020
5101 Clouds 22 1017 37 10000 3.1 310 13:59 11.04.2020
5102 Clouds 21 1017 40 10000 4.1 300 13:39 11.04.2020
5103 Clouds 20 1017 42 10000 3.1 320 13:19 11.04.2020
5104 Clouds 20 1017 45 10000 3.6 270 12:42 11.04.2020
5105 Clouds 20 1018 45 10000 2.6 220 12:20 11.04.2020
5106 Clouds 20 1018 45 10000 2.6 220 11:58 11.04.2020
5107 Clouds 20 1018 48 10000 2.1 220 11:39 11.04.2020
5108 Clouds 19 1018 48 10000 1.5 250 11:19 11.04.2020
5109 Clouds 18 1018 52 10000 1.5 240 10:55 11.04.2020
5110 Clouds 18 1018 52 10000 1.5 240 10:36 11.04.2020
5111 Clouds 18 1018 52 10000 2.6 270 10:18 11.04.2020
5112 Clouds 17 1018 55 10000 2.6 310 09:40 11.04.2020
5113 Clouds 17 1018 55 10000 2.6 310 09:40 11.04.2020
5114 Clouds 17 1018 55 10000 2.6 310 09:22 11.04.2020
5115 Clouds 16 1017 67 10000 2.6 240 08:51 11.04.2020
5116 Clouds 16 1017 67 10000 2.6 240 08:29 11.04.2020
5117 Clouds 16 1017 67 10000 4.1 240 07:56 11.04.2020
5118 Clouds 16 1017 67 10000 1.5 280 07:38 11.04.2020
5119 Clouds 15 1017 72 10000 1.5 220 07:19 11.04.2020
5120 Clouds 14 1016 71 10000 2.1 270 06:35 11.04.2020
5121 Clear 14 1016 71 10000 2.1 270 05:56 11.04.2020
5122 Clear 15 1016 67 10000 2.1 290 03:57 11.04.2020
5123 Clear 15 1016 62 10000 2.6 290 02:51 11.04.2020
5124 Clear 15 1016 62 10000 2.6 290 01:26 11.04.2020
5125 Clear 15 1016 62 10000 2.6 300 00:55 11.04.2020
5126 Clear 15 1016 63 10000 2.6 330 00:37 11.04.2020
5127 Clear 16 1016 63 10000 2.6 310 00:18 11.04.2020
5128 Clear 16 1016 63 10000 2.6 310 00:18 11.04.2020
5129 Clear 16 1016 63 10000 1.5 310 23:41 10.04.2020
5130 Clear 16 1016 63 10000 2.6 310 23:19 10.04.2020
5131 Clear 16 1016 63 10000 2.6 310 22:58 10.04.2020
5132 Clear 16 1016 59 10000 3.1 320 22:37 10.04.2020
5133 Clear 16 1016 59 10000 4.6 320 22:19 10.04.2020
5134 Clear 18 1016 45 10000 3.6 290 21:42 10.04.2020
5135 Clear 18 1016 45 10000 3.6 290 21:21 10.04.2020
5136 Clear 18 1016 45 10000 3.6 290 20:58 10.04.2020
5137 Clouds 18 1015 45 10000 6.2 290 20:40 10.04.2020
5138 Clouds 18 1015 45 10000 6.2 290 20:20 10.04.2020
5139 Clouds 18 1015 45 10000 6.2 290 19:55 10.04.2020
5140 Clouds 19 1014 39 10000 8.2 290 19:37 10.04.2020
5141 Clouds 19 1014 37 10000 8.7 280 19:19 10.04.2020
5142 Clouds 20 1014 30 10000 6.7 260 18:56 10.04.2020
5143 Clouds 21 1014 30 10000 6.7 260 18:38 10.04.2020
5144 Clouds 21 1013 30 10000 5.1 270 18:19 10.04.2020
5145 Clouds 21 1013 30 10000 5.1 270 17:57 10.04.2020
5146 Clouds 21 1013 32 10000 7.7 240 17:39 10.04.2020
5147 Clouds 21 1013 32 10000 3.1 270 17:19 10.04.2020
5148 Clouds 21 1013 30 10000 6.2 260 16:44 10.04.2020
5149 Clouds 22 1013 30 10000 6.2 260 16:23 10.04.2020
5150 Clouds 21 1013 32 10000 4.1 280 15:59 10.04.2020
5151 Clouds 21 1013 32 10000 4.6 300 15:39 10.04.2020
5152 Clouds 21 1014 32 10000 4.1 270 15:21 10.04.2020
5153 Clouds 21 1014 32 10000 4.1 270 14:59 10.04.2020
5154 Clouds 21 1014 32 10000 4.1 270 14:40 10.04.2020
5155 Clouds 21 1014 32 10000 4.1 270 14:22 10.04.2020
5156 Clouds 21 1014 32 10000 4.1 230 13:56 10.04.2020
5157 Clouds 20 1014 37 10000 4.1 260 13:38 10.04.2020
5158 Clouds 20 1015 37 10000 5.7 240 13:19 10.04.2020
5159 Clouds 20 1015 42 10000 7.2 250 12:42 10.04.2020
5160 Clouds 19 1015 42 10000 5.7 220 12:21 10.04.2020
5161 Clouds 19 1015 42 10000 5.7 220 11:54 10.04.2020
5162 Clouds 18 1015 52 10000 3.6 230 11:36 10.04.2020
5163 Clouds 18 1015 52 10000 5.1 250 11:18 10.04.2020
5164 Clouds 17 1016 55 10000 4.6 230 10:41 10.04.2020
5165 Clouds 17 1016 55 10000 5.7 220 10:22 10.04.2020
5166 Clouds 16 1016 67 10000 5.1 250 09:44 10.04.2020
5167 Clouds 16 1016 67 10000 5.1 250 09:25 10.04.2020
5168 Clouds 16 1015 63 10000 5.7 250 08:56 10.04.2020
5169 Clouds 15 1015 67 10000 5.7 250 08:38 10.04.2020
5170 Clouds 15 1015 67 10000 5.7 250 08:38 10.04.2020
5171 Clouds 15 1015 67 10000 5.7 250 08:20 10.04.2020
5172 Clouds 15 1015 67 10000 5.7 250 07:44 10.04.2020
5173 Clouds 15 1015 72 10000 5.1 270 07:22 10.04.2020
5174 Clouds 15 1015 72 10000 4.1 240 06:45 10.04.2020
5175 Clear 15 1015 72 10000 4.1 240 06:25 10.04.2020
5176 Clear 15 1014 72 10000 3.1 240 05:38 10.04.2020
5177 Clear 15 1014 72 10000 3.1 240 04:57 10.04.2020
5178 Clear 15 1015 72 10000 1.5 280 03:45 10.04.2020
5179 Clear 15 1015 72 10000 1.5 300 03:24 10.04.2020
5180 Clear 15 1015 72 10000 1.5 300 02:48 10.04.2020
5181 Clear 15 1015 72 10000 1.5 300 02:28 10.04.2020
5182 Clear 15 1015 67 10000 2.1 310 01:30 10.04.2020
5183 Clear 16 1016 59 10000 2.6 330 00:49 10.04.2020
5184 Clear 16 1016 63 10000 3.6 360 00:23 10.04.2020
5185 Clear 16 1016 63 10000 3.6 360 23:44 09.04.2020
5186 Clear 16 1016 63 10000 3.6 360 23:26 09.04.2020
5187 Clear 17 1016 55 10000 4.6 340 23:00 09.04.2020
5188 Clear 17 1016 55 10000 4.6 340 22:41 09.04.2020
5189 Clouds 17 1016 52 10000 5.7 340 22:22 09.04.2020
5190 Clouds 18 1016 52 10000 5.7 340 21:45 09.04.2020
5191 Clouds 18 1016 52 10000 5.7 340 21:26 09.04.2020
5192 Clouds 18 1015 52 10000 4.6 320 20:59 09.04.2020
5193 Clouds 18 1015 52 10000 4.6 320 20:40 09.04.2020
5194 Clouds 18 1014 45 10000 5.7 320 20:20 09.04.2020
5195 Clouds 19 1014 45 10000 5.7 320 19:56 09.04.2020
5196 Clouds 19 1014 45 10000 7.2 310 19:36 09.04.2020
5197 Clouds 19 1014 45 10000 7.2 310 19:18 09.04.2020
5198 Clouds 21 1013 37 10000 5.7 320 18:41 09.04.2020
5199 Clouds 21 1013 37 10000 6.2 300 18:18 09.04.2020
5200 Clouds 22 1013 33 10000 6.2 300 17:41 09.04.2020
5201 Clouds 22 1013 33 10000 6.2 300 17:22 09.04.2020
5202 Clouds 22 1013 35 10000 5.1 280 16:56 09.04.2020
5203 Clouds 22 1013 35 10000 7.2 280 16:38 09.04.2020
5204 Clouds 22 1013 40 10000 5.7 360 16:18 09.04.2020
5205 Clouds 22 1013 40 10000 5.7 360 15:54 09.04.2020
5206 Clouds 22 1013 40 10000 5.7 360 15:36 09.04.2020
5207 Clouds 22 1013 40 10000 5.7 360 15:36 09.04.2020
5208 Clouds 22 1014 43 10000 4.6 320 15:18 09.04.2020
5209 Clouds 22 1014 43 10000 4.6 320 15:18 09.04.2020
5210 Clouds 22 1014 43 10000 4.6 320 14:39 09.04.2020
5211 Clouds 22 1014 40 10000 5.1 260 14:20 09.04.2020
5212 Clouds 23 1014 40 10000 5.1 260 13:43 09.04.2020
5213 Clouds 23 1014 40 10000 5.1 260 13:25 09.04.2020
5214 Clouds 22 1015 43 10000 4.1 300 12:59 09.04.2020
5215 Clouds 22 1015 43 10000 4.1 300 12:41 09.04.2020
5216 Clouds 21 1015 46 10000 4.1 300 12:21 09.04.2020
5217 Clouds 21 1015 46 10000 4.1 300 11:57 09.04.2020
5218 Clouds 21 1015 46 10000 4.1 300 11:38 09.04.2020
5219 Clouds 21 1015 46 10000 2.1 320 11:19 09.04.2020
5220 Clouds 21 1015 46 10000 2.1 320 10:55 09.04.2020
5221 Clouds 21 1015 46 10000 2.1 320 10:37 09.04.2020
5222 Clouds 21 1015 46 10000 2.1 320 10:37 09.04.2020
5223 Clouds 20 1015 56 10000 2.1 330 10:18 09.04.2020
5224 Clouds 20 1015 56 10000 2.1 330 09:40 09.04.2020
5225 Clouds 20 1015 56 10000 1.58 343 09:21 09.04.2020
5226 Clouds 20 1015 56 10000 1.58 343 08:59 09.04.2020
5227 Clouds 19 1015 59 10000 1.58 343 08:40 09.04.2020
5228 Clouds 18 1014 68 10000 1.58 343 08:22 09.04.2020
5229 Clouds 17 1014 72 10000 1.58 343 07:50 09.04.2020
5230 Clouds 17 1014 72 10000 1.58 343 07:22 09.04.2020
5231 Clouds 16 1014 77 10000 1.58 343 06:48 09.04.2020
5232 Clouds 16 1014 77 10000 1.5 80 05:49 09.04.2020
5233 Clouds 16 1014 77 10000 1.5 80 05:28 09.04.2020
5234 Clouds 17 1014 72 10000 1.5 50 02:37 09.04.2020
5235 Clouds 16 1014 77 10000 2.6 60 02:18 09.04.2020
5236 Clouds 17 1014 72 10000 2.6 60 01:39 09.04.2020
5237 Clouds 17 1015 72 10000 3.6 50 01:19 09.04.2020
5238 Clouds 17 1015 72 10000 3.1 50 00:38 09.04.2020
5239 Clouds 17 1015 68 10000 3.6 50 00:18 09.04.2020
5240 Clouds 18 1015 68 10000 3.6 50 23:44 08.04.2020
5241 Clouds 18 1016 68 10000 3.6 50 23:24 08.04.2020
5242 Clouds 18 1016 68 10000 5.1 40 22:57 08.04.2020
5243 Clouds 18 1016 68 10000 5.1 40 22:39 08.04.2020
5244 Clouds 18 1016 68 10000 5.1 50 22:21 08.04.2020
5245 Clouds 18 1016 63 10000 5.1 30 21:56 08.04.2020
5246 Clouds 19 1016 63 10000 5.1 30 21:37 08.04.2020
5247 Clouds 19 1015 52 10000 4.6 330 21:19 08.04.2020
5248 Clouds 19 1015 52 10000 5.1 340 20:54 08.04.2020
5249 Clouds 19 1015 52 10000 5.1 340 20:54 08.04.2020
5250 Clouds 19 1015 52 10000 5.1 340 20:36 08.04.2020
5251 Clouds 19 1015 45 10000 5.1 340 20:18 08.04.2020
5252 Clouds 20 1015 45 10000 5.1 340 19:41 08.04.2020
5253 Clouds 20 1014 45 10000 5.1 330 19:21 08.04.2020
5254 Clouds 21 1014 37 10000 4.6 320 18:55 08.04.2020
5255 Clouds 21 1014 37 10000 4.6 320 18:37 08.04.2020
5256 Clouds 21 1014 40 10000 4.6 330 18:19 08.04.2020
5257 Clouds 21 1014 37 10000 4.6 310 17:42 08.04.2020
5258 Clouds 22 1014 35 10000 4.1 330 17:22 08.04.2020
5259 Clouds 22 1014 35 10000 5.1 300 16:57 08.04.2020
5260 Clouds 22 1014 35 10000 5.1 300 16:39 08.04.2020
5261 Clouds 22 1014 35 10000 4.6 330 16:20 08.04.2020
5262 Clouds 22 1014 35 10000 4.6 330 15:39 08.04.2020
5263 Clouds 22 1014 35 10000 4.6 330 15:39 08.04.2020
5264 Clouds 22 1014 35 10000 5.1 330 15:21 08.04.2020
5265 Clouds 22 1015 37 10000 4.6 340 14:59 08.04.2020
5266 Clouds 22 1015 37 10000 4.6 340 14:40 08.04.2020
5267 Clouds 22 1015 37 10000 2.6 300 14:22 08.04.2020
5268 Clouds 22 1015 35 10000 4.1 300 13:44 08.04.2020
5269 Clouds 22 1016 35 10000 3.6 340 13:21 08.04.2020
5270 Clouds 22 1016 35 10000 3.6 340 12:58 08.04.2020
5271 Clouds 21 1015 43 10000 48.9 360 12:39 08.04.2020
5272 Clouds 21 1016 37 10000 2.6 310 12:18 08.04.2020
5273 Clouds 21 1016 37 10000 2.6 310 12:18 08.04.2020
5274 Clouds 20 1017 42 6000 2.1 330 11:42 08.04.2020
5275 Clouds 20 1017 42 6000 2.1 330 11:23 08.04.2020
5276 Clouds 20 1017 42 6000 2.1 330 10:58 08.04.2020
5277 Clouds 20 1017 45 6000 2.6 310 10:40 08.04.2020
5278 Clouds 20 1017 52 6000 1.5 10 10:21 08.04.2020
5279 Clouds 19 1017 52 6000 1.5 10 09:57 08.04.2020
5280 Clouds 18 1017 55 6000 2.1 280 09:39 08.04.2020
5281 Mist 18 1017 68 4000 1.9 298 09:19 08.04.2020
5282 Mist 18 1017 68 4000 1.9 298 08:57 08.04.2020
5283 Mist 17 1017 72 4000 1.9 298 08:38 08.04.2020
5284 Mist 17 1017 72 2000 1.9 298 08:20 08.04.2020
5285 Mist 16 1016 77 2000 1.9 298 07:42 08.04.2020
5286 Mist 15 1016 77 2000 1.9 298 07:21 08.04.2020
5287 Mist 14 1016 77 2000 0.87 328 06:29 08.04.2020
5288 Clouds 15 1016 77 10000 1.5 50 04:58 08.04.2020
5289 Clouds 15 1016 77 10000 4.1 60 02:50 08.04.2020
5290 Clouds 15 1017 67 10000 4.1 60 02:22 08.04.2020
5291 Clouds 16 1017 67 10000 4.1 60 01:56 08.04.2020
5292 Clouds 16 1017 67 10000 4.1 60 01:28 08.04.2020
5293 Clouds 16 1017 67 10000 3.6 40 00:47 08.04.2020
5294 Clouds 16 1017 67 10000 3.6 40 00:26 08.04.2020
5295 Clouds 17 1017 63 10000 4.6 340 23:57 07.04.2020
5296 Clouds 17 1017 63 10000 4.6 340 23:37 07.04.2020
5297 Clouds 17 1018 63 10000 5.1 360 23:18 07.04.2020
5298 Clouds 17 1018 63 10000 5.1 360 22:55 07.04.2020
5299 Clouds 17 1018 63 10000 5.1 360 22:37 07.04.2020
5300 Clouds 17 1017 55 10000 5.1 360 22:18 07.04.2020
5301 Clouds 18 1017 55 10000 5.1 360 21:42 07.04.2020
5302 Clouds 18 1017 52 10000 7.2 340 21:21 07.04.2020
5303 Clouds 18 1017 52 10000 7.2 340 20:59 07.04.2020
5304 Clouds 19 1016 48 10000 6.7 350 20:40 07.04.2020
5305 Clouds 20 1016 42 10000 6.7 330 20:21 07.04.2020
5306 Clouds 20 1016 42 10000 6.7 330 19:57 07.04.2020
5307 Clouds 20 1015 37 10000 5.7 340 19:38 07.04.2020
5308 Clouds 20 1015 35 10000 5.1 330 19:20 07.04.2020
5309 Clouds 21 1015 35 10000 5.1 330 18:58 07.04.2020
5310 Clouds 21 1015 35 10000 4.6 330 18:40 07.04.2020
5311 Clouds 21 1015 35 10000 5.7 320 18:20 07.04.2020
5312 Clouds 21 1015 33 10000 3.6 320 17:47 07.04.2020
5313 Clouds 22 1015 30 10000 4.6 330 17:24 07.04.2020
5314 Clouds 22 1015 30 10000 4.6 330 16:55 07.04.2020
5315 Clouds 22 1015 33 10000 3.1 320 16:37 07.04.2020
5316 Clouds 22 1015 33 10000 3.1 320 16:19 07.04.2020
5317 Clouds 23 1015 31 10000 3.1 320 15:42 07.04.2020
5318 Clear 22 1015 35 10000 2.1 300 15:24 07.04.2020
5319 Clear 22 1015 33 10000 4.6 300 14:43 07.04.2020
5320 Clear 21 1016 37 10000 3.1 330 14:23 07.04.2020
5321 Clear 21 1016 37 10000 3.1 330 13:58 07.04.2020
5322 Clear 21 1016 37 10000 3.1 330 13:39 07.04.2020
5323 Clear 20 1016 40 10000 4.6 20 13:19 07.04.2020
5324 Clear 20 1016 40 10000 4.6 20 12:56 07.04.2020
5325 Clear 20 1016 40 10000 4.6 360 12:37 07.04.2020
5326 Clear 20 1016 40 10000 4.1 290 12:19 07.04.2020
5327 Clear 20 1017 37 10000 4.6 340 11:45 07.04.2020
5328 Clear 20 1017 37 10000 4.6 340 11:27 07.04.2020
5329 Clear 20 1017 37 10000 4.1 340 10:59 07.04.2020
5330 Clear 19 1017 42 10000 3.6 30 10:39 07.04.2020
5331 Clear 19 1017 42 10000 3.6 30 10:39 07.04.2020
5332 Clear 19 1017 42 10000 3.6 30 10:39 07.04.2020
5333 Clear 18 1017 48 10000 3.6 360 10:20 07.04.2020
5334 Clear 18 1017 48 10000 3.6 360 09:54 07.04.2020
5335 Clear 17 1017 55 10000 3.1 30 09:36 07.04.2020
5336 Clear 17 1017 63 10000 3.6 40 09:18 07.04.2020
5337 Clear 16 1017 67 10000 3.6 30 08:39 07.04.2020
5338 Clear 16 1017 72 10000 3.6 40 08:20 07.04.2020
5339 Clear 15 1017 77 10000 3.6 40 07:44 07.04.2020
5340 Clear 15 1017 77 10000 3.6 40 07:44 07.04.2020
5341 Clear 15 1017 77 10000 3.6 40 07:44 07.04.2020
5342 Clear 15 1017 77 10000 3.6 40 07:26 07.04.2020
5343 Clear 15 1017 77 6000 4.1 40 07:26 07.04.2020
5344 Clear 15 1017 76 6000 1.5 60 06:52 07.04.2020
5345 Clouds 14 1016 76 6000 1.5 50 06:26 07.04.2020
5346 Clouds 14 1016 76 6000 3.1 50 05:54 07.04.2020
5347 Clouds 14 1016 76 6000 3.1 50 05:25 07.04.2020
5348 Clouds 15 1017 72 10000 4.1 360 03:36 07.04.2020
5349 Clouds 15 1017 72 10000 3.6 350 03:18 07.04.2020
5350 Clouds 15 1017 67 10000 4.1 360 02:45 07.04.2020
5351 Clouds 16 1017 67 10000 4.1 20 01:38 07.04.2020
5352 Clouds 16 1018 67 10000 4.6 360 01:20 07.04.2020
5353 Clouds 16 1018 67 10000 5.7 360 00:25 07.04.2020
5354 Clouds 17 1018 67 10000 6.7 10 23:42 06.04.2020
5355 Clouds 17 1018 67 10000 6.2 360 23:21 06.04.2020
5356 Clouds 17 1018 67 10000 6.2 360 22:54 06.04.2020
5357 Clouds 18 1018 63 10000 5.1 350 22:36 06.04.2020
5358 Clouds 18 1018 63 10000 5.7 350 22:18 06.04.2020
5359 Clouds 19 1018 52 10000 5.7 360 21:43 06.04.2020
5360 Clouds 19 1018 52 10000 6.2 350 21:20 06.04.2020
5361 Clouds 19 1018 52 10000 6.2 350 20:57 06.04.2020
5362 Clouds 20 1018 45 10000 5.1 340 20:39 06.04.2020
5363 Clouds 20 1017 42 10000 6.7 340 20:21 06.04.2020
5364 Clouds 20 1017 42 10000 6.7 340 19:58 06.04.2020
5365 Clouds 21 1017 43 10000 6.2 350 19:39 06.04.2020
5366 Clouds 21 1016 40 10000 6.7 340 19:20 06.04.2020
5367 Clouds 21 1016 40 10000 7.2 340 18:43 06.04.2020
5368 Clouds 22 1016 43 6000 4.6 340 18:24 06.04.2020
5369 Clouds 22 1016 43 6000 4.6 340 17:59 06.04.2020
5370 Clouds 23 1016 40 6000 4.6 340 17:41 06.04.2020
5371 Clouds 23 1016 43 6000 5.7 330 17:19 06.04.2020
5372 Clouds 23 1016 40 6000 3.1 350 16:49 06.04.2020
5373 Clouds 23 1016 40 6000 3.1 350 16:30 06.04.2020
5374 Clouds 23 1016 40 6000 4.6 320 15:00 06.04.2020
5375 Clouds 23 1016 40 6000 4.6 320 15:00 06.04.2020
5376 Clouds 23 1016 40 6000 4.6 320 15:00 06.04.2020
5377 Clouds 23 1017 40 6000 4.6 330 13:45 06.04.2020
5378 Clouds 23 1017 38 6000 3.6 350 13:23 06.04.2020
5379 Clouds 23 1017 43 10000 4.6 310 12:47 06.04.2020
5380 Clouds 22 1017 46 10000 5.1 10 12:47 06.04.2020
5381 Clouds 22 1017 46 10000 5.1 10 12:20 06.04.2020
5382 Clouds 21 1017 52 10000 4.6 10 11:46 06.04.2020
5383 Clouds 21 1017 52 10000 4.6 10 11:27 06.04.2020
5384 Clouds 21 1017 52 10000 4.6 10 11:27 06.04.2020
5385 Clouds 21 1017 52 10000 4.6 10 11:27 06.04.2020
5386 Clouds 21 1017 52 10000 4.6 10 11:27 06.04.2020
5387 Clouds 21 1017 52 10000 4.6 10 11:27 06.04.2020
5388 Clouds 21 1017 52 10000 4.6 360 10:46 06.04.2020
5389 Clouds 21 1017 52 10000 4.6 360 10:46 06.04.2020
5390 Clouds 21 1017 52 10000 4.6 360 10:45 06.04.2020
5391 Clouds 21 1017 52 10000 4.6 360 10:45 06.04.2020
5392 Clouds 21 1017 52 10000 4.6 360 10:43 06.04.2020
5393 Clouds 20 1017 56 10000 5.1 360 10:21 06.04.2020
5394 Clouds 20 1017 56 10000 5.1 360 10:21 06.04.2020
5395 Clouds 20 1017 56 10000 5.1 360 10:21 06.04.2020
5396 Clear 20 1017 68 10000 4.1 20 09:42 06.04.2020
5397 Clear 20 1017 68 10000 4.1 20 09:42 06.04.2020
5398 Clear 20 1017 68 10000 4.1 20 09:42 06.04.2020
5399 Clear 20 1017 68 10000 4.1 20 09:42 06.04.2020
5400 Clear 20 1017 68 10000 4.1 20 09:42 06.04.2020
5401 Clear 19 1017 68 10000 4.1 20 09:20 06.04.2020
5402 Clear 18 1017 72 10000 4.1 30 08:49 06.04.2020
5403 Clear 17 1017 77 10000 3.6 40 08:29 06.04.2020
5404 Clear 17 1017 77 10000 3.6 40 08:29 06.04.2020
5405 Clear 17 1017 77 10000 3.6 40 08:29 06.04.2020
5406 Clear 16 1017 87 6000 3.6 40 07:24 06.04.2020
5407 Clear 16 1017 87 6000 3.6 40 07:24 06.04.2020
5408 Clear 16 1017 87 6000 3.6 40 07:24 06.04.2020
5409 Clear 16 1016 82 6000 2.1 40 06:34 06.04.2020
5410 Clear 16 1016 82 6000 3.6 30 06:01 06.04.2020
5411 Clear 16 1016 82 6000 3.6 30 06:01 06.04.2020
5412 Clear 16 1016 82 6000 3.6 30 06:01 06.04.2020
5413 Clear 17 1015 77 6000 3.1 360 04:18 06.04.2020
5414 Clouds 17 1015 77 6000 4.1 50 02:56 06.04.2020
5415 Clouds 17 1016 77 6000 3.6 30 01:57 06.04.2020
5416 Clouds 18 1016 68 6000 4.1 30 00:59 06.04.2020
5417 Clouds 18 1016 68 6000 4.1 30 00:29 06.04.2020
5418 Clouds 18 1016 68 6000 4.1 30 00:29 06.04.2020
5419 Clouds 18 1016 63 6000 4.6 20 23:59 05.04.2020
5420 Clouds 19 1016 59 6000 4.1 30 23:40 05.04.2020
5421 Clouds 19 1016 59 6000 4.1 30 23:20 05.04.2020
5422 Clouds 19 1016 59 6000 4.1 30 23:20 05.04.2020
5423 Clouds 19 1016 59 6000 4.1 30 23:20 05.04.2020
5424 Clouds 19 1016 59 6000 4.1 10 22:54 05.04.2020
5425 Clouds 19 1016 59 6000 4.6 350 22:36 05.04.2020
5426 Clouds 19 1016 59 6000 4.6 350 22:18 05.04.2020
5427 Clouds 20 1016 52 6000 4.6 350 21:43 05.04.2020
5428 Clouds 20 1016 56 6000 4.6 360 21:43 05.04.2020
5429 Clouds 20 1016 52 6000 4.6 350 21:43 05.04.2020
5430 Clouds 20 1016 52 6000 4.6 350 21:23 05.04.2020
5431 Dust 21 1015 49 4000 4.6 360 20:25 05.04.2020
5432 Dust 22 1015 46 4000 4.6 340 19:43 05.04.2020
5433 Dust 22 1014 49 4000 4.6 330 19:24 05.04.2020
5434 Dust 22 1014 53 3000 4.1 330 18:49 05.04.2020
5435 Dust 22 1014 53 3000 4.1 330 18:49 05.04.2020
5436 Dust 24 1013 44 3000 4.6 310 18:21 05.04.2020
5437 Dust 26 1013 27 1000 4.6 320 17:49 05.04.2020
5438 Dust 26 1013 27 1000 4.6 320 17:49 05.04.2020
5439 Dust 26 1013 27 1000 4.6 320 17:49 05.04.2020
5440 Dust 26 1013 27 1000 4.6 320 17:49 05.04.2020
5441 Dust 26 1013 27 1000 4.6 320 17:49 05.04.2020
5442 Dust 26 1013 27 1000 4.6 320 17:22 05.04.2020
5443 Clear 26 1012 29 500 5.7 310 16:47 05.04.2020
5444 Clear 26 1012 29 500 5.7 310 16:47 05.04.2020
5445 Clear 26 1012 29 500 5.7 310 16:47 05.04.2020
5446 Clear 26 1012 29 300 5.7 290 16:19 05.04.2020
5447 Clear 26 1012 31 300 6.2 300 15:46 05.04.2020
5448 Clear 26 1012 34 300 6.7 300 15:28 05.04.2020
5449 Clear 26 1012 34 300 6.7 300 15:28 05.04.2020
5450 Clear 26 1012 34 300 6.7 300 15:28 05.04.2020
5451 Clear 26 1012 34 300 6.7 300 15:28 05.04.2020
5452 Clear 27 1012 30 300 5.7 270 14:48 05.04.2020
5453 Clear 27 1012 30 300 5.7 270 14:48 05.04.2020
5454 Clear 27 1012 30 300 5.7 270 14:48 05.04.2020
5455 Clear 27 1012 30 300 5.7 270 14:48 05.04.2020
5456 Clear 27 1012 30 300 6.2 270 13:59 05.04.2020
5457 Clear 26 1013 34 300 5.7 220 13:40 05.04.2020
5458 Clear 26 1013 34 300 5.7 220 13:40 05.04.2020
5459 Clear 26 1013 34 300 5.7 220 13:40 05.04.2020
5460 Clear 26 1013 34 300 5.7 220 13:40 05.04.2020
5461 Clear 26 1013 34 300 5.7 220 13:40 05.04.2020
5462 Clouds 25 1013 38 300 5.7 270 12:20 05.04.2020
5463 Clouds 23 1013 43 300 6.2 270 11:40 05.04.2020
5464 Clouds 23 1013 43 300 6.2 270 11:20 05.04.2020
5465 Clouds 23 1013 40 500 5.7 300 10:47 05.04.2020
5466 Clouds 22 1013 43 500 5.7 290 10:23 05.04.2020
5467 Clouds 22 1012 40 500 6.7 300 09:55 05.04.2020
5468 Clouds 22 1012 40 500 6.2 290 09:27 05.04.2020
5469 Clouds 22 1011 37 500 7.2 290 08:32 05.04.2020
5470 Sand 23 1010 31 1500 7.2 280 07:19 05.04.2020
5471 Sand 23 1010 31 1500 7.2 280 07:19 05.04.2020
5472 Clouds 31 1005 6 6000 8.7 160 04:31 05.04.2020
5473 Clouds 30 1005 8 6000 9.3 160 03:28 05.04.2020
5474 Clouds 30 1006 13 6000 9.3 160 02:27 05.04.2020
5475 Clouds 30 1007 11 6000 8.2 160 01:44 05.04.2020
5476 Clouds 30 1007 11 6000 8.2 160 01:23 05.04.2020
5477 Clouds 29 1008 13 6000 2.1 140 00:37 05.04.2020
5478 Clouds 29 1008 13 6000 2.1 140 00:19 05.04.2020
5479 Clouds 28 1008 16 6000 2.6 140 23:42 04.04.2020
5480 Clouds 28 1008 16 6000 2.6 140 23:22 04.04.2020
5481 Clouds 28 1008 13 6000 5.7 160 22:57 04.04.2020
5482 Clouds 29 1008 13 6000 5.7 160 22:39 04.04.2020
5483 Clouds 29 1008 14 6000 6.7 110 22:20 04.04.2020
5484 Clouds 29 1008 14 6000 6.7 110 21:57 04.04.2020
5485 Clouds 29 1008 14 6000 6.7 110 21:57 04.04.2020
5486 Clouds 29 1008 14 6000 6.7 110 21:39 04.04.2020
5487 Clouds 29 1008 14 6000 6.7 110 21:19 04.04.2020
5488 Clouds 29 1009 14 6000 6.7 120 20:55 04.04.2020
5489 Clouds 29 1009 14 6000 6.7 120 20:37 04.04.2020
5490 Clouds 29 1009 14 6000 6.7 120 20:19 04.04.2020
5491 Clouds 30 1009 12 6000 5.7 130 19:54 04.04.2020
5492 Clouds 30 1007 10 6000 6.2 90 19:36 04.04.2020
5493 Clouds 31 1007 10 6000 6.2 90 19:18 04.04.2020
5494 Clouds 33 1008 7 6000 5.7 190 18:54 04.04.2020
5495 Clouds 34 1008 6 6000 5.1 180 18:36 04.04.2020
5496 Clouds 34 1008 6 6000 5.1 180 18:18 04.04.2020
5497 Clouds 34 1008 6 6000 5.1 180 17:39 04.04.2020
5498 Clouds 34 1008 6 6000 5.1 180 17:20 04.04.2020
5499 Clouds 34 1009 6 6000 5.7 180 16:46 04.04.2020
5500 Clouds 34 1009 6 6000 5.7 180 16:28 04.04.2020
5501 Clouds 34 1009 9 6000 5.1 210 15:59 04.04.2020
5502 Clouds 34 1009 9 6000 5.1 210 15:39 04.04.2020
5503 Clouds 34 1009 9 6000 5.1 210 15:20 04.04.2020
5504 Clouds 34 1009 9 6000 5.1 210 15:20 04.04.2020
5505 Clouds 33 1010 9 6000 5.1 170 14:56 04.04.2020
5506 Clouds 33 1010 9 6000 5.1 170 14:38 04.04.2020
5507 Clouds 33 1011 9 6000 5.7 140 14:20 04.04.2020
5508 Clouds 33 1011 9 6000 5.7 140 13:55 04.04.2020
5509 Clouds 33 1011 9 6000 5.7 140 13:36 04.04.2020
5510 Clouds 33 1011 9 6000 5.7 140 13:18 04.04.2020
5511 Clouds 31 1012 10 6000 7.2 110 12:43 04.04.2020
5512 Clouds 31 1012 10 6000 7.2 110 12:23 04.04.2020
5513 Clear 31 1013 14 6000 8.7 110 11:55 04.04.2020
5514 Clear 31 1013 14 6000 8.7 110 11:36 04.04.2020
5515 Clear 31 1013 14 6000 8.7 110 11:18 04.04.2020
5516 Clear 28 1013 18 6000 11.3 110 10:55 04.04.2020
5517 Clear 28 1013 18 10000 11.3 110 10:37 04.04.2020
5518 Clear 28 1013 18 10000 11.3 110 10:18 04.04.2020
5519 Clear 26 1013 22 10000 12.3 110 09:44 04.04.2020
5520 Clear 26 1013 22 10000 12.3 110 09:25 04.04.2020
5521 Clear 26 1013 22 10000 11.3 100 08:58 04.04.2020
5522 Clear 25 1013 27 10000 11.3 100 08:38 04.04.2020
5523 Clear 24 1013 27 10000 11.3 100 08:19 04.04.2020
5524 Clear 23 1013 30 10000 9.8 90 07:40 04.04.2020
5525 Clear 22 1013 30 10000 9.8 90 07:22 04.04.2020
5526 Clear 21 1013 32 10000 8.7 80 06:46 04.04.2020
5527 Clear 20 1013 34 10000 7.7 90 05:57 04.04.2020
5528 Clear 20 1013 34 10000 6.7 90 05:39 04.04.2020
5529 Clear 20 1013 34 10000 6.7 90 05:21 04.04.2020
5530 Clear 19 1013 37 10000 5.7 70 04:24 04.04.2020
5531 Clear 19 1013 37 10000 5.7 70 03:45 04.04.2020
5532 Clear 19 1014 42 10000 8.2 70 02:49 04.04.2020
5533 Clouds 19 1014 42 10000 8.2 70 02:30 04.04.2020
5534 Clouds 19 1014 42 10000 9.3 70 01:50 04.04.2020
5535 Clouds 19 1014 42 10000 9.3 70 01:22 04.04.2020
5536 Clouds 20 1015 40 10000 9.8 70 00:47 04.04.2020
5537 Clouds 20 1016 37 10000 8.2 70 00:26 04.04.2020
5538 Clear 20 1016 32 10000 8.2 70 23:39 03.04.2020
5539 Clear 21 1016 32 10000 8.2 70 23:21 03.04.2020
5540 Clear 21 1016 30 10000 8.7 60 22:56 03.04.2020
5541 Clear 21 1016 32 10000 7.2 50 22:38 03.04.2020
5542 Clear 21 1016 32 10000 7.2 50 22:18 03.04.2020
5543 Clear 22 1016 35 10000 8.2 50 21:43 03.04.2020
5544 Clear 22 1016 35 10000 8.2 50 21:23 03.04.2020
5545 Clear 22 1016 38 10000 9.8 50 20:56 03.04.2020
5546 Clear 23 1015 38 10000 9.8 40 20:37 03.04.2020
5547 Clear 23 1015 38 10000 9.8 40 20:19 03.04.2020
5548 Clear 23 1015 38 10000 9.8 40 20:19 03.04.2020
5549 Clear 24 1015 31 10000 8.2 30 19:56 03.04.2020
5550 Clear 25 1015 24 10000 6.7 30 19:38 03.04.2020
5551 Clear 26 1015 24 10000 6.7 30 19:19 03.04.2020
5552 Clear 26 1014 24 10000 6.7 30 18:58 03.04.2020
5553 Clear 26 1014 22 10000 6.2 40 18:40 03.04.2020
5554 Clear 27 1014 22 10000 6.2 40 18:22 03.04.2020
5555 Clear 27 1014 21 10000 5.7 50 17:43 03.04.2020
5556 Clear 27 1014 21 10000 5.7 50 17:21 03.04.2020
5557 Clear 27 1014 21 10000 4.1 40 16:58 03.04.2020
5558 Clear 27 1014 20 10000 3.6 50 16:40 03.04.2020
5559 Clear 28 1014 20 10000 3.6 50 16:21 03.04.2020
5560 Clear 28 1014 20 10000 4.1 10 15:58 03.04.2020
5561 Clear 28 1014 20 10000 3.6 40 15:38 03.04.2020
5562 Clouds 28 1014 20 10000 3.6 40 15:19 03.04.2020
5563 Clouds 27 1015 21 0 3.58 70 14:41 03.04.2020
5564 Clouds 27 1015 21 0 3.58 70 14:41 03.04.2020
5565 Clouds 27 1015 21 0 3.58 70 14:41 03.04.2020
5566 Clouds 27 1015 21 10000 3.1 50 14:22 03.04.2020
5567 Clouds 27 1015 21 10000 3.1 50 13:59 03.04.2020
5568 Clouds 27 1015 21 10000 3.1 50 13:40 03.04.2020
5569 Clouds 27 1015 21 10000 3.1 50 13:22 03.04.2020
5570 Clouds 26 1016 22 10000 5.1 30 12:43 03.04.2020
5571 Clouds 26 1016 22 10000 5.1 30 12:20 03.04.2020
5572 Clouds 25 1016 23 10000 3.6 80 11:57 03.04.2020
5573 Clouds 25 1016 23 10000 3.1 40 11:39 03.04.2020
5574 Clouds 25 1016 23 10000 3.1 40 11:20 03.04.2020
5575 Clouds 25 1017 25 10000 4.1 40 10:59 03.04.2020
5576 Clouds 25 1017 29 10000 2.6 60 10:39 03.04.2020
5577 Clouds 24 1017 29 10000 2.6 60 10:20 03.04.2020
5578 Clouds 24 1017 29 10000 2.6 60 10:20 03.04.2020
5579 Clouds 24 1016 29 10000 4.1 80 09:59 03.04.2020
5580 Clouds 23 1016 31 10000 4.6 90 09:40 03.04.2020
5581 Clouds 23 1016 31 10000 4.6 90 09:21 03.04.2020
5582 Clouds 23 1016 31 10000 4.6 90 09:21 03.04.2020
5583 Clouds 23 1016 31 10000 4.6 90 09:21 03.04.2020
5584 Clouds 22 1016 33 10000 4.6 90 08:56 03.04.2020
5585 Clouds 22 1016 33 10000 4.6 90 08:37 03.04.2020
5586 Clouds 22 1016 33 10000 4.6 90 08:19 03.04.2020
5587 Clouds 20 1016 37 10000 3.1 110 07:46 03.04.2020
5588 Clouds 21 1016 35 10000 3.1 110 07:46 03.04.2020
5589 Clouds 20 1016 37 10000 3.1 110 07:28 03.04.2020
5590 Clouds 18 1016 45 10000 3.1 110 06:41 03.04.2020
5591 Clouds 18 1016 45 10000 3.1 110 06:22 03.04.2020
5592 Clear 17 1016 55 10000 3.1 110 05:39 03.04.2020
5593 Clear 17 1015 63 10000 1.5 90 03:42 03.04.2020
5594 Clear 17 1015 67 10000 1.5 90 02:56 03.04.2020
5595 Clear 17 1015 67 10000 4.1 90 02:18 03.04.2020
5596 Clear 17 1016 72 10000 4.1 60 01:22 03.04.2020
5597 Clear 17 1016 68 10000 4.1 60 00:34 03.04.2020
5598 Clear 18 1017 68 10000 3.6 30 23:58 02.04.2020
5599 Clear 18 1017 68 10000 3.6 30 23:40 02.04.2020
5600 Clear 18 1017 68 10000 3.6 30 23:21 02.04.2020
5601 Clear 18 1017 68 10000 4.6 30 22:57 02.04.2020
5602 Clear 18 1017 59 10000 4.6 360 22:37 02.04.2020
5603 Clear 19 1017 59 10000 4.6 360 22:18 02.04.2020
5604 Clear 20 1017 43 10000 4.6 360 21:39 02.04.2020
5605 Clear 21 1017 43 10000 4.6 360 21:20 02.04.2020
5606 Clear 21 1016 40 10000 4.1 360 20:58 02.04.2020
5607 Clear 21 1016 40 10000 4.1 360 20:58 02.04.2020
5608 Clear 21 1016 40 10000 3.1 350 20:40 02.04.2020
5609 Clear 21 1016 40 10000 3.1 350 20:21 02.04.2020
5610 Clear 21 1015 35 10000 4.1 330 19:44 02.04.2020
5611 Clear 22 1015 35 10000 4.1 330 19:21 02.04.2020
5612 Clear 22 1015 35 10000 4.1 330 19:21 02.04.2020
5613 Clear 22 1015 33 10000 4.1 340 18:58 02.04.2020
5614 Clear 22 1015 35 10000 3.6 340 18:39 02.04.2020
5615 Clear 22 1015 35 10000 3.6 340 18:20 02.04.2020
5616 Clear 23 1015 33 10000 4.1 300 17:56 02.04.2020
5617 Clear 23 1015 33 10000 5.1 320 17:38 02.04.2020
5618 Clear 23 1015 33 10000 5.1 320 17:19 02.04.2020
5619 Clear 23 1015 33 10000 2.6 320 16:55 02.04.2020
5620 Clear 23 1015 31 10000 5.1 310 16:37 02.04.2020
5621 Clear 24 1015 31 10000 5.1 310 16:19 02.04.2020
5622 Clear 24 1014 29 10000 5.1 300 15:44 02.04.2020
5623 Clear 23 1015 27 10000 3.6 330 15:21 02.04.2020
5624 Clear 23 1015 27 10000 3.6 340 14:59 02.04.2020
5625 Clear 23 1015 25 10000 5.1 270 14:40 02.04.2020
5626 Clear 23 1015 25 10000 5.1 270 14:20 02.04.2020
5627 Clear 23 1015 28 10000 1 210 13:58 02.04.2020
5628 Clear 23 1015 28 10000 3.6 340 13:39 02.04.2020
5629 Clear 22 1015 35 10000 4.6 340 13:21 02.04.2020
5630 Clear 22 1015 35 10000 4.6 340 12:56 02.04.2020
5631 Clear 22 1015 35 10000 4.6 340 12:56 02.04.2020
5632 Clear 22 1016 35 10000 4.6 290 12:37 02.04.2020
5633 Clear 22 1016 35 10000 4.6 290 12:19 02.04.2020
5634 Clear 22 1016 30 10000 4.1 280 11:57 02.04.2020
5635 Clear 21 1016 37 10000 3.6 280 11:38 02.04.2020
5636 Clear 21 1016 37 10000 3.6 280 11:19 02.04.2020
5637 Clear 21 1016 37 10000 3.6 280 11:19 02.04.2020
5638 Clear 21 1016 46 6000 3.6 290 10:55 02.04.2020
5639 Clear 20 1016 56 6000 2.1 290 10:37 02.04.2020
5640 Clear 20 1016 60 6000 1.5 310 10:18 02.04.2020
5641 Clear 20 1016 63 6000 2.6 310 09:43 02.04.2020
5642 Clear 19 1016 63 6000 2.6 310 09:25 02.04.2020
5643 Clouds 18 1016 68 6000 1.5 310 08:58 02.04.2020
5644 Clouds 18 1016 63 6000 2.1 330 08:40 02.04.2020
5645 Clouds 18 1016 63 6000 2.1 330 08:22 02.04.2020
5646 Clouds 18 1016 63 6000 2.1 320 07:44 02.04.2020
5647 Clouds 18 1016 63 6000 0.72 347 07:20 02.04.2020
5648 Clouds 17 1015 67 6000 0.72 347 06:57 02.04.2020
5649 Clouds 16 1015 67 10000 1.01 53 06:21 02.04.2020
5650 Clouds 16 1015 67 10000 1.01 53 05:44 02.04.2020
5651 Clouds 16 1014 72 10000 1.01 53 03:57 02.04.2020
5652 Clouds 17 1015 67 10000 3.1 50 01:34 02.04.2020
5653 Clouds 17 1015 67 10000 3.6 50 00:46 02.04.2020
5654 Clouds 17 1015 67 10000 4.1 50 00:26 02.04.2020
5655 Clouds 17 1016 67 10000 5.1 50 23:54 01.04.2020
5656 Clouds 17 1016 72 10000 6.2 50 23:36 01.04.2020
5657 Clouds 17 1016 72 10000 6.2 50 23:18 01.04.2020
5658 Clouds 17 1016 72 10000 6.7 30 22:40 01.04.2020
5659 Clouds 18 1016 72 10000 6.7 30 22:21 01.04.2020
5660 Clouds 19 1016 63 10000 7.7 30 21:55 01.04.2020
5661 Clouds 19 1015 56 10000 7.2 350 21:37 01.04.2020
5662 Clouds 20 1015 56 10000 7.2 350 21:18 01.04.2020
5663 Clouds 21 1015 40 10000 3.1 320 20:54 01.04.2020
5664 Clouds 21 1015 40 10000 3.1 320 20:54 01.04.2020
5665 Clouds 21 1015 40 10000 3.1 320 20:54 01.04.2020
5666 Clouds 21 1015 40 10000 3.1 320 20:36 01.04.2020
5667 Clouds 21 1015 40 10000 3.1 320 20:18 01.04.2020
5668 Clouds 22 1014 40 6000 4.6 320 19:42 01.04.2020
5669 Clouds 22 1014 40 6000 4.6 320 19:21 01.04.2020
5670 Clouds 22 1014 37 6000 4.1 310 18:56 01.04.2020
5671 Clouds 22 1014 37 6000 4.1 310 18:56 01.04.2020
5672 Clouds 22 1014 37 6000 4.1 310 18:38 01.04.2020
5673 Clouds 22 1014 37 6000 4.1 310 18:19 01.04.2020
5674 Clouds 23 1013 35 6000 3.6 320 17:55 01.04.2020
5675 Clouds 23 1013 35 6000 3.1 320 17:36 01.04.2020
5676 Clouds 23 1013 35 6000 3.1 320 17:18 01.04.2020
5677 Clouds 24 1013 33 6000 3.6 250 16:42 01.04.2020
5678 Clouds 24 1013 33 6000 1 320 16:24 01.04.2020
5679 Clouds 23 1014 33 6000 3.6 270 15:58 01.04.2020
5680 Clouds 23 1014 36 6000 2.1 250 15:40 01.04.2020
5681 Clouds 24 1014 36 6000 2.1 250 15:21 01.04.2020
5682 Clouds 23 1014 35 6000 2.6 240 14:57 01.04.2020
5683 Clouds 23 1014 35 6000 2.6 240 14:57 01.04.2020
5684 Clouds 23 1014 38 6000 2.1 250 14:38 01.04.2020
5685 Clouds 23 1014 38 6000 2.1 250 14:38 01.04.2020
5686 Clouds 23 1014 38 6000 2.1 250 14:19 01.04.2020
5687 Clouds 23 1014 38 6000 2.1 250 14:19 01.04.2020
5688 Clouds 22 1015 40 6000 4.6 210 13:58 01.04.2020
5689 Clouds 22 1015 40 6000 4.1 210 13:38 01.04.2020
5690 Clouds 22 1015 40 6000 4.1 210 13:19 01.04.2020
5691 Clouds 21 1015 43 6000 4.1 220 12:55 01.04.2020
5692 Clouds 21 1015 46 6000 3.1 260 12:36 01.04.2020
5693 Clouds 21 1015 46 6000 3.1 260 12:18 01.04.2020
5694 Clouds 20 1016 52 6000 3.1 240 11:42 01.04.2020
5695 Clouds 20 1016 52 6000 3.1 240 11:23 01.04.2020
5696 Clouds 20 1016 52 6000 3.1 240 10:58 01.04.2020
5697 Clouds 20 1016 59 6000 2.6 240 10:38 01.04.2020
5698 Clouds 19 1016 59 6000 2.6 240 10:19 01.04.2020
5699 Clouds 18 1016 63 6000 2.6 210 09:57 01.04.2020
5700 Clouds 17 1016 67 6000 2.6 250 09:39 01.04.2020
5701 Clouds 17 1016 67 6000 2.6 250 09:18 01.04.2020
5702 Clouds 16 1015 77 10000 3.6 240 08:41 01.04.2020
5703 Clouds 16 1015 77 10000 3.6 240 08:18 01.04.2020
5704 Clouds 16 1015 77 10000 2.6 240 07:46 01.04.2020
5705 Clouds 16 1014 77 10000 3.1 260 07:21 01.04.2020
5706 Clouds 16 1014 72 10000 4.6 260 06:52 01.04.2020
5707 Clouds 16 1014 72 10000 4.6 260 06:27 01.04.2020
5708 Clouds 16 1014 72 10000 5.7 260 05:59 01.04.2020
5709 Clear 16 1013 63 10000 5.1 250 04:36 01.04.2020
5710 Clear 17 1013 55 10000 6.2 250 03:33 01.04.2020
5711 Clear 17 1013 55 10000 6.7 260 02:57 01.04.2020
5712 Clear 17 1013 51 10000 8.7 250 02:21 01.04.2020
5713 Clear 17 1013 48 10000 6.7 250 01:43 01.04.2020
5714 Clear 18 1013 48 10000 6.7 250 01:22 01.04.2020
5715 Clear 18 1013 52 10000 5.7 240 00:46 01.04.2020
5716 Clear 18 1013 52 10000 5.7 240 00:46 01.04.2020
5717 Clear 18 1013 52 10000 5.7 240 00:21 01.04.2020
5718 Clouds 18 1013 52 6000 6.2 240 23:49 31.03.2020
5719 Clouds 18 1013 52 6000 6.2 240 23:28 31.03.2020
5720 Sand 18 1013 52 4000 6.2 280 22:59 31.03.2020
5721 Sand 18 1013 55 4000 7.2 280 22:38 31.03.2020
5722 Sand 18 1013 55 4000 7.2 280 22:20 31.03.2020
5723 Sand 19 1013 55 4000 7.2 270 21:57 31.03.2020
5724 Sand 20 1012 56 4000 7.7 300 21:39 31.03.2020
5725 Sand 20 1012 56 4000 7.7 300 21:20 31.03.2020
5726 Clear 24 1009 19 0 9.39 240 20:56 31.03.2020
5727 Sand 24 1009 19 2000 9.8 240 20:37 31.03.2020
5728 Sand 24 1009 19 2000 9.8 240 20:18 31.03.2020
5729 Sand 24 1009 19 2000 9.8 240 19:55 31.03.2020
5730 Sand 24 1009 19 2000 9.8 240 19:36 31.03.2020
5731 Clear 24 1009 19 0 9.39 240 19:18 31.03.2020
5732 Clear 22 1010 30 0 6.84 283 18:41 31.03.2020
5733 Clear 28 1007 18 0 12.52 240 18:20 31.03.2020
5734 Clear 28 1007 18 0 12.52 240 17:56 31.03.2020
5735 Clear 28 1007 18 0 12.52 240 17:56 31.03.2020
5736 Clear 28 1007 18 0 12.52 240 17:38 31.03.2020
5737 Sand 28 1007 18 2000 12.9 240 17:20 31.03.2020
5738 Clear 28 1007 18 0 12.52 240 16:42 31.03.2020
5739 Sand 29 1006 18 2000 12.9 240 16:20 31.03.2020
5740 Sand 29 1006 18 2000 12.9 240 15:59 31.03.2020
5741 Clear 29 1006 18 0 12.52 240 15:41 31.03.2020
5742 Sand 30 1007 17 2000 11.8 250 15:23 31.03.2020
5743 Sand 30 1007 17 2000 11.8 250 14:59 31.03.2020
5744 Sand 30 1007 17 2000 11.8 250 14:59 31.03.2020
5745 Sand 30 1007 17 2000 11.8 250 14:41 31.03.2020
5746 Sand 30 1007 17 2000 11.8 250 14:22 31.03.2020
5747 Sand 30 1007 16 3000 10.8 240 13:55 31.03.2020
5748 Sand 30 1007 16 3000 10.8 240 13:37 31.03.2020
5749 Sand 30 1007 16 3000 10.8 240 13:18 31.03.2020
5750 Clear 29 1008 19 0 7.6 220 12:44 31.03.2020
5751 Sand 27 1008 13 3000 6.2 210 12:20 31.03.2020
5752 Sand 27 1008 13 3000 6.2 210 11:55 31.03.2020
5753 Sand 27 1008 13 3000 6.2 210 11:36 31.03.2020
5754 Sand 27 1008 13 3000 6.2 210 11:36 31.03.2020
5755 Sand 26 1009 15 3000 7.7 210 11:18 31.03.2020
5756 Sand 26 1009 15 3000 7.7 210 10:55 31.03.2020
5757 Sand 26 1009 15 3000 7.7 210 10:37 31.03.2020
5758 Sand 26 1009 15 3000 7.7 210 10:18 31.03.2020
5759 Clouds 26 1008 12 6000 8.2 190 09:43 31.03.2020
5760 Clouds 26 1008 12 6000 8.2 190 09:24 31.03.2020
5761 Clouds 25 1008 13 6000 10.8 190 08:57 31.03.2020
5762 Clouds 25 1008 13 6000 10.8 190 08:39 31.03.2020
5763 Clouds 25 1008 13 6000 10.8 190 08:19 31.03.2020
5764 Clouds 25 1006 12 10000 9.8 200 07:56 31.03.2020
5765 Clouds 25 1006 12 10000 9.8 200 07:38 31.03.2020
5766 Clouds 25 1006 12 10000 9.8 200 07:19 31.03.2020
5767 Clouds 25 1006 29 10000 7.7 190 06:47 31.03.2020
5768 Clouds 26 1006 9 10000 8.7 180 06:23 31.03.2020
5769 Clouds 26 1006 9 10000 8.7 180 05:39 31.03.2020
5770 Rain 25 1005 13 10000 5.7 160 03:43 31.03.2020
5771 Clouds 27 1007 9 10000 6.7 270 02:19 31.03.2020
5772 Clouds 27 1006 10 10000 10.8 160 01:45 31.03.2020
5773 Clouds 26 1007 12 10000 7.7 150 00:51 31.03.2020
5774 Clouds 26 1007 12 10000 7.7 150 00:25 31.03.2020
5775 Clouds 26 1008 14 10000 5.7 150 23:58 30.03.2020
5776 Clouds 26 1008 14 0 5.36 150 23:38 30.03.2020
5777 Clouds 26 1008 14 10000 5.1 140 23:18 30.03.2020
5778 Clouds 26 1008 14 10000 5.1 140 22:55 30.03.2020
5779 Clouds 26 1008 14 10000 5.1 140 22:36 30.03.2020
5780 Clouds 26 1008 14 10000 5.1 140 22:18 30.03.2020
5781 Clouds 26 1008 14 10000 5.7 150 21:55 30.03.2020
5782 Clouds 26 1008 14 10000 5.7 150 21:36 30.03.2020
5783 Clouds 26 1008 14 10000 5.7 150 21:18 30.03.2020
5784 Clouds 27 1008 12 6000 4.6 150 20:42 30.03.2020
5785 Clouds 27 1008 12 6000 4.6 150 20:24 30.03.2020
5786 Clouds 27 1008 12 6000 4.6 150 20:24 30.03.2020
5787 Clouds 27 1008 12 6000 4.6 150 20:24 30.03.2020
5788 Clouds 27 1008 12 6000 4.6 190 19:59 30.03.2020
5789 Clouds 27 1008 12 6000 4.6 190 19:40 30.03.2020
5790 Clouds 27 1008 12 6000 4.6 190 19:21 30.03.2020
5791 Clouds 27 1008 12 6000 4.6 190 18:56 30.03.2020
5792 Clouds 28 1008 13 6000 5.7 170 18:38 30.03.2020
5793 Clouds 28 1008 13 6000 5.7 170 18:38 30.03.2020
5794 Clouds 28 1008 13 6000 5.7 170 18:19 30.03.2020
5795 Clouds 28 1008 13 6000 5.7 170 17:56 30.03.2020
5796 Clouds 28 1008 13 6000 5.7 170 17:56 30.03.2020
5797 Clouds 28 1008 13 6000 5.7 170 17:56 30.03.2020
5798 Clouds 29 1009 12 6000 6.7 230 17:37 30.03.2020
5799 Clouds 29 1009 13 6000 8.2 200 17:18 30.03.2020
5800 Clouds 29 1009 13 6000 8.2 200 16:55 30.03.2020
5801 Clouds 29 1009 13 6000 8.2 200 16:36 30.03.2020
5802 Clouds 29 1009 13 6000 8.2 200 16:18 30.03.2020
5803 Clouds 30 1009 12 6000 7.2 190 15:54 30.03.2020
5804 Clouds 30 1009 12 6000 7.2 190 15:36 30.03.2020
5805 Clouds 30 1009 12 6000 7.2 190 15:18 30.03.2020
5806 Clouds 29 1010 13 6000 9.3 200 14:39 30.03.2020
5807 Clouds 29 1010 13 6000 9.3 200 14:19 30.03.2020
5808 Clouds 29 1010 13 6000 10.3 190 13:59 30.03.2020
5809 Clouds 29 1010 13 6000 10.3 190 13:40 30.03.2020
5810 Clouds 29 1010 13 6000 10.3 190 13:20 30.03.2020
5811 Clouds 28 1011 15 6000 9.8 190 12:55 30.03.2020
5812 Clouds 28 1011 15 6000 9.8 190 12:36 30.03.2020
5813 Clouds 28 1011 15 6000 9.8 190 12:18 30.03.2020
5814 Clouds 28 1011 15 6000 9.8 190 12:18 30.03.2020
5815 Clouds 27 1012 16 6000 7.2 190 11:43 30.03.2020
5816 Clouds 27 1012 16 6000 7.2 190 11:24 30.03.2020
5817 Clouds 26 1012 16 10000 5.1 180 10:59 30.03.2020
5818 Clouds 26 1012 16 10000 5.1 180 10:39 30.03.2020
5819 Clouds 26 1012 16 10000 5.1 180 10:21 30.03.2020
5820 Clouds 24 1012 16 10000 3.1 160 09:54 30.03.2020
5821 Clouds 24 1012 16 10000 3.1 160 09:36 30.03.2020
5822 Clouds 24 1012 22 10000 3.1 160 09:18 30.03.2020
5823 Clouds 23 1012 22 6000 3.6 150 08:40 30.03.2020
5824 Clouds 23 1012 22 6000 3.6 150 08:21 30.03.2020
5825 Haze 22 1012 24 4000 3.1 140 07:48 30.03.2020
5826 Haze 20 1012 32 4000 4.6 140 07:26 30.03.2020
5827 Haze 19 1012 32 4000 4.6 140 06:52 30.03.2020
5828 Clouds 18 1012 31 6000 4.6 150 06:30 30.03.2020
5829 Clouds 18 1012 34 10000 5.1 150 05:47 30.03.2020
5830 Clouds 18 1012 31 10000 1.5 150 05:18 30.03.2020
5831 Clouds 18 1012 36 10000 3.91 177 04:22 30.03.2020
5832 Clouds 18 1013 36 10000 1.5 190 03:34 30.03.2020
5833 Clouds 18 1013 36 10000 3.6 140 02:37 30.03.2020
5834 Clouds 19 1014 34 10000 5.1 120 01:35 30.03.2020
5835 Clouds 19 1014 34 10000 4.6 100 00:47 30.03.2020
5836 Clouds 19 1014 34 10000 4.6 100 00:21 30.03.2020
5837 Clouds 20 1015 32 10000 3.6 90 23:41 29.03.2020
5838 Clouds 20 1015 32 10000 3.6 90 23:23 29.03.2020
5839 Clouds 20 1015 32 10000 2.6 80 22:57 29.03.2020
5840 Clouds 20 1015 30 10000 3.1 60 22:37 29.03.2020
5841 Clouds 21 1015 30 10000 3.1 60 22:19 29.03.2020
5842 Clouds 22 1015 23 10000 2.1 290 21:55 29.03.2020
5843 Clouds 22 1015 24 10000 1 310 21:36 29.03.2020
5844 Clouds 22 1015 24 10000 1 310 21:36 29.03.2020
5845 Clear 22 1015 24 10000 1 310 21:18 29.03.2020
5846 Clear 22 1015 24 10000 3.6 170 20:54 29.03.2020
5847 Clear 22 1014 26 10000 3.1 170 20:36 29.03.2020
5848 Clear 22 1014 26 10000 3.1 170 20:18 29.03.2020
5849 Clear 23 1014 19 10000 2.1 240 19:42 29.03.2020
5850 Clear 23 1014 19 10000 2.1 240 19:24 29.03.2020
5851 Clear 24 1014 16 10000 3.1 270 18:58 29.03.2020
5852 Clear 25 1013 15 10000 3.6 290 18:40 29.03.2020
5853 Clear 25 1013 15 10000 3.6 290 18:20 29.03.2020
5854 Clear 25 1013 15 10000 3.6 290 18:20 29.03.2020
5855 Clear 25 1013 15 10000 3.6 290 18:20 29.03.2020
5856 Clear 25 1013 15 10000 3.6 290 17:58 29.03.2020
5857 Clear 26 1013 15 10000 3.6 290 17:40 29.03.2020
5858 Clear 26 1013 15 10000 3.6 290 17:22 29.03.2020
5859 Clear 26 1013 15 10000 3.1 260 16:58 29.03.2020
5860 Clear 26 1013 14 10000 2.1 240 16:39 29.03.2020
5861 Clear 26 1013 14 10000 2.1 240 16:20 29.03.2020
5862 Clear 25 1013 17 10000 5.1 200 15:58 29.03.2020
5863 Clear 25 1013 17 10000 5.1 200 15:39 29.03.2020
5864 Clear 25 1013 17 10000 5.1 200 15:19 29.03.2020
5865 Clear 26 1014 16 10000 2.1 250 14:55 29.03.2020
5866 Clear 25 1014 17 10000 4.6 240 14:36 29.03.2020
5867 Clear 25 1014 17 10000 4.6 240 14:36 29.03.2020
5868 Clear 25 1014 17 10000 4.6 240 14:18 29.03.2020
5869 Clear 25 1015 17 10000 4.6 220 13:42 29.03.2020
5870 Clear 24 1015 17 10000 4.6 220 13:22 29.03.2020
5871 Clear 24 1015 22 10000 6.2 220 12:58 29.03.2020
5872 Clear 23 1016 27 10000 6.7 200 12:39 29.03.2020
5873 Clear 23 1016 27 10000 6.7 200 12:19 29.03.2020
5874 Clear 23 1016 27 10000 6.7 200 11:59 29.03.2020
5875 Clear 21 1017 32 6000 6.7 210 11:38 29.03.2020
5876 Clear 21 1017 32 6000 6.7 210 11:19 29.03.2020
5877 Clear 20 1017 34 6000 6.2 210 10:39 29.03.2020
5878 Clear 20 1017 34 6000 6.2 210 10:39 29.03.2020
5879 Clear 20 1017 34 6000 6.2 210 10:21 29.03.2020
5880 Clear 20 1017 32 10000 5.7 200 09:57 29.03.2020
5881 Clouds 20 1017 32 10000 5.1 210 09:38 29.03.2020
5882 Clouds 20 1017 32 10000 5.1 210 09:18 29.03.2020
5883 Clouds 20 1017 32 10000 5.1 210 09:18 29.03.2020
5884 Clouds 20 1017 34 10000 3.1 200 08:45 29.03.2020
5885 Clouds 20 1017 34 10000 3.1 200 08:26 29.03.2020
5886 Clouds 17 1017 48 10000 3.6 170 07:48 29.03.2020
5887 Clouds 17 1017 48 10000 3.6 170 07:24 29.03.2020
5888 Clouds 15 1016 58 10000 3.6 170 06:55 29.03.2020
5889 Clouds 14 1016 67 10000 1.5 60 04:57 29.03.2020
5890 Clouds 14 1017 67 10000 1.5 60 03:41 29.03.2020
5891 Clouds 14 1017 67 10000 1.5 60 03:22 29.03.2020
5892 Clouds 14 1017 67 10000 1.5 60 01:44 29.03.2020
5893 Clouds 14 1017 67 10000 1.5 60 01:23 29.03.2020
5894 Clouds 15 1018 62 10000 1.5 90 00:46 29.03.2020
5895 Clouds 15 1018 62 10000 1.5 90 00:28 29.03.2020
5896 Clouds 15 1018 62 10000 2.6 30 23:41 28.03.2020
5897 Clouds 15 1018 62 10000 2.6 30 23:23 28.03.2020
5898 Clouds 15 1018 62 10000 2.6 30 23:23 28.03.2020
5899 Clouds 15 1018 59 10000 2.6 350 22:56 28.03.2020
5900 Clouds 16 1018 59 10000 2.6 350 22:37 28.03.2020
5901 Clouds 16 1018 59 10000 2.6 350 22:18 28.03.2020
5902 Clouds 16 1018 48 10000 5.1 340 21:41 28.03.2020
5903 Clouds 17 1018 48 10000 5.1 340 21:23 28.03.2020
5904 Clouds 17 1018 48 10000 5.1 340 20:58 28.03.2020
5905 Clouds 17 1017 42 10000 5.1 340 20:39 28.03.2020
5906 Clouds 18 1017 42 10000 5.1 340 20:20 28.03.2020
5907 Clouds 18 1017 34 10000 4.1 330 19:56 28.03.2020
5908 Clouds 18 1017 36 10000 6.2 330 19:36 28.03.2020
5909 Clouds 18 1017 36 10000 6.2 330 19:18 28.03.2020
5910 Clouds 19 1016 34 10000 5.7 330 18:47 28.03.2020
5911 Clouds 20 1016 34 10000 6.2 330 18:22 28.03.2020
5912 Clouds 20 1016 37 10000 5.7 340 17:58 28.03.2020
5913 Clouds 20 1015 37 10000 3.1 330 17:38 28.03.2020
5914 Clouds 21 1015 37 10000 3.1 330 17:18 28.03.2020
5915 Clouds 21 1015 35 10000 4.6 330 16:42 28.03.2020
5916 Clouds 21 1015 35 10000 4.6 330 16:20 28.03.2020
5917 Clouds 21 1015 37 10000 3.1 310 15:56 28.03.2020
5918 Clouds 21 1015 37 10000 4.6 340 15:37 28.03.2020
5919 Clouds 21 1015 37 10000 4.6 340 15:18 28.03.2020
5920 Clouds 21 1016 37 10000 6.2 330 14:42 28.03.2020
5921 Clouds 21 1016 37 10000 6.2 330 14:22 28.03.2020
5922 Clouds 21 1016 37 10000 5.7 330 13:56 28.03.2020
5923 Clouds 21 1016 35 10000 5.1 290 13:37 28.03.2020
5924 Clouds 21 1016 37 10000 4.6 300 13:18 28.03.2020
5925 Clouds 21 1016 37 10000 4.6 300 13:18 28.03.2020
5926 Clouds 21 1017 35 10000 4.1 270 12:38 28.03.2020
5927 Clouds 21 1017 35 10000 4.1 270 12:19 28.03.2020
5928 Clouds 20 1017 42 10000 3.1 270 11:42 28.03.2020
5929 Clouds 20 1017 42 10000 3.1 270 11:42 28.03.2020
5930 Clouds 20 1017 42 10000 3.1 270 11:21 28.03.2020
5931 Clouds 19 1017 48 10000 3.6 290 10:55 28.03.2020
5932 Clouds 19 1017 55 10000 3.6 280 10:36 28.03.2020
5933 Clouds 19 1017 55 10000 3.6 280 10:18 28.03.2020
5934 Clouds 18 1018 68 6000 2.6 300 09:40 28.03.2020
5935 Clouds 18 1018 68 6000 2.6 300 09:22 28.03.2020
5936 Clouds 17 1017 72 6000 2.6 330 08:45 28.03.2020
5937 Clouds 16 1017 82 6000 4.1 330 08:25 28.03.2020
5938 Mist 16 1017 77 4000 5.1 320 07:58 28.03.2020
5939 Mist 15 1017 87 4000 4.6 310 07:40 28.03.2020
5940 Mist 15 1017 87 4000 4.6 320 06:54 28.03.2020
5941 Clouds 15 1016 93 6000 3.1 330 06:29 28.03.2020
5942 Clouds 15 1016 93 6000 3.6 290 05:38 28.03.2020
5943 Clouds 15 1016 93 6000 3.6 290 05:19 28.03.2020
5944 Clouds 15 1015 87 6000 3.1 320 04:39 28.03.2020
5945 Clouds 15 1015 87 10000 2.1 340 02:52 28.03.2020
5946 Clouds 16 1015 82 10000 2.6 320 01:48 28.03.2020
5947 Clouds 16 1015 87 10000 4.1 330 01:23 28.03.2020
5948 Clouds 16 1015 87 10000 3.6 330 00:51 28.03.2020
5949 Clouds 16 1015 87 10000 4.6 320 00:25 28.03.2020
5950 Clouds 16 1015 87 10000 5.7 320 23:44 27.03.2020
5951 Clouds 16 1015 87 10000 5.7 320 23:26 27.03.2020
5952 Clouds 16 1014 87 10000 5.7 320 22:57 27.03.2020
5953 Clouds 16 1014 77 10000 6.2 320 22:39 27.03.2020
5954 Clouds 17 1014 77 10000 6.2 320 22:21 27.03.2020
5955 Clouds 17 1014 72 10000 5.7 330 21:59 27.03.2020
5956 Clouds 17 1014 72 10000 5.7 320 21:40 27.03.2020
5957 Clouds 17 1014 72 10000 5.7 320 21:22 27.03.2020
5958 Clouds 17 1013 63 10000 5.7 330 20:57 27.03.2020
5959 Clouds 18 1013 59 10000 5.1 340 20:39 27.03.2020
5960 Clouds 18 1013 59 10000 5.1 340 20:19 27.03.2020
5961 Clouds 18 1013 59 10000 5.1 340 20:19 27.03.2020
5962 Clouds 19 1012 55 10000 6.7 340 19:55 27.03.2020
5963 Clouds 19 1012 49 10000 6.2 350 19:36 27.03.2020
5964 Clouds 20 1012 49 10000 6.2 350 19:18 27.03.2020
5965 Clouds 20 1011 52 6000 6.7 350 18:42 27.03.2020
5966 Clouds 20 1011 52 6000 6.7 350 18:23 27.03.2020
5967 Clouds 21 1010 49 6000 6.2 340 17:55 27.03.2020
5968 Clouds 21 1010 49 6000 6.2 340 17:36 27.03.2020
5969 Clouds 22 1009 40 6000 7.7 340 17:18 27.03.2020
5970 Clouds 23 1009 40 6000 8.2 350 16:43 27.03.2020
5971 Clouds 23 1009 40 6000 8.2 350 16:24 27.03.2020
5972 Clouds 24 1008 44 6000 7.2 340 15:45 27.03.2020
5973 Clouds 24 1008 44 6000 7.2 340 15:26 27.03.2020
5974 Clouds 24 1008 41 6000 7.2 330 14:56 27.03.2020
5975 Clouds 25 1008 44 6000 6.7 340 14:37 27.03.2020
5976 Clouds 25 1008 44 6000 6.7 340 14:18 27.03.2020
5977 Clouds 25 1008 44 6000 8.2 340 13:43 27.03.2020
5978 Clouds 25 1007 44 6000 7.7 340 13:22 27.03.2020
5979 Clear 25 1007 47 6000 7.7 330 12:59 27.03.2020
5980 Clear 25 1007 47 6000 7.7 330 12:41 27.03.2020
5981 Clear 25 1007 44 6000 8.2 330 12:19 27.03.2020
5982 Clear 25 1007 44 6000 8.2 330 11:43 27.03.2020
5983 Clear 25 1007 44 6000 8.2 330 11:25 27.03.2020
5984 Clear 26 1007 34 6000 4.6 340 10:57 27.03.2020
5985 Clear 25 1006 36 6000 4.1 10 10:39 27.03.2020
5986 Clear 24 1006 36 6000 4.1 10 10:20 27.03.2020
5987 Clear 23 1006 40 6000 4.1 10 09:58 27.03.2020
5988 Dust 22 1006 40 4000 4.6 20 09:39 27.03.2020
5989 Dust 22 1006 40 4000 4.6 20 09:21 27.03.2020
5990 Dust 21 1006 43 4000 4.6 30 08:58 27.03.2020
5991 Dust 20 1006 49 4000 4.6 20 08:39 27.03.2020
5992 Dust 20 1006 49 4000 4.6 20 08:21 27.03.2020
5993 Dust 20 1005 49 4000 4.1 50 07:53 27.03.2020
5994 Dust 18 1005 59 4000 3.6 40 07:28 27.03.2020
5995 Dust 18 1005 59 4000 3.1 30 06:59 27.03.2020
5996 Dust 17 1005 63 4000 3.1 30 06:37 27.03.2020
5997 Haze 17 1004 63 4000 3.1 30 05:38 27.03.2020
5998 Clouds 18 1003 55 6000 5.7 360 02:51 27.03.2020
5999 Clouds 18 1003 55 6000 10.3 80 01:54 27.03.2020
6000 Clouds 18 1003 55 6000 13.4 70 00:56 27.03.2020
6001 Clouds 18 1004 55 6000 11.3 70 00:37 27.03.2020
6002 Clouds 18 1004 55 6000 11.3 70 00:18 27.03.2020
6003 Clouds 18 1006 59 6000 10.8 50 23:36 26.03.2020
6004 Clouds 18 1006 59 6000 10.8 50 23:18 26.03.2020
6005 Clouds 18 1006 59 6000 8.7 50 22:54 26.03.2020
6006 Clouds 18 1005 68 6000 11.3 50 22:36 26.03.2020
6007 Clouds 18 1005 68 6000 11.3 50 22:18 26.03.2020
6008 Clouds 18 1006 72 6000 9.3 40 21:39 26.03.2020
6009 Clouds 18 1006 72 6000 9.3 40 21:21 26.03.2020
6010 Clouds 18 1006 72 6000 10.8 50 20:58 26.03.2020
6011 Clouds 18 1006 72 6000 9.3 30 20:39 26.03.2020
6012 Clouds 18 1006 72 6000 9.3 30 20:20 26.03.2020
6013 Clouds 18 1006 72 6000 8.7 30 19:57 26.03.2020
6014 Clouds 18 1006 72 6000 10.8 40 19:39 26.03.2020
6015 Clouds 18 1006 72 6000 10.8 40 19:20 26.03.2020
6016 Clouds 18 1006 72 6000 10.8 40 19:20 26.03.2020
6017 Clouds 18 1006 72 6000 10.8 40 19:20 26.03.2020
6018 Sand 18 1006 68 4000 8.7 20 18:58 26.03.2020
6019 Sand 18 1006 68 4000 8.7 20 18:58 26.03.2020
6020 Sand 19 1006 64 4000 8.7 20 18:39 26.03.2020
6021 Sand 20 1005 64 4000 7.2 360 18:21 26.03.2020
6022 Sand 21 1005 49 4000 7.2 350 17:44 26.03.2020
6023 Clouds 24 1004 29 6000 7.7 20 17:19 26.03.2020
6024 Clouds 25 1004 29 6000 7.7 20 16:55 26.03.2020
6025 Clouds 25 1004 22 6000 8.2 40 16:37 26.03.2020
6026 Clouds 26 1004 22 6000 8.2 40 16:18 26.03.2020
6027 Clouds 26 1004 24 6000 7.7 30 15:41 26.03.2020
6028 Clouds 26 1004 24 6000 7.7 30 15:22 26.03.2020
6029 Clouds 26 1004 26 6000 7.7 20 14:58 26.03.2020
6030 Clouds 26 1004 25 6000 7.7 30 14:39 26.03.2020
6031 Clouds 26 1004 21 6000 8.2 20 14:19 26.03.2020
6032 Clouds 26 1005 21 6000 6.2 20 13:45 26.03.2020
6033 Clouds 26 1005 21 6000 6.2 20 13:24 26.03.2020
6034 Clouds 26 1006 21 6000 5.7 350 12:59 26.03.2020
6035 Clouds 27 1005 15 6000 6.2 50 12:38 26.03.2020
6036 Clouds 28 1005 15 6000 6.2 50 12:20 26.03.2020
6037 Clouds 26 1005 21 6000 6.7 70 11:46 26.03.2020
6038 Clouds 26 1005 21 6000 6.7 70 11:22 26.03.2020
6039 Clouds 24 1005 29 6000 4.6 70 10:57 26.03.2020
6040 Haze 23 1006 33 4000 4.6 50 10:38 26.03.2020
6041 Haze 22 1006 33 4000 4.6 50 10:19 26.03.2020
6042 Rain 20 1008 42 4000 2.1 250 09:44 26.03.2020
6043 Clouds 21 1008 35 6000 2.1 250 09:21 26.03.2020
6044 Clouds 20 1007 40 10000 5.7 50 08:57 26.03.2020
6045 Clouds 19 1009 52 10000 1.5 250 08:38 26.03.2020
6046 Clouds 18 1009 52 10000 1.5 250 08:19 26.03.2020
6047 Clouds 17 1009 59 10000 3.6 190 07:44 26.03.2020
6048 Clouds 17 1009 59 10000 3.6 190 07:22 26.03.2020
6049 Clouds 16 1008 67 10000 3.6 40 06:56 26.03.2020
6050 Clouds 16 1008 67 10000 3.6 40 06:27 26.03.2020
6051 Clouds 16 1008 63 10000 9.3 80 05:22 26.03.2020
6052 Clouds 16 1010 72 10000 5.1 60 03:45 26.03.2020
6053 Clouds 16 1010 77 10000 5.1 60 02:56 26.03.2020
6054 Clouds 15 1011 77 10000 5.1 60 01:50 26.03.2020
6055 Clouds 16 1012 72 10000 6.7 40 00:55 26.03.2020
6056 Clouds 16 1012 72 10000 6.7 40 00:22 26.03.2020
6057 Clouds 17 1012 63 10000 4.1 40 23:41 25.03.2020
6058 Clouds 17 1012 63 10000 4.1 40 23:21 25.03.2020
6059 Clouds 17 1013 59 10000 5.1 40 22:42 25.03.2020
6060 Clouds 17 1013 59 10000 5.1 40 22:21 25.03.2020
6061 Clouds 18 1013 59 6000 5.1 40 21:56 25.03.2020
6062 Clouds 18 1013 59 6000 5.1 40 21:38 25.03.2020
6063 Clouds 18 1013 59 6000 7.2 40 21:20 25.03.2020
6064 Clouds 18 1013 59 6000 7.2 40 20:56 25.03.2020
6065 Clouds 18 1013 59 6000 7.2 40 20:37 25.03.2020
6066 Clouds 18 1013 59 6000 7.2 40 20:18 25.03.2020
6067 Clouds 19 1013 55 6000 8.2 40 19:43 25.03.2020
6068 Clouds 19 1013 55 6000 8.2 40 19:23 25.03.2020
6069 Clouds 19 1012 49 6000 8.7 40 18:58 25.03.2020
6070 Clouds 20 1012 49 6000 8.7 40 18:40 25.03.2020
6071 Clouds 20 1012 49 6000 6.7 30 18:21 25.03.2020
6072 Clouds 20 1012 49 6000 6.7 30 17:56 25.03.2020
6073 Clouds 21 1013 46 6000 6.7 30 17:37 25.03.2020
6074 Clouds 21 1013 46 6000 6.7 30 17:19 25.03.2020
6075 Clouds 21 1013 43 6000 5.7 360 16:43 25.03.2020
6076 Clouds 22 1013 43 6000 5.7 360 16:24 25.03.2020
6077 Clouds 22 1013 40 10000 5.7 360 15:59 25.03.2020
6078 Clouds 22 1013 40 10000 5.7 360 15:41 25.03.2020
6079 Clouds 22 1013 40 10000 5.7 360 15:20 25.03.2020
6080 Clouds 22 1013 43 10000 3.6 20 14:55 25.03.2020
6081 Clouds 22 1013 43 10000 3.6 20 14:37 25.03.2020
6082 Clouds 22 1013 43 10000 3.6 20 14:18 25.03.2020
6083 Clouds 22 1013 40 10000 5.1 350 13:42 25.03.2020
6084 Clouds 22 1013 40 10000 5.1 350 13:22 25.03.2020
6085 Clouds 22 1013 37 10000 4.1 20 12:38 25.03.2020
6086 Clouds 22 1013 37 10000 4.1 20 12:19 25.03.2020
6087 Clouds 22 1013 37 10000 4.1 20 11:56 25.03.2020
6088 Clouds 20 1014 45 10000 4.1 10 11:37 25.03.2020
6089 Clouds 20 1014 45 10000 4.1 10 11:19 25.03.2020
6090 Clouds 19 1014 48 10000 6.2 40 10:56 25.03.2020
6091 Clouds 19 1014 48 10000 6.2 40 10:38 25.03.2020
6092 Clouds 19 1014 48 10000 6.2 40 10:18 25.03.2020
6093 Clear 17 1014 63 10000 6.2 40 09:43 25.03.2020
6094 Clear 17 1014 63 10000 6.2 40 09:24 25.03.2020
6095 Clouds 17 1014 63 10000 7.2 50 08:57 25.03.2020
6096 Clouds 16 1014 72 10000 6.2 40 08:39 25.03.2020
6097 Clouds 16 1014 72 10000 6.2 40 08:19 25.03.2020
6098 Clouds 15 1013 82 6000 4.6 40 07:41 25.03.2020
6099 Clouds 15 1013 82 6000 4.6 40 07:22 25.03.2020
6100 Clouds 14 1013 87 6000 4.6 30 06:50 25.03.2020
6101 Clouds 14 1013 87 6000 3.6 30 06:28 25.03.2020
6102 Clouds 14 1013 87 6000 3.6 30 05:56 25.03.2020
6103 Clouds 14 1013 87 6000 3.6 30 05:30 25.03.2020
6104 Clouds 14 1012 87 6000 3.6 360 04:39 25.03.2020
6105 Clouds 14 1012 87 6000 3.6 360 03:36 25.03.2020
6106 Clear 14 1012 82 10000 2.6 360 02:40 25.03.2020
6107 Clear 15 1013 82 10000 4.1 360 01:23 25.03.2020
6108 Clear 15 1013 82 10000 4.1 360 00:49 25.03.2020
6109 Clear 15 1013 77 10000 3.6 40 00:24 25.03.2020
6110 Clear 15 1013 77 10000 4.1 20 23:46 24.03.2020
6111 Clear 15 1013 77 10000 4.1 20 23:28 24.03.2020
6112 Clear 16 1013 72 10000 5.7 30 22:57 24.03.2020
6113 Clear 16 1013 72 10000 6.2 20 22:38 24.03.2020
6114 Clear 16 1013 72 10000 6.2 20 22:19 24.03.2020
6115 Clear 16 1013 72 10000 6.2 20 22:19 24.03.2020
6116 Clear 16 1013 72 10000 6.2 20 22:19 24.03.2020
6117 Clear 16 1013 72 10000 6.2 30 21:56 24.03.2020
6118 Clear 16 1013 72 10000 5.1 40 21:38 24.03.2020
6119 Clear 17 1013 72 10000 5.1 40 21:18 24.03.2020
6120 Clear 17 1013 72 10000 5.1 40 21:18 24.03.2020
6121 Clear 17 1013 72 10000 6.2 40 20:57 24.03.2020
6122 Clear 17 1013 72 10000 6.2 40 20:39 24.03.2020
6123 Clear 17 1013 72 10000 6.2 40 20:21 24.03.2020
6124 Clear 18 1012 68 10000 6.2 350 19:45 24.03.2020
6125 Clear 19 1012 68 10000 6.2 350 19:19 24.03.2020
6126 Clear 19 1012 60 10000 6.2 340 18:56 24.03.2020
6127 Clear 19 1012 60 10000 6.2 340 18:56 24.03.2020
6128 Clear 20 1012 60 10000 6.2 340 18:37 24.03.2020
6129 Clear 20 1012 60 10000 6.2 340 18:37 24.03.2020
6130 Clear 20 1011 60 10000 6.2 350 18:19 24.03.2020
6131 Clear 21 1010 52 10000 6.7 340 17:43 24.03.2020
6132 Clear 21 1010 52 10000 6.7 340 17:24 24.03.2020
6133 Clear 23 1010 46 10000 5.7 340 16:59 24.03.2020
6134 Clear 23 1010 36 10000 5.1 320 16:41 24.03.2020
6135 Clear 24 1010 36 10000 5.1 320 16:23 24.03.2020
6136 Clear 24 1009 38 10000 5.1 300 15:59 24.03.2020
6137 Clear 25 1009 33 10000 5.1 300 15:40 24.03.2020
6138 Clear 25 1009 33 10000 5.1 300 15:22 24.03.2020
6139 Clear 25 1010 36 10000 5.1 300 14:43 24.03.2020
6140 Clear 25 1010 36 10000 5.1 300 14:43 24.03.2020
6141 Clear 24 1010 38 10000 5.1 300 14:43 24.03.2020
6142 Clouds 24 1010 38 10000 5.1 300 14:22 24.03.2020
6143 Clouds 25 1010 38 10000 5.1 290 13:55 24.03.2020
6144 Clouds 25 1010 31 10000 4.6 270 13:36 24.03.2020
6145 Clouds 25 1010 31 10000 4.6 270 13:18 24.03.2020
6146 Clouds 25 1011 31 10000 5.1 260 12:41 24.03.2020
6147 Clouds 24 1011 31 10000 5.1 260 12:23 24.03.2020
6148 Clouds 23 1011 35 6000 3.6 280 11:41 24.03.2020
6149 Clouds 23 1011 35 6000 3.6 280 11:21 24.03.2020
6150 Clouds 23 1011 28 6000 3.6 240 10:59 24.03.2020
6151 Clouds 22 1011 30 6000 3.6 250 10:40 24.03.2020
6152 Clouds 22 1011 30 6000 3.6 250 10:40 24.03.2020
6153 Dust 22 1011 30 4000 3.6 270 10:18 24.03.2020
6154 Dust 22 1011 30 4000 3.6 270 10:18 24.03.2020
6155 Dust 22 1011 30 4000 3.6 270 10:18 24.03.2020
6156 Dust 21 1011 34 4000 2.6 240 09:44 24.03.2020
6157 Dust 20 1011 34 4000 2.6 240 09:25 24.03.2020
6158 Dust 20 1011 34 4000 1 290 08:57 24.03.2020
6159 Dust 20 1011 34 4000 1 290 08:37 24.03.2020
6160 Dust 20 1011 34 4000 1 290 08:18 24.03.2020
6161 Dust 19 1011 39 4000 2.1 290 07:44 24.03.2020
6162 Dust 18 1011 39 4000 2.1 290 07:22 24.03.2020
6163 Dust 18 1011 39 4000 2.1 290 07:22 24.03.2020
6164 Dust 17 1010 36 4000 1 300 06:40 24.03.2020
6165 Dust 17 1010 36 4000 1 300 06:21 24.03.2020
6166 Dust 17 1009 36 4000 1.93 242 04:52 24.03.2020
6167 Dust 17 1009 33 3000 1.5 190 03:32 24.03.2020
6168 Dust 17 1009 36 3000 2.1 230 02:44 24.03.2020
6169 Dust 19 1010 32 3000 2.6 180 00:57 24.03.2020
6170 Dust 19 1010 34 3000 1 180 00:28 24.03.2020
6171 Dust 19 1010 34 3000 1 240 23:59 23.03.2020
6172 Dust 19 1010 32 3000 2.6 280 23:38 23.03.2020
6173 Dust 21 1010 30 3000 2.1 270 23:19 23.03.2020
6174 Dust 22 1009 23 3000 4.6 270 22:45 23.03.2020
6175 Dust 23 1009 23 3000 4.6 270 22:23 23.03.2020
6176 Dust 22 1009 28 3000 3.6 200 21:55 23.03.2020
6177 Dust 22 1009 27 3000 3.6 200 21:37 23.03.2020
6178 Dust 22 1009 27 3000 3.6 200 21:37 23.03.2020
6179 Dust 23 1009 27 3000 3.6 200 21:37 23.03.2020
6180 Dust 23 1009 27 3000 3.6 200 21:19 23.03.2020
6181 Sand 23 1009 27 2000 5.7 210 20:56 23.03.2020
6182 Sand 23 1009 25 2000 5.7 210 20:38 23.03.2020
6183 Sand 24 1009 25 2000 5.7 210 20:19 23.03.2020
6184 Sand 25 1008 22 2000 5.7 200 19:42 23.03.2020
6185 Sand 25 1008 22 2000 5.7 200 19:23 23.03.2020
6186 Sand 26 1008 21 2000 6.2 190 18:56 23.03.2020
6187 Sand 26 1008 19 2000 6.7 200 18:38 23.03.2020
6188 Sand 26 1008 21 2000 6.7 200 18:19 23.03.2020
6189 Sand 26 1008 26 2000 8.7 200 17:41 23.03.2020
6190 Sand 27 1008 20 2000 8.7 200 17:20 23.03.2020
6191 Sand 27 1007 15 2000 7.7 200 16:56 23.03.2020
6192 Sand 27 1007 14 3000 8.2 190 16:37 23.03.2020
6193 Sand 28 1007 14 3000 8.2 190 16:18 23.03.2020
6194 Sand 27 1008 14 3000 9.3 180 15:41 23.03.2020
6195 Sand 27 1008 14 3000 9.3 180 15:19 23.03.2020
6196 Clouds 27 1008 15 6000 10.3 190 14:38 23.03.2020
6197 Clouds 27 1008 15 6000 10.3 190 14:20 23.03.2020
6198 Clouds 27 1008 15 6000 10.3 190 14:20 23.03.2020
6199 Clouds 27 1008 15 6000 12.3 190 13:58 23.03.2020
6200 Clouds 28 1008 14 6000 10.8 210 13:40 23.03.2020
6201 Clouds 27 1008 14 6000 10.8 210 13:40 23.03.2020
6202 Clouds 28 1008 14 6000 10.8 210 13:20 23.03.2020
6203 Clouds 27 1008 14 6000 13.4 190 12:44 23.03.2020
6204 Clouds 27 1008 14 6000 13.4 190 12:25 23.03.2020
6205 Clouds 27 1009 11 6000 13.4 180 11:59 23.03.2020
6206 Clouds 28 1008 13 6000 14.4 190 11:59 23.03.2020
6207 Clouds 27 1009 11 6000 13.4 180 11:39 23.03.2020
6208 Clouds 27 1009 11 6000 13.4 180 11:19 23.03.2020
6209 Clouds 27 1009 10 6000 11.8 190 10:57 23.03.2020
6210 Clouds 27 1010 10 6000 12.3 180 10:38 23.03.2020
6211 Clouds 27 1010 10 6000 12.3 180 10:20 23.03.2020
6212 Clouds 27 1010 10 6000 13.4 180 09:44 23.03.2020
6213 Clouds 26 1010 9 10000 13.4 180 09:21 23.03.2020
6214 Clouds 25 1011 12 10000 6.7 180 08:57 23.03.2020
6215 Clouds 24 1011 12 10000 6.7 180 08:36 23.03.2020
6216 Rain 24 1011 12 10000 6.7 180 08:18 23.03.2020
6217 Rain 18 1011 36 10000 4.6 60 07:42 23.03.2020
6218 Rain 18 1011 36 10000 4.6 60 07:23 23.03.2020
6219 Rain 18 1011 31 10000 4.6 90 06:49 23.03.2020
6220 Rain 16 1012 41 10000 2.1 70 05:54 23.03.2020
6221 Rain 16 1012 41 10000 2.1 40 05:29 23.03.2020
6222 Rain 16 1011 31 10000 4.1 50 03:28 23.03.2020
6223 Clouds 16 1013 31 10000 1 190 01:51 23.03.2020
6224 Clouds 16 1013 31 10000 2.6 90 01:33 23.03.2020
6225 Clouds 16 1013 31 10000 2.1 110 00:39 23.03.2020
6226 Clouds 17 1013 23 10000 4.1 110 23:48 22.03.2020
6227 Clouds 17 1013 23 10000 4.1 110 23:26 22.03.2020
6228 Clear 17 1014 23 10000 3.1 140 22:45 22.03.2020
6229 Clear 17 1014 23 10000 3.1 140 22:26 22.03.2020
6230 Clear 17 1014 29 10000 2.6 150 21:57 22.03.2020
6231 Clear 17 1014 29 10000 2.6 150 21:39 22.03.2020
6232 Clear 17 1014 29 10000 2.6 150 21:20 22.03.2020
6233 Clear 17 1015 29 10000 3.1 140 20:54 22.03.2020
6234 Clear 18 1015 29 10000 3.1 140 20:36 22.03.2020
6235 Clear 18 1015 33 10000 3.1 140 20:18 22.03.2020
6236 Clear 19 1015 32 10000 3.1 120 19:54 22.03.2020
6237 Clear 19 1015 32 10000 3.1 120 19:36 22.03.2020
6238 Clear 19 1015 32 10000 3.1 120 19:18 22.03.2020
6239 Clear 20 1015 28 10000 5.1 70 18:41 22.03.2020
6240 Clear 20 1015 28 10000 5.1 70 18:22 22.03.2020
6241 Clear 20 1014 28 10000 5.1 70 17:59 22.03.2020
6242 Clear 21 1015 32 10000 4.1 80 17:39 22.03.2020
6243 Clear 21 1015 20 10000 4.1 80 17:21 22.03.2020
6244 Clear 21 1014 26 10000 5.7 70 16:59 22.03.2020
6245 Clouds 21 1015 26 10000 6.2 50 16:41 22.03.2020
6246 Clouds 21 1015 26 10000 6.2 50 16:22 22.03.2020
6247 Clouds 21 1015 20 10000 5.1 50 15:58 22.03.2020
6248 Clouds 21 1015 20 10000 5.1 50 15:39 22.03.2020
6249 Clouds 21 1016 22 10000 2.6 60 14:47 22.03.2020
6250 Clouds 21 1016 22 10000 4.1 50 14:20 22.03.2020
6251 Clouds 20 1017 22 10000 3.1 30 13:58 22.03.2020
6252 Clouds 20 1017 22 10000 3.1 30 13:40 22.03.2020
6253 Clouds 20 1017 22 10000 3.1 30 13:19 22.03.2020
6254 Clouds 19 1018 22 10000 3.1 40 12:44 22.03.2020
6255 Clouds 19 1018 22 10000 3.1 40 12:23 22.03.2020
6256 Clouds 18 1017 25 10000 4.1 60 11:58 22.03.2020
6257 Clouds 18 1017 25 10000 4.1 60 11:39 22.03.2020
6258 Clouds 18 1017 25 10000 4.1 60 11:21 22.03.2020
6259 Clouds 17 1018 33 10000 3.1 70 10:44 22.03.2020
6260 Clouds 17 1018 33 10000 3.1 70 10:24 22.03.2020
6261 Clouds 17 1018 33 10000 3.1 70 10:24 22.03.2020
6262 Clouds 16 1018 36 10000 4.1 60 10:00 22.03.2020
6263 Clouds 16 1019 36 10000 4.1 80 09:40 22.03.2020
6264 Clouds 16 1019 36 10000 4.1 80 09:19 22.03.2020
6265 Clouds 15 1019 41 10000 3.6 90 08:42 22.03.2020
6266 Clouds 15 1019 41 10000 3.6 90 08:24 22.03.2020
6267 Clouds 15 1019 44 10000 3.1 100 07:50 22.03.2020
6268 Clouds 14 1018 50 10000 3.6 110 07:22 22.03.2020
6269 Clouds 12 1018 62 10000 2.6 110 06:35 22.03.2020
6270 Clouds 10 1018 66 10000 3.51 108 05:31 22.03.2020
6271 Clouds 11 1018 62 10000 2.55 98 03:25 22.03.2020
6272 Clouds 11 1018 62 10000 3.09 95 01:26 22.03.2020
6273 Clouds 11 1018 62 10000 3.09 95 00:47 22.03.2020
6274 Clouds 11 1018 57 10000 3.09 95 00:25 22.03.2020
6275 Clouds 12 1018 54 10000 4.1 80 23:43 21.03.2020
6276 Clouds 12 1018 54 10000 4.1 80 23:19 21.03.2020
6277 Clouds 12 1018 54 10000 4.1 80 23:19 21.03.2020
6278 Clouds 13 1018 50 10000 3.1 60 22:55 21.03.2020
6279 Clouds 13 1018 50 10000 3.1 60 22:36 21.03.2020
6280 Clouds 13 1018 50 10000 3.1 60 22:18 21.03.2020
6281 Clouds 14 1018 47 10000 3.1 60 21:42 21.03.2020
6282 Clouds 14 1018 47 10000 3.1 60 21:23 21.03.2020
6283 Clouds 14 1018 47 10000 6.2 40 20:59 21.03.2020
6284 Clouds 14 1017 47 10000 6.2 40 20:41 21.03.2020
6285 Clouds 14 1017 47 10000 6.2 40 20:19 21.03.2020
6286 Clouds 15 1017 47 10000 6.2 40 19:44 21.03.2020
6287 Clouds 15 1017 47 10000 6.2 40 19:25 21.03.2020
6288 Clouds 16 1016 41 10000 6.2 10 18:59 21.03.2020
6289 Clouds 16 1016 41 10000 6.2 10 18:39 21.03.2020
6290 Clouds 16 1016 41 10000 6.2 10 18:20 21.03.2020
6291 Clouds 16 1015 41 10000 6.2 10 17:57 21.03.2020
6292 Clouds 16 1015 41 10000 6.2 10 17:39 21.03.2020
6293 Clouds 16 1015 36 10000 6.2 10 17:20 21.03.2020
6294 Clouds 17 1015 39 10000 6.2 360 16:41 21.03.2020
6295 Clouds 17 1015 39 10000 6.2 360 16:22 21.03.2020
6296 Clouds 17 1015 39 10000 6.7 360 15:57 21.03.2020
6297 Clouds 17 1015 42 10000 6.7 340 15:39 21.03.2020
6298 Clouds 17 1015 42 10000 6.7 340 15:20 21.03.2020
6299 Clouds 17 1015 42 10000 5.7 340 14:54 21.03.2020
6300 Clouds 17 1015 36 10000 6.7 350 14:36 21.03.2020
6301 Clouds 18 1015 36 10000 6.7 350 14:18 21.03.2020
6302 Clouds 18 1015 36 10000 5.7 310 13:57 21.03.2020
6303 Clouds 18 1015 34 10000 3.6 290 13:38 21.03.2020
6304 Clouds 17 1015 36 10000 4.1 320 13:19 21.03.2020
6305 Clouds 17 1016 39 10000 4.1 330 12:41 21.03.2020
6306 Clouds 16 1016 41 10000 4.6 330 12:20 21.03.2020
6307 Clouds 16 1016 41 10000 4.6 330 11:59 21.03.2020
6308 Clouds 16 1016 44 10000 5.1 320 11:39 21.03.2020
6309 Clouds 16 1016 44 10000 5.1 320 11:20 21.03.2020
6310 Clouds 16 1016 48 10000 4.1 300 10:58 21.03.2020
6311 Clouds 15 1016 51 10000 3.1 310 10:39 21.03.2020
6312 Clouds 15 1016 51 10000 3.1 310 10:21 21.03.2020
6313 Clouds 15 1016 51 10000 3.1 310 09:59 21.03.2020
6314 Clouds 15 1017 51 10000 2.6 320 09:39 21.03.2020
6315 Clouds 15 1017 51 10000 2.6 320 09:20 21.03.2020
6316 Clouds 14 1016 54 10000 3.6 300 08:55 21.03.2020
6317 Clouds 13 1016 62 10000 2.6 270 08:37 21.03.2020
6318 Clouds 13 1016 62 10000 2.6 270 08:19 21.03.2020
6319 Clear 12 1016 71 10000 3.1 240 07:37 21.03.2020
6320 Clear 12 1016 71 10000 3.1 240 07:19 21.03.2020
6321 Clear 12 1016 71 10000 3.1 240 06:44 21.03.2020
6322 Clear 11 1016 71 10000 3.1 240 06:24 21.03.2020
6323 Clear 10 1015 76 10000 2.6 240 05:40 21.03.2020
6324 Clear 10 1015 76 10000 2.6 230 04:26 21.03.2020
6325 Clear 11 1015 71 0 1.79 250 02:37 21.03.2020
6326 Clouds 11 1015 66 10000 3.1 260 01:45 21.03.2020
6327 Clouds 11 1015 66 10000 3.1 260 01:25 21.03.2020
6328 Clouds 12 1016 62 10000 4.6 250 00:43 21.03.2020
6329 Clouds 12 1016 62 10000 4.1 260 00:23 21.03.2020
6330 Clouds 12 1016 66 10000 4.6 260 23:44 20.03.2020
6331 Clouds 12 1016 66 10000 4.6 260 23:22 20.03.2020
6332 Clouds 12 1016 58 10000 4.1 250 22:44 20.03.2020
6333 Clouds 13 1016 58 10000 4.1 250 22:25 20.03.2020
6334 Clouds 13 1016 58 10000 6.2 270 21:59 20.03.2020
6335 Clouds 13 1016 54 10000 6.2 260 21:40 20.03.2020
6336 Clouds 13 1016 54 10000 6.2 260 21:20 20.03.2020
6337 Clouds 13 1016 54 10000 6.2 260 20:59 20.03.2020
6338 Clouds 13 1016 54 10000 7.2 260 20:41 20.03.2020
6339 Clouds 13 1016 54 10000 7.2 260 20:20 20.03.2020
6340 Clouds 13 1016 54 10000 8.2 280 19:48 20.03.2020
6341 Clouds 13 1016 54 10000 7.2 280 19:22 20.03.2020
6342 Clouds 14 1015 47 10000 8.2 290 18:58 20.03.2020
6343 Clouds 14 1015 47 10000 8.7 290 18:39 20.03.2020
6344 Clouds 14 1015 47 10000 8.7 290 18:20 20.03.2020
6345 Clouds 14 1015 47 10000 6.7 300 17:56 20.03.2020
6346 Clouds 14 1014 41 10000 8.7 280 17:38 20.03.2020
6347 Clouds 16 1014 41 10000 11.3 260 17:19 20.03.2020
6348 Clouds 16 1014 41 10000 11.3 260 16:42 20.03.2020
6349 Clouds 16 1014 41 10000 11.3 260 16:21 20.03.2020
6350 Clouds 16 1014 44 10000 8.7 270 15:56 20.03.2020
6351 Clouds 16 1014 44 10000 8.7 270 15:37 20.03.2020
6352 Clouds 16 1014 44 10000 8.7 270 15:19 20.03.2020
6353 Clouds 16 1014 51 10000 9.8 300 14:42 20.03.2020
6354 Clouds 16 1014 51 10000 9.8 300 14:21 20.03.2020
6355 Rain 17 1014 45 10000 5.7 250 13:50 20.03.2020
6356 Clouds 17 1014 45 10000 5.7 250 13:26 20.03.2020
6357 Clouds 16 1015 48 10000 6.7 250 12:59 20.03.2020
6358 Clouds 16 1015 48 10000 6.7 250 12:38 20.03.2020
6359 Clouds 16 1015 48 10000 6.7 250 12:20 20.03.2020
6360 Clouds 16 1016 44 10000 6.2 260 11:41 20.03.2020
6361 Clouds 16 1016 44 10000 6.2 260 11:21 20.03.2020
6362 Clouds 16 1016 44 10000 7.2 260 10:58 20.03.2020
6363 Clouds 15 1017 44 10000 6.7 240 10:40 20.03.2020
6364 Clouds 15 1017 44 10000 6.7 240 10:18 20.03.2020
6365 Clouds 15 1017 44 10000 7.2 250 09:46 20.03.2020
6366 Clouds 15 1017 51 10000 3.6 230 09:21 20.03.2020
6367 Clouds 14 1017 54 10000 4.6 220 08:58 20.03.2020
6368 Clouds 13 1017 58 10000 5.1 210 08:39 20.03.2020
6369 Rain 13 1017 58 10000 5.1 210 08:19 20.03.2020
6370 Rain 13 1017 58 10000 5.1 200 07:45 20.03.2020
6371 Rain 12 1017 62 10000 5.7 210 07:26 20.03.2020
6372 Rain 11 1016 62 10000 4.6 200 06:43 20.03.2020
6373 Rain 11 1016 62 10000 4.6 200 06:22 20.03.2020
6374 Clear 11 1016 57 10000 3.6 220 04:49 20.03.2020
6375 Clear 11 1016 58 10000 3.1 240 03:18 20.03.2020
6376 Clear 12 1017 54 10000 4.1 250 01:51 20.03.2020
6377 Clear 12 1017 54 10000 4.6 260 00:46 20.03.2020
6378 Clear 12 1017 54 10000 4.6 260 00:24 20.03.2020
6379 Clear 12 1018 50 10000 4.1 250 23:42 19.03.2020
6380 Clear 12 1018 50 10000 4.1 250 23:23 19.03.2020
6381 Clear 12 1018 50 10000 3.6 270 22:55 19.03.2020
6382 Clear 12 1019 50 10000 3.6 260 22:37 19.03.2020
6383 Clear 12 1019 50 10000 3.6 260 22:18 19.03.2020
6384 Clear 12 1019 54 10000 5.1 280 21:40 19.03.2020
6385 Clear 12 1019 54 10000 5.1 280 21:20 19.03.2020
6386 Clear 13 1019 50 10000 7.7 280 20:55 19.03.2020
6387 Clear 13 1019 50 10000 7.7 280 20:37 19.03.2020
6388 Clear 13 1019 50 10000 7.7 280 20:19 19.03.2020
6389 Clear 13 1018 50 10000 6.7 280 19:54 19.03.2020
6390 Clear 14 1018 50 10000 7.2 300 19:36 19.03.2020
6391 Clouds 14 1018 50 10000 5.7 300 19:18 19.03.2020
6392 Clouds 14 1017 47 10000 6.7 290 18:41 19.03.2020
6393 Clouds 15 1017 47 10000 6.7 290 18:22 19.03.2020
6394 Clouds 15 1017 47 10000 6.2 290 17:56 19.03.2020
6395 Clouds 16 1017 44 10000 7.2 280 17:38 19.03.2020
6396 Clouds 16 1017 44 10000 7.2 280 17:18 19.03.2020
6397 Clouds 16 1017 39 10000 8.2 290 16:43 19.03.2020
6398 Clouds 17 1017 39 10000 8.2 290 16:22 19.03.2020
6399 Clouds 17 1016 48 10000 8.7 300 15:44 19.03.2020
6400 Clouds 17 1016 48 10000 8.7 300 15:25 19.03.2020
6401 Clouds 17 1016 45 10000 7.2 310 14:55 19.03.2020
6402 Clouds 19 1016 32 10000 8.7 280 14:37 19.03.2020
6403 Clouds 19 1016 32 10000 8.7 280 14:18 19.03.2020
6404 Clouds 19 1017 34 10000 6.7 270 13:39 19.03.2020
6405 Clouds 19 1017 34 10000 6.7 270 13:19 19.03.2020
6406 Clouds 19 1017 34 10000 7.2 270 12:55 19.03.2020
6407 Clouds 19 1017 34 10000 7.7 260 12:37 19.03.2020
6408 Clouds 19 1017 34 10000 7.7 260 12:18 19.03.2020
6409 Clouds 17 1018 42 10000 5.1 260 11:41 19.03.2020
6410 Clouds 17 1018 42 10000 5.1 260 11:23 19.03.2020
6411 Clouds 17 1018 48 10000 5.1 270 10:56 19.03.2020
6412 Clouds 16 1019 48 10000 6.2 260 10:36 19.03.2020
6413 -273 0 0 0 0 0 10:18 19.03.2020
6414 Clouds 15 1019 54 10000 6.2 260 09:42 19.03.2020
6415 Clouds 15 1019 54 10000 6.2 260 09:24 19.03.2020
6416 Clouds 15 1019 58 10000 6.2 260 08:48 19.03.2020
6417 Clouds 15 1019 62 10000 3.6 230 08:23 19.03.2020
6418 Clouds 14 1018 67 10000 3.6 230 07:57 19.03.2020
6419 Clouds 14 1018 67 10000 3.6 230 07:38 19.03.2020
6420 Clouds 14 1018 67 10000 4.1 240 07:18 19.03.2020
6421 Clouds 13 1018 66 10000 4.1 240 06:27 19.03.2020
6422 Clouds 13 1018 66 10000 4.1 240 05:25 19.03.2020
6423 Clouds 13 1018 66 10000 4.1 240 04:47 19.03.2020
6424 Clouds 13 1018 66 10000 4.1 240 03:55 19.03.2020
6425 Clouds 14 1018 62 10000 5.1 250 01:46 19.03.2020
6426 Clouds 14 1019 62 10000 4.1 260 00:53 19.03.2020
6427 Clouds 14 1019 62 10000 4.1 260 00:19 19.03.2020
6428 Clouds 14 1019 62 10000 4.1 260 23:43 18.03.2020
6429 Clouds 14 1019 62 10000 4.1 260 23:23 18.03.2020
6430 Clouds 14 1018 62 10000 4.1 260 22:43 18.03.2020
6431 Clouds 14 1018 62 10000 4.1 260 22:23 18.03.2020
6432 Clouds 14 1019 58 10000 5.1 280 21:58 18.03.2020
6433 Clouds 15 1019 58 10000 5.1 280 21:40 18.03.2020
6434 Clouds 15 1018 54 10000 6.2 280 21:20 18.03.2020
6435 Clouds 15 1018 54 10000 6.2 280 20:55 18.03.2020
6436 Clouds 15 1018 54 10000 6.2 280 20:37 18.03.2020
6437 Clouds 15 1018 54 10000 6.2 280 20:19 18.03.2020
6438 Clouds 15 1018 54 10000 5.1 280 19:41 18.03.2020
6439 Clouds 15 1018 54 10000 5.1 280 19:21 18.03.2020
6440 Clouds 16 1018 51 10000 6.2 280 18:59 18.03.2020
6441 Clouds 16 1017 51 10000 6.2 280 18:40 18.03.2020
6442 Clouds 16 1017 51 10000 6.2 280 18:19 18.03.2020
6443 Clouds 16 1017 51 10000 6.2 280 18:19 18.03.2020
6444 Clouds 16 1017 51 10000 6.2 280 17:56 18.03.2020
6445 Clouds 17 1017 48 10000 7.2 280 17:38 18.03.2020
6446 Clouds 17 1017 48 10000 7.2 280 17:19 18.03.2020
6447 Clouds 18 1016 42 10000 7.2 290 16:43 18.03.2020
6448 Clouds 18 1016 42 10000 7.2 290 16:21 18.03.2020
6449 Clouds 19 1016 42 10000 7.2 280 15:58 18.03.2020
6450 Clouds 19 1016 42 10000 7.2 280 15:38 18.03.2020
6451 Clouds 19 1016 42 10000 7.2 280 15:20 18.03.2020
6452 Clouds 18 1016 42 10000 6.2 260 14:43 18.03.2020
6453 Clouds 18 1016 42 10000 6.2 260 14:21 18.03.2020
6454 Clouds 18 1016 42 10000 6.2 270 13:42 18.03.2020
6455 Clouds 18 1016 42 10000 6.2 270 13:19 18.03.2020
6456 Clouds 18 1016 42 10000 6.2 270 13:19 18.03.2020
6457 Clouds 18 1016 42 10000 6.7 250 12:55 18.03.2020
6458 Clouds 18 1016 42 10000 6.7 250 12:37 18.03.2020
6459 Clouds 17 1017 45 10000 7.2 250 12:19 18.03.2020
6460 Clouds 17 1017 45 10000 7.2 250 11:38 18.03.2020
6461 Clouds 16 1017 48 10000 6.2 260 11:19 18.03.2020
6462 Clouds 16 1017 48 10000 6.2 260 10:57 18.03.2020
6463 Clouds 16 1017 48 10000 7.2 260 10:37 18.03.2020
6464 Clouds 16 1017 48 10000 7.2 260 10:19 18.03.2020
6465 Clouds 16 1017 48 10000 7.2 270 09:43 18.03.2020
6466 Clouds 15 1018 47 10000 6.7 260 09:24 18.03.2020
6467 Clouds 15 1018 47 10000 6.2 260 08:56 18.03.2020
6468 Clouds 14 1018 50 10000 6.2 250 08:38 18.03.2020
6469 Clouds 14 1018 50 10000 6.2 250 08:20 18.03.2020
6470 Clouds 14 1017 50 10000 5.1 260 07:44 18.03.2020
6471 Clouds 14 1017 50 10000 5.1 260 07:25 18.03.2020
6472 Clouds 12 1017 58 10000 4.6 250 06:44 18.03.2020
6473 Clouds 12 1017 58 10000 4.1 260 06:18 18.03.2020
6474 Clouds 12 1017 58 10000 4.1 260 05:34 18.03.2020
6475 Clouds 11 1016 62 10000 3.6 220 04:24 18.03.2020
6476 Clouds 12 1016 54 10000 4.6 250 02:43 18.03.2020
6477 Clouds 12 1017 50 10000 4.6 280 01:48 18.03.2020
6478 Clouds 12 1017 50 10000 4.6 280 01:26 18.03.2020
6479 Clouds 12 1017 54 10000 5.7 290 00:24 18.03.2020
6480 Clouds 12 1017 54 10000 6.2 280 23:47 17.03.2020
6481 Clouds 12 1017 54 10000 6.2 280 23:27 17.03.2020
6482 Clouds 12 1018 54 10000 6.2 280 22:57 17.03.2020
6483 Clouds 12 1018 54 10000 7.7 280 22:37 17.03.2020
6484 Clouds 12 1018 50 10000 9.8 280 22:19 17.03.2020
6485 Clouds 13 1017 54 10000 6.7 280 21:39 17.03.2020
6486 Clouds 13 1017 54 10000 6.7 280 21:21 17.03.2020
6487 Clouds 13 1017 54 10000 6.7 280 21:21 17.03.2020
6488 Clouds 13 1017 50 10000 7.2 280 20:40 17.03.2020
6489 Clouds 13 1017 50 10000 7.2 280 20:40 17.03.2020
6490 Clouds 13 1017 50 10000 7.2 280 20:21 17.03.2020
6491 Clouds 13 1017 54 10000 8.2 280 19:58 17.03.2020
6492 Clouds 13 1017 50 10000 8.2 300 19:39 17.03.2020
6493 Clouds 13 1017 50 10000 8.2 300 19:18 17.03.2020
6494 Clouds 13 1017 50 10000 8.7 290 18:56 17.03.2020
6495 Clouds 13 1016 50 10000 8.2 300 18:37 17.03.2020
6496 Clouds 14 1016 50 10000 8.2 300 18:19 17.03.2020
6497 Clouds 15 1015 47 10000 9.3 280 17:40 17.03.2020
6498 Clouds 15 1015 41 10000 10.3 290 17:21 17.03.2020
6499 Clouds 16 1015 41 10000 10.3 290 16:55 17.03.2020
6500 Clouds 16 1015 55 10000 11.8 280 16:37 17.03.2020
6501 Clouds 16 1015 55 10000 11.8 280 16:18 17.03.2020
6502 Clouds 17 1014 42 10000 10.8 280 15:43 17.03.2020
6503 Clouds 17 1014 45 10000 10.3 270 15:21 17.03.2020
6504 Clouds 18 1014 45 10000 9.8 270 14:42 17.03.2020
6505 Clouds 18 1014 45 10000 9.8 270 14:42 17.03.2020
6506 Clouds 18 1014 36 10000 10.8 270 14:21 17.03.2020
6507 Clouds 18 1014 36 10000 10.8 260 13:45 17.03.2020
6508 Clouds 18 1014 36 10000 10.8 260 13:27 17.03.2020
6509 Clouds 18 1014 36 10000 10.8 260 12:58 17.03.2020
6510 Clouds 18 1015 48 10000 8.7 280 12:40 17.03.2020
6511 Clouds 18 1015 48 10000 8.7 280 12:22 17.03.2020
6512 Clouds 18 1015 42 10000 8.2 270 11:47 17.03.2020
6513 Clouds 17 1015 55 10000 7.7 270 11:28 17.03.2020
6514 Clouds 17 1016 59 10000 6.7 270 10:58 17.03.2020
6515 Clouds 16 1016 67 10000 7.7 290 10:38 17.03.2020
6516 Clouds 16 1016 67 10000 7.7 290 10:20 17.03.2020
6517 Clouds 16 1016 72 10000 7.7 290 09:59 17.03.2020
6518 Clouds 16 1016 77 10000 5.7 280 09:39 17.03.2020
6519 Clouds 16 1016 77 10000 5.7 280 09:19 17.03.2020
6520 Clouds 16 1016 82 10000 3.6 290 08:47 17.03.2020
6521 Clouds 16 1016 82 10000 3.6 290 08:22 17.03.2020
6522 Clouds 15 1016 87 10000 3.6 320 07:50 17.03.2020
6523 Clouds 15 1016 87 10000 3.6 320 07:26 17.03.2020
6524 Clouds 15 1016 87 10000 2.1 310 06:58 17.03.2020
6525 Clouds 15 1016 82 10000 4.6 290 06:33 17.03.2020
6526 Clouds 15 1016 82 10000 3.1 300 05:49 17.03.2020
6527 Clouds 15 1015 77 10000 4.1 310 03:43 17.03.2020
6528 Clouds 15 1015 82 6000 3.6 330 02:46 17.03.2020
6529 Clouds 15 1015 82 6000 4.1 320 01:43 17.03.2020
6530 Clouds 15 1016 87 6000 4.1 330 01:24 17.03.2020
6531 Clouds 16 1016 82 6000 4.6 330 00:31 17.03.2020
6532 Clouds 16 1016 87 6000 5.1 360 23:45 16.03.2020
6533 Clouds 16 1016 87 6000 5.1 360 23:27 16.03.2020
6534 Clouds 16 1016 82 6000 5.7 340 22:41 16.03.2020
6535 Clouds 16 1016 82 6000 5.7 340 22:41 16.03.2020
6536 Clouds 17 1016 82 6000 5.7 340 22:23 16.03.2020
6537 Clouds 17 1016 82 6000 5.1 340 21:57 16.03.2020
6538 Clouds 17 1016 82 6000 4.1 350 21:39 16.03.2020
6539 Clouds 18 1016 82 6000 4.1 350 21:21 16.03.2020
6540 Clouds 18 1016 88 6000 5.1 360 20:56 16.03.2020
6541 Clouds 18 1016 88 6000 5.7 340 20:37 16.03.2020
6542 Clouds 18 1016 88 6000 5.7 340 20:18 16.03.2020
6543 Clouds 19 1016 77 6000 6.2 360 19:41 16.03.2020
6544 Clouds 20 1016 77 6000 6.2 360 19:20 16.03.2020
6545 Clear 21 1015 53 6000 4.6 330 18:43 16.03.2020
6546 Clear 22 1015 53 6000 4.6 330 18:21 16.03.2020
6547 Clouds 22 1014 53 10000 5.7 340 17:56 16.03.2020
6548 Clouds 22 1014 49 10000 5.1 340 17:37 16.03.2020
6549 Clouds 23 1014 49 10000 5.1 340 17:18 16.03.2020
6550 Clouds 24 1013 44 10000 5.1 320 16:45 16.03.2020
6551 Clouds 24 1013 44 10000 5.1 320 16:27 16.03.2020
6552 Clouds 25 1013 44 10000 4.6 300 15:46 16.03.2020
6553 Clouds 25 1013 44 10000 4.6 300 15:28 16.03.2020
6554 Clouds 26 1014 31 10000 3.6 280 14:49 16.03.2020
6555 Clouds 26 1014 31 10000 3.6 280 14:28 16.03.2020
6556 Clouds 26 1014 31 10000 3.6 260 13:59 16.03.2020
6557 Clouds 26 1014 31 10000 3.6 260 13:41 16.03.2020
6558 Clouds 26 1014 31 10000 3.6 260 13:22 16.03.2020
6559 Clouds 25 1015 38 10000 3.1 240 12:45 16.03.2020
6560 Clouds 25 1015 38 10000 3.1 240 12:24 16.03.2020
6561 Clouds 25 1015 38 10000 3.1 240 11:56 16.03.2020
6562 Clear 24 1015 41 10000 3.1 260 11:37 16.03.2020
6563 Clear 23 1016 46 10000 3.1 240 11:18 16.03.2020
6564 Clear 23 1016 46 10000 3.1 240 10:40 16.03.2020
6565 Clear 23 1016 46 10000 3.1 240 10:19 16.03.2020
6566 Clear 22 1016 49 10000 3.1 220 09:42 16.03.2020
6567 Clear 22 1016 49 10000 3.1 220 09:24 16.03.2020
6568 Clear 21 1016 60 10000 4.1 210 08:54 16.03.2020
6569 Clear 21 1016 60 10000 4.1 210 08:25 16.03.2020
6570 Clear 20 1016 64 10000 3.6 200 07:50 16.03.2020
6571 Clear 19 1016 72 10000 3.1 190 07:27 16.03.2020
6572 Clear 18 1015 77 6000 3.6 170 06:54 16.03.2020
6573 Clear 17 1015 77 6000 3.1 160 06:25 16.03.2020
6574 Clear 16 1015 82 6000 4.6 160 05:42 16.03.2020
6575 Clouds 17 1014 82 6000 4.1 150 02:45 16.03.2020
6576 Clouds 17 1015 82 10000 3.6 160 01:20 16.03.2020
6577 Clouds 18 1015 77 10000 3.6 160 00:40 16.03.2020
6578 Clouds 18 1015 72 10000 0.9 73 23:48 15.03.2020
6579 Clouds 18 1015 72 10000 1.56 34 23:20 15.03.2020
6580 Clouds 18 1015 72 10000 3.6 150 22:43 15.03.2020
6581 Clouds 18 1015 72 10000 3.6 150 22:23 15.03.2020
6582 Clouds 18 1016 72 10000 3.6 150 21:59 15.03.2020
6583 Clouds 18 1016 68 10000 3.6 150 21:38 15.03.2020
6584 Clouds 19 1016 68 10000 3.6 150 21:19 15.03.2020
6585 Clouds 19 1016 56 10000 2.6 160 20:43 15.03.2020
6586 Clouds 20 1016 56 10000 2.6 160 20:22 15.03.2020
6587 Clouds 20 1016 56 10000 2.6 160 19:58 15.03.2020
6588 Clouds 21 1016 49 10000 2.1 240 19:40 15.03.2020
6589 Clouds 21 1016 49 10000 2.1 240 19:21 15.03.2020
6590 Clouds 21 1016 49 10000 1.5 230 18:56 15.03.2020
6591 Clouds 21 1015 49 10000 1.5 250 18:38 15.03.2020
6592 Clouds 21 1015 49 10000 1.5 250 18:20 15.03.2020
6593 Clouds 22 1015 35 10000 3.1 240 17:41 15.03.2020
6594 Clouds 23 1015 35 10000 3.1 240 17:22 15.03.2020
6595 Clouds 23 1015 36 6000 4.6 250 16:59 15.03.2020
6596 Clouds 24 1015 38 6000 4.6 260 16:40 15.03.2020
6597 Clouds 24 1015 38 6000 4.6 260 16:21 15.03.2020
6598 Clouds 24 1015 44 6000 4.1 250 15:54 15.03.2020
6599 Clouds 24 1015 53 6000 4.6 220 15:36 15.03.2020
6600 Clouds 24 1015 53 6000 4.6 210 15:18 15.03.2020
6601 Clouds 23 1015 56 6000 4.6 210 14:39 15.03.2020
6602 Clouds 23 1015 56 6000 4.6 210 14:21 15.03.2020
6603 Clouds 23 1015 56 6000 4.6 210 13:56 15.03.2020
6604 Clouds 23 1015 60 6000 4.6 220 13:37 15.03.2020
6605 Clouds 23 1015 60 6000 4.6 220 13:18 15.03.2020
6606 Clouds 22 1016 64 10000 4.1 220 12:40 15.03.2020
6607 Clouds 22 1016 64 10000 4.1 220 12:22 15.03.2020
6608 Clouds 22 1017 64 10000 3.6 220 11:44 15.03.2020
6609 Clouds 22 1017 64 10000 3.6 220 11:25 15.03.2020
6610 Clouds 22 1017 68 10000 2.6 190 10:59 15.03.2020
6611 Clouds 21 1017 73 6000 2.1 180 10:40 15.03.2020
6612 Clouds 21 1017 73 6000 2.1 180 10:22 15.03.2020
6613 Clouds 21 1017 73 6000 2.1 180 09:59 15.03.2020
6614 Mist 21 1017 73 3000 2.1 180 09:38 15.03.2020
6615 Mist 21 1017 73 3000 2.1 180 09:20 15.03.2020
6616 Mist 20 1017 82 3000 3.6 180 08:41 15.03.2020
6617 Mist 20 1017 82 3000 3.6 180 08:20 15.03.2020
6618 Mist 18 1017 100 3000 2.1 180 07:50 15.03.2020
6619 Mist 16 1017 100 3000 3.6 150 07:23 15.03.2020
6620 Mist 16 1017 100 3000 3.6 150 06:44 15.03.2020
6621 Mist 16 1017 100 3000 2.6 150 05:49 15.03.2020
6622 Mist 16 1017 100 3000 3.6 150 04:58 15.03.2020
6623 Mist 16 1017 100 3000 3.6 150 04:40 15.03.2020
6624 Mist 16 1017 100 3000 3.6 150 04:20 15.03.2020
6625 Mist 16 1017 100 3000 1.23 131 03:24 15.03.2020
6626 Mist 16 1017 100 3000 1.23 131 02:36 15.03.2020
6627 Mist 16 1017 100 3000 2.6 110 01:19 15.03.2020
6628 Mist 16 1018 100 3000 2.1 80 00:42 15.03.2020
6629 Mist 16 1018 100 3000 2.1 80 00:20 15.03.2020
6630 Mist 17 1018 88 3000 2.1 80 23:41 14.03.2020
6631 Mist 17 1018 88 3000 2.1 80 23:20 14.03.2020
6632 Mist 17 1018 82 3000 2.1 20 22:57 14.03.2020
6633 Mist 18 1018 82 3000 2.1 340 22:38 14.03.2020
6634 Mist 18 1018 82 3000 2.1 340 22:20 14.03.2020
6635 Clouds 18 1018 77 6000 2.1 340 21:56 14.03.2020
6636 Clouds 19 1017 77 6000 2.1 340 21:36 14.03.2020
6637 Clouds 19 1017 77 6000 2.1 340 21:18 14.03.2020
6638 Clouds 19 1017 77 6000 3.1 360 20:58 14.03.2020
6639 Clouds 19 1017 68 6000 3.1 360 20:39 14.03.2020
6640 Clouds 20 1017 68 6000 3.1 360 20:18 14.03.2020
6641 Clouds 20 1016 72 0 1.79 300 19:42 14.03.2020
6642 Clouds 20 1016 72 6000 2.1 300 19:24 14.03.2020
6643 Clouds 20 1016 72 0 1.79 300 18:41 14.03.2020
6644 Clouds 21 1015 68 10000 2.6 310 18:22 14.03.2020
6645 Clouds 21 1015 68 10000 2.6 310 17:56 14.03.2020
6646 Clouds 22 1015 60 0 2.24 280 17:37 14.03.2020
6647 Clouds 22 1015 60 10000 2.6 280 17:19 14.03.2020
6648 Rain 22 1014 60 0 1.79 300 16:40 14.03.2020
6649 Clouds 22 1014 60 10000 2.1 300 16:22 14.03.2020
6650 Clouds 22 1014 60 10000 2.1 300 15:54 14.03.2020
6651 Clouds 22 1014 60 10000 2.1 280 15:26 14.03.2020
6652 Clouds 22 1014 60 10000 2.1 280 14:55 14.03.2020
6653 Clouds 22 1014 64 10000 3.6 270 14:36 14.03.2020
6654 Clouds 22 1014 64 10000 3.6 270 14:18 14.03.2020
6655 Clouds 22 1014 64 10000 4.1 270 13:42 14.03.2020
6656 Clouds 22 1014 64 10000 4.1 270 13:23 14.03.2020
6657 Clouds 22 1015 64 10000 4.1 290 12:47 14.03.2020
6658 Clouds 22 1015 64 10000 4.1 290 12:27 14.03.2020
6659 Clouds 21 1015 68 10000 3.6 280 11:57 14.03.2020
6660 Clouds 21 1015 68 10000 3.6 300 11:38 14.03.2020
6661 Clouds 20 1015 72 10000 2.6 250 11:20 14.03.2020
6662 Clouds 21 1015 68 10000 3.6 300 11:20 14.03.2020
6663 Clouds 19 1015 77 10000 2.6 260 10:45 14.03.2020
6664 Clouds 19 1015 77 10000 2.6 260 10:27 14.03.2020
6665 Clouds 19 1015 77 6000 3.6 240 09:57 14.03.2020
6666 Clouds 18 1015 88 6000 3.6 260 09:39 14.03.2020
6667 Clouds 18 1015 88 6000 3.6 260 09:19 14.03.2020
6668 Clouds 17 1014 93 6000 3.6 280 08:45 14.03.2020
6669 Clouds 17 1014 93 6000 3.6 280 08:22 14.03.2020
6670 Clouds 16 1013 100 6000 2.6 270 07:39 14.03.2020
6671 Clouds 16 1013 100 6000 2.6 270 07:39 14.03.2020
6672 Clouds 16 1013 100 6000 2.6 270 07:20 14.03.2020
6673 Clouds 16 1013 100 6000 3.1 260 06:41 14.03.2020
6674 Clouds 16 1012 100 6000 2.1 250 05:56 14.03.2020
6675 Clouds 16 1012 100 6000 2.6 260 04:51 14.03.2020
6676 Mist 16 1010 100 4000 4.6 270 03:25 14.03.2020
6677 Mist 16 1010 100 4000 3.6 270 02:35 14.03.2020
6678 Mist 16 1010 100 4000 3.6 270 02:35 14.03.2020
6679 Mist 16 1009 100 4000 4.6 260 01:27 14.03.2020
6680 Mist 16 1009 100 4000 4.1 250 00:22 14.03.2020
6681 Rain 16 1008 100 2000 4.1 230 23:38 13.03.2020
6682 Rain 16 1008 100 2000 4.1 230 23:18 13.03.2020
6683 Clouds 16 1008 100 6000 4.6 220 22:41 13.03.2020
6684